<?xml version="1.0" encoding="UTF-8" standalone="no" ?>
<gpx xmlns="http://www.topografix.com/GPX/1/1" xmlns:xsi="http://www.w3.org/2001/XMLSchema-instance" xsi:schemaLocation="http://www.topografix.com/GPX/1/1 http://www.topografix.com/GPX/1/1/gpx.xsd" version="1.1" creator="VisuGPX - https://www.visugpx.com">
  <metadata>
    <name>Graye-et-Charnay Cyclisme sur route</name>
  </metadata>
  <trk>
    <name><![CDATA[Graye-et-Charnay Cyclisme sur route_1]]></name>
    <trkseg>
      <trkpt lat="46.46466" lon="5.45218">
        <ele>374.6</ele>
        <time>2021-10-25T10:34:38Z</time>
      </trkpt>
      <trkpt lat="46.46466" lon="5.45218">
        <ele>370</ele>
        <time>2021-10-25T10:34:39Z</time>
      </trkpt>
      <trkpt lat="46.46453" lon="5.45229">
        <ele>369.2</ele>
        <time>2021-10-25T10:36:46Z</time>
      </trkpt>
      <trkpt lat="46.4646" lon="5.45232">
        <ele>369.2</ele>
        <time>2021-10-25T10:36:48Z</time>
      </trkpt>
      <trkpt lat="46.46467" lon="5.45237">
        <ele>369.2</ele>
        <time>2021-10-25T10:36:50Z</time>
      </trkpt>
      <trkpt lat="46.46486" lon="5.45244">
        <ele>369.2</ele>
        <time>2021-10-25T10:36:54Z</time>
      </trkpt>
      <trkpt lat="46.46496" lon="5.45248">
        <ele>369.2</ele>
        <time>2021-10-25T10:36:56Z</time>
      </trkpt>
      <trkpt lat="46.46508" lon="5.45252">
        <ele>369.2</ele>
        <time>2021-10-25T10:36:58Z</time>
      </trkpt>
      <trkpt lat="46.46539" lon="5.45265">
        <ele>369.2</ele>
        <time>2021-10-25T10:37:04Z</time>
      </trkpt>
      <trkpt lat="46.46576" lon="5.45274">
        <ele>369.6</ele>
        <time>2021-10-25T10:37:11Z</time>
      </trkpt>
      <trkpt lat="46.46593" lon="5.45272">
        <ele>369.6</ele>
        <time>2021-10-25T10:37:14Z</time>
      </trkpt>
      <trkpt lat="46.46608" lon="5.45266">
        <ele>369.8</ele>
        <time>2021-10-25T10:37:17Z</time>
      </trkpt>
      <trkpt lat="46.46637" lon="5.45258">
        <ele>370.2</ele>
        <time>2021-10-25T10:37:23Z</time>
      </trkpt>
      <trkpt lat="46.46642" lon="5.45258">
        <ele>370.4</ele>
        <time>2021-10-25T10:37:24Z</time>
      </trkpt>
      <trkpt lat="46.46646" lon="5.45258">
        <ele>370.6</ele>
        <time>2021-10-25T10:37:25Z</time>
      </trkpt>
      <trkpt lat="46.46661" lon="5.45258">
        <ele>371</ele>
        <time>2021-10-25T10:37:28Z</time>
      </trkpt>
      <trkpt lat="46.46666" lon="5.45258">
        <ele>371.2</ele>
        <time>2021-10-25T10:37:29Z</time>
      </trkpt>
      <trkpt lat="46.46671" lon="5.45259">
        <ele>371.2</ele>
        <time>2021-10-25T10:37:30Z</time>
      </trkpt>
      <trkpt lat="46.4669" lon="5.45263">
        <ele>372</ele>
        <time>2021-10-25T10:37:34Z</time>
      </trkpt>
      <trkpt lat="46.46713" lon="5.45271">
        <ele>372.6</ele>
        <time>2021-10-25T10:37:39Z</time>
      </trkpt>
      <trkpt lat="46.46718" lon="5.45274">
        <ele>372.6</ele>
        <time>2021-10-25T10:37:40Z</time>
      </trkpt>
      <trkpt lat="46.46739" lon="5.45287">
        <ele>372.8</ele>
        <time>2021-10-25T10:37:44Z</time>
      </trkpt>
      <trkpt lat="46.46745" lon="5.4529">
        <ele>372.8</ele>
        <time>2021-10-25T10:37:45Z</time>
      </trkpt>
      <trkpt lat="46.46768" lon="5.45297">
        <ele>372.6</ele>
        <time>2021-10-25T10:37:49Z</time>
      </trkpt>
      <trkpt lat="46.46798" lon="5.45309">
        <ele>373.2</ele>
        <time>2021-10-25T10:37:55Z</time>
      </trkpt>
      <trkpt lat="46.46803" lon="5.45312">
        <ele>373.2</ele>
        <time>2021-10-25T10:37:56Z</time>
      </trkpt>
      <trkpt lat="46.46832" lon="5.45328">
        <ele>373.8</ele>
        <time>2021-10-25T10:38:02Z</time>
      </trkpt>
      <trkpt lat="46.46836" lon="5.45328">
        <ele>374</ele>
        <time>2021-10-25T10:38:03Z</time>
      </trkpt>
      <trkpt lat="46.46841" lon="5.45329">
        <ele>374.2</ele>
        <time>2021-10-25T10:38:04Z</time>
      </trkpt>
      <trkpt lat="46.46864" lon="5.45327">
        <ele>374.8</ele>
        <time>2021-10-25T10:38:09Z</time>
      </trkpt>
      <trkpt lat="46.46883" lon="5.45321">
        <ele>375.2</ele>
        <time>2021-10-25T10:38:13Z</time>
      </trkpt>
      <trkpt lat="46.46892" lon="5.45317">
        <ele>375.2</ele>
        <time>2021-10-25T10:38:15Z</time>
      </trkpt>
      <trkpt lat="46.46897" lon="5.45317">
        <ele>375.2</ele>
        <time>2021-10-25T10:38:16Z</time>
      </trkpt>
      <trkpt lat="46.46902" lon="5.45317">
        <ele>375.2</ele>
        <time>2021-10-25T10:38:17Z</time>
      </trkpt>
      <trkpt lat="46.4691" lon="5.45325">
        <ele>375.2</ele>
        <time>2021-10-25T10:38:19Z</time>
      </trkpt>
      <trkpt lat="46.46917" lon="5.45349">
        <ele>375.2</ele>
        <time>2021-10-25T10:38:22Z</time>
      </trkpt>
      <trkpt lat="46.46919" lon="5.45358">
        <ele>375</ele>
        <time>2021-10-25T10:38:23Z</time>
      </trkpt>
      <trkpt lat="46.46926" lon="5.45388">
        <ele>374.2</ele>
        <time>2021-10-25T10:38:26Z</time>
      </trkpt>
      <trkpt lat="46.46932" lon="5.4542">
        <ele>373.4</ele>
        <time>2021-10-25T10:38:29Z</time>
      </trkpt>
      <trkpt lat="46.46937" lon="5.45442">
        <ele>372.8</ele>
        <time>2021-10-25T10:38:31Z</time>
      </trkpt>
      <trkpt lat="46.4694" lon="5.45453">
        <ele>372.4</ele>
        <time>2021-10-25T10:38:32Z</time>
      </trkpt>
      <trkpt lat="46.46946" lon="5.45463">
        <ele>372.4</ele>
        <time>2021-10-25T10:38:33Z</time>
      </trkpt>
      <trkpt lat="46.46951" lon="5.45469">
        <ele>372</ele>
        <time>2021-10-25T10:38:34Z</time>
      </trkpt>
      <trkpt lat="46.46958" lon="5.45475">
        <ele>371.8</ele>
        <time>2021-10-25T10:38:35Z</time>
      </trkpt>
      <trkpt lat="46.46964" lon="5.45481">
        <ele>371.4</ele>
        <time>2021-10-25T10:38:36Z</time>
      </trkpt>
      <trkpt lat="46.46976" lon="5.45492">
        <ele>371.2</ele>
        <time>2021-10-25T10:38:38Z</time>
      </trkpt>
      <trkpt lat="46.46981" lon="5.45499">
        <ele>371</ele>
        <time>2021-10-25T10:38:39Z</time>
      </trkpt>
      <trkpt lat="46.46985" lon="5.45508">
        <ele>371</ele>
        <time>2021-10-25T10:38:40Z</time>
      </trkpt>
      <trkpt lat="46.46987" lon="5.45518">
        <ele>370.8</ele>
        <time>2021-10-25T10:38:41Z</time>
      </trkpt>
      <trkpt lat="46.46987" lon="5.45528">
        <ele>370.8</ele>
        <time>2021-10-25T10:38:42Z</time>
      </trkpt>
      <trkpt lat="46.46986" lon="5.45538">
        <ele>370.6</ele>
        <time>2021-10-25T10:38:43Z</time>
      </trkpt>
      <trkpt lat="46.46984" lon="5.45549">
        <ele>370.6</ele>
        <time>2021-10-25T10:38:44Z</time>
      </trkpt>
      <trkpt lat="46.46979" lon="5.45567">
        <ele>370.4</ele>
        <time>2021-10-25T10:38:46Z</time>
      </trkpt>
      <trkpt lat="46.46977" lon="5.45574">
        <ele>370.4</ele>
        <time>2021-10-25T10:38:47Z</time>
      </trkpt>
      <trkpt lat="46.46974" lon="5.45583">
        <ele>370.6</ele>
        <time>2021-10-25T10:38:48Z</time>
      </trkpt>
      <trkpt lat="46.46972" lon="5.456">
        <ele>370.8</ele>
        <time>2021-10-25T10:38:50Z</time>
      </trkpt>
      <trkpt lat="46.46972" lon="5.45609">
        <ele>370.8</ele>
        <time>2021-10-25T10:38:51Z</time>
      </trkpt>
      <trkpt lat="46.46972" lon="5.45618">
        <ele>370.8</ele>
        <time>2021-10-25T10:38:52Z</time>
      </trkpt>
      <trkpt lat="46.46977" lon="5.45634">
        <ele>371</ele>
        <time>2021-10-25T10:38:54Z</time>
      </trkpt>
      <trkpt lat="46.46985" lon="5.4565">
        <ele>371</ele>
        <time>2021-10-25T10:38:56Z</time>
      </trkpt>
      <trkpt lat="46.46989" lon="5.45668">
        <ele>371</ele>
        <time>2021-10-25T10:38:58Z</time>
      </trkpt>
      <trkpt lat="46.46987" lon="5.45686">
        <ele>371</ele>
        <time>2021-10-25T10:39:00Z</time>
      </trkpt>
      <trkpt lat="46.46983" lon="5.45704">
        <ele>371</ele>
        <time>2021-10-25T10:39:02Z</time>
      </trkpt>
      <trkpt lat="46.46971" lon="5.45746">
        <ele>370.2</ele>
        <time>2021-10-25T10:39:07Z</time>
      </trkpt>
      <trkpt lat="46.4697" lon="5.45755">
        <ele>370.2</ele>
        <time>2021-10-25T10:39:08Z</time>
      </trkpt>
      <trkpt lat="46.4697" lon="5.45764">
        <ele>370.2</ele>
        <time>2021-10-25T10:39:09Z</time>
      </trkpt>
      <trkpt lat="46.46974" lon="5.4578">
        <ele>370.4</ele>
        <time>2021-10-25T10:39:11Z</time>
      </trkpt>
      <trkpt lat="46.46982" lon="5.45795">
        <ele>370.4</ele>
        <time>2021-10-25T10:39:13Z</time>
      </trkpt>
      <trkpt lat="46.46991" lon="5.45807">
        <ele>370.6</ele>
        <time>2021-10-25T10:39:15Z</time>
      </trkpt>
      <trkpt lat="46.47001" lon="5.45819">
        <ele>370.8</ele>
        <time>2021-10-25T10:39:17Z</time>
      </trkpt>
      <trkpt lat="46.47028" lon="5.45846">
        <ele>371.2</ele>
        <time>2021-10-25T10:39:22Z</time>
      </trkpt>
      <trkpt lat="46.47052" lon="5.45863">
        <ele>371.2</ele>
        <time>2021-10-25T10:39:26Z</time>
      </trkpt>
      <trkpt lat="46.47065" lon="5.45868">
        <ele>371</ele>
        <time>2021-10-25T10:39:28Z</time>
      </trkpt>
      <trkpt lat="46.47117" lon="5.45888">
        <ele>370.6</ele>
        <time>2021-10-25T10:39:36Z</time>
      </trkpt>
      <trkpt lat="46.47124" lon="5.45892">
        <ele>370.6</ele>
        <time>2021-10-25T10:39:37Z</time>
      </trkpt>
      <trkpt lat="46.47143" lon="5.45905">
        <ele>370.4</ele>
        <time>2021-10-25T10:39:40Z</time>
      </trkpt>
      <trkpt lat="46.47153" lon="5.45918">
        <ele>370.2</ele>
        <time>2021-10-25T10:39:42Z</time>
      </trkpt>
      <trkpt lat="46.4718" lon="5.45972">
        <ele>371</ele>
        <time>2021-10-25T10:39:49Z</time>
      </trkpt>
      <trkpt lat="46.47192" lon="5.45994">
        <ele>371.4</ele>
        <time>2021-10-25T10:39:52Z</time>
      </trkpt>
      <trkpt lat="46.47195" lon="5.46001">
        <ele>371.8</ele>
        <time>2021-10-25T10:39:53Z</time>
      </trkpt>
      <trkpt lat="46.47207" lon="5.46023">
        <ele>372.2</ele>
        <time>2021-10-25T10:39:56Z</time>
      </trkpt>
      <trkpt lat="46.4722" lon="5.46053">
        <ele>373</ele>
        <time>2021-10-25T10:40:00Z</time>
      </trkpt>
      <trkpt lat="46.47228" lon="5.46066">
        <ele>373</ele>
        <time>2021-10-25T10:40:02Z</time>
      </trkpt>
      <trkpt lat="46.47233" lon="5.46072">
        <ele>373.2</ele>
        <time>2021-10-25T10:40:03Z</time>
      </trkpt>
      <trkpt lat="46.47238" lon="5.46077">
        <ele>373.4</ele>
        <time>2021-10-25T10:40:04Z</time>
      </trkpt>
      <trkpt lat="46.47254" lon="5.46086">
        <ele>373.6</ele>
        <time>2021-10-25T10:40:07Z</time>
      </trkpt>
      <trkpt lat="46.47279" lon="5.46097">
        <ele>374.2</ele>
        <time>2021-10-25T10:40:11Z</time>
      </trkpt>
      <trkpt lat="46.47309" lon="5.4611">
        <ele>374.2</ele>
        <time>2021-10-25T10:40:16Z</time>
      </trkpt>
      <trkpt lat="46.47357" lon="5.46139">
        <ele>374</ele>
        <time>2021-10-25T10:40:24Z</time>
      </trkpt>
      <trkpt lat="46.47397" lon="5.46175">
        <ele>374.4</ele>
        <time>2021-10-25T10:40:32Z</time>
      </trkpt>
      <trkpt lat="46.47401" lon="5.46181">
        <ele>374.6</ele>
        <time>2021-10-25T10:40:33Z</time>
      </trkpt>
      <trkpt lat="46.47405" lon="5.4619">
        <ele>374.6</ele>
        <time>2021-10-25T10:40:34Z</time>
      </trkpt>
      <trkpt lat="46.47412" lon="5.46215">
        <ele>374.8</ele>
        <time>2021-10-25T10:40:37Z</time>
      </trkpt>
      <trkpt lat="46.47419" lon="5.4624">
        <ele>374.6</ele>
        <time>2021-10-25T10:40:40Z</time>
      </trkpt>
      <trkpt lat="46.4742" lon="5.46258">
        <ele>374.6</ele>
        <time>2021-10-25T10:40:42Z</time>
      </trkpt>
      <trkpt lat="46.47418" lon="5.46272">
        <ele>374.6</ele>
        <time>2021-10-25T10:40:44Z</time>
      </trkpt>
      <trkpt lat="46.47412" lon="5.4629">
        <ele>374.6</ele>
        <time>2021-10-25T10:40:46Z</time>
      </trkpt>
      <trkpt lat="46.47393" lon="5.46353">
        <ele>374.2</ele>
        <time>2021-10-25T10:40:54Z</time>
      </trkpt>
      <trkpt lat="46.47379" lon="5.46411">
        <ele>373.4</ele>
        <time>2021-10-25T10:41:01Z</time>
      </trkpt>
      <trkpt lat="46.47378" lon="5.46416">
        <ele>373.4</ele>
        <time>2021-10-25T10:41:02Z</time>
      </trkpt>
      <trkpt lat="46.47375" lon="5.46425">
        <ele>373.2</ele>
        <time>2021-10-25T10:41:05Z</time>
      </trkpt>
      <trkpt lat="46.47377" lon="5.46431">
        <ele>373.2</ele>
        <time>2021-10-25T10:41:07Z</time>
      </trkpt>
      <trkpt lat="46.47385" lon="5.46432">
        <ele>373.2</ele>
        <time>2021-10-25T10:41:09Z</time>
      </trkpt>
      <trkpt lat="46.4741" lon="5.46436">
        <ele>373.4</ele>
        <time>2021-10-25T10:41:14Z</time>
      </trkpt>
      <trkpt lat="46.47453" lon="5.46444">
        <ele>374</ele>
        <time>2021-10-25T10:41:21Z</time>
      </trkpt>
      <trkpt lat="46.4751" lon="5.46454">
        <ele>375.2</ele>
        <time>2021-10-25T10:41:31Z</time>
      </trkpt>
      <trkpt lat="46.47516" lon="5.46455">
        <ele>375.2</ele>
        <time>2021-10-25T10:41:32Z</time>
      </trkpt>
      <trkpt lat="46.47521" lon="5.46456">
        <ele>375.2</ele>
        <time>2021-10-25T10:41:33Z</time>
      </trkpt>
      <trkpt lat="46.47573" lon="5.46465">
        <ele>376.2</ele>
        <time>2021-10-25T10:41:42Z</time>
      </trkpt>
      <trkpt lat="46.47584" lon="5.46467">
        <ele>376.4</ele>
        <time>2021-10-25T10:41:44Z</time>
      </trkpt>
      <trkpt lat="46.47634" lon="5.46476">
        <ele>377.2</ele>
        <time>2021-10-25T10:41:53Z</time>
      </trkpt>
      <trkpt lat="46.47639" lon="5.46477">
        <ele>377.2</ele>
        <time>2021-10-25T10:41:54Z</time>
      </trkpt>
      <trkpt lat="46.47651" lon="5.46479">
        <ele>377.4</ele>
        <time>2021-10-25T10:41:56Z</time>
      </trkpt>
      <trkpt lat="46.47706" lon="5.4649">
        <ele>377.8</ele>
        <time>2021-10-25T10:42:05Z</time>
      </trkpt>
      <trkpt lat="46.47719" lon="5.46492">
        <ele>377.8</ele>
        <time>2021-10-25T10:42:07Z</time>
      </trkpt>
      <trkpt lat="46.47778" lon="5.46503">
        <ele>378</ele>
        <time>2021-10-25T10:42:16Z</time>
      </trkpt>
      <trkpt lat="46.47791" lon="5.46505">
        <ele>378</ele>
        <time>2021-10-25T10:42:18Z</time>
      </trkpt>
      <trkpt lat="46.47848" lon="5.46515">
        <ele>378.2</ele>
        <time>2021-10-25T10:42:27Z</time>
      </trkpt>
      <trkpt lat="46.47854" lon="5.46517">
        <ele>378.4</ele>
        <time>2021-10-25T10:42:28Z</time>
      </trkpt>
      <trkpt lat="46.4788" lon="5.46521">
        <ele>378.6</ele>
        <time>2021-10-25T10:42:32Z</time>
      </trkpt>
      <trkpt lat="46.47939" lon="5.46531">
        <ele>378.6</ele>
        <time>2021-10-25T10:42:41Z</time>
      </trkpt>
      <trkpt lat="46.47958" lon="5.46535">
        <ele>378.8</ele>
        <time>2021-10-25T10:42:44Z</time>
      </trkpt>
      <trkpt lat="46.48019" lon="5.46546">
        <ele>379</ele>
        <time>2021-10-25T10:42:53Z</time>
      </trkpt>
      <trkpt lat="46.48039" lon="5.46549">
        <ele>379</ele>
        <time>2021-10-25T10:42:56Z</time>
      </trkpt>
      <trkpt lat="46.48095" lon="5.46559">
        <ele>379</ele>
        <time>2021-10-25T10:43:04Z</time>
      </trkpt>
      <trkpt lat="46.4811" lon="5.46562">
        <ele>379</ele>
        <time>2021-10-25T10:43:06Z</time>
      </trkpt>
      <trkpt lat="46.48117" lon="5.46563">
        <ele>379</ele>
        <time>2021-10-25T10:43:07Z</time>
      </trkpt>
      <trkpt lat="46.48174" lon="5.46573">
        <ele>378.4</ele>
        <time>2021-10-25T10:43:15Z</time>
      </trkpt>
      <trkpt lat="46.48189" lon="5.46576">
        <ele>378.4</ele>
        <time>2021-10-25T10:43:17Z</time>
      </trkpt>
      <trkpt lat="46.48246" lon="5.46586">
        <ele>378.4</ele>
        <time>2021-10-25T10:43:25Z</time>
      </trkpt>
      <trkpt lat="46.48267" lon="5.46589">
        <ele>378.2</ele>
        <time>2021-10-25T10:43:28Z</time>
      </trkpt>
      <trkpt lat="46.48322" lon="5.46602">
        <ele>377.6</ele>
        <time>2021-10-25T10:43:36Z</time>
      </trkpt>
      <trkpt lat="46.48333" lon="5.4661">
        <ele>377.4</ele>
        <time>2021-10-25T10:43:38Z</time>
      </trkpt>
      <trkpt lat="46.48336" lon="5.46618">
        <ele>377.2</ele>
        <time>2021-10-25T10:43:39Z</time>
      </trkpt>
      <trkpt lat="46.48336" lon="5.46627">
        <ele>377.2</ele>
        <time>2021-10-25T10:43:40Z</time>
      </trkpt>
      <trkpt lat="46.48334" lon="5.46636">
        <ele>377.2</ele>
        <time>2021-10-25T10:43:41Z</time>
      </trkpt>
      <trkpt lat="46.48331" lon="5.46644">
        <ele>377.2</ele>
        <time>2021-10-25T10:43:42Z</time>
      </trkpt>
      <trkpt lat="46.48321" lon="5.46668">
        <ele>377.2</ele>
        <time>2021-10-25T10:43:45Z</time>
      </trkpt>
      <trkpt lat="46.48294" lon="5.46737">
        <ele>377.2</ele>
        <time>2021-10-25T10:43:54Z</time>
      </trkpt>
      <trkpt lat="46.48288" lon="5.46751">
        <ele>377.2</ele>
        <time>2021-10-25T10:43:56Z</time>
      </trkpt>
      <trkpt lat="46.48268" lon="5.468">
        <ele>377.8</ele>
        <time>2021-10-25T10:44:03Z</time>
      </trkpt>
      <trkpt lat="46.48253" lon="5.46841">
        <ele>378.6</ele>
        <time>2021-10-25T10:44:09Z</time>
      </trkpt>
      <trkpt lat="46.48247" lon="5.46854">
        <ele>379</ele>
        <time>2021-10-25T10:44:11Z</time>
      </trkpt>
      <trkpt lat="46.48232" lon="5.46892">
        <ele>379.4</ele>
        <time>2021-10-25T10:44:17Z</time>
      </trkpt>
      <trkpt lat="46.48227" lon="5.46905">
        <ele>379.6</ele>
        <time>2021-10-25T10:44:19Z</time>
      </trkpt>
      <trkpt lat="46.48203" lon="5.46952">
        <ele>380.6</ele>
        <time>2021-10-25T10:44:27Z</time>
      </trkpt>
      <trkpt lat="46.48197" lon="5.46961">
        <ele>381</ele>
        <time>2021-10-25T10:44:29Z</time>
      </trkpt>
      <trkpt lat="46.48181" lon="5.46986">
        <ele>381.6</ele>
        <time>2021-10-25T10:44:34Z</time>
      </trkpt>
      <trkpt lat="46.48165" lon="5.47011">
        <ele>382.4</ele>
        <time>2021-10-25T10:44:39Z</time>
      </trkpt>
      <trkpt lat="46.48156" lon="5.47026">
        <ele>382.8</ele>
        <time>2021-10-25T10:44:42Z</time>
      </trkpt>
      <trkpt lat="46.48141" lon="5.47049">
        <ele>383.6</ele>
        <time>2021-10-25T10:44:47Z</time>
      </trkpt>
      <trkpt lat="46.48139" lon="5.47054">
        <ele>383.8</ele>
        <time>2021-10-25T10:44:48Z</time>
      </trkpt>
      <trkpt lat="46.48128" lon="5.47081">
        <ele>385</ele>
        <time>2021-10-25T10:44:53Z</time>
      </trkpt>
      <trkpt lat="46.48123" lon="5.47094">
        <ele>385.2</ele>
        <time>2021-10-25T10:44:55Z</time>
      </trkpt>
      <trkpt lat="46.48109" lon="5.47141">
        <ele>385.4</ele>
        <time>2021-10-25T10:45:02Z</time>
      </trkpt>
      <trkpt lat="46.481" lon="5.47175">
        <ele>385.8</ele>
        <time>2021-10-25T10:45:07Z</time>
      </trkpt>
      <trkpt lat="46.48094" lon="5.47201">
        <ele>386.2</ele>
        <time>2021-10-25T10:45:11Z</time>
      </trkpt>
      <trkpt lat="46.48085" lon="5.4724">
        <ele>386.8</ele>
        <time>2021-10-25T10:45:17Z</time>
      </trkpt>
      <trkpt lat="46.4808" lon="5.47259">
        <ele>387.2</ele>
        <time>2021-10-25T10:45:20Z</time>
      </trkpt>
      <trkpt lat="46.48077" lon="5.47285">
        <ele>388</ele>
        <time>2021-10-25T10:45:24Z</time>
      </trkpt>
      <trkpt lat="46.48076" lon="5.47291">
        <ele>388.2</ele>
        <time>2021-10-25T10:45:25Z</time>
      </trkpt>
      <trkpt lat="46.48076" lon="5.47298">
        <ele>388.6</ele>
        <time>2021-10-25T10:45:26Z</time>
      </trkpt>
      <trkpt lat="46.48077" lon="5.47317">
        <ele>388.8</ele>
        <time>2021-10-25T10:45:29Z</time>
      </trkpt>
      <trkpt lat="46.48078" lon="5.47324">
        <ele>389</ele>
        <time>2021-10-25T10:45:30Z</time>
      </trkpt>
      <trkpt lat="46.4808" lon="5.47337">
        <ele>389.2</ele>
        <time>2021-10-25T10:45:32Z</time>
      </trkpt>
      <trkpt lat="46.48085" lon="5.47359">
        <ele>389.4</ele>
        <time>2021-10-25T10:45:35Z</time>
      </trkpt>
      <trkpt lat="46.48087" lon="5.47367">
        <ele>389.4</ele>
        <time>2021-10-25T10:45:36Z</time>
      </trkpt>
      <trkpt lat="46.48089" lon="5.47376">
        <ele>389.4</ele>
        <time>2021-10-25T10:45:37Z</time>
      </trkpt>
      <trkpt lat="46.48093" lon="5.47401">
        <ele>389.2</ele>
        <time>2021-10-25T10:45:40Z</time>
      </trkpt>
      <trkpt lat="46.48097" lon="5.47443">
        <ele>389.2</ele>
        <time>2021-10-25T10:45:45Z</time>
      </trkpt>
      <trkpt lat="46.48095" lon="5.47514">
        <ele>389.6</ele>
        <time>2021-10-25T10:45:53Z</time>
      </trkpt>
      <trkpt lat="46.48094" lon="5.4752">
        <ele>389.8</ele>
        <time>2021-10-25T10:45:54Z</time>
      </trkpt>
      <trkpt lat="46.48093" lon="5.47529">
        <ele>390</ele>
        <time>2021-10-25T10:45:55Z</time>
      </trkpt>
      <trkpt lat="46.48091" lon="5.47547">
        <ele>390.2</ele>
        <time>2021-10-25T10:45:57Z</time>
      </trkpt>
      <trkpt lat="46.48089" lon="5.47556">
        <ele>390.4</ele>
        <time>2021-10-25T10:45:58Z</time>
      </trkpt>
      <trkpt lat="46.48085" lon="5.47591">
        <ele>390.6</ele>
        <time>2021-10-25T10:46:02Z</time>
      </trkpt>
      <trkpt lat="46.48083" lon="5.47599">
        <ele>390.6</ele>
        <time>2021-10-25T10:46:03Z</time>
      </trkpt>
      <trkpt lat="46.48077" lon="5.47628">
        <ele>390.8</ele>
        <time>2021-10-25T10:46:07Z</time>
      </trkpt>
      <trkpt lat="46.48076" lon="5.47636">
        <ele>391</ele>
        <time>2021-10-25T10:46:08Z</time>
      </trkpt>
      <trkpt lat="46.4807" lon="5.47661">
        <ele>391.8</ele>
        <time>2021-10-25T10:46:13Z</time>
      </trkpt>
      <trkpt lat="46.48068" lon="5.47675">
        <ele>392.8</ele>
        <time>2021-10-25T10:46:16Z</time>
      </trkpt>
      <trkpt lat="46.48067" lon="5.47683">
        <ele>393.6</ele>
        <time>2021-10-25T10:46:18Z</time>
      </trkpt>
      <trkpt lat="46.48067" lon="5.47686">
        <ele>394.4</ele>
        <time>2021-10-25T10:46:19Z</time>
      </trkpt>
      <trkpt lat="46.48066" lon="5.47702">
        <ele>395.6</ele>
        <time>2021-10-25T10:46:23Z</time>
      </trkpt>
      <trkpt lat="46.48066" lon="5.47706">
        <ele>396.2</ele>
        <time>2021-10-25T10:46:24Z</time>
      </trkpt>
      <trkpt lat="46.48066" lon="5.47718">
        <ele>397</ele>
        <time>2021-10-25T10:46:27Z</time>
      </trkpt>
      <trkpt lat="46.48067" lon="5.47727">
        <ele>397.6</ele>
        <time>2021-10-25T10:46:29Z</time>
      </trkpt>
      <trkpt lat="46.48069" lon="5.47735">
        <ele>398.2</ele>
        <time>2021-10-25T10:46:31Z</time>
      </trkpt>
      <trkpt lat="46.48071" lon="5.47749">
        <ele>399</ele>
        <time>2021-10-25T10:46:34Z</time>
      </trkpt>
      <trkpt lat="46.48072" lon="5.47754">
        <ele>399.4</ele>
        <time>2021-10-25T10:46:35Z</time>
      </trkpt>
      <trkpt lat="46.48076" lon="5.47771">
        <ele>400.4</ele>
        <time>2021-10-25T10:46:39Z</time>
      </trkpt>
      <trkpt lat="46.48078" lon="5.4778">
        <ele>401</ele>
        <time>2021-10-25T10:46:41Z</time>
      </trkpt>
      <trkpt lat="46.48082" lon="5.47792">
        <ele>401.4</ele>
        <time>2021-10-25T10:46:44Z</time>
      </trkpt>
      <trkpt lat="46.48083" lon="5.47796">
        <ele>401.6</ele>
        <time>2021-10-25T10:46:45Z</time>
      </trkpt>
      <trkpt lat="46.48087" lon="5.47806">
        <ele>402</ele>
        <time>2021-10-25T10:46:48Z</time>
      </trkpt>
      <trkpt lat="46.4809" lon="5.47813">
        <ele>402.6</ele>
        <time>2021-10-25T10:46:50Z</time>
      </trkpt>
      <trkpt lat="46.48097" lon="5.47827">
        <ele>403.4</ele>
        <time>2021-10-25T10:46:54Z</time>
      </trkpt>
      <trkpt lat="46.48103" lon="5.47841">
        <ele>404</ele>
        <time>2021-10-25T10:46:58Z</time>
      </trkpt>
      <trkpt lat="46.48109" lon="5.47856">
        <ele>404.8</ele>
        <time>2021-10-25T10:47:02Z</time>
      </trkpt>
      <trkpt lat="46.48111" lon="5.4786">
        <ele>405</ele>
        <time>2021-10-25T10:47:03Z</time>
      </trkpt>
      <trkpt lat="46.4812" lon="5.47877">
        <ele>405.8</ele>
        <time>2021-10-25T10:47:08Z</time>
      </trkpt>
      <trkpt lat="46.48123" lon="5.47883">
        <ele>406.4</ele>
        <time>2021-10-25T10:47:10Z</time>
      </trkpt>
      <trkpt lat="46.48127" lon="5.47889">
        <ele>406.6</ele>
        <time>2021-10-25T10:47:12Z</time>
      </trkpt>
      <trkpt lat="46.48131" lon="5.47895">
        <ele>406.8</ele>
        <time>2021-10-25T10:47:14Z</time>
      </trkpt>
      <trkpt lat="46.4814" lon="5.47907">
        <ele>407.8</ele>
        <time>2021-10-25T10:47:18Z</time>
      </trkpt>
      <trkpt lat="46.48143" lon="5.4791">
        <ele>408.2</ele>
        <time>2021-10-25T10:47:19Z</time>
      </trkpt>
      <trkpt lat="46.48157" lon="5.47927">
        <ele>409</ele>
        <time>2021-10-25T10:47:25Z</time>
      </trkpt>
      <trkpt lat="46.48165" lon="5.47934">
        <ele>409.4</ele>
        <time>2021-10-25T10:47:28Z</time>
      </trkpt>
      <trkpt lat="46.48182" lon="5.47946">
        <ele>410.4</ele>
        <time>2021-10-25T10:47:35Z</time>
      </trkpt>
      <trkpt lat="46.48187" lon="5.47949">
        <ele>410.8</ele>
        <time>2021-10-25T10:47:37Z</time>
      </trkpt>
      <trkpt lat="46.48195" lon="5.47954">
        <ele>411.4</ele>
        <time>2021-10-25T10:47:40Z</time>
      </trkpt>
      <trkpt lat="46.48203" lon="5.47958">
        <ele>412.2</ele>
        <time>2021-10-25T10:47:43Z</time>
      </trkpt>
      <trkpt lat="46.48211" lon="5.47963">
        <ele>412.8</ele>
        <time>2021-10-25T10:47:46Z</time>
      </trkpt>
      <trkpt lat="46.48225" lon="5.4797">
        <ele>413.6</ele>
        <time>2021-10-25T10:47:51Z</time>
      </trkpt>
      <trkpt lat="46.48233" lon="5.47975">
        <ele>413.8</ele>
        <time>2021-10-25T10:47:54Z</time>
      </trkpt>
      <trkpt lat="46.48246" lon="5.47983">
        <ele>415</ele>
        <time>2021-10-25T10:47:59Z</time>
      </trkpt>
      <trkpt lat="46.48251" lon="5.47986">
        <ele>415.2</ele>
        <time>2021-10-25T10:48:01Z</time>
      </trkpt>
      <trkpt lat="46.48261" lon="5.47991">
        <ele>416.2</ele>
        <time>2021-10-25T10:48:05Z</time>
      </trkpt>
      <trkpt lat="46.48266" lon="5.47993">
        <ele>416.4</ele>
        <time>2021-10-25T10:48:07Z</time>
      </trkpt>
      <trkpt lat="46.48268" lon="5.47994">
        <ele>416.6</ele>
        <time>2021-10-25T10:48:08Z</time>
      </trkpt>
      <trkpt lat="46.48273" lon="5.47996">
        <ele>417</ele>
        <time>2021-10-25T10:48:10Z</time>
      </trkpt>
      <trkpt lat="46.48283" lon="5.48">
        <ele>418.2</ele>
        <time>2021-10-25T10:48:14Z</time>
      </trkpt>
      <trkpt lat="46.48288" lon="5.48001">
        <ele>418.6</ele>
        <time>2021-10-25T10:48:16Z</time>
      </trkpt>
      <trkpt lat="46.48296" lon="5.48004">
        <ele>419.4</ele>
        <time>2021-10-25T10:48:19Z</time>
      </trkpt>
      <trkpt lat="46.48304" lon="5.48007">
        <ele>420</ele>
        <time>2021-10-25T10:48:22Z</time>
      </trkpt>
      <trkpt lat="46.48308" lon="5.48008">
        <ele>420.4</ele>
        <time>2021-10-25T10:48:24Z</time>
      </trkpt>
      <trkpt lat="46.48324" lon="5.48014">
        <ele>421.6</ele>
        <time>2021-10-25T10:48:30Z</time>
      </trkpt>
      <trkpt lat="46.48334" lon="5.48018">
        <ele>422.6</ele>
        <time>2021-10-25T10:48:35Z</time>
      </trkpt>
      <trkpt lat="46.48339" lon="5.4802">
        <ele>423.2</ele>
        <time>2021-10-25T10:48:37Z</time>
      </trkpt>
      <trkpt lat="46.48347" lon="5.48023">
        <ele>423.8</ele>
        <time>2021-10-25T10:48:40Z</time>
      </trkpt>
      <trkpt lat="46.48357" lon="5.48027">
        <ele>424.6</ele>
        <time>2021-10-25T10:48:44Z</time>
      </trkpt>
      <trkpt lat="46.48359" lon="5.48028">
        <ele>424.8</ele>
        <time>2021-10-25T10:48:45Z</time>
      </trkpt>
      <trkpt lat="46.48364" lon="5.4803">
        <ele>425.4</ele>
        <time>2021-10-25T10:48:47Z</time>
      </trkpt>
      <trkpt lat="46.48368" lon="5.48032">
        <ele>426</ele>
        <time>2021-10-25T10:48:49Z</time>
      </trkpt>
      <trkpt lat="46.48379" lon="5.48036">
        <ele>427</ele>
        <time>2021-10-25T10:48:54Z</time>
      </trkpt>
      <trkpt lat="46.48381" lon="5.48037">
        <ele>427.4</ele>
        <time>2021-10-25T10:48:55Z</time>
      </trkpt>
      <trkpt lat="46.48388" lon="5.4804">
        <ele>428.2</ele>
        <time>2021-10-25T10:48:58Z</time>
      </trkpt>
      <trkpt lat="46.48399" lon="5.48044">
        <ele>429.2</ele>
        <time>2021-10-25T10:49:03Z</time>
      </trkpt>
      <trkpt lat="46.48404" lon="5.48047">
        <ele>430.2</ele>
        <time>2021-10-25T10:49:06Z</time>
      </trkpt>
      <trkpt lat="46.48406" lon="5.48048">
        <ele>430.6</ele>
        <time>2021-10-25T10:49:07Z</time>
      </trkpt>
      <trkpt lat="46.48408" lon="5.48049">
        <ele>430.8</ele>
        <time>2021-10-25T10:49:08Z</time>
      </trkpt>
      <trkpt lat="46.48415" lon="5.48052">
        <ele>431.6</ele>
        <time>2021-10-25T10:49:11Z</time>
      </trkpt>
      <trkpt lat="46.48419" lon="5.48055">
        <ele>432</ele>
        <time>2021-10-25T10:49:13Z</time>
      </trkpt>
      <trkpt lat="46.48431" lon="5.48061">
        <ele>432.8</ele>
        <time>2021-10-25T10:49:18Z</time>
      </trkpt>
      <trkpt lat="46.48441" lon="5.48066">
        <ele>434.2</ele>
        <time>2021-10-25T10:49:23Z</time>
      </trkpt>
      <trkpt lat="46.48443" lon="5.48067">
        <ele>434.6</ele>
        <time>2021-10-25T10:49:25Z</time>
      </trkpt>
      <trkpt lat="46.48451" lon="5.4807">
        <ele>435.4</ele>
        <time>2021-10-25T10:49:28Z</time>
      </trkpt>
      <trkpt lat="46.48463" lon="5.48073">
        <ele>436.2</ele>
        <time>2021-10-25T10:49:34Z</time>
      </trkpt>
      <trkpt lat="46.48473" lon="5.4808">
        <ele>437.2</ele>
        <time>2021-10-25T10:49:38Z</time>
      </trkpt>
      <trkpt lat="46.48481" lon="5.48085">
        <ele>438.4</ele>
        <time>2021-10-25T10:49:42Z</time>
      </trkpt>
      <trkpt lat="46.48493" lon="5.48095">
        <ele>439.6</ele>
        <time>2021-10-25T10:49:48Z</time>
      </trkpt>
      <trkpt lat="46.48498" lon="5.48099">
        <ele>440.4</ele>
        <time>2021-10-25T10:49:50Z</time>
      </trkpt>
      <trkpt lat="46.48502" lon="5.48102">
        <ele>440.6</ele>
        <time>2021-10-25T10:49:52Z</time>
      </trkpt>
      <trkpt lat="46.48511" lon="5.48109">
        <ele>441.4</ele>
        <time>2021-10-25T10:49:57Z</time>
      </trkpt>
      <trkpt lat="46.48513" lon="5.48111">
        <ele>441.8</ele>
        <time>2021-10-25T10:49:58Z</time>
      </trkpt>
      <trkpt lat="46.48524" lon="5.48119">
        <ele>443</ele>
        <time>2021-10-25T10:50:03Z</time>
      </trkpt>
      <trkpt lat="46.48529" lon="5.48124">
        <ele>443.6</ele>
        <time>2021-10-25T10:50:06Z</time>
      </trkpt>
      <trkpt lat="46.48533" lon="5.48128">
        <ele>444</ele>
        <time>2021-10-25T10:50:08Z</time>
      </trkpt>
      <trkpt lat="46.48543" lon="5.48136">
        <ele>445.2</ele>
        <time>2021-10-25T10:50:13Z</time>
      </trkpt>
      <trkpt lat="46.48549" lon="5.48141">
        <ele>446.4</ele>
        <time>2021-10-25T10:50:16Z</time>
      </trkpt>
      <trkpt lat="46.48553" lon="5.48144">
        <ele>446.6</ele>
        <time>2021-10-25T10:50:18Z</time>
      </trkpt>
      <trkpt lat="46.48559" lon="5.48147">
        <ele>447.6</ele>
        <time>2021-10-25T10:50:21Z</time>
      </trkpt>
      <trkpt lat="46.48567" lon="5.48152">
        <ele>448.4</ele>
        <time>2021-10-25T10:50:25Z</time>
      </trkpt>
      <trkpt lat="46.48569" lon="5.48154">
        <ele>448.6</ele>
        <time>2021-10-25T10:50:26Z</time>
      </trkpt>
      <trkpt lat="46.48576" lon="5.4816">
        <ele>450</ele>
        <time>2021-10-25T10:50:30Z</time>
      </trkpt>
      <trkpt lat="46.48588" lon="5.48176">
        <ele>451.2</ele>
        <time>2021-10-25T10:50:36Z</time>
      </trkpt>
      <trkpt lat="46.4859" lon="5.48178">
        <ele>451.8</ele>
        <time>2021-10-25T10:50:37Z</time>
      </trkpt>
      <trkpt lat="46.48593" lon="5.48182">
        <ele>452.2</ele>
        <time>2021-10-25T10:50:39Z</time>
      </trkpt>
      <trkpt lat="46.48597" lon="5.48187">
        <ele>452.6</ele>
        <time>2021-10-25T10:50:41Z</time>
      </trkpt>
      <trkpt lat="46.48602" lon="5.48194">
        <ele>453.2</ele>
        <time>2021-10-25T10:50:44Z</time>
      </trkpt>
      <trkpt lat="46.48605" lon="5.48198">
        <ele>453.6</ele>
        <time>2021-10-25T10:50:46Z</time>
      </trkpt>
      <trkpt lat="46.48611" lon="5.48202">
        <ele>454.2</ele>
        <time>2021-10-25T10:50:49Z</time>
      </trkpt>
      <trkpt lat="46.48613" lon="5.48204">
        <ele>454.6</ele>
        <time>2021-10-25T10:50:50Z</time>
      </trkpt>
      <trkpt lat="46.48624" lon="5.48211">
        <ele>455.6</ele>
        <time>2021-10-25T10:50:55Z</time>
      </trkpt>
      <trkpt lat="46.48636" lon="5.48223">
        <ele>456.6</ele>
        <time>2021-10-25T10:51:01Z</time>
      </trkpt>
      <trkpt lat="46.48645" lon="5.48229">
        <ele>457.6</ele>
        <time>2021-10-25T10:51:05Z</time>
      </trkpt>
      <trkpt lat="46.48656" lon="5.48237">
        <ele>459</ele>
        <time>2021-10-25T10:51:11Z</time>
      </trkpt>
      <trkpt lat="46.48658" lon="5.48239">
        <ele>459.2</ele>
        <time>2021-10-25T10:51:12Z</time>
      </trkpt>
      <trkpt lat="46.48668" lon="5.48245">
        <ele>460</ele>
        <time>2021-10-25T10:51:16Z</time>
      </trkpt>
      <trkpt lat="46.48675" lon="5.4825">
        <ele>460.6</ele>
        <time>2021-10-25T10:51:19Z</time>
      </trkpt>
      <trkpt lat="46.48679" lon="5.48253">
        <ele>461.2</ele>
        <time>2021-10-25T10:51:21Z</time>
      </trkpt>
      <trkpt lat="46.48687" lon="5.48259">
        <ele>462.2</ele>
        <time>2021-10-25T10:51:25Z</time>
      </trkpt>
      <trkpt lat="46.48689" lon="5.48261">
        <ele>462.2</ele>
        <time>2021-10-25T10:51:26Z</time>
      </trkpt>
      <trkpt lat="46.48698" lon="5.48269">
        <ele>463.4</ele>
        <time>2021-10-25T10:51:30Z</time>
      </trkpt>
      <trkpt lat="46.48705" lon="5.48276">
        <ele>464.2</ele>
        <time>2021-10-25T10:51:34Z</time>
      </trkpt>
      <trkpt lat="46.4871" lon="5.4828">
        <ele>464.6</ele>
        <time>2021-10-25T10:51:36Z</time>
      </trkpt>
      <trkpt lat="46.48716" lon="5.48287">
        <ele>465.4</ele>
        <time>2021-10-25T10:51:40Z</time>
      </trkpt>
      <trkpt lat="46.48722" lon="5.48293">
        <ele>466.4</ele>
        <time>2021-10-25T10:51:43Z</time>
      </trkpt>
      <trkpt lat="46.48724" lon="5.48296">
        <ele>466.6</ele>
        <time>2021-10-25T10:51:44Z</time>
      </trkpt>
      <trkpt lat="46.48736" lon="5.48309">
        <ele>467.8</ele>
        <time>2021-10-25T10:51:50Z</time>
      </trkpt>
      <trkpt lat="46.48745" lon="5.48319">
        <ele>468.8</ele>
        <time>2021-10-25T10:51:55Z</time>
      </trkpt>
      <trkpt lat="46.48749" lon="5.48325">
        <ele>469.6</ele>
        <time>2021-10-25T10:51:57Z</time>
      </trkpt>
      <trkpt lat="46.48753" lon="5.48328">
        <ele>469.8</ele>
        <time>2021-10-25T10:51:59Z</time>
      </trkpt>
      <trkpt lat="46.48762" lon="5.4834">
        <ele>470.6</ele>
        <time>2021-10-25T10:52:03Z</time>
      </trkpt>
      <trkpt lat="46.48766" lon="5.48345">
        <ele>470.8</ele>
        <time>2021-10-25T10:52:05Z</time>
      </trkpt>
      <trkpt lat="46.48774" lon="5.48355">
        <ele>471.4</ele>
        <time>2021-10-25T10:52:08Z</time>
      </trkpt>
      <trkpt lat="46.48779" lon="5.48361">
        <ele>471.6</ele>
        <time>2021-10-25T10:52:10Z</time>
      </trkpt>
      <trkpt lat="46.48787" lon="5.48367">
        <ele>472</ele>
        <time>2021-10-25T10:52:13Z</time>
      </trkpt>
      <trkpt lat="46.48798" lon="5.48376">
        <ele>472.6</ele>
        <time>2021-10-25T10:52:17Z</time>
      </trkpt>
      <trkpt lat="46.48801" lon="5.48378">
        <ele>472.8</ele>
        <time>2021-10-25T10:52:18Z</time>
      </trkpt>
      <trkpt lat="46.48812" lon="5.48387">
        <ele>473.4</ele>
        <time>2021-10-25T10:52:22Z</time>
      </trkpt>
      <trkpt lat="46.48813" lon="5.48389">
        <ele>473.6</ele>
        <time>2021-10-25T10:52:23Z</time>
      </trkpt>
      <trkpt lat="46.48817" lon="5.48393">
        <ele>474</ele>
        <time>2021-10-25T10:52:25Z</time>
      </trkpt>
      <trkpt lat="46.48823" lon="5.484">
        <ele>475</ele>
        <time>2021-10-25T10:52:28Z</time>
      </trkpt>
      <trkpt lat="46.48826" lon="5.48403">
        <ele>475.4</ele>
        <time>2021-10-25T10:52:29Z</time>
      </trkpt>
      <trkpt lat="46.48838" lon="5.48415">
        <ele>476.6</ele>
        <time>2021-10-25T10:52:34Z</time>
      </trkpt>
      <trkpt lat="46.48844" lon="5.4842">
        <ele>477</ele>
        <time>2021-10-25T10:52:36Z</time>
      </trkpt>
      <trkpt lat="46.48854" lon="5.48429">
        <ele>477.6</ele>
        <time>2021-10-25T10:52:39Z</time>
      </trkpt>
      <trkpt lat="46.48865" lon="5.48439">
        <ele>478.2</ele>
        <time>2021-10-25T10:52:43Z</time>
      </trkpt>
      <trkpt lat="46.48874" lon="5.48447">
        <ele>478.8</ele>
        <time>2021-10-25T10:52:46Z</time>
      </trkpt>
      <trkpt lat="46.4889" lon="5.48463">
        <ele>480</ele>
        <time>2021-10-25T10:52:52Z</time>
      </trkpt>
      <trkpt lat="46.48893" lon="5.48466">
        <ele>480.2</ele>
        <time>2021-10-25T10:52:53Z</time>
      </trkpt>
      <trkpt lat="46.48903" lon="5.48476">
        <ele>481</ele>
        <time>2021-10-25T10:52:57Z</time>
      </trkpt>
      <trkpt lat="46.48914" lon="5.48487">
        <ele>481.6</ele>
        <time>2021-10-25T10:53:01Z</time>
      </trkpt>
      <trkpt lat="46.48922" lon="5.48495">
        <ele>482.2</ele>
        <time>2021-10-25T10:53:04Z</time>
      </trkpt>
      <trkpt lat="46.48934" lon="5.48508">
        <ele>483.2</ele>
        <time>2021-10-25T10:53:09Z</time>
      </trkpt>
      <trkpt lat="46.48938" lon="5.48512">
        <ele>483.4</ele>
        <time>2021-10-25T10:53:11Z</time>
      </trkpt>
      <trkpt lat="46.48949" lon="5.48521">
        <ele>484.4</ele>
        <time>2021-10-25T10:53:15Z</time>
      </trkpt>
      <trkpt lat="46.48951" lon="5.48524">
        <ele>484.6</ele>
        <time>2021-10-25T10:53:16Z</time>
      </trkpt>
      <trkpt lat="46.48968" lon="5.48547">
        <ele>485.4</ele>
        <time>2021-10-25T10:53:22Z</time>
      </trkpt>
      <trkpt lat="46.48974" lon="5.48558">
        <ele>485.6</ele>
        <time>2021-10-25T10:53:24Z</time>
      </trkpt>
      <trkpt lat="46.48982" lon="5.48576">
        <ele>485.6</ele>
        <time>2021-10-25T10:53:27Z</time>
      </trkpt>
      <trkpt lat="46.49" lon="5.48613">
        <ele>485.4</ele>
        <time>2021-10-25T10:53:33Z</time>
      </trkpt>
      <trkpt lat="46.49016" lon="5.48635">
        <ele>485.8</ele>
        <time>2021-10-25T10:53:38Z</time>
      </trkpt>
      <trkpt lat="46.4903" lon="5.48655">
        <ele>486.6</ele>
        <time>2021-10-25T10:53:42Z</time>
      </trkpt>
      <trkpt lat="46.49045" lon="5.48678">
        <ele>487.2</ele>
        <time>2021-10-25T10:53:46Z</time>
      </trkpt>
      <trkpt lat="46.49074" lon="5.48707">
        <ele>487</ele>
        <time>2021-10-25T10:53:51Z</time>
      </trkpt>
      <trkpt lat="46.49095" lon="5.48725">
        <ele>485.6</ele>
        <time>2021-10-25T10:53:54Z</time>
      </trkpt>
      <trkpt lat="46.49102" lon="5.48733">
        <ele>485</ele>
        <time>2021-10-25T10:53:55Z</time>
      </trkpt>
      <trkpt lat="46.49109" lon="5.48741">
        <ele>484.8</ele>
        <time>2021-10-25T10:53:56Z</time>
      </trkpt>
      <trkpt lat="46.49115" lon="5.4875">
        <ele>484.6</ele>
        <time>2021-10-25T10:53:57Z</time>
      </trkpt>
      <trkpt lat="46.49129" lon="5.48778">
        <ele>483.4</ele>
        <time>2021-10-25T10:54:00Z</time>
      </trkpt>
      <trkpt lat="46.49148" lon="5.4882">
        <ele>483.6</ele>
        <time>2021-10-25T10:54:05Z</time>
      </trkpt>
      <trkpt lat="46.49157" lon="5.48844">
        <ele>484.6</ele>
        <time>2021-10-25T10:54:08Z</time>
      </trkpt>
      <trkpt lat="46.49175" lon="5.48892">
        <ele>485</ele>
        <time>2021-10-25T10:54:13Z</time>
      </trkpt>
      <trkpt lat="46.492" lon="5.48964">
        <ele>483.8</ele>
        <time>2021-10-25T10:54:20Z</time>
      </trkpt>
      <trkpt lat="46.49203" lon="5.48972">
        <ele>483.8</ele>
        <time>2021-10-25T10:54:21Z</time>
      </trkpt>
      <trkpt lat="46.49226" lon="5.49046">
        <ele>483.6</ele>
        <time>2021-10-25T10:54:29Z</time>
      </trkpt>
      <trkpt lat="46.49232" lon="5.49065">
        <ele>483.6</ele>
        <time>2021-10-25T10:54:31Z</time>
      </trkpt>
      <trkpt lat="46.49253" lon="5.49137">
        <ele>483.6</ele>
        <time>2021-10-25T10:54:39Z</time>
      </trkpt>
      <trkpt lat="46.49261" lon="5.49164">
        <ele>483.6</ele>
        <time>2021-10-25T10:54:42Z</time>
      </trkpt>
      <trkpt lat="46.49279" lon="5.49222">
        <ele>484.6</ele>
        <time>2021-10-25T10:54:49Z</time>
      </trkpt>
      <trkpt lat="46.49285" lon="5.49246">
        <ele>484.8</ele>
        <time>2021-10-25T10:54:52Z</time>
      </trkpt>
      <trkpt lat="46.49291" lon="5.49273">
        <ele>485</ele>
        <time>2021-10-25T10:54:56Z</time>
      </trkpt>
      <trkpt lat="46.49292" lon="5.4928">
        <ele>485.6</ele>
        <time>2021-10-25T10:54:57Z</time>
      </trkpt>
      <trkpt lat="46.49293" lon="5.49289">
        <ele>485.6</ele>
        <time>2021-10-25T10:54:58Z</time>
      </trkpt>
      <trkpt lat="46.49293" lon="5.493">
        <ele>486.6</ele>
        <time>2021-10-25T10:55:00Z</time>
      </trkpt>
      <trkpt lat="46.49293" lon="5.49307">
        <ele>486.8</ele>
        <time>2021-10-25T10:55:01Z</time>
      </trkpt>
      <trkpt lat="46.49292" lon="5.49313">
        <ele>487</ele>
        <time>2021-10-25T10:55:02Z</time>
      </trkpt>
      <trkpt lat="46.4929" lon="5.4932">
        <ele>487.2</ele>
        <time>2021-10-25T10:55:03Z</time>
      </trkpt>
      <trkpt lat="46.49286" lon="5.49347">
        <ele>488</ele>
        <time>2021-10-25T10:55:07Z</time>
      </trkpt>
      <trkpt lat="46.49285" lon="5.49354">
        <ele>488.4</ele>
        <time>2021-10-25T10:55:08Z</time>
      </trkpt>
      <trkpt lat="46.49283" lon="5.49367">
        <ele>488.6</ele>
        <time>2021-10-25T10:55:10Z</time>
      </trkpt>
      <trkpt lat="46.4928" lon="5.4938">
        <ele>488.8</ele>
        <time>2021-10-25T10:55:12Z</time>
      </trkpt>
      <trkpt lat="46.49278" lon="5.49386">
        <ele>489</ele>
        <time>2021-10-25T10:55:13Z</time>
      </trkpt>
      <trkpt lat="46.49272" lon="5.49407">
        <ele>489.4</ele>
        <time>2021-10-25T10:55:16Z</time>
      </trkpt>
      <trkpt lat="46.49259" lon="5.49462">
        <ele>490</ele>
        <time>2021-10-25T10:55:23Z</time>
      </trkpt>
      <trkpt lat="46.49255" lon="5.49476">
        <ele>490.2</ele>
        <time>2021-10-25T10:55:25Z</time>
      </trkpt>
      <trkpt lat="46.49244" lon="5.49509">
        <ele>490.6</ele>
        <time>2021-10-25T10:55:30Z</time>
      </trkpt>
      <trkpt lat="46.49242" lon="5.49514">
        <ele>491</ele>
        <time>2021-10-25T10:55:31Z</time>
      </trkpt>
      <trkpt lat="46.4924" lon="5.4952">
        <ele>491.2</ele>
        <time>2021-10-25T10:55:32Z</time>
      </trkpt>
      <trkpt lat="46.49239" lon="5.49527">
        <ele>491.6</ele>
        <time>2021-10-25T10:55:33Z</time>
      </trkpt>
      <trkpt lat="46.49236" lon="5.49541">
        <ele>491.8</ele>
        <time>2021-10-25T10:55:35Z</time>
      </trkpt>
      <trkpt lat="46.49236" lon="5.49548">
        <ele>492</ele>
        <time>2021-10-25T10:55:36Z</time>
      </trkpt>
      <trkpt lat="46.49237" lon="5.49555">
        <ele>492</ele>
        <time>2021-10-25T10:55:37Z</time>
      </trkpt>
      <trkpt lat="46.49238" lon="5.49561">
        <ele>492.4</ele>
        <time>2021-10-25T10:55:38Z</time>
      </trkpt>
      <trkpt lat="46.49241" lon="5.49572">
        <ele>492.8</ele>
        <time>2021-10-25T10:55:40Z</time>
      </trkpt>
      <trkpt lat="46.49243" lon="5.49577">
        <ele>492.8</ele>
        <time>2021-10-25T10:55:41Z</time>
      </trkpt>
      <trkpt lat="46.49248" lon="5.49587">
        <ele>493.2</ele>
        <time>2021-10-25T10:55:43Z</time>
      </trkpt>
      <trkpt lat="46.49254" lon="5.49596">
        <ele>493.6</ele>
        <time>2021-10-25T10:55:45Z</time>
      </trkpt>
      <trkpt lat="46.49258" lon="5.49601">
        <ele>493.6</ele>
        <time>2021-10-25T10:55:46Z</time>
      </trkpt>
      <trkpt lat="46.49273" lon="5.49622">
        <ele>494.6</ele>
        <time>2021-10-25T10:55:51Z</time>
      </trkpt>
      <trkpt lat="46.49282" lon="5.49633">
        <ele>494.8</ele>
        <time>2021-10-25T10:55:54Z</time>
      </trkpt>
      <trkpt lat="46.49292" lon="5.49641">
        <ele>495.8</ele>
        <time>2021-10-25T10:55:57Z</time>
      </trkpt>
      <trkpt lat="46.49305" lon="5.49647">
        <ele>496.4</ele>
        <time>2021-10-25T10:56:00Z</time>
      </trkpt>
      <trkpt lat="46.49309" lon="5.4965">
        <ele>496.8</ele>
        <time>2021-10-25T10:56:01Z</time>
      </trkpt>
      <trkpt lat="46.49341" lon="5.49665">
        <ele>497.4</ele>
        <time>2021-10-25T10:56:07Z</time>
      </trkpt>
      <trkpt lat="46.49357" lon="5.49675">
        <ele>497.2</ele>
        <time>2021-10-25T10:56:10Z</time>
      </trkpt>
      <trkpt lat="46.49367" lon="5.49685">
        <ele>497</ele>
        <time>2021-10-25T10:56:12Z</time>
      </trkpt>
      <trkpt lat="46.49376" lon="5.49699">
        <ele>497</ele>
        <time>2021-10-25T10:56:14Z</time>
      </trkpt>
      <trkpt lat="46.49383" lon="5.49717">
        <ele>496.8</ele>
        <time>2021-10-25T10:56:16Z</time>
      </trkpt>
      <trkpt lat="46.4939" lon="5.49746">
        <ele>495.8</ele>
        <time>2021-10-25T10:56:19Z</time>
      </trkpt>
      <trkpt lat="46.49396" lon="5.49766">
        <ele>495.4</ele>
        <time>2021-10-25T10:56:21Z</time>
      </trkpt>
      <trkpt lat="46.49399" lon="5.49775">
        <ele>494.8</ele>
        <time>2021-10-25T10:56:22Z</time>
      </trkpt>
      <trkpt lat="46.49417" lon="5.49813">
        <ele>493.8</ele>
        <time>2021-10-25T10:56:26Z</time>
      </trkpt>
      <trkpt lat="46.49422" lon="5.49823">
        <ele>493.4</ele>
        <time>2021-10-25T10:56:27Z</time>
      </trkpt>
      <trkpt lat="46.49444" lon="5.49864">
        <ele>492.6</ele>
        <time>2021-10-25T10:56:31Z</time>
      </trkpt>
      <trkpt lat="46.49454" lon="5.49885">
        <ele>491.4</ele>
        <time>2021-10-25T10:56:33Z</time>
      </trkpt>
      <trkpt lat="46.4948" lon="5.49937">
        <ele>490.8</ele>
        <time>2021-10-25T10:56:39Z</time>
      </trkpt>
      <trkpt lat="46.49499" lon="5.49976">
        <ele>492.2</ele>
        <time>2021-10-25T10:56:45Z</time>
      </trkpt>
      <trkpt lat="46.49506" lon="5.4999">
        <ele>492.6</ele>
        <time>2021-10-25T10:56:47Z</time>
      </trkpt>
      <trkpt lat="46.49516" lon="5.50008">
        <ele>494</ele>
        <time>2021-10-25T10:56:50Z</time>
      </trkpt>
      <trkpt lat="46.49525" lon="5.5003">
        <ele>494.2</ele>
        <time>2021-10-25T10:56:53Z</time>
      </trkpt>
      <trkpt lat="46.49537" lon="5.50069">
        <ele>494.4</ele>
        <time>2021-10-25T10:56:58Z</time>
      </trkpt>
      <trkpt lat="46.49539" lon="5.50079">
        <ele>494.4</ele>
        <time>2021-10-25T10:56:59Z</time>
      </trkpt>
      <trkpt lat="46.49554" lon="5.50134">
        <ele>494.4</ele>
        <time>2021-10-25T10:57:05Z</time>
      </trkpt>
      <trkpt lat="46.49568" lon="5.50166">
        <ele>494.8</ele>
        <time>2021-10-25T10:57:10Z</time>
      </trkpt>
      <trkpt lat="46.49571" lon="5.50172">
        <ele>495</ele>
        <time>2021-10-25T10:57:11Z</time>
      </trkpt>
      <trkpt lat="46.49589" lon="5.50204">
        <ele>496.2</ele>
        <time>2021-10-25T10:57:17Z</time>
      </trkpt>
      <trkpt lat="46.49594" lon="5.50214">
        <ele>497</ele>
        <time>2021-10-25T10:57:19Z</time>
      </trkpt>
      <trkpt lat="46.49597" lon="5.50219">
        <ele>497.4</ele>
        <time>2021-10-25T10:57:20Z</time>
      </trkpt>
      <trkpt lat="46.49609" lon="5.50234">
        <ele>498.4</ele>
        <time>2021-10-25T10:57:24Z</time>
      </trkpt>
      <trkpt lat="46.49611" lon="5.50238">
        <ele>498.4</ele>
        <time>2021-10-25T10:57:25Z</time>
      </trkpt>
      <trkpt lat="46.4962" lon="5.50253">
        <ele>499.6</ele>
        <time>2021-10-25T10:57:29Z</time>
      </trkpt>
      <trkpt lat="46.49625" lon="5.50262">
        <ele>500</ele>
        <time>2021-10-25T10:57:31Z</time>
      </trkpt>
      <trkpt lat="46.4963" lon="5.5027">
        <ele>501</ele>
        <time>2021-10-25T10:57:33Z</time>
      </trkpt>
      <trkpt lat="46.49642" lon="5.50292">
        <ele>502</ele>
        <time>2021-10-25T10:57:38Z</time>
      </trkpt>
      <trkpt lat="46.49644" lon="5.50296">
        <ele>502.2</ele>
        <time>2021-10-25T10:57:39Z</time>
      </trkpt>
      <trkpt lat="46.49655" lon="5.50314">
        <ele>503</ele>
        <time>2021-10-25T10:57:43Z</time>
      </trkpt>
      <trkpt lat="46.49666" lon="5.50333">
        <ele>503.8</ele>
        <time>2021-10-25T10:57:47Z</time>
      </trkpt>
      <trkpt lat="46.49682" lon="5.50356">
        <ele>504</ele>
        <time>2021-10-25T10:57:51Z</time>
      </trkpt>
      <trkpt lat="46.49687" lon="5.50362">
        <ele>504</ele>
        <time>2021-10-25T10:57:52Z</time>
      </trkpt>
      <trkpt lat="46.4972" lon="5.50403">
        <ele>503.2</ele>
        <time>2021-10-25T10:57:59Z</time>
      </trkpt>
      <trkpt lat="46.49729" lon="5.50418">
        <ele>503</ele>
        <time>2021-10-25T10:58:01Z</time>
      </trkpt>
      <trkpt lat="46.49746" lon="5.5044">
        <ele>502.8</ele>
        <time>2021-10-25T10:58:04Z</time>
      </trkpt>
      <trkpt lat="46.49759" lon="5.50451">
        <ele>502.6</ele>
        <time>2021-10-25T10:58:06Z</time>
      </trkpt>
      <trkpt lat="46.49774" lon="5.50457">
        <ele>502.2</ele>
        <time>2021-10-25T10:58:08Z</time>
      </trkpt>
      <trkpt lat="46.49782" lon="5.5046">
        <ele>502</ele>
        <time>2021-10-25T10:58:09Z</time>
      </trkpt>
      <trkpt lat="46.49798" lon="5.50465">
        <ele>501</ele>
        <time>2021-10-25T10:58:11Z</time>
      </trkpt>
      <trkpt lat="46.49829" lon="5.50473">
        <ele>499.8</ele>
        <time>2021-10-25T10:58:15Z</time>
      </trkpt>
      <trkpt lat="46.49837" lon="5.50475">
        <ele>499.6</ele>
        <time>2021-10-25T10:58:16Z</time>
      </trkpt>
      <trkpt lat="46.49872" lon="5.50494">
        <ele>499.4</ele>
        <time>2021-10-25T10:58:21Z</time>
      </trkpt>
      <trkpt lat="46.49922" lon="5.50529">
        <ele>499.6</ele>
        <time>2021-10-25T10:58:29Z</time>
      </trkpt>
      <trkpt lat="46.49953" lon="5.50538">
        <ele>500</ele>
        <time>2021-10-25T10:58:34Z</time>
      </trkpt>
      <trkpt lat="46.49972" lon="5.50534">
        <ele>500.2</ele>
        <time>2021-10-25T10:58:37Z</time>
      </trkpt>
      <trkpt lat="46.49984" lon="5.50528">
        <ele>500.4</ele>
        <time>2021-10-25T10:58:39Z</time>
      </trkpt>
      <trkpt lat="46.50034" lon="5.5049">
        <ele>500</ele>
        <time>2021-10-25T10:58:47Z</time>
      </trkpt>
      <trkpt lat="46.5004" lon="5.50484">
        <ele>500</ele>
        <time>2021-10-25T10:58:48Z</time>
      </trkpt>
      <trkpt lat="46.50057" lon="5.50461">
        <ele>499</ele>
        <time>2021-10-25T10:58:51Z</time>
      </trkpt>
      <trkpt lat="46.50063" lon="5.50452">
        <ele>498.6</ele>
        <time>2021-10-25T10:58:52Z</time>
      </trkpt>
      <trkpt lat="46.50079" lon="5.50429">
        <ele>498</ele>
        <time>2021-10-25T10:58:55Z</time>
      </trkpt>
      <trkpt lat="46.50085" lon="5.50422">
        <ele>497.8</ele>
        <time>2021-10-25T10:58:56Z</time>
      </trkpt>
      <trkpt lat="46.50092" lon="5.50418">
        <ele>497.8</ele>
        <time>2021-10-25T10:58:57Z</time>
      </trkpt>
      <trkpt lat="46.50113" lon="5.50411">
        <ele>497.6</ele>
        <time>2021-10-25T10:59:00Z</time>
      </trkpt>
      <trkpt lat="46.50128" lon="5.50409">
        <ele>497.8</ele>
        <time>2021-10-25T10:59:02Z</time>
      </trkpt>
      <trkpt lat="46.50142" lon="5.50412">
        <ele>497.8</ele>
        <time>2021-10-25T10:59:04Z</time>
      </trkpt>
      <trkpt lat="46.50178" lon="5.50429">
        <ele>498.2</ele>
        <time>2021-10-25T10:59:10Z</time>
      </trkpt>
      <trkpt lat="46.50191" lon="5.50436">
        <ele>498.4</ele>
        <time>2021-10-25T10:59:12Z</time>
      </trkpt>
      <trkpt lat="46.50207" lon="5.50449">
        <ele>498.8</ele>
        <time>2021-10-25T10:59:15Z</time>
      </trkpt>
      <trkpt lat="46.50231" lon="5.5047">
        <ele>499.8</ele>
        <time>2021-10-25T10:59:20Z</time>
      </trkpt>
      <trkpt lat="46.50236" lon="5.50472">
        <ele>500</ele>
        <time>2021-10-25T10:59:21Z</time>
      </trkpt>
      <trkpt lat="46.5024" lon="5.50474">
        <ele>500.2</ele>
        <time>2021-10-25T10:59:22Z</time>
      </trkpt>
      <trkpt lat="46.5025" lon="5.50473">
        <ele>500.4</ele>
        <time>2021-10-25T10:59:24Z</time>
      </trkpt>
      <trkpt lat="46.50255" lon="5.50472">
        <ele>500.6</ele>
        <time>2021-10-25T10:59:25Z</time>
      </trkpt>
      <trkpt lat="46.50259" lon="5.5047">
        <ele>500.8</ele>
        <time>2021-10-25T10:59:26Z</time>
      </trkpt>
      <trkpt lat="46.50273" lon="5.5046">
        <ele>502</ele>
        <time>2021-10-25T10:59:29Z</time>
      </trkpt>
      <trkpt lat="46.50282" lon="5.50453">
        <ele>502.8</ele>
        <time>2021-10-25T10:59:31Z</time>
      </trkpt>
      <trkpt lat="46.5029" lon="5.50446">
        <ele>503</ele>
        <time>2021-10-25T10:59:33Z</time>
      </trkpt>
      <trkpt lat="46.503" lon="5.50439">
        <ele>503.4</ele>
        <time>2021-10-25T10:59:35Z</time>
      </trkpt>
      <trkpt lat="46.50305" lon="5.50436">
        <ele>503.6</ele>
        <time>2021-10-25T10:59:36Z</time>
      </trkpt>
      <trkpt lat="46.50313" lon="5.50432">
        <ele>503.8</ele>
        <time>2021-10-25T10:59:38Z</time>
      </trkpt>
      <trkpt lat="46.50323" lon="5.5043">
        <ele>504.2</ele>
        <time>2021-10-25T10:59:40Z</time>
      </trkpt>
      <trkpt lat="46.50332" lon="5.5043">
        <ele>504.4</ele>
        <time>2021-10-25T10:59:42Z</time>
      </trkpt>
      <trkpt lat="46.50347" lon="5.5043">
        <ele>505.2</ele>
        <time>2021-10-25T10:59:45Z</time>
      </trkpt>
      <trkpt lat="46.5037" lon="5.50434">
        <ele>506.2</ele>
        <time>2021-10-25T10:59:50Z</time>
      </trkpt>
      <trkpt lat="46.50375" lon="5.50435">
        <ele>506.2</ele>
        <time>2021-10-25T10:59:51Z</time>
      </trkpt>
      <trkpt lat="46.5039" lon="5.50437">
        <ele>506.6</ele>
        <time>2021-10-25T10:59:54Z</time>
      </trkpt>
      <trkpt lat="46.50403" lon="5.50442">
        <ele>506.8</ele>
        <time>2021-10-25T10:59:57Z</time>
      </trkpt>
      <trkpt lat="46.50408" lon="5.50443">
        <ele>507.2</ele>
        <time>2021-10-25T10:59:58Z</time>
      </trkpt>
      <trkpt lat="46.50434" lon="5.50453">
        <ele>508.2</ele>
        <time>2021-10-25T11:00:04Z</time>
      </trkpt>
      <trkpt lat="46.50439" lon="5.50455">
        <ele>508.4</ele>
        <time>2021-10-25T11:00:05Z</time>
      </trkpt>
      <trkpt lat="46.50453" lon="5.50463">
        <ele>509</ele>
        <time>2021-10-25T11:00:08Z</time>
      </trkpt>
      <trkpt lat="46.50462" lon="5.50466">
        <ele>509.4</ele>
        <time>2021-10-25T11:00:10Z</time>
      </trkpt>
      <trkpt lat="46.50467" lon="5.50467">
        <ele>509.4</ele>
        <time>2021-10-25T11:00:11Z</time>
      </trkpt>
      <trkpt lat="46.50472" lon="5.50467">
        <ele>509.6</ele>
        <time>2021-10-25T11:00:12Z</time>
      </trkpt>
      <trkpt lat="46.5051" lon="5.50465">
        <ele>510.4</ele>
        <time>2021-10-25T11:00:20Z</time>
      </trkpt>
      <trkpt lat="46.50515" lon="5.50465">
        <ele>510.4</ele>
        <time>2021-10-25T11:00:21Z</time>
      </trkpt>
      <trkpt lat="46.50525" lon="5.50466">
        <ele>510.6</ele>
        <time>2021-10-25T11:00:23Z</time>
      </trkpt>
      <trkpt lat="46.50534" lon="5.5047">
        <ele>510.8</ele>
        <time>2021-10-25T11:00:25Z</time>
      </trkpt>
      <trkpt lat="46.50555" lon="5.5048">
        <ele>511.6</ele>
        <time>2021-10-25T11:00:30Z</time>
      </trkpt>
      <trkpt lat="46.50575" lon="5.50493">
        <ele>512.6</ele>
        <time>2021-10-25T11:00:35Z</time>
      </trkpt>
      <trkpt lat="46.50586" lon="5.50504">
        <ele>513.2</ele>
        <time>2021-10-25T11:00:38Z</time>
      </trkpt>
      <trkpt lat="46.50595" lon="5.50517">
        <ele>513.6</ele>
        <time>2021-10-25T11:00:41Z</time>
      </trkpt>
      <trkpt lat="46.50598" lon="5.50521">
        <ele>514</ele>
        <time>2021-10-25T11:00:42Z</time>
      </trkpt>
      <trkpt lat="46.50603" lon="5.50529">
        <ele>514.8</ele>
        <time>2021-10-25T11:00:44Z</time>
      </trkpt>
      <trkpt lat="46.50614" lon="5.50545">
        <ele>516</ele>
        <time>2021-10-25T11:00:48Z</time>
      </trkpt>
      <trkpt lat="46.50617" lon="5.50549">
        <ele>516.2</ele>
        <time>2021-10-25T11:00:49Z</time>
      </trkpt>
      <trkpt lat="46.5064" lon="5.50567">
        <ele>517.2</ele>
        <time>2021-10-25T11:00:54Z</time>
      </trkpt>
      <trkpt lat="46.50675" lon="5.50581">
        <ele>516.8</ele>
        <time>2021-10-25T11:01:00Z</time>
      </trkpt>
      <trkpt lat="46.50727" lon="5.50595">
        <ele>517.4</ele>
        <time>2021-10-25T11:01:09Z</time>
      </trkpt>
      <trkpt lat="46.50761" lon="5.50612">
        <ele>517.2</ele>
        <time>2021-10-25T11:01:14Z</time>
      </trkpt>
      <trkpt lat="46.50784" lon="5.50618">
        <ele>516.4</ele>
        <time>2021-10-25T11:01:17Z</time>
      </trkpt>
      <trkpt lat="46.50792" lon="5.50618">
        <ele>516.2</ele>
        <time>2021-10-25T11:01:18Z</time>
      </trkpt>
      <trkpt lat="46.50799" lon="5.50619">
        <ele>515.8</ele>
        <time>2021-10-25T11:01:19Z</time>
      </trkpt>
      <trkpt lat="46.5086" lon="5.50619">
        <ele>515.4</ele>
        <time>2021-10-25T11:01:27Z</time>
      </trkpt>
      <trkpt lat="46.50875" lon="5.50618">
        <ele>515.6</ele>
        <time>2021-10-25T11:01:29Z</time>
      </trkpt>
      <trkpt lat="46.5092" lon="5.50608">
        <ele>516</ele>
        <time>2021-10-25T11:01:35Z</time>
      </trkpt>
      <trkpt lat="46.50958" lon="5.5061">
        <ele>515.2</ele>
        <time>2021-10-25T11:01:40Z</time>
      </trkpt>
      <trkpt lat="46.50965" lon="5.50612">
        <ele>515.2</ele>
        <time>2021-10-25T11:01:41Z</time>
      </trkpt>
      <trkpt lat="46.51022" lon="5.50625">
        <ele>515.4</ele>
        <time>2021-10-25T11:01:49Z</time>
      </trkpt>
      <trkpt lat="46.51047" lon="5.50632">
        <ele>516.2</ele>
        <time>2021-10-25T11:01:53Z</time>
      </trkpt>
      <trkpt lat="46.5108" lon="5.5064">
        <ele>516.8</ele>
        <time>2021-10-25T11:01:58Z</time>
      </trkpt>
      <trkpt lat="46.511" lon="5.50645">
        <ele>517.2</ele>
        <time>2021-10-25T11:02:01Z</time>
      </trkpt>
      <trkpt lat="46.51118" lon="5.50647">
        <ele>517.6</ele>
        <time>2021-10-25T11:02:04Z</time>
      </trkpt>
      <trkpt lat="46.51131" lon="5.50646">
        <ele>517.8</ele>
        <time>2021-10-25T11:02:06Z</time>
      </trkpt>
      <trkpt lat="46.51155" lon="5.50643">
        <ele>518.6</ele>
        <time>2021-10-25T11:02:10Z</time>
      </trkpt>
      <trkpt lat="46.51191" lon="5.50638">
        <ele>519.2</ele>
        <time>2021-10-25T11:02:16Z</time>
      </trkpt>
      <trkpt lat="46.51209" lon="5.50636">
        <ele>519.8</ele>
        <time>2021-10-25T11:02:19Z</time>
      </trkpt>
      <trkpt lat="46.51239" lon="5.50636">
        <ele>520.4</ele>
        <time>2021-10-25T11:02:24Z</time>
      </trkpt>
      <trkpt lat="46.51263" lon="5.50638">
        <ele>520.8</ele>
        <time>2021-10-25T11:02:28Z</time>
      </trkpt>
      <trkpt lat="46.51289" lon="5.50641">
        <ele>521.2</ele>
        <time>2021-10-25T11:02:32Z</time>
      </trkpt>
      <trkpt lat="46.51338" lon="5.50649">
        <ele>521.8</ele>
        <time>2021-10-25T11:02:40Z</time>
      </trkpt>
      <trkpt lat="46.5135" lon="5.50651">
        <ele>522.2</ele>
        <time>2021-10-25T11:02:42Z</time>
      </trkpt>
      <trkpt lat="46.51385" lon="5.50654">
        <ele>522.8</ele>
        <time>2021-10-25T11:02:48Z</time>
      </trkpt>
      <trkpt lat="46.51397" lon="5.50656">
        <ele>523</ele>
        <time>2021-10-25T11:02:50Z</time>
      </trkpt>
      <trkpt lat="46.51444" lon="5.50672">
        <ele>523.8</ele>
        <time>2021-10-25T11:02:58Z</time>
      </trkpt>
      <trkpt lat="46.51496" lon="5.50678">
        <ele>523.8</ele>
        <time>2021-10-25T11:03:06Z</time>
      </trkpt>
      <trkpt lat="46.51556" lon="5.5068">
        <ele>523.8</ele>
        <time>2021-10-25T11:03:15Z</time>
      </trkpt>
      <trkpt lat="46.51563" lon="5.50681">
        <ele>524</ele>
        <time>2021-10-25T11:03:16Z</time>
      </trkpt>
      <trkpt lat="46.5161" lon="5.50699">
        <ele>524</ele>
        <time>2021-10-25T11:03:23Z</time>
      </trkpt>
      <trkpt lat="46.51666" lon="5.5072">
        <ele>524</ele>
        <time>2021-10-25T11:03:32Z</time>
      </trkpt>
      <trkpt lat="46.51719" lon="5.50736">
        <ele>525</ele>
        <time>2021-10-25T11:03:41Z</time>
      </trkpt>
      <trkpt lat="46.51725" lon="5.50739">
        <ele>525.4</ele>
        <time>2021-10-25T11:03:42Z</time>
      </trkpt>
      <trkpt lat="46.5175" lon="5.50759">
        <ele>525.8</ele>
        <time>2021-10-25T11:03:47Z</time>
      </trkpt>
      <trkpt lat="46.5176" lon="5.50767">
        <ele>526.2</ele>
        <time>2021-10-25T11:03:49Z</time>
      </trkpt>
      <trkpt lat="46.51796" lon="5.50791">
        <ele>527</ele>
        <time>2021-10-25T11:03:56Z</time>
      </trkpt>
      <trkpt lat="46.51802" lon="5.50795">
        <ele>527.2</ele>
        <time>2021-10-25T11:03:57Z</time>
      </trkpt>
      <trkpt lat="46.51828" lon="5.50811">
        <ele>527.2</ele>
        <time>2021-10-25T11:04:01Z</time>
      </trkpt>
      <trkpt lat="46.51872" lon="5.50836">
        <ele>526.4</ele>
        <time>2021-10-25T11:04:07Z</time>
      </trkpt>
      <trkpt lat="46.5188" lon="5.50839">
        <ele>525.8</ele>
        <time>2021-10-25T11:04:08Z</time>
      </trkpt>
      <trkpt lat="46.51922" lon="5.50846">
        <ele>524.8</ele>
        <time>2021-10-25T11:04:13Z</time>
      </trkpt>
      <trkpt lat="46.51963" lon="5.5084">
        <ele>523.8</ele>
        <time>2021-10-25T11:04:18Z</time>
      </trkpt>
      <trkpt lat="46.51974" lon="5.50839">
        <ele>523.6</ele>
        <time>2021-10-25T11:04:19Z</time>
      </trkpt>
      <trkpt lat="46.51983" lon="5.5084">
        <ele>523.4</ele>
        <time>2021-10-25T11:04:20Z</time>
      </trkpt>
      <trkpt lat="46.52001" lon="5.50845">
        <ele>522.8</ele>
        <time>2021-10-25T11:04:22Z</time>
      </trkpt>
      <trkpt lat="46.52009" lon="5.50849">
        <ele>522.4</ele>
        <time>2021-10-25T11:04:23Z</time>
      </trkpt>
      <trkpt lat="46.52052" lon="5.50867">
        <ele>521.2</ele>
        <time>2021-10-25T11:04:28Z</time>
      </trkpt>
      <trkpt lat="46.52069" lon="5.50875">
        <ele>520.6</ele>
        <time>2021-10-25T11:04:30Z</time>
      </trkpt>
      <trkpt lat="46.52117" lon="5.50906">
        <ele>520.2</ele>
        <time>2021-10-25T11:04:36Z</time>
      </trkpt>
      <trkpt lat="46.52124" lon="5.50912">
        <ele>520</ele>
        <time>2021-10-25T11:04:37Z</time>
      </trkpt>
      <trkpt lat="46.52158" lon="5.50941">
        <ele>522.2</ele>
        <time>2021-10-25T11:04:42Z</time>
      </trkpt>
      <trkpt lat="46.52164" lon="5.50948">
        <ele>519.8</ele>
        <time>2021-10-25T11:04:43Z</time>
      </trkpt>
      <trkpt lat="46.5218" lon="5.50974">
        <ele>519.8</ele>
        <time>2021-10-25T11:04:46Z</time>
      </trkpt>
      <trkpt lat="46.52201" lon="5.51009">
        <ele>520</ele>
        <time>2021-10-25T11:04:50Z</time>
      </trkpt>
      <trkpt lat="46.52208" lon="5.51016">
        <ele>520.2</ele>
        <time>2021-10-25T11:04:51Z</time>
      </trkpt>
      <trkpt lat="46.52215" lon="5.51022">
        <ele>520.2</ele>
        <time>2021-10-25T11:04:52Z</time>
      </trkpt>
      <trkpt lat="46.52249" lon="5.5105">
        <ele>520</ele>
        <time>2021-10-25T11:04:57Z</time>
      </trkpt>
      <trkpt lat="46.52296" lon="5.51082">
        <ele>519.8</ele>
        <time>2021-10-25T11:05:04Z</time>
      </trkpt>
      <trkpt lat="46.52337" lon="5.51111">
        <ele>520.8</ele>
        <time>2021-10-25T11:05:11Z</time>
      </trkpt>
      <trkpt lat="46.52343" lon="5.51115">
        <ele>521.2</ele>
        <time>2021-10-25T11:05:12Z</time>
      </trkpt>
      <trkpt lat="46.5237" lon="5.51133">
        <ele>522.4</ele>
        <time>2021-10-25T11:05:17Z</time>
      </trkpt>
      <trkpt lat="46.52386" lon="5.51142">
        <ele>522.8</ele>
        <time>2021-10-25T11:05:20Z</time>
      </trkpt>
      <trkpt lat="46.52405" lon="5.51153">
        <ele>523.4</ele>
        <time>2021-10-25T11:05:24Z</time>
      </trkpt>
      <trkpt lat="46.52415" lon="5.5116">
        <ele>523.6</ele>
        <time>2021-10-25T11:05:27Z</time>
      </trkpt>
      <trkpt lat="46.52426" lon="5.51167">
        <ele>524</ele>
        <time>2021-10-25T11:05:31Z</time>
      </trkpt>
      <trkpt lat="46.52427" lon="5.51168">
        <ele>523.8</ele>
        <time>2021-10-25T11:05:34Z</time>
      </trkpt>
      <trkpt lat="46.52428" lon="5.51169">
        <ele>524</ele>
        <time>2021-10-25T11:05:37Z</time>
      </trkpt>
      <trkpt lat="46.52431" lon="5.5117">
        <ele>524</ele>
        <time>2021-10-25T11:06:25Z</time>
      </trkpt>
      <trkpt lat="46.52434" lon="5.51172">
        <ele>524</ele>
        <time>2021-10-25T11:06:26Z</time>
      </trkpt>
      <trkpt lat="46.52455" lon="5.51185">
        <ele>524</ele>
        <time>2021-10-25T11:06:30Z</time>
      </trkpt>
      <trkpt lat="46.52489" lon="5.51206">
        <ele>523.2</ele>
        <time>2021-10-25T11:06:35Z</time>
      </trkpt>
      <trkpt lat="46.52534" lon="5.51228">
        <ele>522</ele>
        <time>2021-10-25T11:06:41Z</time>
      </trkpt>
      <trkpt lat="46.52541" lon="5.51231">
        <ele>521.6</ele>
        <time>2021-10-25T11:06:42Z</time>
      </trkpt>
      <trkpt lat="46.52565" lon="5.51241">
        <ele>520.8</ele>
        <time>2021-10-25T11:06:45Z</time>
      </trkpt>
      <trkpt lat="46.52606" lon="5.51259">
        <ele>520</ele>
        <time>2021-10-25T11:06:50Z</time>
      </trkpt>
      <trkpt lat="46.52614" lon="5.51262">
        <ele>519.8</ele>
        <time>2021-10-25T11:06:51Z</time>
      </trkpt>
      <trkpt lat="46.5264" lon="5.51274">
        <ele>518.4</ele>
        <time>2021-10-25T11:06:54Z</time>
      </trkpt>
      <trkpt lat="46.52675" lon="5.51293">
        <ele>517.4</ele>
        <time>2021-10-25T11:06:58Z</time>
      </trkpt>
      <trkpt lat="46.52683" lon="5.51298">
        <ele>517.2</ele>
        <time>2021-10-25T11:06:59Z</time>
      </trkpt>
      <trkpt lat="46.52731" lon="5.51325">
        <ele>516.4</ele>
        <time>2021-10-25T11:07:05Z</time>
      </trkpt>
      <trkpt lat="46.52741" lon="5.5133">
        <ele>516</ele>
        <time>2021-10-25T11:07:06Z</time>
      </trkpt>
      <trkpt lat="46.52791" lon="5.51356">
        <ele>515.6</ele>
        <time>2021-10-25T11:07:12Z</time>
      </trkpt>
      <trkpt lat="46.52808" lon="5.51367">
        <ele>515</ele>
        <time>2021-10-25T11:07:14Z</time>
      </trkpt>
      <trkpt lat="46.52846" lon="5.51389">
        <ele>514.4</ele>
        <time>2021-10-25T11:07:19Z</time>
      </trkpt>
      <trkpt lat="46.52888" lon="5.51408">
        <ele>513.8</ele>
        <time>2021-10-25T11:07:24Z</time>
      </trkpt>
      <trkpt lat="46.52905" lon="5.51416">
        <ele>513.4</ele>
        <time>2021-10-25T11:07:26Z</time>
      </trkpt>
      <trkpt lat="46.52947" lon="5.51446">
        <ele>513.2</ele>
        <time>2021-10-25T11:07:31Z</time>
      </trkpt>
      <trkpt lat="46.52982" lon="5.51484">
        <ele>512.8</ele>
        <time>2021-10-25T11:07:36Z</time>
      </trkpt>
      <trkpt lat="46.52996" lon="5.51498">
        <ele>512.8</ele>
        <time>2021-10-25T11:07:38Z</time>
      </trkpt>
      <trkpt lat="46.53039" lon="5.51533">
        <ele>512.8</ele>
        <time>2021-10-25T11:07:44Z</time>
      </trkpt>
      <trkpt lat="46.53075" lon="5.51553">
        <ele>513.6</ele>
        <time>2021-10-25T11:07:49Z</time>
      </trkpt>
      <trkpt lat="46.53126" lon="5.51564">
        <ele>513.6</ele>
        <time>2021-10-25T11:07:55Z</time>
      </trkpt>
      <trkpt lat="46.5317" lon="5.51559">
        <ele>512.8</ele>
        <time>2021-10-25T11:08:00Z</time>
      </trkpt>
      <trkpt lat="46.53202" lon="5.51556">
        <ele>511.4</ele>
        <time>2021-10-25T11:08:03Z</time>
      </trkpt>
      <trkpt lat="46.53232" lon="5.51553">
        <ele>510.4</ele>
        <time>2021-10-25T11:08:06Z</time>
      </trkpt>
      <trkpt lat="46.53243" lon="5.51555">
        <ele>510</ele>
        <time>2021-10-25T11:08:07Z</time>
      </trkpt>
      <trkpt lat="46.53253" lon="5.51558">
        <ele>509.4</ele>
        <time>2021-10-25T11:08:08Z</time>
      </trkpt>
      <trkpt lat="46.53283" lon="5.51575">
        <ele>508.4</ele>
        <time>2021-10-25T11:08:11Z</time>
      </trkpt>
      <trkpt lat="46.53293" lon="5.51581">
        <ele>507.6</ele>
        <time>2021-10-25T11:08:12Z</time>
      </trkpt>
      <trkpt lat="46.53304" lon="5.51587">
        <ele>506.6</ele>
        <time>2021-10-25T11:08:13Z</time>
      </trkpt>
      <trkpt lat="46.53332" lon="5.51606">
        <ele>505</ele>
        <time>2021-10-25T11:08:16Z</time>
      </trkpt>
      <trkpt lat="46.53353" lon="5.51619">
        <ele>504</ele>
        <time>2021-10-25T11:08:18Z</time>
      </trkpt>
      <trkpt lat="46.53377" lon="5.51634">
        <ele>503.2</ele>
        <time>2021-10-25T11:08:20Z</time>
      </trkpt>
      <trkpt lat="46.53387" lon="5.51641">
        <ele>502.8</ele>
        <time>2021-10-25T11:08:21Z</time>
      </trkpt>
      <trkpt lat="46.53429" lon="5.51668">
        <ele>501.6</ele>
        <time>2021-10-25T11:08:25Z</time>
      </trkpt>
      <trkpt lat="46.53451" lon="5.51682">
        <ele>500</ele>
        <time>2021-10-25T11:08:27Z</time>
      </trkpt>
      <trkpt lat="46.53471" lon="5.51696">
        <ele>499.4</ele>
        <time>2021-10-25T11:08:29Z</time>
      </trkpt>
      <trkpt lat="46.5349" lon="5.51713">
        <ele>498.8</ele>
        <time>2021-10-25T11:08:31Z</time>
      </trkpt>
      <trkpt lat="46.53527" lon="5.51748">
        <ele>497.8</ele>
        <time>2021-10-25T11:08:35Z</time>
      </trkpt>
      <trkpt lat="46.53536" lon="5.51756">
        <ele>497.4</ele>
        <time>2021-10-25T11:08:36Z</time>
      </trkpt>
      <trkpt lat="46.53576" lon="5.51798">
        <ele>496.8</ele>
        <time>2021-10-25T11:08:41Z</time>
      </trkpt>
      <trkpt lat="46.53583" lon="5.5181">
        <ele>496.4</ele>
        <time>2021-10-25T11:08:42Z</time>
      </trkpt>
      <trkpt lat="46.53607" lon="5.51857">
        <ele>495.8</ele>
        <time>2021-10-25T11:08:46Z</time>
      </trkpt>
      <trkpt lat="46.53614" lon="5.51868">
        <ele>495.4</ele>
        <time>2021-10-25T11:08:47Z</time>
      </trkpt>
      <trkpt lat="46.53646" lon="5.5191">
        <ele>494.6</ele>
        <time>2021-10-25T11:08:51Z</time>
      </trkpt>
      <trkpt lat="46.53654" lon="5.5192">
        <ele>494.2</ele>
        <time>2021-10-25T11:08:52Z</time>
      </trkpt>
      <trkpt lat="46.53676" lon="5.51945">
        <ele>493.6</ele>
        <time>2021-10-25T11:08:55Z</time>
      </trkpt>
      <trkpt lat="46.53686" lon="5.51954">
        <ele>493.2</ele>
        <time>2021-10-25T11:08:56Z</time>
      </trkpt>
      <trkpt lat="46.53693" lon="5.51959">
        <ele>493</ele>
        <time>2021-10-25T11:08:57Z</time>
      </trkpt>
      <trkpt lat="46.53738" lon="5.51987">
        <ele>492.4</ele>
        <time>2021-10-25T11:09:02Z</time>
      </trkpt>
      <trkpt lat="46.53764" lon="5.52003">
        <ele>492</ele>
        <time>2021-10-25T11:09:05Z</time>
      </trkpt>
      <trkpt lat="46.53797" lon="5.52029">
        <ele>491.6</ele>
        <time>2021-10-25T11:09:09Z</time>
      </trkpt>
      <trkpt lat="46.5382" lon="5.52053">
        <ele>490.8</ele>
        <time>2021-10-25T11:09:12Z</time>
      </trkpt>
      <trkpt lat="46.53832" lon="5.52073">
        <ele>490.6</ele>
        <time>2021-10-25T11:09:14Z</time>
      </trkpt>
      <trkpt lat="46.53849" lon="5.52105">
        <ele>490.4</ele>
        <time>2021-10-25T11:09:17Z</time>
      </trkpt>
      <trkpt lat="46.53857" lon="5.52116">
        <ele>490.4</ele>
        <time>2021-10-25T11:09:18Z</time>
      </trkpt>
      <trkpt lat="46.53902" lon="5.52159">
        <ele>490.2</ele>
        <time>2021-10-25T11:09:24Z</time>
      </trkpt>
      <trkpt lat="46.5391" lon="5.52167">
        <ele>490</ele>
        <time>2021-10-25T11:09:25Z</time>
      </trkpt>
      <trkpt lat="46.53925" lon="5.5218">
        <ele>489.8</ele>
        <time>2021-10-25T11:09:27Z</time>
      </trkpt>
      <trkpt lat="46.53966" lon="5.5221">
        <ele>489.2</ele>
        <time>2021-10-25T11:09:32Z</time>
      </trkpt>
      <trkpt lat="46.54025" lon="5.52236">
        <ele>488.8</ele>
        <time>2021-10-25T11:09:39Z</time>
      </trkpt>
      <trkpt lat="46.54073" lon="5.52265">
        <ele>488.8</ele>
        <time>2021-10-25T11:09:45Z</time>
      </trkpt>
      <trkpt lat="46.54088" lon="5.52275">
        <ele>488.6</ele>
        <time>2021-10-25T11:09:47Z</time>
      </trkpt>
      <trkpt lat="46.54141" lon="5.52308">
        <ele>489.2</ele>
        <time>2021-10-25T11:09:54Z</time>
      </trkpt>
      <trkpt lat="46.54156" lon="5.52314">
        <ele>489.2</ele>
        <time>2021-10-25T11:09:56Z</time>
      </trkpt>
      <trkpt lat="46.54202" lon="5.52329">
        <ele>489.2</ele>
        <time>2021-10-25T11:10:02Z</time>
      </trkpt>
      <trkpt lat="46.54258" lon="5.52347">
        <ele>489.4</ele>
        <time>2021-10-25T11:10:09Z</time>
      </trkpt>
      <trkpt lat="46.54282" lon="5.52356">
        <ele>489.4</ele>
        <time>2021-10-25T11:10:12Z</time>
      </trkpt>
      <trkpt lat="46.54337" lon="5.52379">
        <ele>489</ele>
        <time>2021-10-25T11:10:19Z</time>
      </trkpt>
      <trkpt lat="46.54345" lon="5.52384">
        <ele>489</ele>
        <time>2021-10-25T11:10:20Z</time>
      </trkpt>
      <trkpt lat="46.54379" lon="5.52398">
        <ele>488</ele>
        <time>2021-10-25T11:10:24Z</time>
      </trkpt>
      <trkpt lat="46.54397" lon="5.52401">
        <ele>487.8</ele>
        <time>2021-10-25T11:10:26Z</time>
      </trkpt>
      <trkpt lat="46.54423" lon="5.52403">
        <ele>487.4</ele>
        <time>2021-10-25T11:10:29Z</time>
      </trkpt>
      <trkpt lat="46.54466" lon="5.52409">
        <ele>486.4</ele>
        <time>2021-10-25T11:10:34Z</time>
      </trkpt>
      <trkpt lat="46.54484" lon="5.52412">
        <ele>486.2</ele>
        <time>2021-10-25T11:10:36Z</time>
      </trkpt>
      <trkpt lat="46.54546" lon="5.52425">
        <ele>485.2</ele>
        <time>2021-10-25T11:10:43Z</time>
      </trkpt>
      <trkpt lat="46.54606" lon="5.52439">
        <ele>484.2</ele>
        <time>2021-10-25T11:10:50Z</time>
      </trkpt>
      <trkpt lat="46.54614" lon="5.52441">
        <ele>484</ele>
        <time>2021-10-25T11:10:51Z</time>
      </trkpt>
      <trkpt lat="46.54662" lon="5.52452">
        <ele>484.2</ele>
        <time>2021-10-25T11:10:57Z</time>
      </trkpt>
      <trkpt lat="46.54716" lon="5.52457">
        <ele>484.2</ele>
        <time>2021-10-25T11:11:04Z</time>
      </trkpt>
      <trkpt lat="46.54772" lon="5.52453">
        <ele>484.2</ele>
        <time>2021-10-25T11:11:11Z</time>
      </trkpt>
      <trkpt lat="46.54798" lon="5.52452">
        <ele>483.8</ele>
        <time>2021-10-25T11:11:14Z</time>
      </trkpt>
      <trkpt lat="46.54825" lon="5.5245">
        <ele>482.6</ele>
        <time>2021-10-25T11:11:17Z</time>
      </trkpt>
      <trkpt lat="46.54861" lon="5.52445">
        <ele>481.6</ele>
        <time>2021-10-25T11:11:21Z</time>
      </trkpt>
      <trkpt lat="46.54889" lon="5.52444">
        <ele>481.2</ele>
        <time>2021-10-25T11:11:24Z</time>
      </trkpt>
      <trkpt lat="46.54907" lon="5.5245">
        <ele>480.8</ele>
        <time>2021-10-25T11:11:26Z</time>
      </trkpt>
      <trkpt lat="46.54924" lon="5.52462">
        <ele>480.4</ele>
        <time>2021-10-25T11:11:28Z</time>
      </trkpt>
      <trkpt lat="46.5494" lon="5.52479">
        <ele>480</ele>
        <time>2021-10-25T11:11:30Z</time>
      </trkpt>
      <trkpt lat="46.54947" lon="5.52489">
        <ele>479</ele>
        <time>2021-10-25T11:11:31Z</time>
      </trkpt>
      <trkpt lat="46.54964" lon="5.52521">
        <ele>478</ele>
        <time>2021-10-25T11:11:34Z</time>
      </trkpt>
      <trkpt lat="46.54969" lon="5.52531">
        <ele>477.6</ele>
        <time>2021-10-25T11:11:35Z</time>
      </trkpt>
      <trkpt lat="46.54999" lon="5.52578">
        <ele>477</ele>
        <time>2021-10-25T11:11:40Z</time>
      </trkpt>
      <trkpt lat="46.55011" lon="5.52594">
        <ele>477</ele>
        <time>2021-10-25T11:11:42Z</time>
      </trkpt>
      <trkpt lat="46.55038" lon="5.52632">
        <ele>477</ele>
        <time>2021-10-25T11:11:47Z</time>
      </trkpt>
      <trkpt lat="46.55063" lon="5.52666">
        <ele>477.2</ele>
        <time>2021-10-25T11:11:52Z</time>
      </trkpt>
      <trkpt lat="46.55066" lon="5.52674">
        <ele>477.2</ele>
        <time>2021-10-25T11:11:53Z</time>
      </trkpt>
      <trkpt lat="46.55069" lon="5.52682">
        <ele>477.2</ele>
        <time>2021-10-25T11:11:54Z</time>
      </trkpt>
      <trkpt lat="46.55069" lon="5.527">
        <ele>477.2</ele>
        <time>2021-10-25T11:11:56Z</time>
      </trkpt>
      <trkpt lat="46.55061" lon="5.52723">
        <ele>477.2</ele>
        <time>2021-10-25T11:11:59Z</time>
      </trkpt>
      <trkpt lat="46.55035" lon="5.52775">
        <ele>477.4</ele>
        <time>2021-10-25T11:12:06Z</time>
      </trkpt>
      <trkpt lat="46.55003" lon="5.52821">
        <ele>477.6</ele>
        <time>2021-10-25T11:12:13Z</time>
      </trkpt>
      <trkpt lat="46.54971" lon="5.52874">
        <ele>477.8</ele>
        <time>2021-10-25T11:12:20Z</time>
      </trkpt>
      <trkpt lat="46.54958" lon="5.52908">
        <ele>478.2</ele>
        <time>2021-10-25T11:12:24Z</time>
      </trkpt>
      <trkpt lat="46.54954" lon="5.52925">
        <ele>478.4</ele>
        <time>2021-10-25T11:12:26Z</time>
      </trkpt>
      <trkpt lat="46.54942" lon="5.5298">
        <ele>478.8</ele>
        <time>2021-10-25T11:12:33Z</time>
      </trkpt>
      <trkpt lat="46.54933" lon="5.53008">
        <ele>479.4</ele>
        <time>2021-10-25T11:12:37Z</time>
      </trkpt>
      <trkpt lat="46.54928" lon="5.53022">
        <ele>479.6</ele>
        <time>2021-10-25T11:12:39Z</time>
      </trkpt>
      <trkpt lat="46.54913" lon="5.53058">
        <ele>480.4</ele>
        <time>2021-10-25T11:12:45Z</time>
      </trkpt>
      <trkpt lat="46.54909" lon="5.53069">
        <ele>481.2</ele>
        <time>2021-10-25T11:12:47Z</time>
      </trkpt>
      <trkpt lat="46.54906" lon="5.53075">
        <ele>481.4</ele>
        <time>2021-10-25T11:12:48Z</time>
      </trkpt>
      <trkpt lat="46.54896" lon="5.53096">
        <ele>482.6</ele>
        <time>2021-10-25T11:12:52Z</time>
      </trkpt>
      <trkpt lat="46.54892" lon="5.53107">
        <ele>483.4</ele>
        <time>2021-10-25T11:12:54Z</time>
      </trkpt>
      <trkpt lat="46.54889" lon="5.53112">
        <ele>483.6</ele>
        <time>2021-10-25T11:12:55Z</time>
      </trkpt>
      <trkpt lat="46.54879" lon="5.5313">
        <ele>484.2</ele>
        <time>2021-10-25T11:12:59Z</time>
      </trkpt>
      <trkpt lat="46.54872" lon="5.53138">
        <ele>484.4</ele>
        <time>2021-10-25T11:13:01Z</time>
      </trkpt>
      <trkpt lat="46.54868" lon="5.53142">
        <ele>484.6</ele>
        <time>2021-10-25T11:13:02Z</time>
      </trkpt>
      <trkpt lat="46.54843" lon="5.53158">
        <ele>485.6</ele>
        <time>2021-10-25T11:13:08Z</time>
      </trkpt>
      <trkpt lat="46.54834" lon="5.53162">
        <ele>485.8</ele>
        <time>2021-10-25T11:13:10Z</time>
      </trkpt>
      <trkpt lat="46.54806" lon="5.53176">
        <ele>486.8</ele>
        <time>2021-10-25T11:13:16Z</time>
      </trkpt>
      <trkpt lat="46.54802" lon="5.53178">
        <ele>487</ele>
        <time>2021-10-25T11:13:17Z</time>
      </trkpt>
      <trkpt lat="46.54771" lon="5.53193">
        <ele>488</ele>
        <time>2021-10-25T11:13:24Z</time>
      </trkpt>
      <trkpt lat="46.54762" lon="5.53196">
        <ele>488</ele>
        <time>2021-10-25T11:13:26Z</time>
      </trkpt>
      <trkpt lat="46.54737" lon="5.53199">
        <ele>489</ele>
        <time>2021-10-25T11:13:32Z</time>
      </trkpt>
      <trkpt lat="46.54733" lon="5.53199">
        <ele>489.2</ele>
        <time>2021-10-25T11:13:33Z</time>
      </trkpt>
      <trkpt lat="46.54713" lon="5.53197">
        <ele>490</ele>
        <time>2021-10-25T11:13:38Z</time>
      </trkpt>
      <trkpt lat="46.5471" lon="5.53197">
        <ele>490.2</ele>
        <time>2021-10-25T11:13:39Z</time>
      </trkpt>
      <trkpt lat="46.54698" lon="5.53195">
        <ele>491</ele>
        <time>2021-10-25T11:13:42Z</time>
      </trkpt>
      <trkpt lat="46.54695" lon="5.53194">
        <ele>491.2</ele>
        <time>2021-10-25T11:13:43Z</time>
      </trkpt>
      <trkpt lat="46.54674" lon="5.53192">
        <ele>492.4</ele>
        <time>2021-10-25T11:13:49Z</time>
      </trkpt>
      <trkpt lat="46.54663" lon="5.53192">
        <ele>493.6</ele>
        <time>2021-10-25T11:13:52Z</time>
      </trkpt>
      <trkpt lat="46.5466" lon="5.53193">
        <ele>494</ele>
        <time>2021-10-25T11:13:53Z</time>
      </trkpt>
      <trkpt lat="46.5465" lon="5.53194">
        <ele>494.8</ele>
        <time>2021-10-25T11:13:56Z</time>
      </trkpt>
      <trkpt lat="46.54643" lon="5.53196">
        <ele>495</ele>
        <time>2021-10-25T11:13:58Z</time>
      </trkpt>
      <trkpt lat="46.5463" lon="5.53201">
        <ele>495.8</ele>
        <time>2021-10-25T11:14:02Z</time>
      </trkpt>
      <trkpt lat="46.54626" lon="5.53203">
        <ele>496</ele>
        <time>2021-10-25T11:14:03Z</time>
      </trkpt>
      <trkpt lat="46.54604" lon="5.53211">
        <ele>497.2</ele>
        <time>2021-10-25T11:14:09Z</time>
      </trkpt>
      <trkpt lat="46.54601" lon="5.53213">
        <ele>497.6</ele>
        <time>2021-10-25T11:14:10Z</time>
      </trkpt>
      <trkpt lat="46.54583" lon="5.53219">
        <ele>498.4</ele>
        <time>2021-10-25T11:14:15Z</time>
      </trkpt>
      <trkpt lat="46.5457" lon="5.53224">
        <ele>499.4</ele>
        <time>2021-10-25T11:14:19Z</time>
      </trkpt>
      <trkpt lat="46.54566" lon="5.53225">
        <ele>499.6</ele>
        <time>2021-10-25T11:14:20Z</time>
      </trkpt>
      <trkpt lat="46.54542" lon="5.53232">
        <ele>500.6</ele>
        <time>2021-10-25T11:14:27Z</time>
      </trkpt>
      <trkpt lat="46.54539" lon="5.53233">
        <ele>500.8</ele>
        <time>2021-10-25T11:14:28Z</time>
      </trkpt>
      <trkpt lat="46.54521" lon="5.53237">
        <ele>501.8</ele>
        <time>2021-10-25T11:14:33Z</time>
      </trkpt>
      <trkpt lat="46.54496" lon="5.53243">
        <ele>503.2</ele>
        <time>2021-10-25T11:14:40Z</time>
      </trkpt>
      <trkpt lat="46.54493" lon="5.53244">
        <ele>503.4</ele>
        <time>2021-10-25T11:14:41Z</time>
      </trkpt>
      <trkpt lat="46.54476" lon="5.53247">
        <ele>504.6</ele>
        <time>2021-10-25T11:14:46Z</time>
      </trkpt>
      <trkpt lat="46.54463" lon="5.53251">
        <ele>505.2</ele>
        <time>2021-10-25T11:14:50Z</time>
      </trkpt>
      <trkpt lat="46.54452" lon="5.53252">
        <ele>505.8</ele>
        <time>2021-10-25T11:14:53Z</time>
      </trkpt>
      <trkpt lat="46.54439" lon="5.53255">
        <ele>506.8</ele>
        <time>2021-10-25T11:14:57Z</time>
      </trkpt>
      <trkpt lat="46.54433" lon="5.53256">
        <ele>507.4</ele>
        <time>2021-10-25T11:14:59Z</time>
      </trkpt>
      <trkpt lat="46.54422" lon="5.53259">
        <ele>508.2</ele>
        <time>2021-10-25T11:15:02Z</time>
      </trkpt>
      <trkpt lat="46.54406" lon="5.53263">
        <ele>509.2</ele>
        <time>2021-10-25T11:15:07Z</time>
      </trkpt>
      <trkpt lat="46.54403" lon="5.53265">
        <ele>509.4</ele>
        <time>2021-10-25T11:15:08Z</time>
      </trkpt>
      <trkpt lat="46.54389" lon="5.53275">
        <ele>510.4</ele>
        <time>2021-10-25T11:15:12Z</time>
      </trkpt>
      <trkpt lat="46.5438" lon="5.53285">
        <ele>510.8</ele>
        <time>2021-10-25T11:15:15Z</time>
      </trkpt>
      <trkpt lat="46.54369" lon="5.53302">
        <ele>511.4</ele>
        <time>2021-10-25T11:15:19Z</time>
      </trkpt>
      <trkpt lat="46.54364" lon="5.53316">
        <ele>511.8</ele>
        <time>2021-10-25T11:15:22Z</time>
      </trkpt>
      <trkpt lat="46.54357" lon="5.53337">
        <ele>512.8</ele>
        <time>2021-10-25T11:15:26Z</time>
      </trkpt>
      <trkpt lat="46.54354" lon="5.53354">
        <ele>513.4</ele>
        <time>2021-10-25T11:15:29Z</time>
      </trkpt>
      <trkpt lat="46.54353" lon="5.5336">
        <ele>513.6</ele>
        <time>2021-10-25T11:15:30Z</time>
      </trkpt>
      <trkpt lat="46.54351" lon="5.53373">
        <ele>514</ele>
        <time>2021-10-25T11:15:32Z</time>
      </trkpt>
      <trkpt lat="46.54344" lon="5.53399">
        <ele>514.2</ele>
        <time>2021-10-25T11:15:36Z</time>
      </trkpt>
      <trkpt lat="46.54336" lon="5.53415">
        <ele>514.4</ele>
        <time>2021-10-25T11:15:39Z</time>
      </trkpt>
      <trkpt lat="46.54326" lon="5.53428">
        <ele>514.8</ele>
        <time>2021-10-25T11:15:42Z</time>
      </trkpt>
      <trkpt lat="46.5432" lon="5.53437">
        <ele>515.2</ele>
        <time>2021-10-25T11:15:44Z</time>
      </trkpt>
      <trkpt lat="46.54306" lon="5.53451">
        <ele>516</ele>
        <time>2021-10-25T11:15:48Z</time>
      </trkpt>
      <trkpt lat="46.54303" lon="5.53456">
        <ele>516</ele>
        <time>2021-10-25T11:15:49Z</time>
      </trkpt>
      <trkpt lat="46.54298" lon="5.53464">
        <ele>516.4</ele>
        <time>2021-10-25T11:15:51Z</time>
      </trkpt>
      <trkpt lat="46.54286" lon="5.53492">
        <ele>517.2</ele>
        <time>2021-10-25T11:15:56Z</time>
      </trkpt>
      <trkpt lat="46.54284" lon="5.53498">
        <ele>517.4</ele>
        <time>2021-10-25T11:15:57Z</time>
      </trkpt>
      <trkpt lat="46.54271" lon="5.53539">
        <ele>518</ele>
        <time>2021-10-25T11:16:03Z</time>
      </trkpt>
      <trkpt lat="46.54251" lon="5.53584">
        <ele>518.2</ele>
        <time>2021-10-25T11:16:10Z</time>
      </trkpt>
      <trkpt lat="46.54227" lon="5.53633">
        <ele>518.4</ele>
        <time>2021-10-25T11:16:18Z</time>
      </trkpt>
      <trkpt lat="46.54218" lon="5.53649">
        <ele>518.8</ele>
        <time>2021-10-25T11:16:21Z</time>
      </trkpt>
      <trkpt lat="46.54208" lon="5.53675">
        <ele>519</ele>
        <time>2021-10-25T11:16:25Z</time>
      </trkpt>
      <trkpt lat="46.54205" lon="5.53691">
        <ele>519.4</ele>
        <time>2021-10-25T11:16:27Z</time>
      </trkpt>
      <trkpt lat="46.54204" lon="5.53699">
        <ele>519.8</ele>
        <time>2021-10-25T11:16:28Z</time>
      </trkpt>
      <trkpt lat="46.54201" lon="5.53747">
        <ele>520.8</ele>
        <time>2021-10-25T11:16:34Z</time>
      </trkpt>
      <trkpt lat="46.54196" lon="5.53831">
        <ele>521.6</ele>
        <time>2021-10-25T11:16:43Z</time>
      </trkpt>
      <trkpt lat="46.54196" lon="5.53838">
        <ele>521.8</ele>
        <time>2021-10-25T11:16:44Z</time>
      </trkpt>
      <trkpt lat="46.54195" lon="5.53848">
        <ele>521.8</ele>
        <time>2021-10-25T11:16:45Z</time>
      </trkpt>
      <trkpt lat="46.5419" lon="5.53924">
        <ele>522.2</ele>
        <time>2021-10-25T11:16:53Z</time>
      </trkpt>
      <trkpt lat="46.54182" lon="5.5399">
        <ele>522.6</ele>
        <time>2021-10-25T11:17:00Z</time>
      </trkpt>
      <trkpt lat="46.54166" lon="5.54047">
        <ele>523</ele>
        <time>2021-10-25T11:17:07Z</time>
      </trkpt>
      <trkpt lat="46.5416" lon="5.54065">
        <ele>523.2</ele>
        <time>2021-10-25T11:17:09Z</time>
      </trkpt>
      <trkpt lat="46.54139" lon="5.54139">
        <ele>523.8</ele>
        <time>2021-10-25T11:17:18Z</time>
      </trkpt>
      <trkpt lat="46.54125" lon="5.54194">
        <ele>525.2</ele>
        <time>2021-10-25T11:17:25Z</time>
      </trkpt>
      <trkpt lat="46.54116" lon="5.5422">
        <ele>525.6</ele>
        <time>2021-10-25T11:17:29Z</time>
      </trkpt>
      <trkpt lat="46.54111" lon="5.54242">
        <ele>526.4</ele>
        <time>2021-10-25T11:17:32Z</time>
      </trkpt>
      <trkpt lat="46.54105" lon="5.54264">
        <ele>526.8</ele>
        <time>2021-10-25T11:17:35Z</time>
      </trkpt>
      <trkpt lat="46.54098" lon="5.5429">
        <ele>527.4</ele>
        <time>2021-10-25T11:17:39Z</time>
      </trkpt>
      <trkpt lat="46.54093" lon="5.54313">
        <ele>528.4</ele>
        <time>2021-10-25T11:17:43Z</time>
      </trkpt>
      <trkpt lat="46.54084" lon="5.54341">
        <ele>529.4</ele>
        <time>2021-10-25T11:17:48Z</time>
      </trkpt>
      <trkpt lat="46.54082" lon="5.54346">
        <ele>529.8</ele>
        <time>2021-10-25T11:17:49Z</time>
      </trkpt>
      <trkpt lat="46.54079" lon="5.54357">
        <ele>530.6</ele>
        <time>2021-10-25T11:17:51Z</time>
      </trkpt>
      <trkpt lat="46.54073" lon="5.54384">
        <ele>531.8</ele>
        <time>2021-10-25T11:17:55Z</time>
      </trkpt>
      <trkpt lat="46.54072" lon="5.5439">
        <ele>532.2</ele>
        <time>2021-10-25T11:17:56Z</time>
      </trkpt>
      <trkpt lat="46.54068" lon="5.54409">
        <ele>532.8</ele>
        <time>2021-10-25T11:17:59Z</time>
      </trkpt>
      <trkpt lat="46.54066" lon="5.54414">
        <ele>533</ele>
        <time>2021-10-25T11:18:00Z</time>
      </trkpt>
      <trkpt lat="46.54062" lon="5.54425">
        <ele>533.4</ele>
        <time>2021-10-25T11:18:02Z</time>
      </trkpt>
      <trkpt lat="46.54055" lon="5.54454">
        <ele>534.2</ele>
        <time>2021-10-25T11:18:07Z</time>
      </trkpt>
      <trkpt lat="46.54036" lon="5.54513">
        <ele>535</ele>
        <time>2021-10-25T11:18:16Z</time>
      </trkpt>
      <trkpt lat="46.54033" lon="5.54526">
        <ele>535.4</ele>
        <time>2021-10-25T11:18:18Z</time>
      </trkpt>
      <trkpt lat="46.54024" lon="5.5456">
        <ele>536.4</ele>
        <time>2021-10-25T11:18:23Z</time>
      </trkpt>
      <trkpt lat="46.54015" lon="5.54589">
        <ele>536.6</ele>
        <time>2021-10-25T11:18:27Z</time>
      </trkpt>
      <trkpt lat="46.53998" lon="5.54655">
        <ele>536.8</ele>
        <time>2021-10-25T11:18:36Z</time>
      </trkpt>
      <trkpt lat="46.53986" lon="5.547">
        <ele>537.4</ele>
        <time>2021-10-25T11:18:42Z</time>
      </trkpt>
      <trkpt lat="46.53983" lon="5.54707">
        <ele>537.6</ele>
        <time>2021-10-25T11:18:43Z</time>
      </trkpt>
      <trkpt lat="46.5398" lon="5.54713">
        <ele>537.6</ele>
        <time>2021-10-25T11:18:44Z</time>
      </trkpt>
      <trkpt lat="46.53953" lon="5.54759">
        <ele>538</ele>
        <time>2021-10-25T11:18:52Z</time>
      </trkpt>
      <trkpt lat="46.53912" lon="5.54795">
        <ele>538</ele>
        <time>2021-10-25T11:19:00Z</time>
      </trkpt>
      <trkpt lat="46.539" lon="5.54804">
        <ele>537.6</ele>
        <time>2021-10-25T11:19:02Z</time>
      </trkpt>
      <trkpt lat="46.53887" lon="5.54809">
        <ele>537.4</ele>
        <time>2021-10-25T11:19:04Z</time>
      </trkpt>
      <trkpt lat="46.5386" lon="5.54814">
        <ele>537</ele>
        <time>2021-10-25T11:19:08Z</time>
      </trkpt>
      <trkpt lat="46.5384" lon="5.54818">
        <ele>536.6</ele>
        <time>2021-10-25T11:19:11Z</time>
      </trkpt>
      <trkpt lat="46.53819" lon="5.54823">
        <ele>536.2</ele>
        <time>2021-10-25T11:19:14Z</time>
      </trkpt>
      <trkpt lat="46.53796" lon="5.54826">
        <ele>535.8</ele>
        <time>2021-10-25T11:19:17Z</time>
      </trkpt>
      <trkpt lat="46.53773" lon="5.54829">
        <ele>535</ele>
        <time>2021-10-25T11:19:20Z</time>
      </trkpt>
      <trkpt lat="46.53756" lon="5.54827">
        <ele>534.8</ele>
        <time>2021-10-25T11:19:22Z</time>
      </trkpt>
      <trkpt lat="46.53731" lon="5.54819">
        <ele>534</ele>
        <time>2021-10-25T11:19:25Z</time>
      </trkpt>
      <trkpt lat="46.53707" lon="5.5481">
        <ele>533</ele>
        <time>2021-10-25T11:19:28Z</time>
      </trkpt>
      <trkpt lat="46.53699" lon="5.54806">
        <ele>533</ele>
        <time>2021-10-25T11:19:29Z</time>
      </trkpt>
      <trkpt lat="46.53675" lon="5.54797">
        <ele>531.8</ele>
        <time>2021-10-25T11:19:32Z</time>
      </trkpt>
      <trkpt lat="46.53634" lon="5.54782">
        <ele>530.4</ele>
        <time>2021-10-25T11:19:37Z</time>
      </trkpt>
      <trkpt lat="46.53618" lon="5.54776">
        <ele>530.2</ele>
        <time>2021-10-25T11:19:39Z</time>
      </trkpt>
      <trkpt lat="46.53575" lon="5.5476">
        <ele>529.4</ele>
        <time>2021-10-25T11:19:44Z</time>
      </trkpt>
      <trkpt lat="46.53548" lon="5.5475">
        <ele>528.4</ele>
        <time>2021-10-25T11:19:47Z</time>
      </trkpt>
      <trkpt lat="46.53521" lon="5.54741">
        <ele>526.8</ele>
        <time>2021-10-25T11:19:50Z</time>
      </trkpt>
      <trkpt lat="46.53484" lon="5.54726">
        <ele>525.6</ele>
        <time>2021-10-25T11:19:54Z</time>
      </trkpt>
      <trkpt lat="46.53475" lon="5.54722">
        <ele>525</ele>
        <time>2021-10-25T11:19:55Z</time>
      </trkpt>
      <trkpt lat="46.53465" lon="5.54719">
        <ele>524</ele>
        <time>2021-10-25T11:19:56Z</time>
      </trkpt>
      <trkpt lat="46.53428" lon="5.54706">
        <ele>522.8</ele>
        <time>2021-10-25T11:20:00Z</time>
      </trkpt>
      <trkpt lat="46.53391" lon="5.54694">
        <ele>521.8</ele>
        <time>2021-10-25T11:20:04Z</time>
      </trkpt>
      <trkpt lat="46.53364" lon="5.54685">
        <ele>521</ele>
        <time>2021-10-25T11:20:07Z</time>
      </trkpt>
      <trkpt lat="46.53346" lon="5.54679">
        <ele>520.6</ele>
        <time>2021-10-25T11:20:09Z</time>
      </trkpt>
      <trkpt lat="46.53293" lon="5.54662">
        <ele>519.8</ele>
        <time>2021-10-25T11:20:15Z</time>
      </trkpt>
      <trkpt lat="46.53284" lon="5.54659">
        <ele>519.6</ele>
        <time>2021-10-25T11:20:16Z</time>
      </trkpt>
      <trkpt lat="46.53266" lon="5.54654">
        <ele>518.6</ele>
        <time>2021-10-25T11:20:18Z</time>
      </trkpt>
      <trkpt lat="46.53257" lon="5.54651">
        <ele>518.4</ele>
        <time>2021-10-25T11:20:19Z</time>
      </trkpt>
      <trkpt lat="46.5322" lon="5.54644">
        <ele>517.4</ele>
        <time>2021-10-25T11:20:23Z</time>
      </trkpt>
      <trkpt lat="46.53189" lon="5.54641">
        <ele>516.6</ele>
        <time>2021-10-25T11:20:26Z</time>
      </trkpt>
      <trkpt lat="46.53181" lon="5.5464">
        <ele>516</ele>
        <time>2021-10-25T11:20:27Z</time>
      </trkpt>
      <trkpt lat="46.53139" lon="5.54633">
        <ele>515.4</ele>
        <time>2021-10-25T11:20:31Z</time>
      </trkpt>
      <trkpt lat="46.53129" lon="5.5463">
        <ele>514.6</ele>
        <time>2021-10-25T11:20:32Z</time>
      </trkpt>
      <trkpt lat="46.53108" lon="5.54627">
        <ele>513</ele>
        <time>2021-10-25T11:20:34Z</time>
      </trkpt>
      <trkpt lat="46.53087" lon="5.54625">
        <ele>512</ele>
        <time>2021-10-25T11:20:36Z</time>
      </trkpt>
      <trkpt lat="46.53068" lon="5.54622">
        <ele>510.8</ele>
        <time>2021-10-25T11:20:38Z</time>
      </trkpt>
      <trkpt lat="46.53058" lon="5.54621">
        <ele>509.8</ele>
        <time>2021-10-25T11:20:39Z</time>
      </trkpt>
      <trkpt lat="46.53039" lon="5.54617">
        <ele>509</ele>
        <time>2021-10-25T11:20:41Z</time>
      </trkpt>
      <trkpt lat="46.53019" lon="5.54616">
        <ele>508.6</ele>
        <time>2021-10-25T11:20:43Z</time>
      </trkpt>
      <trkpt lat="46.52959" lon="5.54611">
        <ele>507.2</ele>
        <time>2021-10-25T11:20:49Z</time>
      </trkpt>
      <trkpt lat="46.5292" lon="5.54609">
        <ele>506.4</ele>
        <time>2021-10-25T11:20:53Z</time>
      </trkpt>
      <trkpt lat="46.52901" lon="5.54607">
        <ele>505.8</ele>
        <time>2021-10-25T11:20:55Z</time>
      </trkpt>
      <trkpt lat="46.52873" lon="5.54604">
        <ele>504.8</ele>
        <time>2021-10-25T11:20:58Z</time>
      </trkpt>
      <trkpt lat="46.52853" lon="5.54603">
        <ele>504.4</ele>
        <time>2021-10-25T11:21:00Z</time>
      </trkpt>
      <trkpt lat="46.52814" lon="5.54601">
        <ele>503.6</ele>
        <time>2021-10-25T11:21:04Z</time>
      </trkpt>
      <trkpt lat="46.52793" lon="5.54601">
        <ele>502.8</ele>
        <time>2021-10-25T11:21:06Z</time>
      </trkpt>
      <trkpt lat="46.52782" lon="5.54601">
        <ele>501.8</ele>
        <time>2021-10-25T11:21:07Z</time>
      </trkpt>
      <trkpt lat="46.52761" lon="5.54602">
        <ele>500.8</ele>
        <time>2021-10-25T11:21:09Z</time>
      </trkpt>
      <trkpt lat="46.5275" lon="5.54604">
        <ele>500.6</ele>
        <time>2021-10-25T11:21:10Z</time>
      </trkpt>
      <trkpt lat="46.5274" lon="5.54611">
        <ele>500</ele>
        <time>2021-10-25T11:21:11Z</time>
      </trkpt>
      <trkpt lat="46.52733" lon="5.54623">
        <ele>499.8</ele>
        <time>2021-10-25T11:21:12Z</time>
      </trkpt>
      <trkpt lat="46.52723" lon="5.54654">
        <ele>498.8</ele>
        <time>2021-10-25T11:21:14Z</time>
      </trkpt>
      <trkpt lat="46.52721" lon="5.54672">
        <ele>498.4</ele>
        <time>2021-10-25T11:21:15Z</time>
      </trkpt>
      <trkpt lat="46.52719" lon="5.5469">
        <ele>497.4</ele>
        <time>2021-10-25T11:21:16Z</time>
      </trkpt>
      <trkpt lat="46.52716" lon="5.54726">
        <ele>495.8</ele>
        <time>2021-10-25T11:21:18Z</time>
      </trkpt>
      <trkpt lat="46.52715" lon="5.54744">
        <ele>495</ele>
        <time>2021-10-25T11:21:19Z</time>
      </trkpt>
      <trkpt lat="46.52713" lon="5.54762">
        <ele>494.4</ele>
        <time>2021-10-25T11:21:20Z</time>
      </trkpt>
      <trkpt lat="46.52712" lon="5.54778">
        <ele>493.4</ele>
        <time>2021-10-25T11:21:21Z</time>
      </trkpt>
      <trkpt lat="46.52706" lon="5.54845">
        <ele>492.2</ele>
        <time>2021-10-25T11:21:25Z</time>
      </trkpt>
      <trkpt lat="46.52702" lon="5.54895">
        <ele>491.6</ele>
        <time>2021-10-25T11:21:28Z</time>
      </trkpt>
      <trkpt lat="46.52699" lon="5.54928">
        <ele>491</ele>
        <time>2021-10-25T11:21:30Z</time>
      </trkpt>
      <trkpt lat="46.52695" lon="5.54978">
        <ele>490</ele>
        <time>2021-10-25T11:21:33Z</time>
      </trkpt>
      <trkpt lat="46.52692" lon="5.55012">
        <ele>488.8</ele>
        <time>2021-10-25T11:21:35Z</time>
      </trkpt>
      <trkpt lat="46.52691" lon="5.55028">
        <ele>488.6</ele>
        <time>2021-10-25T11:21:36Z</time>
      </trkpt>
      <trkpt lat="46.52689" lon="5.55044">
        <ele>487.6</ele>
        <time>2021-10-25T11:21:38Z</time>
      </trkpt>
      <trkpt lat="46.52684" lon="5.55124">
        <ele>486.6</ele>
        <time>2021-10-25T11:21:42Z</time>
      </trkpt>
      <trkpt lat="46.5268" lon="5.55169">
        <ele>486.2</ele>
        <time>2021-10-25T11:21:45Z</time>
      </trkpt>
      <trkpt lat="46.52674" lon="5.55253">
        <ele>485.8</ele>
        <time>2021-10-25T11:21:51Z</time>
      </trkpt>
      <trkpt lat="46.52673" lon="5.5528">
        <ele>485.6</ele>
        <time>2021-10-25T11:21:53Z</time>
      </trkpt>
      <trkpt lat="46.52671" lon="5.55307">
        <ele>485.4</ele>
        <time>2021-10-25T11:21:55Z</time>
      </trkpt>
      <trkpt lat="46.52665" lon="5.55391">
        <ele>485.2</ele>
        <time>2021-10-25T11:22:01Z</time>
      </trkpt>
      <trkpt lat="46.52662" lon="5.5542">
        <ele>485</ele>
        <time>2021-10-25T11:22:03Z</time>
      </trkpt>
      <trkpt lat="46.5266" lon="5.55449">
        <ele>484.2</ele>
        <time>2021-10-25T11:22:05Z</time>
      </trkpt>
      <trkpt lat="46.52655" lon="5.55521">
        <ele>483.4</ele>
        <time>2021-10-25T11:22:10Z</time>
      </trkpt>
      <trkpt lat="46.52649" lon="5.55603">
        <ele>482.6</ele>
        <time>2021-10-25T11:22:16Z</time>
      </trkpt>
      <trkpt lat="46.52646" lon="5.55643">
        <ele>482.4</ele>
        <time>2021-10-25T11:22:19Z</time>
      </trkpt>
      <trkpt lat="46.52645" lon="5.55656">
        <ele>482.4</ele>
        <time>2021-10-25T11:22:20Z</time>
      </trkpt>
      <trkpt lat="46.52639" lon="5.55743">
        <ele>482.6</ele>
        <time>2021-10-25T11:22:27Z</time>
      </trkpt>
      <trkpt lat="46.52632" lon="5.55828">
        <ele>482.8</ele>
        <time>2021-10-25T11:22:34Z</time>
      </trkpt>
      <trkpt lat="46.5263" lon="5.55864">
        <ele>482.8</ele>
        <time>2021-10-25T11:22:37Z</time>
      </trkpt>
      <trkpt lat="46.52623" lon="5.55956">
        <ele>482.6</ele>
        <time>2021-10-25T11:22:45Z</time>
      </trkpt>
      <trkpt lat="46.52621" lon="5.55993">
        <ele>482.6</ele>
        <time>2021-10-25T11:22:48Z</time>
      </trkpt>
      <trkpt lat="46.52614" lon="5.56071">
        <ele>483</ele>
        <time>2021-10-25T11:22:55Z</time>
      </trkpt>
      <trkpt lat="46.52611" lon="5.56103">
        <ele>483</ele>
        <time>2021-10-25T11:22:58Z</time>
      </trkpt>
      <trkpt lat="46.52612" lon="5.56112">
        <ele>483.2</ele>
        <time>2021-10-25T11:22:59Z</time>
      </trkpt>
      <trkpt lat="46.52615" lon="5.5612">
        <ele>483.2</ele>
        <time>2021-10-25T11:23:00Z</time>
      </trkpt>
      <trkpt lat="46.52619" lon="5.56123">
        <ele>483.4</ele>
        <time>2021-10-25T11:23:01Z</time>
      </trkpt>
      <trkpt lat="46.52625" lon="5.56122">
        <ele>483.6</ele>
        <time>2021-10-25T11:23:02Z</time>
      </trkpt>
      <trkpt lat="46.52638" lon="5.56116">
        <ele>484</ele>
        <time>2021-10-25T11:23:04Z</time>
      </trkpt>
      <trkpt lat="46.52678" lon="5.56099">
        <ele>484.2</ele>
        <time>2021-10-25T11:23:10Z</time>
      </trkpt>
      <trkpt lat="46.52704" lon="5.56088">
        <ele>484.2</ele>
        <time>2021-10-25T11:23:14Z</time>
      </trkpt>
      <trkpt lat="46.52711" lon="5.56088">
        <ele>484.2</ele>
        <time>2021-10-25T11:23:15Z</time>
      </trkpt>
      <trkpt lat="46.52717" lon="5.56091">
        <ele>484.2</ele>
        <time>2021-10-25T11:23:16Z</time>
      </trkpt>
      <trkpt lat="46.52721" lon="5.56098">
        <ele>484.2</ele>
        <time>2021-10-25T11:23:17Z</time>
      </trkpt>
      <trkpt lat="46.52724" lon="5.56106">
        <ele>484.4</ele>
        <time>2021-10-25T11:23:18Z</time>
      </trkpt>
      <trkpt lat="46.52728" lon="5.56124">
        <ele>484.6</ele>
        <time>2021-10-25T11:23:20Z</time>
      </trkpt>
      <trkpt lat="46.5273" lon="5.56133">
        <ele>484.6</ele>
        <time>2021-10-25T11:23:21Z</time>
      </trkpt>
      <trkpt lat="46.5274" lon="5.56168">
        <ele>484.4</ele>
        <time>2021-10-25T11:23:25Z</time>
      </trkpt>
      <trkpt lat="46.5276" lon="5.5624">
        <ele>484.8</ele>
        <time>2021-10-25T11:23:33Z</time>
      </trkpt>
      <trkpt lat="46.52762" lon="5.5625">
        <ele>484.8</ele>
        <time>2021-10-25T11:23:34Z</time>
      </trkpt>
      <trkpt lat="46.52767" lon="5.56269">
        <ele>484.8</ele>
        <time>2021-10-25T11:23:36Z</time>
      </trkpt>
      <trkpt lat="46.52787" lon="5.56351">
        <ele>485</ele>
        <time>2021-10-25T11:23:45Z</time>
      </trkpt>
      <trkpt lat="46.5279" lon="5.5636">
        <ele>485</ele>
        <time>2021-10-25T11:23:46Z</time>
      </trkpt>
      <trkpt lat="46.52811" lon="5.56444">
        <ele>485.4</ele>
        <time>2021-10-25T11:23:55Z</time>
      </trkpt>
      <trkpt lat="46.52828" lon="5.56518">
        <ele>485.4</ele>
        <time>2021-10-25T11:24:03Z</time>
      </trkpt>
      <trkpt lat="46.52835" lon="5.56542">
        <ele>486</ele>
        <time>2021-10-25T11:24:06Z</time>
      </trkpt>
      <trkpt lat="46.52842" lon="5.56565">
        <ele>487</ele>
        <time>2021-10-25T11:24:09Z</time>
      </trkpt>
      <trkpt lat="46.52846" lon="5.56582">
        <ele>487.2</ele>
        <time>2021-10-25T11:24:11Z</time>
      </trkpt>
      <trkpt lat="46.52857" lon="5.56635">
        <ele>487.8</ele>
        <time>2021-10-25T11:24:17Z</time>
      </trkpt>
      <trkpt lat="46.52872" lon="5.56705">
        <ele>488</ele>
        <time>2021-10-25T11:24:25Z</time>
      </trkpt>
      <trkpt lat="46.52879" lon="5.56734">
        <ele>488.4</ele>
        <time>2021-10-25T11:24:28Z</time>
      </trkpt>
      <trkpt lat="46.52888" lon="5.56768">
        <ele>488.8</ele>
        <time>2021-10-25T11:24:32Z</time>
      </trkpt>
      <trkpt lat="46.52896" lon="5.56805">
        <ele>489.4</ele>
        <time>2021-10-25T11:24:36Z</time>
      </trkpt>
      <trkpt lat="46.52902" lon="5.56832">
        <ele>489.6</ele>
        <time>2021-10-25T11:24:39Z</time>
      </trkpt>
      <trkpt lat="46.5292" lon="5.5691">
        <ele>490.2</ele>
        <time>2021-10-25T11:24:47Z</time>
      </trkpt>
      <trkpt lat="46.52941" lon="5.56982">
        <ele>490.4</ele>
        <time>2021-10-25T11:24:55Z</time>
      </trkpt>
      <trkpt lat="46.52955" lon="5.57008">
        <ele>489.6</ele>
        <time>2021-10-25T11:24:58Z</time>
      </trkpt>
      <trkpt lat="46.52964" lon="5.57022">
        <ele>489.4</ele>
        <time>2021-10-25T11:25:00Z</time>
      </trkpt>
      <trkpt lat="46.52994" lon="5.57071">
        <ele>488.8</ele>
        <time>2021-10-25T11:25:06Z</time>
      </trkpt>
      <trkpt lat="46.53014" lon="5.5712">
        <ele>488.4</ele>
        <time>2021-10-25T11:25:11Z</time>
      </trkpt>
      <trkpt lat="46.53018" lon="5.57131">
        <ele>488.2</ele>
        <time>2021-10-25T11:25:12Z</time>
      </trkpt>
      <trkpt lat="46.53044" lon="5.57199">
        <ele>488.2</ele>
        <time>2021-10-25T11:25:19Z</time>
      </trkpt>
      <trkpt lat="46.53066" lon="5.57254">
        <ele>489</ele>
        <time>2021-10-25T11:25:26Z</time>
      </trkpt>
      <trkpt lat="46.5307" lon="5.57261">
        <ele>489.8</ele>
        <time>2021-10-25T11:25:27Z</time>
      </trkpt>
      <trkpt lat="46.53077" lon="5.5728">
        <ele>490</ele>
        <time>2021-10-25T11:25:29Z</time>
      </trkpt>
      <trkpt lat="46.53084" lon="5.57294">
        <ele>490.2</ele>
        <time>2021-10-25T11:25:31Z</time>
      </trkpt>
      <trkpt lat="46.53112" lon="5.57333">
        <ele>490.6</ele>
        <time>2021-10-25T11:25:37Z</time>
      </trkpt>
      <trkpt lat="46.53119" lon="5.57338">
        <ele>490.6</ele>
        <time>2021-10-25T11:25:38Z</time>
      </trkpt>
      <trkpt lat="46.53124" lon="5.57342">
        <ele>490.8</ele>
        <time>2021-10-25T11:25:39Z</time>
      </trkpt>
      <trkpt lat="46.53134" lon="5.57349">
        <ele>491.4</ele>
        <time>2021-10-25T11:25:41Z</time>
      </trkpt>
      <trkpt lat="46.53144" lon="5.57356">
        <ele>492</ele>
        <time>2021-10-25T11:25:43Z</time>
      </trkpt>
      <trkpt lat="46.53169" lon="5.57376">
        <ele>492.4</ele>
        <time>2021-10-25T11:25:48Z</time>
      </trkpt>
      <trkpt lat="46.53194" lon="5.57398">
        <ele>492.6</ele>
        <time>2021-10-25T11:25:53Z</time>
      </trkpt>
      <trkpt lat="46.53203" lon="5.57408">
        <ele>493</ele>
        <time>2021-10-25T11:25:55Z</time>
      </trkpt>
      <trkpt lat="46.53233" lon="5.57443">
        <ele>494.2</ele>
        <time>2021-10-25T11:26:02Z</time>
      </trkpt>
      <trkpt lat="46.53261" lon="5.57483">
        <ele>494.8</ele>
        <time>2021-10-25T11:26:08Z</time>
      </trkpt>
      <trkpt lat="46.53265" lon="5.57492">
        <ele>494.8</ele>
        <time>2021-10-25T11:26:09Z</time>
      </trkpt>
      <trkpt lat="46.53275" lon="5.57527">
        <ele>494.6</ele>
        <time>2021-10-25T11:26:13Z</time>
      </trkpt>
      <trkpt lat="46.53286" lon="5.57587">
        <ele>494</ele>
        <time>2021-10-25T11:26:19Z</time>
      </trkpt>
      <trkpt lat="46.53286" lon="5.57635">
        <ele>494.2</ele>
        <time>2021-10-25T11:26:24Z</time>
      </trkpt>
      <trkpt lat="46.53286" lon="5.5765">
        <ele>494.2</ele>
        <time>2021-10-25T11:26:26Z</time>
      </trkpt>
      <trkpt lat="46.53288" lon="5.57666">
        <ele>494.8</ele>
        <time>2021-10-25T11:26:28Z</time>
      </trkpt>
      <trkpt lat="46.5329" lon="5.57675">
        <ele>495.4</ele>
        <time>2021-10-25T11:26:29Z</time>
      </trkpt>
      <trkpt lat="46.533" lon="5.57698">
        <ele>496</ele>
        <time>2021-10-25T11:26:32Z</time>
      </trkpt>
      <trkpt lat="46.53309" lon="5.57712">
        <ele>496</ele>
        <time>2021-10-25T11:26:34Z</time>
      </trkpt>
      <trkpt lat="46.5332" lon="5.57727">
        <ele>495.8</ele>
        <time>2021-10-25T11:26:36Z</time>
      </trkpt>
      <trkpt lat="46.53331" lon="5.57738">
        <ele>495.8</ele>
        <time>2021-10-25T11:26:38Z</time>
      </trkpt>
      <trkpt lat="46.53352" lon="5.57747">
        <ele>495</ele>
        <time>2021-10-25T11:26:41Z</time>
      </trkpt>
      <trkpt lat="46.53367" lon="5.57753">
        <ele>494</ele>
        <time>2021-10-25T11:26:43Z</time>
      </trkpt>
      <trkpt lat="46.53398" lon="5.57762">
        <ele>493.2</ele>
        <time>2021-10-25T11:26:47Z</time>
      </trkpt>
      <trkpt lat="46.5342" lon="5.5777">
        <ele>493</ele>
        <time>2021-10-25T11:26:50Z</time>
      </trkpt>
      <trkpt lat="46.53433" lon="5.57776">
        <ele>492.6</ele>
        <time>2021-10-25T11:26:52Z</time>
      </trkpt>
      <trkpt lat="46.53464" lon="5.57798">
        <ele>492.8</ele>
        <time>2021-10-25T11:26:57Z</time>
      </trkpt>
      <trkpt lat="46.5347" lon="5.57805">
        <ele>492.8</ele>
        <time>2021-10-25T11:26:58Z</time>
      </trkpt>
      <trkpt lat="46.53497" lon="5.57834">
        <ele>492.6</ele>
        <time>2021-10-25T11:27:02Z</time>
      </trkpt>
      <trkpt lat="46.53522" lon="5.57856">
        <ele>491.8</ele>
        <time>2021-10-25T11:27:05Z</time>
      </trkpt>
      <trkpt lat="46.53542" lon="5.5787">
        <ele>491</ele>
        <time>2021-10-25T11:27:07Z</time>
      </trkpt>
      <trkpt lat="46.5355" lon="5.57875">
        <ele>489.6</ele>
        <time>2021-10-25T11:27:08Z</time>
      </trkpt>
      <trkpt lat="46.5357" lon="5.57883">
        <ele>488.4</ele>
        <time>2021-10-25T11:27:10Z</time>
      </trkpt>
      <trkpt lat="46.53589" lon="5.57891">
        <ele>487.8</ele>
        <time>2021-10-25T11:27:12Z</time>
      </trkpt>
      <trkpt lat="46.53608" lon="5.57899">
        <ele>487.4</ele>
        <time>2021-10-25T11:27:14Z</time>
      </trkpt>
      <trkpt lat="46.53644" lon="5.57912">
        <ele>487</ele>
        <time>2021-10-25T11:27:18Z</time>
      </trkpt>
      <trkpt lat="46.53692" lon="5.57926">
        <ele>487.4</ele>
        <time>2021-10-25T11:27:24Z</time>
      </trkpt>
      <trkpt lat="46.53732" lon="5.57937">
        <ele>488.4</ele>
        <time>2021-10-25T11:27:30Z</time>
      </trkpt>
      <trkpt lat="46.53738" lon="5.57939">
        <ele>488.6</ele>
        <time>2021-10-25T11:27:31Z</time>
      </trkpt>
      <trkpt lat="46.53754" lon="5.57943">
        <ele>489.8</ele>
        <time>2021-10-25T11:27:34Z</time>
      </trkpt>
      <trkpt lat="46.53761" lon="5.57945">
        <ele>490</ele>
        <time>2021-10-25T11:27:35Z</time>
      </trkpt>
      <trkpt lat="46.53775" lon="5.57949">
        <ele>490.8</ele>
        <time>2021-10-25T11:27:38Z</time>
      </trkpt>
      <trkpt lat="46.5378" lon="5.5795">
        <ele>491</ele>
        <time>2021-10-25T11:27:39Z</time>
      </trkpt>
      <trkpt lat="46.53805" lon="5.57957">
        <ele>492.4</ele>
        <time>2021-10-25T11:27:44Z</time>
      </trkpt>
      <trkpt lat="46.5381" lon="5.57959">
        <ele>492.8</ele>
        <time>2021-10-25T11:27:45Z</time>
      </trkpt>
      <trkpt lat="46.53824" lon="5.57962">
        <ele>493.6</ele>
        <time>2021-10-25T11:27:48Z</time>
      </trkpt>
      <trkpt lat="46.53847" lon="5.57969">
        <ele>494.4</ele>
        <time>2021-10-25T11:27:53Z</time>
      </trkpt>
      <trkpt lat="46.53852" lon="5.5797">
        <ele>494.6</ele>
        <time>2021-10-25T11:27:54Z</time>
      </trkpt>
      <trkpt lat="46.53871" lon="5.57975">
        <ele>495.8</ele>
        <time>2021-10-25T11:27:58Z</time>
      </trkpt>
      <trkpt lat="46.53896" lon="5.57981">
        <ele>497</ele>
        <time>2021-10-25T11:28:04Z</time>
      </trkpt>
      <trkpt lat="46.53916" lon="5.57982">
        <ele>498</ele>
        <time>2021-10-25T11:28:09Z</time>
      </trkpt>
      <trkpt lat="46.53927" lon="5.57983">
        <ele>499</ele>
        <time>2021-10-25T11:28:12Z</time>
      </trkpt>
      <trkpt lat="46.5393" lon="5.57983">
        <ele>499.6</ele>
        <time>2021-10-25T11:28:13Z</time>
      </trkpt>
      <trkpt lat="46.53944" lon="5.57987">
        <ele>500.6</ele>
        <time>2021-10-25T11:28:17Z</time>
      </trkpt>
      <trkpt lat="46.53952" lon="5.57989">
        <ele>501.8</ele>
        <time>2021-10-25T11:28:20Z</time>
      </trkpt>
      <trkpt lat="46.53958" lon="5.5799">
        <ele>503</ele>
        <time>2021-10-25T11:28:22Z</time>
      </trkpt>
      <trkpt lat="46.53967" lon="5.57992">
        <ele>504</ele>
        <time>2021-10-25T11:28:25Z</time>
      </trkpt>
      <trkpt lat="46.53973" lon="5.57994">
        <ele>504.6</ele>
        <time>2021-10-25T11:28:27Z</time>
      </trkpt>
      <trkpt lat="46.53979" lon="5.57997">
        <ele>505.2</ele>
        <time>2021-10-25T11:28:29Z</time>
      </trkpt>
      <trkpt lat="46.54" lon="5.58007">
        <ele>506.2</ele>
        <time>2021-10-25T11:28:35Z</time>
      </trkpt>
      <trkpt lat="46.54003" lon="5.58008">
        <ele>506.6</ele>
        <time>2021-10-25T11:28:36Z</time>
      </trkpt>
      <trkpt lat="46.54015" lon="5.58016">
        <ele>507.4</ele>
        <time>2021-10-25T11:28:39Z</time>
      </trkpt>
      <trkpt lat="46.5403" lon="5.58027">
        <ele>507.8</ele>
        <time>2021-10-25T11:28:43Z</time>
      </trkpt>
      <trkpt lat="46.54038" lon="5.58032">
        <ele>508</ele>
        <time>2021-10-25T11:28:45Z</time>
      </trkpt>
      <trkpt lat="46.54053" lon="5.58043">
        <ele>508.4</ele>
        <time>2021-10-25T11:28:49Z</time>
      </trkpt>
      <trkpt lat="46.54057" lon="5.58047">
        <ele>508.6</ele>
        <time>2021-10-25T11:28:50Z</time>
      </trkpt>
      <trkpt lat="46.54067" lon="5.58061">
        <ele>508.8</ele>
        <time>2021-10-25T11:28:53Z</time>
      </trkpt>
      <trkpt lat="46.54076" lon="5.58074">
        <ele>508.8</ele>
        <time>2021-10-25T11:28:55Z</time>
      </trkpt>
      <trkpt lat="46.54104" lon="5.58107">
        <ele>508.2</ele>
        <time>2021-10-25T11:29:00Z</time>
      </trkpt>
      <trkpt lat="46.54123" lon="5.58126">
        <ele>507.2</ele>
        <time>2021-10-25T11:29:03Z</time>
      </trkpt>
      <trkpt lat="46.54144" lon="5.5815">
        <ele>505.8</ele>
        <time>2021-10-25T11:29:06Z</time>
      </trkpt>
      <trkpt lat="46.54161" lon="5.58179">
        <ele>505</ele>
        <time>2021-10-25T11:29:09Z</time>
      </trkpt>
      <trkpt lat="46.54166" lon="5.58191">
        <ele>504.6</ele>
        <time>2021-10-25T11:29:10Z</time>
      </trkpt>
      <trkpt lat="46.54169" lon="5.58204">
        <ele>504.2</ele>
        <time>2021-10-25T11:29:11Z</time>
      </trkpt>
      <trkpt lat="46.54174" lon="5.58232">
        <ele>503.4</ele>
        <time>2021-10-25T11:29:13Z</time>
      </trkpt>
      <trkpt lat="46.54177" lon="5.58246">
        <ele>503</ele>
        <time>2021-10-25T11:29:14Z</time>
      </trkpt>
      <trkpt lat="46.54181" lon="5.58259">
        <ele>502.2</ele>
        <time>2021-10-25T11:29:15Z</time>
      </trkpt>
      <trkpt lat="46.54187" lon="5.58271">
        <ele>501.8</ele>
        <time>2021-10-25T11:29:16Z</time>
      </trkpt>
      <trkpt lat="46.54194" lon="5.58281">
        <ele>501.4</ele>
        <time>2021-10-25T11:29:17Z</time>
      </trkpt>
      <trkpt lat="46.54202" lon="5.58289">
        <ele>501.2</ele>
        <time>2021-10-25T11:29:18Z</time>
      </trkpt>
      <trkpt lat="46.54211" lon="5.58295">
        <ele>501.2</ele>
        <time>2021-10-25T11:29:19Z</time>
      </trkpt>
      <trkpt lat="46.5422" lon="5.583">
        <ele>500.8</ele>
        <time>2021-10-25T11:29:20Z</time>
      </trkpt>
      <trkpt lat="46.54238" lon="5.58309">
        <ele>500</ele>
        <time>2021-10-25T11:29:22Z</time>
      </trkpt>
      <trkpt lat="46.54273" lon="5.58326">
        <ele>499</ele>
        <time>2021-10-25T11:29:26Z</time>
      </trkpt>
      <trkpt lat="46.54289" lon="5.58335">
        <ele>498.8</ele>
        <time>2021-10-25T11:29:28Z</time>
      </trkpt>
      <trkpt lat="46.54342" lon="5.5836">
        <ele>498.8</ele>
        <time>2021-10-25T11:29:35Z</time>
      </trkpt>
      <trkpt lat="46.54362" lon="5.5837">
        <ele>500.2</ele>
        <time>2021-10-25T11:29:38Z</time>
      </trkpt>
      <trkpt lat="46.54388" lon="5.58383">
        <ele>501.2</ele>
        <time>2021-10-25T11:29:42Z</time>
      </trkpt>
      <trkpt lat="46.54399" lon="5.58388">
        <ele>501.2</ele>
        <time>2021-10-25T11:29:44Z</time>
      </trkpt>
      <trkpt lat="46.54438" lon="5.58405">
        <ele>502.2</ele>
        <time>2021-10-25T11:29:50Z</time>
      </trkpt>
      <trkpt lat="46.54445" lon="5.58408">
        <ele>502.2</ele>
        <time>2021-10-25T11:29:51Z</time>
      </trkpt>
      <trkpt lat="46.54495" lon="5.58425">
        <ele>503.4</ele>
        <time>2021-10-25T11:29:59Z</time>
      </trkpt>
      <trkpt lat="46.54521" lon="5.58431">
        <ele>504.4</ele>
        <time>2021-10-25T11:30:04Z</time>
      </trkpt>
      <trkpt lat="46.54526" lon="5.58434">
        <ele>504.6</ele>
        <time>2021-10-25T11:30:05Z</time>
      </trkpt>
      <trkpt lat="46.54531" lon="5.58438">
        <ele>504.8</ele>
        <time>2021-10-25T11:30:06Z</time>
      </trkpt>
      <trkpt lat="46.54537" lon="5.58452">
        <ele>505</ele>
        <time>2021-10-25T11:30:08Z</time>
      </trkpt>
      <trkpt lat="46.54539" lon="5.58493">
        <ele>505.2</ele>
        <time>2021-10-25T11:30:12Z</time>
      </trkpt>
      <trkpt lat="46.54532" lon="5.58563">
        <ele>504.4</ele>
        <time>2021-10-25T11:30:18Z</time>
      </trkpt>
      <trkpt lat="46.54523" lon="5.58641">
        <ele>504</ele>
        <time>2021-10-25T11:30:25Z</time>
      </trkpt>
      <trkpt lat="46.54515" lon="5.58723">
        <ele>503.6</ele>
        <time>2021-10-25T11:30:33Z</time>
      </trkpt>
      <trkpt lat="46.54515" lon="5.58733">
        <ele>503.4</ele>
        <time>2021-10-25T11:30:34Z</time>
      </trkpt>
      <trkpt lat="46.54513" lon="5.58813">
        <ele>502.8</ele>
        <time>2021-10-25T11:30:41Z</time>
      </trkpt>
      <trkpt lat="46.54512" lon="5.58824">
        <ele>502.4</ele>
        <time>2021-10-25T11:30:42Z</time>
      </trkpt>
      <trkpt lat="46.54511" lon="5.58874">
        <ele>501.4</ele>
        <time>2021-10-25T11:30:46Z</time>
      </trkpt>
      <trkpt lat="46.5451" lon="5.58948">
        <ele>500.8</ele>
        <time>2021-10-25T11:30:53Z</time>
      </trkpt>
      <trkpt lat="46.54508" lon="5.59032">
        <ele>501.4</ele>
        <time>2021-10-25T11:31:01Z</time>
      </trkpt>
      <trkpt lat="46.54507" lon="5.59041">
        <ele>501.4</ele>
        <time>2021-10-25T11:31:02Z</time>
      </trkpt>
      <trkpt lat="46.545" lon="5.59123">
        <ele>501.4</ele>
        <time>2021-10-25T11:31:09Z</time>
      </trkpt>
      <trkpt lat="46.54496" lon="5.59157">
        <ele>500.2</ele>
        <time>2021-10-25T11:31:12Z</time>
      </trkpt>
      <trkpt lat="46.54492" lon="5.59205">
        <ele>499.2</ele>
        <time>2021-10-25T11:31:16Z</time>
      </trkpt>
      <trkpt lat="46.54488" lon="5.59261">
        <ele>498.8</ele>
        <time>2021-10-25T11:31:21Z</time>
      </trkpt>
      <trkpt lat="46.54481" lon="5.59282">
        <ele>498.8</ele>
        <time>2021-10-25T11:31:23Z</time>
      </trkpt>
      <trkpt lat="46.54476" lon="5.5929">
        <ele>498.6</ele>
        <time>2021-10-25T11:31:24Z</time>
      </trkpt>
      <trkpt lat="46.54459" lon="5.59327">
        <ele>498.2</ele>
        <time>2021-10-25T11:31:28Z</time>
      </trkpt>
      <trkpt lat="46.54457" lon="5.59338">
        <ele>498</ele>
        <time>2021-10-25T11:31:29Z</time>
      </trkpt>
      <trkpt lat="46.54448" lon="5.59398">
        <ele>497.8</ele>
        <time>2021-10-25T11:31:34Z</time>
      </trkpt>
      <trkpt lat="46.54442" lon="5.59438">
        <ele>497.2</ele>
        <time>2021-10-25T11:31:37Z</time>
      </trkpt>
      <trkpt lat="46.54435" lon="5.59489">
        <ele>496</ele>
        <time>2021-10-25T11:31:41Z</time>
      </trkpt>
      <trkpt lat="46.54429" lon="5.59531">
        <ele>495</ele>
        <time>2021-10-25T11:31:44Z</time>
      </trkpt>
      <trkpt lat="46.54424" lon="5.59571">
        <ele>493.8</ele>
        <time>2021-10-25T11:31:47Z</time>
      </trkpt>
      <trkpt lat="46.54417" lon="5.59626">
        <ele>492.8</ele>
        <time>2021-10-25T11:31:51Z</time>
      </trkpt>
      <trkpt lat="46.54415" lon="5.5965">
        <ele>492.2</ele>
        <time>2021-10-25T11:31:53Z</time>
      </trkpt>
      <trkpt lat="46.54412" lon="5.59676">
        <ele>491.4</ele>
        <time>2021-10-25T11:31:55Z</time>
      </trkpt>
      <trkpt lat="46.54406" lon="5.59728">
        <ele>490.2</ele>
        <time>2021-10-25T11:31:59Z</time>
      </trkpt>
      <trkpt lat="46.54402" lon="5.59767">
        <ele>489.8</ele>
        <time>2021-10-25T11:32:02Z</time>
      </trkpt>
      <trkpt lat="46.54398" lon="5.59802">
        <ele>489.2</ele>
        <time>2021-10-25T11:32:05Z</time>
      </trkpt>
      <trkpt lat="46.54391" lon="5.59856">
        <ele>488.6</ele>
        <time>2021-10-25T11:32:10Z</time>
      </trkpt>
      <trkpt lat="46.54384" lon="5.59912">
        <ele>488.4</ele>
        <time>2021-10-25T11:32:16Z</time>
      </trkpt>
      <trkpt lat="46.54381" lon="5.59929">
        <ele>488.4</ele>
        <time>2021-10-25T11:32:20Z</time>
      </trkpt>
      <trkpt lat="46.54382" lon="5.59936">
        <ele>489</ele>
        <time>2021-10-25T11:32:25Z</time>
      </trkpt>
      <trkpt lat="46.54382" lon="5.59936">
        <ele>489.2</ele>
        <time>2021-10-25T11:32:26Z</time>
      </trkpt>
      <trkpt lat="46.54382" lon="5.59936">
        <ele>489.2</ele>
        <time>2021-10-25T11:32:27Z</time>
      </trkpt>
      <trkpt lat="46.54386" lon="5.59941">
        <ele>489.6</ele>
        <time>2021-10-25T11:32:37Z</time>
      </trkpt>
      <trkpt lat="46.54394" lon="5.59942">
        <ele>489.6</ele>
        <time>2021-10-25T11:32:39Z</time>
      </trkpt>
      <trkpt lat="46.54397" lon="5.59942">
        <ele>489.6</ele>
        <time>2021-10-25T11:32:40Z</time>
      </trkpt>
      <trkpt lat="46.54415" lon="5.59945">
        <ele>489.6</ele>
        <time>2021-10-25T11:32:43Z</time>
      </trkpt>
      <trkpt lat="46.5444" lon="5.59951">
        <ele>489.6</ele>
        <time>2021-10-25T11:32:47Z</time>
      </trkpt>
      <trkpt lat="46.54447" lon="5.59954">
        <ele>489.6</ele>
        <time>2021-10-25T11:32:48Z</time>
      </trkpt>
      <trkpt lat="46.54502" lon="5.59969">
        <ele>490.2</ele>
        <time>2021-10-25T11:32:57Z</time>
      </trkpt>
      <trkpt lat="46.54508" lon="5.59971">
        <ele>490.6</ele>
        <time>2021-10-25T11:32:58Z</time>
      </trkpt>
      <trkpt lat="46.54541" lon="5.59983">
        <ele>491.4</ele>
        <time>2021-10-25T11:33:04Z</time>
      </trkpt>
      <trkpt lat="46.54547" lon="5.59985">
        <ele>491.6</ele>
        <time>2021-10-25T11:33:05Z</time>
      </trkpt>
      <trkpt lat="46.54572" lon="5.59989">
        <ele>492.8</ele>
        <time>2021-10-25T11:33:10Z</time>
      </trkpt>
      <trkpt lat="46.54582" lon="5.59989">
        <ele>493.2</ele>
        <time>2021-10-25T11:33:12Z</time>
      </trkpt>
      <trkpt lat="46.54632" lon="5.59979">
        <ele>493.8</ele>
        <time>2021-10-25T11:33:21Z</time>
      </trkpt>
      <trkpt lat="46.54637" lon="5.59977">
        <ele>493.8</ele>
        <time>2021-10-25T11:33:22Z</time>
      </trkpt>
      <trkpt lat="46.54675" lon="5.59954">
        <ele>494.2</ele>
        <time>2021-10-25T11:33:29Z</time>
      </trkpt>
      <trkpt lat="46.54717" lon="5.59937">
        <ele>494.4</ele>
        <time>2021-10-25T11:33:36Z</time>
      </trkpt>
      <trkpt lat="46.5473" lon="5.59938">
        <ele>494.4</ele>
        <time>2021-10-25T11:33:38Z</time>
      </trkpt>
      <trkpt lat="46.54742" lon="5.59943">
        <ele>494.6</ele>
        <time>2021-10-25T11:33:40Z</time>
      </trkpt>
      <trkpt lat="46.54753" lon="5.59952">
        <ele>494.6</ele>
        <time>2021-10-25T11:33:42Z</time>
      </trkpt>
      <trkpt lat="46.54763" lon="5.59964">
        <ele>494.8</ele>
        <time>2021-10-25T11:33:44Z</time>
      </trkpt>
      <trkpt lat="46.54779" lon="5.59992">
        <ele>495</ele>
        <time>2021-10-25T11:33:48Z</time>
      </trkpt>
      <trkpt lat="46.54788" lon="5.60006">
        <ele>495.4</ele>
        <time>2021-10-25T11:33:50Z</time>
      </trkpt>
      <trkpt lat="46.54797" lon="5.60018">
        <ele>495.6</ele>
        <time>2021-10-25T11:33:52Z</time>
      </trkpt>
      <trkpt lat="46.54802" lon="5.60023">
        <ele>495.8</ele>
        <time>2021-10-25T11:33:53Z</time>
      </trkpt>
      <trkpt lat="46.5482" lon="5.60035">
        <ele>495.8</ele>
        <time>2021-10-25T11:33:56Z</time>
      </trkpt>
      <trkpt lat="46.54845" lon="5.60043">
        <ele>496.2</ele>
        <time>2021-10-25T11:34:00Z</time>
      </trkpt>
      <trkpt lat="46.54858" lon="5.60047">
        <ele>496.4</ele>
        <time>2021-10-25T11:34:02Z</time>
      </trkpt>
      <trkpt lat="46.54904" lon="5.60066">
        <ele>497</ele>
        <time>2021-10-25T11:34:09Z</time>
      </trkpt>
      <trkpt lat="46.54936" lon="5.60099">
        <ele>497.2</ele>
        <time>2021-10-25T11:34:15Z</time>
      </trkpt>
      <trkpt lat="46.54968" lon="5.60132">
        <ele>497.8</ele>
        <time>2021-10-25T11:34:21Z</time>
      </trkpt>
      <trkpt lat="46.55015" lon="5.60163">
        <ele>498</ele>
        <time>2021-10-25T11:34:29Z</time>
      </trkpt>
      <trkpt lat="46.55045" lon="5.60184">
        <ele>498.2</ele>
        <time>2021-10-25T11:34:34Z</time>
      </trkpt>
      <trkpt lat="46.55056" lon="5.60195">
        <ele>498.4</ele>
        <time>2021-10-25T11:34:36Z</time>
      </trkpt>
      <trkpt lat="46.55084" lon="5.60236">
        <ele>499</ele>
        <time>2021-10-25T11:34:42Z</time>
      </trkpt>
      <trkpt lat="46.55101" lon="5.60266">
        <ele>499.4</ele>
        <time>2021-10-25T11:34:46Z</time>
      </trkpt>
      <trkpt lat="46.55124" lon="5.60301">
        <ele>499.8</ele>
        <time>2021-10-25T11:34:51Z</time>
      </trkpt>
      <trkpt lat="46.55153" lon="5.60323">
        <ele>500.2</ele>
        <time>2021-10-25T11:34:56Z</time>
      </trkpt>
      <trkpt lat="46.55179" lon="5.60329">
        <ele>500.4</ele>
        <time>2021-10-25T11:35:00Z</time>
      </trkpt>
      <trkpt lat="46.55185" lon="5.60329">
        <ele>500.6</ele>
        <time>2021-10-25T11:35:01Z</time>
      </trkpt>
      <trkpt lat="46.55224" lon="5.6032">
        <ele>501</ele>
        <time>2021-10-25T11:35:07Z</time>
      </trkpt>
      <trkpt lat="46.55243" lon="5.60311">
        <ele>501.8</ele>
        <time>2021-10-25T11:35:10Z</time>
      </trkpt>
      <trkpt lat="46.5528" lon="5.60294">
        <ele>502.2</ele>
        <time>2021-10-25T11:35:16Z</time>
      </trkpt>
      <trkpt lat="46.55324" lon="5.60284">
        <ele>502.2</ele>
        <time>2021-10-25T11:35:23Z</time>
      </trkpt>
      <trkpt lat="46.55368" lon="5.60295">
        <ele>502.6</ele>
        <time>2021-10-25T11:35:30Z</time>
      </trkpt>
      <trkpt lat="46.55385" lon="5.60301">
        <ele>502.8</ele>
        <time>2021-10-25T11:35:33Z</time>
      </trkpt>
      <trkpt lat="46.55422" lon="5.60314">
        <ele>503.4</ele>
        <time>2021-10-25T11:35:39Z</time>
      </trkpt>
      <trkpt lat="46.55458" lon="5.60327">
        <ele>503.8</ele>
        <time>2021-10-25T11:35:45Z</time>
      </trkpt>
      <trkpt lat="46.5547" lon="5.60331">
        <ele>504</ele>
        <time>2021-10-25T11:35:47Z</time>
      </trkpt>
      <trkpt lat="46.55498" lon="5.60341">
        <ele>505</ele>
        <time>2021-10-25T11:35:52Z</time>
      </trkpt>
      <trkpt lat="46.55509" lon="5.60344">
        <ele>505.2</ele>
        <time>2021-10-25T11:35:54Z</time>
      </trkpt>
      <trkpt lat="46.55526" lon="5.60347">
        <ele>505.6</ele>
        <time>2021-10-25T11:35:57Z</time>
      </trkpt>
      <trkpt lat="46.5555" lon="5.6035">
        <ele>506</ele>
        <time>2021-10-25T11:36:01Z</time>
      </trkpt>
      <trkpt lat="46.55556" lon="5.60351">
        <ele>506</ele>
        <time>2021-10-25T11:36:02Z</time>
      </trkpt>
      <trkpt lat="46.55609" lon="5.60356">
        <ele>507</ele>
        <time>2021-10-25T11:36:11Z</time>
      </trkpt>
      <trkpt lat="46.55609" lon="5.60356">
        <ele>507.2</ele>
        <time>2021-10-25T11:36:12Z</time>
      </trkpt>
      <trkpt lat="46.55638" lon="5.60361">
        <ele>507.8</ele>
        <time>2021-10-25T11:36:16Z</time>
      </trkpt>
      <trkpt lat="46.55655" lon="5.60368">
        <ele>508</ele>
        <time>2021-10-25T11:36:19Z</time>
      </trkpt>
      <trkpt lat="46.5566" lon="5.60372">
        <ele>508.2</ele>
        <time>2021-10-25T11:36:20Z</time>
      </trkpt>
      <trkpt lat="46.5567" lon="5.60381">
        <ele>508.4</ele>
        <time>2021-10-25T11:36:22Z</time>
      </trkpt>
      <trkpt lat="46.55678" lon="5.60392">
        <ele>508.6</ele>
        <time>2021-10-25T11:36:24Z</time>
      </trkpt>
      <trkpt lat="46.5569" lon="5.6041">
        <ele>509.4</ele>
        <time>2021-10-25T11:36:27Z</time>
      </trkpt>
      <trkpt lat="46.55699" lon="5.6043">
        <ele>509.6</ele>
        <time>2021-10-25T11:36:30Z</time>
      </trkpt>
      <trkpt lat="46.55716" lon="5.60469">
        <ele>510.4</ele>
        <time>2021-10-25T11:36:36Z</time>
      </trkpt>
      <trkpt lat="46.55719" lon="5.60476">
        <ele>510.6</ele>
        <time>2021-10-25T11:36:37Z</time>
      </trkpt>
      <trkpt lat="46.55725" lon="5.60487">
        <ele>510.8</ele>
        <time>2021-10-25T11:36:39Z</time>
      </trkpt>
      <trkpt lat="46.55739" lon="5.60508">
        <ele>511.4</ele>
        <time>2021-10-25T11:36:43Z</time>
      </trkpt>
      <trkpt lat="46.55764" lon="5.60526">
        <ele>512.4</ele>
        <time>2021-10-25T11:36:48Z</time>
      </trkpt>
      <trkpt lat="46.55768" lon="5.60528">
        <ele>512.6</ele>
        <time>2021-10-25T11:36:49Z</time>
      </trkpt>
      <trkpt lat="46.55816" lon="5.6054">
        <ele>513.8</ele>
        <time>2021-10-25T11:36:58Z</time>
      </trkpt>
      <trkpt lat="46.5584" lon="5.60547">
        <ele>514.6</ele>
        <time>2021-10-25T11:37:02Z</time>
      </trkpt>
      <trkpt lat="46.55854" lon="5.60555">
        <ele>514.8</ele>
        <time>2021-10-25T11:37:05Z</time>
      </trkpt>
      <trkpt lat="46.55859" lon="5.6056">
        <ele>515</ele>
        <time>2021-10-25T11:37:06Z</time>
      </trkpt>
      <trkpt lat="46.55876" lon="5.60582">
        <ele>515.4</ele>
        <time>2021-10-25T11:37:10Z</time>
      </trkpt>
      <trkpt lat="46.55885" lon="5.606">
        <ele>515.8</ele>
        <time>2021-10-25T11:37:13Z</time>
      </trkpt>
      <trkpt lat="46.55889" lon="5.60615">
        <ele>516</ele>
        <time>2021-10-25T11:37:15Z</time>
      </trkpt>
      <trkpt lat="46.55891" lon="5.60621">
        <ele>516</ele>
        <time>2021-10-25T11:37:16Z</time>
      </trkpt>
      <trkpt lat="46.55907" lon="5.60688">
        <ele>517.2</ele>
        <time>2021-10-25T11:37:25Z</time>
      </trkpt>
      <trkpt lat="46.55923" lon="5.60763">
        <ele>518.2</ele>
        <time>2021-10-25T11:37:35Z</time>
      </trkpt>
      <trkpt lat="46.55924" lon="5.60771">
        <ele>518.4</ele>
        <time>2021-10-25T11:37:36Z</time>
      </trkpt>
      <trkpt lat="46.55928" lon="5.60828">
        <ele>518.8</ele>
        <time>2021-10-25T11:37:43Z</time>
      </trkpt>
      <trkpt lat="46.55932" lon="5.60884">
        <ele>519.2</ele>
        <time>2021-10-25T11:37:49Z</time>
      </trkpt>
      <trkpt lat="46.55932" lon="5.60884">
        <ele>519.2</ele>
        <time>2021-10-25T11:37:50Z</time>
      </trkpt>
      <trkpt lat="46.55936" lon="5.60903">
        <ele>519.2</ele>
        <time>2021-10-25T11:37:51Z</time>
      </trkpt>
      <trkpt lat="46.55945" lon="5.60942">
        <ele>519</ele>
        <time>2021-10-25T11:37:55Z</time>
      </trkpt>
      <trkpt lat="46.55965" lon="5.61023">
        <ele>518.4</ele>
        <time>2021-10-25T11:38:03Z</time>
      </trkpt>
      <trkpt lat="46.55985" lon="5.61091">
        <ele>517.8</ele>
        <time>2021-10-25T11:38:10Z</time>
      </trkpt>
      <trkpt lat="46.56014" lon="5.61154">
        <ele>517.8</ele>
        <time>2021-10-25T11:38:17Z</time>
      </trkpt>
      <trkpt lat="46.56032" lon="5.61191">
        <ele>517.4</ele>
        <time>2021-10-25T11:38:21Z</time>
      </trkpt>
      <trkpt lat="46.56062" lon="5.6125">
        <ele>516.2</ele>
        <time>2021-10-25T11:38:27Z</time>
      </trkpt>
      <trkpt lat="46.56092" lon="5.61312">
        <ele>515.2</ele>
        <time>2021-10-25T11:38:33Z</time>
      </trkpt>
      <trkpt lat="46.56102" lon="5.61332">
        <ele>515</ele>
        <time>2021-10-25T11:38:35Z</time>
      </trkpt>
      <trkpt lat="46.56116" lon="5.61363">
        <ele>514</ele>
        <time>2021-10-25T11:38:38Z</time>
      </trkpt>
      <trkpt lat="46.56145" lon="5.61422">
        <ele>513.4</ele>
        <time>2021-10-25T11:38:44Z</time>
      </trkpt>
      <trkpt lat="46.56178" lon="5.61488">
        <ele>513.4</ele>
        <time>2021-10-25T11:38:51Z</time>
      </trkpt>
      <trkpt lat="46.56187" lon="5.61506">
        <ele>513.4</ele>
        <time>2021-10-25T11:38:53Z</time>
      </trkpt>
      <trkpt lat="46.56218" lon="5.6157">
        <ele>513.4</ele>
        <time>2021-10-25T11:39:00Z</time>
      </trkpt>
      <trkpt lat="46.56237" lon="5.61605">
        <ele>513.6</ele>
        <time>2021-10-25T11:39:04Z</time>
      </trkpt>
      <trkpt lat="46.56276" lon="5.61662">
        <ele>513.4</ele>
        <time>2021-10-25T11:39:11Z</time>
      </trkpt>
      <trkpt lat="46.56286" lon="5.61675">
        <ele>513.4</ele>
        <time>2021-10-25T11:39:13Z</time>
      </trkpt>
      <trkpt lat="46.56304" lon="5.61698">
        <ele>513</ele>
        <time>2021-10-25T11:39:16Z</time>
      </trkpt>
      <trkpt lat="46.56334" lon="5.61736">
        <ele>512.4</ele>
        <time>2021-10-25T11:39:21Z</time>
      </trkpt>
      <trkpt lat="46.56358" lon="5.61767">
        <ele>512</ele>
        <time>2021-10-25T11:39:25Z</time>
      </trkpt>
      <trkpt lat="46.56363" lon="5.61776">
        <ele>512</ele>
        <time>2021-10-25T11:39:26Z</time>
      </trkpt>
      <trkpt lat="46.56366" lon="5.61789">
        <ele>512</ele>
        <time>2021-10-25T11:39:27Z</time>
      </trkpt>
      <trkpt lat="46.56363" lon="5.61838">
        <ele>511.6</ele>
        <time>2021-10-25T11:39:31Z</time>
      </trkpt>
      <trkpt lat="46.56361" lon="5.61852">
        <ele>511</ele>
        <time>2021-10-25T11:39:32Z</time>
      </trkpt>
      <trkpt lat="46.56357" lon="5.61894">
        <ele>510</ele>
        <time>2021-10-25T11:39:35Z</time>
      </trkpt>
      <trkpt lat="46.56357" lon="5.61908">
        <ele>509.6</ele>
        <time>2021-10-25T11:39:36Z</time>
      </trkpt>
      <trkpt lat="46.56358" lon="5.6194">
        <ele>508.8</ele>
        <time>2021-10-25T11:39:38Z</time>
      </trkpt>
      <trkpt lat="46.56361" lon="5.61981">
        <ele>507.4</ele>
        <time>2021-10-25T11:39:41Z</time>
      </trkpt>
      <trkpt lat="46.56364" lon="5.61997">
        <ele>506.8</ele>
        <time>2021-10-25T11:39:42Z</time>
      </trkpt>
      <trkpt lat="46.56367" lon="5.62011">
        <ele>506.4</ele>
        <time>2021-10-25T11:39:43Z</time>
      </trkpt>
      <trkpt lat="46.56378" lon="5.6206">
        <ele>505.2</ele>
        <time>2021-10-25T11:39:47Z</time>
      </trkpt>
      <trkpt lat="46.56381" lon="5.62072">
        <ele>504.8</ele>
        <time>2021-10-25T11:39:48Z</time>
      </trkpt>
      <trkpt lat="46.564" lon="5.62151">
        <ele>504.4</ele>
        <time>2021-10-25T11:39:55Z</time>
      </trkpt>
      <trkpt lat="46.5642" lon="5.62234">
        <ele>504.2</ele>
        <time>2021-10-25T11:40:02Z</time>
      </trkpt>
      <trkpt lat="46.56422" lon="5.62243">
        <ele>504</ele>
        <time>2021-10-25T11:40:03Z</time>
      </trkpt>
      <trkpt lat="46.56425" lon="5.62254">
        <ele>504</ele>
        <time>2021-10-25T11:40:04Z</time>
      </trkpt>
      <trkpt lat="46.56446" lon="5.62336">
        <ele>504</ele>
        <time>2021-10-25T11:40:12Z</time>
      </trkpt>
      <trkpt lat="46.56454" lon="5.62378">
        <ele>504.8</ele>
        <time>2021-10-25T11:40:17Z</time>
      </trkpt>
      <trkpt lat="46.56454" lon="5.62385">
        <ele>504.8</ele>
        <time>2021-10-25T11:40:18Z</time>
      </trkpt>
      <trkpt lat="46.56454" lon="5.62401">
        <ele>505</ele>
        <time>2021-10-25T11:40:20Z</time>
      </trkpt>
      <trkpt lat="46.56452" lon="5.62412">
        <ele>505</ele>
        <time>2021-10-25T11:40:21Z</time>
      </trkpt>
      <trkpt lat="46.56451" lon="5.62421">
        <ele>505.4</ele>
        <time>2021-10-25T11:40:22Z</time>
      </trkpt>
      <trkpt lat="46.5644" lon="5.62472">
        <ele>506.4</ele>
        <time>2021-10-25T11:40:28Z</time>
      </trkpt>
      <trkpt lat="46.56438" lon="5.62481">
        <ele>506.4</ele>
        <time>2021-10-25T11:40:29Z</time>
      </trkpt>
      <trkpt lat="46.56428" lon="5.62523">
        <ele>507.2</ele>
        <time>2021-10-25T11:40:35Z</time>
      </trkpt>
      <trkpt lat="46.56426" lon="5.62533">
        <ele>507.6</ele>
        <time>2021-10-25T11:40:37Z</time>
      </trkpt>
      <trkpt lat="46.56425" lon="5.62537">
        <ele>507.8</ele>
        <time>2021-10-25T11:40:39Z</time>
      </trkpt>
      <trkpt lat="46.56425" lon="5.62537">
        <ele>508</ele>
        <time>2021-10-25T11:40:41Z</time>
      </trkpt>
      <trkpt lat="46.56425" lon="5.6254">
        <ele>507.6</ele>
        <time>2021-10-25T11:41:21Z</time>
      </trkpt>
      <trkpt lat="46.56424" lon="5.62542">
        <ele>507.6</ele>
        <time>2021-10-25T11:41:22Z</time>
      </trkpt>
      <trkpt lat="46.5642" lon="5.62563">
        <ele>507.8</ele>
        <time>2021-10-25T11:41:26Z</time>
      </trkpt>
      <trkpt lat="46.56416" lon="5.62585">
        <ele>508</ele>
        <time>2021-10-25T11:41:29Z</time>
      </trkpt>
      <trkpt lat="46.56414" lon="5.62592">
        <ele>508</ele>
        <time>2021-10-25T11:41:30Z</time>
      </trkpt>
      <trkpt lat="46.56413" lon="5.62605">
        <ele>508</ele>
        <time>2021-10-25T11:41:32Z</time>
      </trkpt>
      <trkpt lat="46.56417" lon="5.62653">
        <ele>508.6</ele>
        <time>2021-10-25T11:41:38Z</time>
      </trkpt>
      <trkpt lat="46.56418" lon="5.62659">
        <ele>508.6</ele>
        <time>2021-10-25T11:41:39Z</time>
      </trkpt>
      <trkpt lat="46.56422" lon="5.62672">
        <ele>509.2</ele>
        <time>2021-10-25T11:41:41Z</time>
      </trkpt>
      <trkpt lat="46.56424" lon="5.62681">
        <ele>509.6</ele>
        <time>2021-10-25T11:41:42Z</time>
      </trkpt>
      <trkpt lat="46.56425" lon="5.62688">
        <ele>510.2</ele>
        <time>2021-10-25T11:41:43Z</time>
      </trkpt>
      <trkpt lat="46.56426" lon="5.62694">
        <ele>510.6</ele>
        <time>2021-10-25T11:41:44Z</time>
      </trkpt>
      <trkpt lat="46.56431" lon="5.62702">
        <ele>511</ele>
        <time>2021-10-25T11:41:46Z</time>
      </trkpt>
      <trkpt lat="46.56436" lon="5.62707">
        <ele>511.2</ele>
        <time>2021-10-25T11:41:47Z</time>
      </trkpt>
      <trkpt lat="46.56448" lon="5.62721">
        <ele>511.4</ele>
        <time>2021-10-25T11:41:50Z</time>
      </trkpt>
      <trkpt lat="46.56453" lon="5.62727">
        <ele>511.4</ele>
        <time>2021-10-25T11:41:51Z</time>
      </trkpt>
      <trkpt lat="46.56474" lon="5.62748">
        <ele>511.8</ele>
        <time>2021-10-25T11:41:55Z</time>
      </trkpt>
      <trkpt lat="46.56496" lon="5.6277">
        <ele>512.4</ele>
        <time>2021-10-25T11:41:59Z</time>
      </trkpt>
      <trkpt lat="46.56512" lon="5.62787">
        <ele>512.8</ele>
        <time>2021-10-25T11:42:02Z</time>
      </trkpt>
      <trkpt lat="46.56547" lon="5.62819">
        <ele>513.2</ele>
        <time>2021-10-25T11:42:09Z</time>
      </trkpt>
      <trkpt lat="46.56575" lon="5.62845">
        <ele>514.4</ele>
        <time>2021-10-25T11:42:15Z</time>
      </trkpt>
      <trkpt lat="46.56597" lon="5.62867">
        <ele>515.4</ele>
        <time>2021-10-25T11:42:20Z</time>
      </trkpt>
      <trkpt lat="46.56606" lon="5.62878">
        <ele>516.2</ele>
        <time>2021-10-25T11:42:22Z</time>
      </trkpt>
      <trkpt lat="46.56609" lon="5.62884">
        <ele>516.2</ele>
        <time>2021-10-25T11:42:23Z</time>
      </trkpt>
      <trkpt lat="46.56615" lon="5.62895">
        <ele>516.6</ele>
        <time>2021-10-25T11:42:25Z</time>
      </trkpt>
      <trkpt lat="46.56627" lon="5.62914">
        <ele>516.8</ele>
        <time>2021-10-25T11:42:28Z</time>
      </trkpt>
      <trkpt lat="46.56633" lon="5.62926">
        <ele>516.8</ele>
        <time>2021-10-25T11:42:30Z</time>
      </trkpt>
      <trkpt lat="46.56646" lon="5.62954">
        <ele>516.8</ele>
        <time>2021-10-25T11:42:34Z</time>
      </trkpt>
      <trkpt lat="46.56654" lon="5.62977">
        <ele>517.2</ele>
        <time>2021-10-25T11:42:37Z</time>
      </trkpt>
      <trkpt lat="46.56658" lon="5.6299">
        <ele>517.6</ele>
        <time>2021-10-25T11:42:39Z</time>
      </trkpt>
      <trkpt lat="46.5666" lon="5.62999">
        <ele>517.6</ele>
        <time>2021-10-25T11:42:40Z</time>
      </trkpt>
      <trkpt lat="46.56662" lon="5.63007">
        <ele>517.8</ele>
        <time>2021-10-25T11:42:41Z</time>
      </trkpt>
      <trkpt lat="46.5667" lon="5.63036">
        <ele>518</ele>
        <time>2021-10-25T11:42:45Z</time>
      </trkpt>
      <trkpt lat="46.56679" lon="5.63083">
        <ele>518.6</ele>
        <time>2021-10-25T11:42:51Z</time>
      </trkpt>
      <trkpt lat="46.5668" lon="5.63091">
        <ele>518.8</ele>
        <time>2021-10-25T11:42:52Z</time>
      </trkpt>
      <trkpt lat="46.5668" lon="5.6312">
        <ele>519.2</ele>
        <time>2021-10-25T11:42:56Z</time>
      </trkpt>
      <trkpt lat="46.56678" lon="5.63133">
        <ele>519.4</ele>
        <time>2021-10-25T11:42:58Z</time>
      </trkpt>
      <trkpt lat="46.56675" lon="5.63145">
        <ele>519.8</ele>
        <time>2021-10-25T11:43:00Z</time>
      </trkpt>
      <trkpt lat="46.56671" lon="5.63168">
        <ele>520.6</ele>
        <time>2021-10-25T11:43:04Z</time>
      </trkpt>
      <trkpt lat="46.56669" lon="5.63181">
        <ele>520.8</ele>
        <time>2021-10-25T11:43:06Z</time>
      </trkpt>
      <trkpt lat="46.56667" lon="5.63205">
        <ele>522.2</ele>
        <time>2021-10-25T11:43:10Z</time>
      </trkpt>
      <trkpt lat="46.56668" lon="5.63215">
        <ele>522.6</ele>
        <time>2021-10-25T11:43:12Z</time>
      </trkpt>
      <trkpt lat="46.56668" lon="5.63221">
        <ele>523.2</ele>
        <time>2021-10-25T11:43:13Z</time>
      </trkpt>
      <trkpt lat="46.5667" lon="5.63235">
        <ele>523.8</ele>
        <time>2021-10-25T11:43:15Z</time>
      </trkpt>
      <trkpt lat="46.56674" lon="5.63246">
        <ele>524</ele>
        <time>2021-10-25T11:43:17Z</time>
      </trkpt>
      <trkpt lat="46.56676" lon="5.6325">
        <ele>524</ele>
        <time>2021-10-25T11:43:18Z</time>
      </trkpt>
      <trkpt lat="46.5668" lon="5.63255">
        <ele>524.2</ele>
        <time>2021-10-25T11:43:19Z</time>
      </trkpt>
      <trkpt lat="46.56687" lon="5.63263">
        <ele>524.4</ele>
        <time>2021-10-25T11:43:21Z</time>
      </trkpt>
      <trkpt lat="46.56695" lon="5.63268">
        <ele>524.6</ele>
        <time>2021-10-25T11:43:23Z</time>
      </trkpt>
      <trkpt lat="46.56711" lon="5.63275">
        <ele>525.6</ele>
        <time>2021-10-25T11:43:26Z</time>
      </trkpt>
      <trkpt lat="46.56722" lon="5.63278">
        <ele>525.6</ele>
        <time>2021-10-25T11:43:28Z</time>
      </trkpt>
      <trkpt lat="46.56764" lon="5.63295">
        <ele>525.6</ele>
        <time>2021-10-25T11:43:35Z</time>
      </trkpt>
      <trkpt lat="46.56815" lon="5.63318">
        <ele>524.8</ele>
        <time>2021-10-25T11:43:43Z</time>
      </trkpt>
      <trkpt lat="46.56849" lon="5.63351">
        <ele>525.4</ele>
        <time>2021-10-25T11:43:49Z</time>
      </trkpt>
      <trkpt lat="46.56895" lon="5.63406">
        <ele>526.2</ele>
        <time>2021-10-25T11:43:58Z</time>
      </trkpt>
      <trkpt lat="46.569" lon="5.63412">
        <ele>526</ele>
        <time>2021-10-25T11:43:59Z</time>
      </trkpt>
      <trkpt lat="46.56924" lon="5.6344">
        <ele>525.8</ele>
        <time>2021-10-25T11:44:04Z</time>
      </trkpt>
      <trkpt lat="46.56936" lon="5.63448">
        <ele>526</ele>
        <time>2021-10-25T11:44:06Z</time>
      </trkpt>
      <trkpt lat="46.56979" lon="5.63483">
        <ele>526.2</ele>
        <time>2021-10-25T11:44:13Z</time>
      </trkpt>
      <trkpt lat="46.57018" lon="5.63506">
        <ele>526</ele>
        <time>2021-10-25T11:44:18Z</time>
      </trkpt>
      <trkpt lat="46.57052" lon="5.63536">
        <ele>525.2</ele>
        <time>2021-10-25T11:44:23Z</time>
      </trkpt>
      <trkpt lat="46.57099" lon="5.6357">
        <ele>525.2</ele>
        <time>2021-10-25T11:44:30Z</time>
      </trkpt>
      <trkpt lat="46.57151" lon="5.63588">
        <ele>525.6</ele>
        <time>2021-10-25T11:44:37Z</time>
      </trkpt>
      <trkpt lat="46.57193" lon="5.63587">
        <ele>524.6</ele>
        <time>2021-10-25T11:44:42Z</time>
      </trkpt>
      <trkpt lat="46.57235" lon="5.63593">
        <ele>523.4</ele>
        <time>2021-10-25T11:44:47Z</time>
      </trkpt>
      <trkpt lat="46.5729" lon="5.63613">
        <ele>523.8</ele>
        <time>2021-10-25T11:44:54Z</time>
      </trkpt>
      <trkpt lat="46.57304" lon="5.63616">
        <ele>523.8</ele>
        <time>2021-10-25T11:44:56Z</time>
      </trkpt>
      <trkpt lat="46.57331" lon="5.63621">
        <ele>524</ele>
        <time>2021-10-25T11:45:00Z</time>
      </trkpt>
      <trkpt lat="46.57337" lon="5.63625">
        <ele>524.2</ele>
        <time>2021-10-25T11:45:01Z</time>
      </trkpt>
      <trkpt lat="46.57342" lon="5.63631">
        <ele>524</ele>
        <time>2021-10-25T11:45:02Z</time>
      </trkpt>
      <trkpt lat="46.5735" lon="5.63649">
        <ele>524.2</ele>
        <time>2021-10-25T11:45:04Z</time>
      </trkpt>
      <trkpt lat="46.57355" lon="5.63667">
        <ele>524.4</ele>
        <time>2021-10-25T11:45:06Z</time>
      </trkpt>
      <trkpt lat="46.57367" lon="5.63707">
        <ele>525</ele>
        <time>2021-10-25T11:45:11Z</time>
      </trkpt>
      <trkpt lat="46.57371" lon="5.63721">
        <ele>525.6</ele>
        <time>2021-10-25T11:45:13Z</time>
      </trkpt>
      <trkpt lat="46.57378" lon="5.63745">
        <ele>526</ele>
        <time>2021-10-25T11:45:17Z</time>
      </trkpt>
      <trkpt lat="46.57384" lon="5.63764">
        <ele>526</ele>
        <time>2021-10-25T11:45:20Z</time>
      </trkpt>
      <trkpt lat="46.57388" lon="5.63781">
        <ele>526.2</ele>
        <time>2021-10-25T11:45:22Z</time>
      </trkpt>
      <trkpt lat="46.57407" lon="5.63845">
        <ele>526.2</ele>
        <time>2021-10-25T11:45:30Z</time>
      </trkpt>
      <trkpt lat="46.57414" lon="5.6386">
        <ele>526.4</ele>
        <time>2021-10-25T11:45:32Z</time>
      </trkpt>
      <trkpt lat="46.57426" lon="5.63879">
        <ele>526.6</ele>
        <time>2021-10-25T11:45:35Z</time>
      </trkpt>
      <trkpt lat="46.57435" lon="5.63891">
        <ele>526.8</ele>
        <time>2021-10-25T11:45:37Z</time>
      </trkpt>
      <trkpt lat="46.57464" lon="5.63926">
        <ele>526.8</ele>
        <time>2021-10-25T11:45:43Z</time>
      </trkpt>
      <trkpt lat="46.57488" lon="5.63952">
        <ele>527.2</ele>
        <time>2021-10-25T11:45:48Z</time>
      </trkpt>
      <trkpt lat="46.57496" lon="5.63961">
        <ele>527.2</ele>
        <time>2021-10-25T11:45:50Z</time>
      </trkpt>
      <trkpt lat="46.57499" lon="5.63972">
        <ele>527.4</ele>
        <time>2021-10-25T11:45:52Z</time>
      </trkpt>
      <trkpt lat="46.57498" lon="5.63979">
        <ele>527.4</ele>
        <time>2021-10-25T11:45:53Z</time>
      </trkpt>
      <trkpt lat="46.57496" lon="5.63985">
        <ele>527.6</ele>
        <time>2021-10-25T11:45:54Z</time>
      </trkpt>
      <trkpt lat="46.57489" lon="5.63994">
        <ele>527.6</ele>
        <time>2021-10-25T11:45:56Z</time>
      </trkpt>
      <trkpt lat="46.57488" lon="5.64006">
        <ele>527.8</ele>
        <time>2021-10-25T11:45:58Z</time>
      </trkpt>
      <trkpt lat="46.5749" lon="5.64011">
        <ele>527.8</ele>
        <time>2021-10-25T11:45:59Z</time>
      </trkpt>
      <trkpt lat="46.57499" lon="5.64022">
        <ele>527.8</ele>
        <time>2021-10-25T11:46:01Z</time>
      </trkpt>
      <trkpt lat="46.57507" lon="5.64035">
        <ele>527.8</ele>
        <time>2021-10-25T11:46:03Z</time>
      </trkpt>
      <trkpt lat="46.57528" lon="5.64071">
        <ele>527.6</ele>
        <time>2021-10-25T11:46:08Z</time>
      </trkpt>
      <trkpt lat="46.57534" lon="5.64076">
        <ele>527.6</ele>
        <time>2021-10-25T11:46:09Z</time>
      </trkpt>
      <trkpt lat="46.5754" lon="5.64079">
        <ele>527.6</ele>
        <time>2021-10-25T11:46:10Z</time>
      </trkpt>
      <trkpt lat="46.57559" lon="5.64084">
        <ele>527.8</ele>
        <time>2021-10-25T11:46:13Z</time>
      </trkpt>
      <trkpt lat="46.57565" lon="5.64085">
        <ele>527.8</ele>
        <time>2021-10-25T11:46:14Z</time>
      </trkpt>
      <trkpt lat="46.57579" lon="5.64088">
        <ele>528</ele>
        <time>2021-10-25T11:46:16Z</time>
      </trkpt>
      <trkpt lat="46.57592" lon="5.64094">
        <ele>528.2</ele>
        <time>2021-10-25T11:46:18Z</time>
      </trkpt>
      <trkpt lat="46.57635" lon="5.64127">
        <ele>528.4</ele>
        <time>2021-10-25T11:46:25Z</time>
      </trkpt>
      <trkpt lat="46.57683" lon="5.64162">
        <ele>528.6</ele>
        <time>2021-10-25T11:46:33Z</time>
      </trkpt>
      <trkpt lat="46.57689" lon="5.64166">
        <ele>528.6</ele>
        <time>2021-10-25T11:46:34Z</time>
      </trkpt>
      <trkpt lat="46.57714" lon="5.64182">
        <ele>528.8</ele>
        <time>2021-10-25T11:46:38Z</time>
      </trkpt>
      <trkpt lat="46.57739" lon="5.64196">
        <ele>529</ele>
        <time>2021-10-25T11:46:42Z</time>
      </trkpt>
      <trkpt lat="46.5777" lon="5.64209">
        <ele>529.8</ele>
        <time>2021-10-25T11:46:47Z</time>
      </trkpt>
      <trkpt lat="46.57782" lon="5.64216">
        <ele>530</ele>
        <time>2021-10-25T11:46:49Z</time>
      </trkpt>
      <trkpt lat="46.57837" lon="5.64246">
        <ele>530.4</ele>
        <time>2021-10-25T11:46:59Z</time>
      </trkpt>
      <trkpt lat="46.57847" lon="5.64251">
        <ele>531</ele>
        <time>2021-10-25T11:47:01Z</time>
      </trkpt>
      <trkpt lat="46.57868" lon="5.64263">
        <ele>532</ele>
        <time>2021-10-25T11:47:05Z</time>
      </trkpt>
      <trkpt lat="46.57879" lon="5.64268">
        <ele>532.2</ele>
        <time>2021-10-25T11:47:07Z</time>
      </trkpt>
      <trkpt lat="46.57924" lon="5.64294">
        <ele>533</ele>
        <time>2021-10-25T11:47:16Z</time>
      </trkpt>
      <trkpt lat="46.57929" lon="5.64297">
        <ele>533.2</ele>
        <time>2021-10-25T11:47:17Z</time>
      </trkpt>
      <trkpt lat="46.57959" lon="5.64314">
        <ele>534.4</ele>
        <time>2021-10-25T11:47:23Z</time>
      </trkpt>
      <trkpt lat="46.57968" lon="5.64321">
        <ele>534.6</ele>
        <time>2021-10-25T11:47:25Z</time>
      </trkpt>
      <trkpt lat="46.57996" lon="5.64338">
        <ele>535.6</ele>
        <time>2021-10-25T11:47:31Z</time>
      </trkpt>
      <trkpt lat="46.58022" lon="5.64353">
        <ele>536.8</ele>
        <time>2021-10-25T11:47:36Z</time>
      </trkpt>
      <trkpt lat="46.58037" lon="5.64362">
        <ele>536.8</ele>
        <time>2021-10-25T11:47:39Z</time>
      </trkpt>
      <trkpt lat="46.58085" lon="5.64393">
        <ele>537.4</ele>
        <time>2021-10-25T11:47:48Z</time>
      </trkpt>
      <trkpt lat="46.58095" lon="5.644">
        <ele>537.8</ele>
        <time>2021-10-25T11:47:50Z</time>
      </trkpt>
      <trkpt lat="46.58115" lon="5.64413">
        <ele>539.2</ele>
        <time>2021-10-25T11:47:54Z</time>
      </trkpt>
      <trkpt lat="46.58136" lon="5.64426">
        <ele>539.8</ele>
        <time>2021-10-25T11:47:58Z</time>
      </trkpt>
      <trkpt lat="46.58161" lon="5.6444">
        <ele>540.2</ele>
        <time>2021-10-25T11:48:03Z</time>
      </trkpt>
      <trkpt lat="46.58184" lon="5.64455">
        <ele>541.4</ele>
        <time>2021-10-25T11:48:08Z</time>
      </trkpt>
      <trkpt lat="46.58206" lon="5.64474">
        <ele>542.2</ele>
        <time>2021-10-25T11:48:13Z</time>
      </trkpt>
      <trkpt lat="46.58214" lon="5.64483">
        <ele>542.4</ele>
        <time>2021-10-25T11:48:15Z</time>
      </trkpt>
      <trkpt lat="46.58218" lon="5.64489">
        <ele>542.4</ele>
        <time>2021-10-25T11:48:16Z</time>
      </trkpt>
      <trkpt lat="46.58239" lon="5.64524">
        <ele>543.4</ele>
        <time>2021-10-25T11:48:22Z</time>
      </trkpt>
      <trkpt lat="46.58256" lon="5.64546">
        <ele>544.8</ele>
        <time>2021-10-25T11:48:26Z</time>
      </trkpt>
      <trkpt lat="46.58271" lon="5.64563">
        <ele>544.8</ele>
        <time>2021-10-25T11:48:29Z</time>
      </trkpt>
      <trkpt lat="46.58314" lon="5.64605">
        <ele>545.2</ele>
        <time>2021-10-25T11:48:38Z</time>
      </trkpt>
      <trkpt lat="46.58346" lon="5.64636">
        <ele>546</ele>
        <time>2021-10-25T11:48:45Z</time>
      </trkpt>
      <trkpt lat="46.58355" lon="5.64644">
        <ele>546.4</ele>
        <time>2021-10-25T11:48:47Z</time>
      </trkpt>
      <trkpt lat="46.58364" lon="5.64651">
        <ele>547</ele>
        <time>2021-10-25T11:48:49Z</time>
      </trkpt>
      <trkpt lat="46.58386" lon="5.64668">
        <ele>547.6</ele>
        <time>2021-10-25T11:48:54Z</time>
      </trkpt>
      <trkpt lat="46.58399" lon="5.64677">
        <ele>548.2</ele>
        <time>2021-10-25T11:48:57Z</time>
      </trkpt>
      <trkpt lat="46.58421" lon="5.64692">
        <ele>549.2</ele>
        <time>2021-10-25T11:49:02Z</time>
      </trkpt>
      <trkpt lat="46.58435" lon="5.64701">
        <ele>549.8</ele>
        <time>2021-10-25T11:49:05Z</time>
      </trkpt>
      <trkpt lat="46.58445" lon="5.64707">
        <ele>550.4</ele>
        <time>2021-10-25T11:49:07Z</time>
      </trkpt>
      <trkpt lat="46.58477" lon="5.64729">
        <ele>550.8</ele>
        <time>2021-10-25T11:49:13Z</time>
      </trkpt>
      <trkpt lat="46.58507" lon="5.64756">
        <ele>550.6</ele>
        <time>2021-10-25T11:49:18Z</time>
      </trkpt>
      <trkpt lat="46.58514" lon="5.6476">
        <ele>550.4</ele>
        <time>2021-10-25T11:49:19Z</time>
      </trkpt>
      <trkpt lat="46.58521" lon="5.64762">
        <ele>550.2</ele>
        <time>2021-10-25T11:49:20Z</time>
      </trkpt>
      <trkpt lat="46.58543" lon="5.64761">
        <ele>549.8</ele>
        <time>2021-10-25T11:49:23Z</time>
      </trkpt>
      <trkpt lat="46.58571" lon="5.64755">
        <ele>549.4</ele>
        <time>2021-10-25T11:49:27Z</time>
      </trkpt>
      <trkpt lat="46.58585" lon="5.64756">
        <ele>549.4</ele>
        <time>2021-10-25T11:49:29Z</time>
      </trkpt>
      <trkpt lat="46.58592" lon="5.64758">
        <ele>549.4</ele>
        <time>2021-10-25T11:49:30Z</time>
      </trkpt>
      <trkpt lat="46.58629" lon="5.64762">
        <ele>549.8</ele>
        <time>2021-10-25T11:49:36Z</time>
      </trkpt>
      <trkpt lat="46.58659" lon="5.6476">
        <ele>550.4</ele>
        <time>2021-10-25T11:49:41Z</time>
      </trkpt>
      <trkpt lat="46.58666" lon="5.64762">
        <ele>550.6</ele>
        <time>2021-10-25T11:49:42Z</time>
      </trkpt>
      <trkpt lat="46.58703" lon="5.6478">
        <ele>550.4</ele>
        <time>2021-10-25T11:49:47Z</time>
      </trkpt>
      <trkpt lat="46.58734" lon="5.64794">
        <ele>549.2</ele>
        <time>2021-10-25T11:49:51Z</time>
      </trkpt>
      <trkpt lat="46.58741" lon="5.64795">
        <ele>549</ele>
        <time>2021-10-25T11:49:52Z</time>
      </trkpt>
      <trkpt lat="46.58756" lon="5.64796">
        <ele>549</ele>
        <time>2021-10-25T11:49:54Z</time>
      </trkpt>
      <trkpt lat="46.58768" lon="5.64793">
        <ele>548.8</ele>
        <time>2021-10-25T11:49:56Z</time>
      </trkpt>
      <trkpt lat="46.58775" lon="5.6479">
        <ele>548.8</ele>
        <time>2021-10-25T11:49:57Z</time>
      </trkpt>
      <trkpt lat="46.58795" lon="5.64778">
        <ele>549.2</ele>
        <time>2021-10-25T11:50:00Z</time>
      </trkpt>
      <trkpt lat="46.58847" lon="5.64753">
        <ele>549.2</ele>
        <time>2021-10-25T11:50:07Z</time>
      </trkpt>
      <trkpt lat="46.58855" lon="5.64748">
        <ele>548.8</ele>
        <time>2021-10-25T11:50:08Z</time>
      </trkpt>
      <trkpt lat="46.5887" lon="5.64738">
        <ele>548.4</ele>
        <time>2021-10-25T11:50:10Z</time>
      </trkpt>
      <trkpt lat="46.58886" lon="5.64733">
        <ele>547.8</ele>
        <time>2021-10-25T11:50:12Z</time>
      </trkpt>
      <trkpt lat="46.58903" lon="5.64738">
        <ele>547</ele>
        <time>2021-10-25T11:50:14Z</time>
      </trkpt>
      <trkpt lat="46.58911" lon="5.64743">
        <ele>546.6</ele>
        <time>2021-10-25T11:50:15Z</time>
      </trkpt>
      <trkpt lat="46.58926" lon="5.64753">
        <ele>546.4</ele>
        <time>2021-10-25T11:50:17Z</time>
      </trkpt>
      <trkpt lat="46.58943" lon="5.64758">
        <ele>546.2</ele>
        <time>2021-10-25T11:50:19Z</time>
      </trkpt>
      <trkpt lat="46.5896" lon="5.64759">
        <ele>546.2</ele>
        <time>2021-10-25T11:50:21Z</time>
      </trkpt>
      <trkpt lat="46.58976" lon="5.64754">
        <ele>546</ele>
        <time>2021-10-25T11:50:23Z</time>
      </trkpt>
      <trkpt lat="46.59012" lon="5.64726">
        <ele>545.8</ele>
        <time>2021-10-25T11:50:28Z</time>
      </trkpt>
      <trkpt lat="46.59044" lon="5.64697">
        <ele>545.6</ele>
        <time>2021-10-25T11:50:33Z</time>
      </trkpt>
      <trkpt lat="46.59057" lon="5.64687">
        <ele>545.4</ele>
        <time>2021-10-25T11:50:35Z</time>
      </trkpt>
      <trkpt lat="46.59106" lon="5.64654">
        <ele>546.4</ele>
        <time>2021-10-25T11:50:43Z</time>
      </trkpt>
      <trkpt lat="46.59118" lon="5.64646">
        <ele>546.8</ele>
        <time>2021-10-25T11:50:45Z</time>
      </trkpt>
      <trkpt lat="46.59133" lon="5.64636">
        <ele>547.2</ele>
        <time>2021-10-25T11:50:48Z</time>
      </trkpt>
      <trkpt lat="46.59155" lon="5.64622">
        <ele>547.8</ele>
        <time>2021-10-25T11:50:52Z</time>
      </trkpt>
      <trkpt lat="46.5916" lon="5.64618">
        <ele>547.8</ele>
        <time>2021-10-25T11:50:53Z</time>
      </trkpt>
      <trkpt lat="46.59169" lon="5.64611">
        <ele>548.2</ele>
        <time>2021-10-25T11:50:55Z</time>
      </trkpt>
      <trkpt lat="46.59183" lon="5.646">
        <ele>549</ele>
        <time>2021-10-25T11:50:58Z</time>
      </trkpt>
      <trkpt lat="46.59194" lon="5.64595">
        <ele>549.6</ele>
        <time>2021-10-25T11:51:00Z</time>
      </trkpt>
      <trkpt lat="46.5921" lon="5.64593">
        <ele>550.2</ele>
        <time>2021-10-25T11:51:03Z</time>
      </trkpt>
      <trkpt lat="46.59225" lon="5.64593">
        <ele>551</ele>
        <time>2021-10-25T11:51:06Z</time>
      </trkpt>
      <trkpt lat="46.59235" lon="5.64593">
        <ele>551.4</ele>
        <time>2021-10-25T11:51:08Z</time>
      </trkpt>
      <trkpt lat="46.59257" lon="5.64587">
        <ele>552</ele>
        <time>2021-10-25T11:51:12Z</time>
      </trkpt>
      <trkpt lat="46.59268" lon="5.64583">
        <ele>552.4</ele>
        <time>2021-10-25T11:51:14Z</time>
      </trkpt>
      <trkpt lat="46.59296" lon="5.64573">
        <ele>553.6</ele>
        <time>2021-10-25T11:51:19Z</time>
      </trkpt>
      <trkpt lat="46.5934" lon="5.64562">
        <ele>554.4</ele>
        <time>2021-10-25T11:51:27Z</time>
      </trkpt>
      <trkpt lat="46.59361" lon="5.64566">
        <ele>554.6</ele>
        <time>2021-10-25T11:51:31Z</time>
      </trkpt>
      <trkpt lat="46.59371" lon="5.64569">
        <ele>555</ele>
        <time>2021-10-25T11:51:33Z</time>
      </trkpt>
      <trkpt lat="46.5939" lon="5.64575">
        <ele>555.8</ele>
        <time>2021-10-25T11:51:37Z</time>
      </trkpt>
      <trkpt lat="46.59424" lon="5.64585">
        <ele>556.6</ele>
        <time>2021-10-25T11:51:44Z</time>
      </trkpt>
      <trkpt lat="46.59438" lon="5.64589">
        <ele>557.4</ele>
        <time>2021-10-25T11:51:47Z</time>
      </trkpt>
      <trkpt lat="46.5947" lon="5.64599">
        <ele>558.2</ele>
        <time>2021-10-25T11:51:53Z</time>
      </trkpt>
      <trkpt lat="46.59487" lon="5.64604">
        <ele>558.4</ele>
        <time>2021-10-25T11:51:56Z</time>
      </trkpt>
      <trkpt lat="46.59512" lon="5.64609">
        <ele>558.4</ele>
        <time>2021-10-25T11:52:00Z</time>
      </trkpt>
      <trkpt lat="46.59557" lon="5.6462">
        <ele>558.4</ele>
        <time>2021-10-25T11:52:07Z</time>
      </trkpt>
      <trkpt lat="46.59599" lon="5.64635">
        <ele>558.6</ele>
        <time>2021-10-25T11:52:14Z</time>
      </trkpt>
      <trkpt lat="46.59626" lon="5.64643">
        <ele>559.4</ele>
        <time>2021-10-25T11:52:19Z</time>
      </trkpt>
      <trkpt lat="46.59631" lon="5.64644">
        <ele>559.4</ele>
        <time>2021-10-25T11:52:20Z</time>
      </trkpt>
      <trkpt lat="46.59655" lon="5.64637">
        <ele>560.4</ele>
        <time>2021-10-25T11:52:25Z</time>
      </trkpt>
      <trkpt lat="46.5969" lon="5.64611">
        <ele>561</ele>
        <time>2021-10-25T11:52:33Z</time>
      </trkpt>
      <trkpt lat="46.59704" lon="5.64596">
        <ele>561.6</ele>
        <time>2021-10-25T11:52:37Z</time>
      </trkpt>
      <trkpt lat="46.59711" lon="5.6459">
        <ele>562</ele>
        <time>2021-10-25T11:52:39Z</time>
      </trkpt>
      <trkpt lat="46.59718" lon="5.64585">
        <ele>562.6</ele>
        <time>2021-10-25T11:52:41Z</time>
      </trkpt>
      <trkpt lat="46.59726" lon="5.64581">
        <ele>563</ele>
        <time>2021-10-25T11:52:43Z</time>
      </trkpt>
      <trkpt lat="46.5973" lon="5.64577">
        <ele>563.2</ele>
        <time>2021-10-25T11:52:44Z</time>
      </trkpt>
      <trkpt lat="46.59733" lon="5.64571">
        <ele>563.4</ele>
        <time>2021-10-25T11:52:45Z</time>
      </trkpt>
      <trkpt lat="46.59735" lon="5.64564">
        <ele>563.6</ele>
        <time>2021-10-25T11:52:46Z</time>
      </trkpt>
      <trkpt lat="46.59737" lon="5.64556">
        <ele>563.6</ele>
        <time>2021-10-25T11:52:47Z</time>
      </trkpt>
      <trkpt lat="46.59753" lon="5.64503">
        <ele>563.4</ele>
        <time>2021-10-25T11:52:54Z</time>
      </trkpt>
      <trkpt lat="46.59777" lon="5.64453">
        <ele>562.4</ele>
        <time>2021-10-25T11:53:00Z</time>
      </trkpt>
      <trkpt lat="46.59796" lon="5.64417">
        <ele>561.2</ele>
        <time>2021-10-25T11:53:04Z</time>
      </trkpt>
      <trkpt lat="46.59806" lon="5.64398">
        <ele>560.4</ele>
        <time>2021-10-25T11:53:06Z</time>
      </trkpt>
      <trkpt lat="46.59811" lon="5.64389">
        <ele>559.8</ele>
        <time>2021-10-25T11:53:07Z</time>
      </trkpt>
      <trkpt lat="46.59826" lon="5.64358">
        <ele>558.8</ele>
        <time>2021-10-25T11:53:10Z</time>
      </trkpt>
      <trkpt lat="46.59835" lon="5.6434">
        <ele>558.2</ele>
        <time>2021-10-25T11:53:12Z</time>
      </trkpt>
      <trkpt lat="46.59846" lon="5.64318">
        <ele>557.6</ele>
        <time>2021-10-25T11:53:14Z</time>
      </trkpt>
      <trkpt lat="46.59861" lon="5.64288">
        <ele>556.6</ele>
        <time>2021-10-25T11:53:17Z</time>
      </trkpt>
      <trkpt lat="46.59866" lon="5.64279">
        <ele>556</ele>
        <time>2021-10-25T11:53:18Z</time>
      </trkpt>
      <trkpt lat="46.59876" lon="5.6426">
        <ele>555.4</ele>
        <time>2021-10-25T11:53:20Z</time>
      </trkpt>
      <trkpt lat="46.59889" lon="5.64234">
        <ele>554.4</ele>
        <time>2021-10-25T11:53:23Z</time>
      </trkpt>
      <trkpt lat="46.59899" lon="5.64215">
        <ele>554</ele>
        <time>2021-10-25T11:53:25Z</time>
      </trkpt>
      <trkpt lat="46.59908" lon="5.64197">
        <ele>553.4</ele>
        <time>2021-10-25T11:53:27Z</time>
      </trkpt>
      <trkpt lat="46.59943" lon="5.64129">
        <ele>553</ele>
        <time>2021-10-25T11:53:35Z</time>
      </trkpt>
      <trkpt lat="46.59951" lon="5.64114">
        <ele>553.4</ele>
        <time>2021-10-25T11:53:37Z</time>
      </trkpt>
      <trkpt lat="46.59961" lon="5.64103">
        <ele>553.6</ele>
        <time>2021-10-25T11:53:39Z</time>
      </trkpt>
      <trkpt lat="46.59967" lon="5.641">
        <ele>553.8</ele>
        <time>2021-10-25T11:53:40Z</time>
      </trkpt>
      <trkpt lat="46.59972" lon="5.641">
        <ele>553.8</ele>
        <time>2021-10-25T11:53:41Z</time>
      </trkpt>
      <trkpt lat="46.59984" lon="5.64101">
        <ele>554.4</ele>
        <time>2021-10-25T11:53:43Z</time>
      </trkpt>
      <trkpt lat="46.59991" lon="5.64101">
        <ele>554.8</ele>
        <time>2021-10-25T11:53:44Z</time>
      </trkpt>
      <trkpt lat="46.6001" lon="5.64096">
        <ele>555.8</ele>
        <time>2021-10-25T11:53:47Z</time>
      </trkpt>
      <trkpt lat="46.60023" lon="5.64093">
        <ele>556.4</ele>
        <time>2021-10-25T11:53:49Z</time>
      </trkpt>
      <trkpt lat="46.6005" lon="5.64086">
        <ele>556.8</ele>
        <time>2021-10-25T11:53:53Z</time>
      </trkpt>
      <trkpt lat="46.60082" lon="5.64077">
        <ele>557</ele>
        <time>2021-10-25T11:53:58Z</time>
      </trkpt>
      <trkpt lat="46.60122" lon="5.64071">
        <ele>556.6</ele>
        <time>2021-10-25T11:54:04Z</time>
      </trkpt>
      <trkpt lat="46.60165" lon="5.64079">
        <ele>556.6</ele>
        <time>2021-10-25T11:54:10Z</time>
      </trkpt>
      <trkpt lat="46.60219" lon="5.64085">
        <ele>555.8</ele>
        <time>2021-10-25T11:54:17Z</time>
      </trkpt>
      <trkpt lat="46.60228" lon="5.64085">
        <ele>555.8</ele>
        <time>2021-10-25T11:54:18Z</time>
      </trkpt>
      <trkpt lat="46.60283" lon="5.6409">
        <ele>555.4</ele>
        <time>2021-10-25T11:54:25Z</time>
      </trkpt>
      <trkpt lat="46.60341" lon="5.64106">
        <ele>555.8</ele>
        <time>2021-10-25T11:54:33Z</time>
      </trkpt>
      <trkpt lat="46.60348" lon="5.64109">
        <ele>555.8</ele>
        <time>2021-10-25T11:54:34Z</time>
      </trkpt>
      <trkpt lat="46.60403" lon="5.64126">
        <ele>556</ele>
        <time>2021-10-25T11:54:42Z</time>
      </trkpt>
      <trkpt lat="46.60459" lon="5.64145">
        <ele>556.6</ele>
        <time>2021-10-25T11:54:51Z</time>
      </trkpt>
      <trkpt lat="46.60471" lon="5.64148">
        <ele>557.2</ele>
        <time>2021-10-25T11:54:53Z</time>
      </trkpt>
      <trkpt lat="46.60496" lon="5.64152">
        <ele>557.8</ele>
        <time>2021-10-25T11:54:57Z</time>
      </trkpt>
      <trkpt lat="46.60552" lon="5.64154">
        <ele>558</ele>
        <time>2021-10-25T11:55:06Z</time>
      </trkpt>
      <trkpt lat="46.60557" lon="5.64154">
        <ele>558.2</ele>
        <time>2021-10-25T11:55:07Z</time>
      </trkpt>
      <trkpt lat="46.60569" lon="5.64152">
        <ele>558.4</ele>
        <time>2021-10-25T11:55:09Z</time>
      </trkpt>
      <trkpt lat="46.60586" lon="5.64147">
        <ele>559</ele>
        <time>2021-10-25T11:55:12Z</time>
      </trkpt>
      <trkpt lat="46.60607" lon="5.64141">
        <ele>559.4</ele>
        <time>2021-10-25T11:55:16Z</time>
      </trkpt>
      <trkpt lat="46.60618" lon="5.64139">
        <ele>559.8</ele>
        <time>2021-10-25T11:55:18Z</time>
      </trkpt>
      <trkpt lat="46.60639" lon="5.64141">
        <ele>560.6</ele>
        <time>2021-10-25T11:55:22Z</time>
      </trkpt>
      <trkpt lat="46.60656" lon="5.64144">
        <ele>561.2</ele>
        <time>2021-10-25T11:55:25Z</time>
      </trkpt>
      <trkpt lat="46.60677" lon="5.64151">
        <ele>562</ele>
        <time>2021-10-25T11:55:29Z</time>
      </trkpt>
      <trkpt lat="46.60713" lon="5.64163">
        <ele>562.8</ele>
        <time>2021-10-25T11:55:35Z</time>
      </trkpt>
      <trkpt lat="46.60753" lon="5.64166">
        <ele>562.6</ele>
        <time>2021-10-25T11:55:41Z</time>
      </trkpt>
      <trkpt lat="46.60797" lon="5.64161">
        <ele>562.2</ele>
        <time>2021-10-25T11:55:47Z</time>
      </trkpt>
      <trkpt lat="46.60846" lon="5.64156">
        <ele>561.8</ele>
        <time>2021-10-25T11:55:54Z</time>
      </trkpt>
      <trkpt lat="46.60892" lon="5.64157">
        <ele>562</ele>
        <time>2021-10-25T11:56:01Z</time>
      </trkpt>
      <trkpt lat="46.60922" lon="5.64158">
        <ele>563</ele>
        <time>2021-10-25T11:56:06Z</time>
      </trkpt>
      <trkpt lat="46.60933" lon="5.64159">
        <ele>563.4</ele>
        <time>2021-10-25T11:56:08Z</time>
      </trkpt>
      <trkpt lat="46.6095" lon="5.6416">
        <ele>564</ele>
        <time>2021-10-25T11:56:11Z</time>
      </trkpt>
      <trkpt lat="46.6098" lon="5.6416">
        <ele>564.6</ele>
        <time>2021-10-25T11:56:16Z</time>
      </trkpt>
      <trkpt lat="46.61021" lon="5.64157">
        <ele>565.2</ele>
        <time>2021-10-25T11:56:23Z</time>
      </trkpt>
      <trkpt lat="46.61032" lon="5.64156">
        <ele>565.2</ele>
        <time>2021-10-25T11:56:25Z</time>
      </trkpt>
      <trkpt lat="46.61072" lon="5.64151">
        <ele>566.2</ele>
        <time>2021-10-25T11:56:32Z</time>
      </trkpt>
      <trkpt lat="46.6109" lon="5.64151">
        <ele>566.6</ele>
        <time>2021-10-25T11:56:35Z</time>
      </trkpt>
      <trkpt lat="46.61102" lon="5.64153">
        <ele>566.6</ele>
        <time>2021-10-25T11:56:37Z</time>
      </trkpt>
      <trkpt lat="46.6112" lon="5.6416">
        <ele>566.6</ele>
        <time>2021-10-25T11:56:40Z</time>
      </trkpt>
      <trkpt lat="46.61142" lon="5.64179">
        <ele>566.8</ele>
        <time>2021-10-25T11:56:44Z</time>
      </trkpt>
      <trkpt lat="46.61147" lon="5.64185">
        <ele>566.6</ele>
        <time>2021-10-25T11:56:45Z</time>
      </trkpt>
      <trkpt lat="46.61166" lon="5.64205">
        <ele>566.2</ele>
        <time>2021-10-25T11:56:48Z</time>
      </trkpt>
      <trkpt lat="46.61176" lon="5.64224">
        <ele>565.8</ele>
        <time>2021-10-25T11:56:50Z</time>
      </trkpt>
      <trkpt lat="46.61177" lon="5.64247">
        <ele>565.2</ele>
        <time>2021-10-25T11:56:52Z</time>
      </trkpt>
      <trkpt lat="46.61171" lon="5.64291">
        <ele>563.4</ele>
        <time>2021-10-25T11:56:55Z</time>
      </trkpt>
      <trkpt lat="46.61169" lon="5.64306">
        <ele>563</ele>
        <time>2021-10-25T11:56:56Z</time>
      </trkpt>
      <trkpt lat="46.61169" lon="5.64321">
        <ele>561.8</ele>
        <time>2021-10-25T11:56:57Z</time>
      </trkpt>
      <trkpt lat="46.61169" lon="5.64336">
        <ele>561.6</ele>
        <time>2021-10-25T11:56:58Z</time>
      </trkpt>
      <trkpt lat="46.6117" lon="5.64351">
        <ele>560.8</ele>
        <time>2021-10-25T11:56:59Z</time>
      </trkpt>
      <trkpt lat="46.61173" lon="5.64366">
        <ele>560</ele>
        <time>2021-10-25T11:57:00Z</time>
      </trkpt>
      <trkpt lat="46.61179" lon="5.64379">
        <ele>559.6</ele>
        <time>2021-10-25T11:57:01Z</time>
      </trkpt>
      <trkpt lat="46.61186" lon="5.64389">
        <ele>558.8</ele>
        <time>2021-10-25T11:57:02Z</time>
      </trkpt>
      <trkpt lat="46.61194" lon="5.64399">
        <ele>558.4</ele>
        <time>2021-10-25T11:57:03Z</time>
      </trkpt>
      <trkpt lat="46.61209" lon="5.64415">
        <ele>557.2</ele>
        <time>2021-10-25T11:57:05Z</time>
      </trkpt>
      <trkpt lat="46.61228" lon="5.64432">
        <ele>556</ele>
        <time>2021-10-25T11:57:07Z</time>
      </trkpt>
      <trkpt lat="46.61247" lon="5.64442">
        <ele>554.8</ele>
        <time>2021-10-25T11:57:09Z</time>
      </trkpt>
      <trkpt lat="46.61256" lon="5.64445">
        <ele>554.4</ele>
        <time>2021-10-25T11:57:10Z</time>
      </trkpt>
      <trkpt lat="46.61287" lon="5.64451">
        <ele>553.2</ele>
        <time>2021-10-25T11:57:13Z</time>
      </trkpt>
      <trkpt lat="46.61308" lon="5.64455">
        <ele>552</ele>
        <time>2021-10-25T11:57:15Z</time>
      </trkpt>
      <trkpt lat="46.61318" lon="5.64455">
        <ele>551.4</ele>
        <time>2021-10-25T11:57:16Z</time>
      </trkpt>
      <trkpt lat="46.61339" lon="5.64452">
        <ele>550.6</ele>
        <time>2021-10-25T11:57:18Z</time>
      </trkpt>
      <trkpt lat="46.61379" lon="5.64443">
        <ele>549.2</ele>
        <time>2021-10-25T11:57:22Z</time>
      </trkpt>
      <trkpt lat="46.61427" lon="5.64433">
        <ele>548</ele>
        <time>2021-10-25T11:57:27Z</time>
      </trkpt>
      <trkpt lat="46.61443" lon="5.6443">
        <ele>547.8</ele>
        <time>2021-10-25T11:57:29Z</time>
      </trkpt>
      <trkpt lat="46.61459" lon="5.64425">
        <ele>547.8</ele>
        <time>2021-10-25T11:57:31Z</time>
      </trkpt>
      <trkpt lat="46.61482" lon="5.64413">
        <ele>548</ele>
        <time>2021-10-25T11:57:34Z</time>
      </trkpt>
      <trkpt lat="46.6149" lon="5.64406">
        <ele>548.2</ele>
        <time>2021-10-25T11:57:35Z</time>
      </trkpt>
      <trkpt lat="46.61508" lon="5.64388">
        <ele>548.6</ele>
        <time>2021-10-25T11:57:38Z</time>
      </trkpt>
      <trkpt lat="46.6152" lon="5.64375">
        <ele>549</ele>
        <time>2021-10-25T11:57:40Z</time>
      </trkpt>
      <trkpt lat="46.6153" lon="5.64365">
        <ele>549.8</ele>
        <time>2021-10-25T11:57:42Z</time>
      </trkpt>
      <trkpt lat="46.61546" lon="5.64346">
        <ele>550.2</ele>
        <time>2021-10-25T11:57:45Z</time>
      </trkpt>
      <trkpt lat="46.61557" lon="5.64335">
        <ele>550.2</ele>
        <time>2021-10-25T11:57:47Z</time>
      </trkpt>
      <trkpt lat="46.61562" lon="5.64332">
        <ele>550.4</ele>
        <time>2021-10-25T11:57:48Z</time>
      </trkpt>
      <trkpt lat="46.61573" lon="5.64324">
        <ele>550.4</ele>
        <time>2021-10-25T11:57:50Z</time>
      </trkpt>
      <trkpt lat="46.61579" lon="5.64321">
        <ele>550.6</ele>
        <time>2021-10-25T11:57:51Z</time>
      </trkpt>
      <trkpt lat="46.61592" lon="5.64318">
        <ele>550.8</ele>
        <time>2021-10-25T11:57:53Z</time>
      </trkpt>
      <trkpt lat="46.61598" lon="5.64316">
        <ele>551.2</ele>
        <time>2021-10-25T11:57:54Z</time>
      </trkpt>
      <trkpt lat="46.61613" lon="5.64312">
        <ele>551.4</ele>
        <time>2021-10-25T11:57:56Z</time>
      </trkpt>
      <trkpt lat="46.61618" lon="5.6431">
        <ele>552</ele>
        <time>2021-10-25T11:57:57Z</time>
      </trkpt>
      <trkpt lat="46.61626" lon="5.64307">
        <ele>552.2</ele>
        <time>2021-10-25T11:57:58Z</time>
      </trkpt>
      <trkpt lat="46.61645" lon="5.64293">
        <ele>552.6</ele>
        <time>2021-10-25T11:58:01Z</time>
      </trkpt>
      <trkpt lat="46.61681" lon="5.64242">
        <ele>552.6</ele>
        <time>2021-10-25T11:58:08Z</time>
      </trkpt>
      <trkpt lat="46.61715" lon="5.64181">
        <ele>551.8</ele>
        <time>2021-10-25T11:58:15Z</time>
      </trkpt>
      <trkpt lat="46.6172" lon="5.64174">
        <ele>551.8</ele>
        <time>2021-10-25T11:58:16Z</time>
      </trkpt>
      <trkpt lat="46.61725" lon="5.64167">
        <ele>551.8</ele>
        <time>2021-10-25T11:58:17Z</time>
      </trkpt>
      <trkpt lat="46.61736" lon="5.64158">
        <ele>551.8</ele>
        <time>2021-10-25T11:58:19Z</time>
      </trkpt>
      <trkpt lat="46.61741" lon="5.64155">
        <ele>551.8</ele>
        <time>2021-10-25T11:58:20Z</time>
      </trkpt>
      <trkpt lat="46.61747" lon="5.64153">
        <ele>552</ele>
        <time>2021-10-25T11:58:21Z</time>
      </trkpt>
      <trkpt lat="46.61774" lon="5.64149">
        <ele>552.2</ele>
        <time>2021-10-25T11:58:25Z</time>
      </trkpt>
      <trkpt lat="46.61818" lon="5.64148">
        <ele>552.2</ele>
        <time>2021-10-25T11:58:31Z</time>
      </trkpt>
      <trkpt lat="46.61867" lon="5.64146">
        <ele>551.2</ele>
        <time>2021-10-25T11:58:37Z</time>
      </trkpt>
      <trkpt lat="46.61884" lon="5.64146">
        <ele>550.6</ele>
        <time>2021-10-25T11:58:39Z</time>
      </trkpt>
      <trkpt lat="46.61893" lon="5.64145">
        <ele>550.2</ele>
        <time>2021-10-25T11:58:40Z</time>
      </trkpt>
      <trkpt lat="46.61918" lon="5.64143">
        <ele>549</ele>
        <time>2021-10-25T11:58:43Z</time>
      </trkpt>
      <trkpt lat="46.6195" lon="5.64139">
        <ele>548.4</ele>
        <time>2021-10-25T11:58:47Z</time>
      </trkpt>
      <trkpt lat="46.61967" lon="5.64139">
        <ele>548</ele>
        <time>2021-10-25T11:58:49Z</time>
      </trkpt>
      <trkpt lat="46.62011" lon="5.64136">
        <ele>546.6</ele>
        <time>2021-10-25T11:58:54Z</time>
      </trkpt>
      <trkpt lat="46.62039" lon="5.64131">
        <ele>545.8</ele>
        <time>2021-10-25T11:58:57Z</time>
      </trkpt>
      <trkpt lat="46.62048" lon="5.64128">
        <ele>545.4</ele>
        <time>2021-10-25T11:58:58Z</time>
      </trkpt>
      <trkpt lat="46.62066" lon="5.64122">
        <ele>544.4</ele>
        <time>2021-10-25T11:59:00Z</time>
      </trkpt>
      <trkpt lat="46.62093" lon="5.64112">
        <ele>543.2</ele>
        <time>2021-10-25T11:59:03Z</time>
      </trkpt>
      <trkpt lat="46.62122" lon="5.64105">
        <ele>542.8</ele>
        <time>2021-10-25T11:59:06Z</time>
      </trkpt>
      <trkpt lat="46.62131" lon="5.64105">
        <ele>542.8</ele>
        <time>2021-10-25T11:59:07Z</time>
      </trkpt>
      <trkpt lat="46.62176" lon="5.64105">
        <ele>542.2</ele>
        <time>2021-10-25T11:59:12Z</time>
      </trkpt>
      <trkpt lat="46.62184" lon="5.64103">
        <ele>542</ele>
        <time>2021-10-25T11:59:13Z</time>
      </trkpt>
      <trkpt lat="46.62192" lon="5.641">
        <ele>541.8</ele>
        <time>2021-10-25T11:59:14Z</time>
      </trkpt>
      <trkpt lat="46.622" lon="5.64096">
        <ele>541.8</ele>
        <time>2021-10-25T11:59:15Z</time>
      </trkpt>
      <trkpt lat="46.6222" lon="5.64082">
        <ele>541.8</ele>
        <time>2021-10-25T11:59:18Z</time>
      </trkpt>
      <trkpt lat="46.62268" lon="5.64057">
        <ele>542</ele>
        <time>2021-10-25T11:59:25Z</time>
      </trkpt>
      <trkpt lat="46.62293" lon="5.64053">
        <ele>541.8</ele>
        <time>2021-10-25T11:59:28Z</time>
      </trkpt>
      <trkpt lat="46.62302" lon="5.64054">
        <ele>541.8</ele>
        <time>2021-10-25T11:59:29Z</time>
      </trkpt>
      <trkpt lat="46.6232" lon="5.64057">
        <ele>541.2</ele>
        <time>2021-10-25T11:59:31Z</time>
      </trkpt>
      <trkpt lat="46.62336" lon="5.64065">
        <ele>541</ele>
        <time>2021-10-25T11:59:33Z</time>
      </trkpt>
      <trkpt lat="46.62388" lon="5.64094">
        <ele>541.4</ele>
        <time>2021-10-25T11:59:40Z</time>
      </trkpt>
      <trkpt lat="46.62395" lon="5.64098">
        <ele>541.6</ele>
        <time>2021-10-25T11:59:41Z</time>
      </trkpt>
      <trkpt lat="46.62431" lon="5.64129">
        <ele>542.2</ele>
        <time>2021-10-25T11:59:47Z</time>
      </trkpt>
      <trkpt lat="46.62437" lon="5.64134">
        <ele>542.4</ele>
        <time>2021-10-25T11:59:48Z</time>
      </trkpt>
      <trkpt lat="46.62489" lon="5.64183">
        <ele>542.2</ele>
        <time>2021-10-25T11:59:56Z</time>
      </trkpt>
      <trkpt lat="46.62508" lon="5.64203">
        <ele>541.2</ele>
        <time>2021-10-25T11:59:59Z</time>
      </trkpt>
      <trkpt lat="46.6253" lon="5.64225">
        <ele>539.6</ele>
        <time>2021-10-25T12:00:02Z</time>
      </trkpt>
      <trkpt lat="46.62538" lon="5.64231">
        <ele>539</ele>
        <time>2021-10-25T12:00:03Z</time>
      </trkpt>
      <trkpt lat="46.62557" lon="5.64238">
        <ele>538.2</ele>
        <time>2021-10-25T12:00:05Z</time>
      </trkpt>
      <trkpt lat="46.62566" lon="5.64238">
        <ele>538</ele>
        <time>2021-10-25T12:00:06Z</time>
      </trkpt>
      <trkpt lat="46.62596" lon="5.64237">
        <ele>537</ele>
        <time>2021-10-25T12:00:09Z</time>
      </trkpt>
      <trkpt lat="46.62616" lon="5.64238">
        <ele>535.8</ele>
        <time>2021-10-25T12:00:11Z</time>
      </trkpt>
      <trkpt lat="46.62626" lon="5.64238">
        <ele>534.6</ele>
        <time>2021-10-25T12:00:12Z</time>
      </trkpt>
      <trkpt lat="46.62646" lon="5.64238">
        <ele>533.4</ele>
        <time>2021-10-25T12:00:14Z</time>
      </trkpt>
      <trkpt lat="46.62658" lon="5.64239">
        <ele>533.2</ele>
        <time>2021-10-25T12:00:15Z</time>
      </trkpt>
      <trkpt lat="46.62678" lon="5.6424">
        <ele>532.4</ele>
        <time>2021-10-25T12:00:17Z</time>
      </trkpt>
      <trkpt lat="46.62687" lon="5.64242">
        <ele>531.4</ele>
        <time>2021-10-25T12:00:18Z</time>
      </trkpt>
      <trkpt lat="46.62706" lon="5.64249">
        <ele>530.6</ele>
        <time>2021-10-25T12:00:20Z</time>
      </trkpt>
      <trkpt lat="46.62739" lon="5.64268">
        <ele>530.4</ele>
        <time>2021-10-25T12:00:24Z</time>
      </trkpt>
      <trkpt lat="46.62773" lon="5.6429">
        <ele>531.4</ele>
        <time>2021-10-25T12:00:29Z</time>
      </trkpt>
      <trkpt lat="46.62806" lon="5.64301">
        <ele>532.2</ele>
        <time>2021-10-25T12:00:34Z</time>
      </trkpt>
      <trkpt lat="46.62812" lon="5.64302">
        <ele>532.6</ele>
        <time>2021-10-25T12:00:35Z</time>
      </trkpt>
      <trkpt lat="46.62839" lon="5.64306">
        <ele>533.6</ele>
        <time>2021-10-25T12:00:39Z</time>
      </trkpt>
      <trkpt lat="46.6286" lon="5.64309">
        <ele>534.2</ele>
        <time>2021-10-25T12:00:42Z</time>
      </trkpt>
      <trkpt lat="46.62886" lon="5.64313">
        <ele>534.8</ele>
        <time>2021-10-25T12:00:46Z</time>
      </trkpt>
      <trkpt lat="46.62923" lon="5.64317">
        <ele>535.4</ele>
        <time>2021-10-25T12:00:52Z</time>
      </trkpt>
      <trkpt lat="46.62935" lon="5.64319">
        <ele>535.8</ele>
        <time>2021-10-25T12:00:54Z</time>
      </trkpt>
      <trkpt lat="46.62962" lon="5.64324">
        <ele>537</ele>
        <time>2021-10-25T12:00:59Z</time>
      </trkpt>
      <trkpt lat="46.62968" lon="5.64324">
        <ele>537.2</ele>
        <time>2021-10-25T12:01:00Z</time>
      </trkpt>
      <trkpt lat="46.62985" lon="5.64326">
        <ele>538</ele>
        <time>2021-10-25T12:01:03Z</time>
      </trkpt>
      <trkpt lat="46.62995" lon="5.64327">
        <ele>538.4</ele>
        <time>2021-10-25T12:01:05Z</time>
      </trkpt>
      <trkpt lat="46.63006" lon="5.6433">
        <ele>538.6</ele>
        <time>2021-10-25T12:01:07Z</time>
      </trkpt>
      <trkpt lat="46.63026" lon="5.64334">
        <ele>539.2</ele>
        <time>2021-10-25T12:01:11Z</time>
      </trkpt>
      <trkpt lat="46.63041" lon="5.64337">
        <ele>540.4</ele>
        <time>2021-10-25T12:01:14Z</time>
      </trkpt>
      <trkpt lat="46.63045" lon="5.64338">
        <ele>540.6</ele>
        <time>2021-10-25T12:01:15Z</time>
      </trkpt>
      <trkpt lat="46.63055" lon="5.64339">
        <ele>541.6</ele>
        <time>2021-10-25T12:01:17Z</time>
      </trkpt>
      <trkpt lat="46.63068" lon="5.64341">
        <ele>542.6</ele>
        <time>2021-10-25T12:01:20Z</time>
      </trkpt>
      <trkpt lat="46.63092" lon="5.64344">
        <ele>543.8</ele>
        <time>2021-10-25T12:01:25Z</time>
      </trkpt>
      <trkpt lat="46.63119" lon="5.64346">
        <ele>544</ele>
        <time>2021-10-25T12:01:30Z</time>
      </trkpt>
      <trkpt lat="46.63151" lon="5.64338">
        <ele>544</ele>
        <time>2021-10-25T12:01:35Z</time>
      </trkpt>
      <trkpt lat="46.63188" lon="5.64335">
        <ele>542.6</ele>
        <time>2021-10-25T12:01:40Z</time>
      </trkpt>
      <trkpt lat="46.63204" lon="5.64338">
        <ele>541.6</ele>
        <time>2021-10-25T12:01:42Z</time>
      </trkpt>
      <trkpt lat="46.63228" lon="5.64337">
        <ele>540.2</ele>
        <time>2021-10-25T12:01:45Z</time>
      </trkpt>
      <trkpt lat="46.63234" lon="5.64335">
        <ele>539.6</ele>
        <time>2021-10-25T12:01:46Z</time>
      </trkpt>
      <trkpt lat="46.63241" lon="5.64331">
        <ele>539.4</ele>
        <time>2021-10-25T12:01:47Z</time>
      </trkpt>
      <trkpt lat="46.63255" lon="5.64318">
        <ele>539</ele>
        <time>2021-10-25T12:01:49Z</time>
      </trkpt>
      <trkpt lat="46.63292" lon="5.64273">
        <ele>538.8</ele>
        <time>2021-10-25T12:01:56Z</time>
      </trkpt>
      <trkpt lat="46.63303" lon="5.64264">
        <ele>538.8</ele>
        <time>2021-10-25T12:01:58Z</time>
      </trkpt>
      <trkpt lat="46.63315" lon="5.64259">
        <ele>538.8</ele>
        <time>2021-10-25T12:02:00Z</time>
      </trkpt>
      <trkpt lat="46.63332" lon="5.64253">
        <ele>538.6</ele>
        <time>2021-10-25T12:02:04Z</time>
      </trkpt>
      <trkpt lat="46.63333" lon="5.64248">
        <ele>538.6</ele>
        <time>2021-10-25T12:02:06Z</time>
      </trkpt>
      <trkpt lat="46.63331" lon="5.64247">
        <ele>538.6</ele>
        <time>2021-10-25T12:02:07Z</time>
      </trkpt>
      <trkpt lat="46.63328" lon="5.64248">
        <ele>538.6</ele>
        <time>2021-10-25T12:02:08Z</time>
      </trkpt>
      <trkpt lat="46.63311" lon="5.64255">
        <ele>538.6</ele>
        <time>2021-10-25T12:02:12Z</time>
      </trkpt>
      <trkpt lat="46.63283" lon="5.64279">
        <ele>538.8</ele>
        <time>2021-10-25T12:02:18Z</time>
      </trkpt>
      <trkpt lat="46.63249" lon="5.64319">
        <ele>539</ele>
        <time>2021-10-25T12:02:25Z</time>
      </trkpt>
      <trkpt lat="46.63233" lon="5.64338">
        <ele>539</ele>
        <time>2021-10-25T12:02:30Z</time>
      </trkpt>
      <trkpt lat="46.63235" lon="5.6435">
        <ele>539.2</ele>
        <time>2021-10-25T12:02:33Z</time>
      </trkpt>
      <trkpt lat="46.63237" lon="5.64362">
        <ele>539.2</ele>
        <time>2021-10-25T12:02:36Z</time>
      </trkpt>
      <trkpt lat="46.63236" lon="5.64366">
        <ele>539.2</ele>
        <time>2021-10-25T12:02:37Z</time>
      </trkpt>
      <trkpt lat="46.63231" lon="5.64401">
        <ele>539</ele>
        <time>2021-10-25T12:02:43Z</time>
      </trkpt>
      <trkpt lat="46.6323" lon="5.64408">
        <ele>539</ele>
        <time>2021-10-25T12:02:44Z</time>
      </trkpt>
      <trkpt lat="46.63231" lon="5.6443">
        <ele>539</ele>
        <time>2021-10-25T12:02:47Z</time>
      </trkpt>
      <trkpt lat="46.63232" lon="5.64437">
        <ele>539</ele>
        <time>2021-10-25T12:02:48Z</time>
      </trkpt>
      <trkpt lat="46.63236" lon="5.64465">
        <ele>539</ele>
        <time>2021-10-25T12:02:52Z</time>
      </trkpt>
      <trkpt lat="46.63236" lon="5.64478">
        <ele>539.2</ele>
        <time>2021-10-25T12:02:54Z</time>
      </trkpt>
      <trkpt lat="46.63233" lon="5.64493">
        <ele>539.4</ele>
        <time>2021-10-25T12:02:57Z</time>
      </trkpt>
      <trkpt lat="46.63235" lon="5.64494">
        <ele>539.4</ele>
        <time>2021-10-25T12:02:58Z</time>
      </trkpt>
      <trkpt lat="46.63237" lon="5.64486">
        <ele>539.6</ele>
        <time>2021-10-25T12:03:01Z</time>
      </trkpt>
      <trkpt lat="46.63237" lon="5.64458">
        <ele>539.6</ele>
        <time>2021-10-25T12:03:05Z</time>
      </trkpt>
      <trkpt lat="46.63233" lon="5.64423">
        <ele>539.2</ele>
        <time>2021-10-25T12:03:09Z</time>
      </trkpt>
      <trkpt lat="46.63233" lon="5.64414">
        <ele>539</ele>
        <time>2021-10-25T12:03:10Z</time>
      </trkpt>
      <trkpt lat="46.63234" lon="5.64404">
        <ele>539</ele>
        <time>2021-10-25T12:03:11Z</time>
      </trkpt>
      <trkpt lat="46.63238" lon="5.64377">
        <ele>538.6</ele>
        <time>2021-10-25T12:03:14Z</time>
      </trkpt>
      <trkpt lat="46.63242" lon="5.64352">
        <ele>538.4</ele>
        <time>2021-10-25T12:03:17Z</time>
      </trkpt>
      <trkpt lat="46.6324" lon="5.6434">
        <ele>538.4</ele>
        <time>2021-10-25T12:03:19Z</time>
      </trkpt>
      <trkpt lat="46.63233" lon="5.64334">
        <ele>538.4</ele>
        <time>2021-10-25T12:03:21Z</time>
      </trkpt>
      <trkpt lat="46.63229" lon="5.64332">
        <ele>538.6</ele>
        <time>2021-10-25T12:03:22Z</time>
      </trkpt>
      <trkpt lat="46.63226" lon="5.64333">
        <ele>538.6</ele>
        <time>2021-10-25T12:03:23Z</time>
      </trkpt>
      <trkpt lat="46.63225" lon="5.64336">
        <ele>539</ele>
        <time>2021-10-25T12:03:24Z</time>
      </trkpt>
      <trkpt lat="46.63231" lon="5.64345">
        <ele>539.2</ele>
        <time>2021-10-25T12:03:27Z</time>
      </trkpt>
      <trkpt lat="46.63233" lon="5.6435">
        <ele>539.2</ele>
        <time>2021-10-25T12:03:28Z</time>
      </trkpt>
      <trkpt lat="46.63236" lon="5.64366">
        <ele>539.2</ele>
        <time>2021-10-25T12:03:30Z</time>
      </trkpt>
      <trkpt lat="46.63231" lon="5.64413">
        <ele>539</ele>
        <time>2021-10-25T12:03:35Z</time>
      </trkpt>
      <trkpt lat="46.63232" lon="5.64431">
        <ele>538.8</ele>
        <time>2021-10-25T12:03:37Z</time>
      </trkpt>
      <trkpt lat="46.63234" lon="5.6445">
        <ele>538.8</ele>
        <time>2021-10-25T12:03:39Z</time>
      </trkpt>
      <trkpt lat="46.63236" lon="5.64467">
        <ele>538.8</ele>
        <time>2021-10-25T12:03:41Z</time>
      </trkpt>
      <trkpt lat="46.63235" lon="5.64485">
        <ele>539</ele>
        <time>2021-10-25T12:03:43Z</time>
      </trkpt>
      <trkpt lat="46.63221" lon="5.64535">
        <ele>539.6</ele>
        <time>2021-10-25T12:03:49Z</time>
      </trkpt>
      <trkpt lat="46.63205" lon="5.64583">
        <ele>539.8</ele>
        <time>2021-10-25T12:03:55Z</time>
      </trkpt>
      <trkpt lat="46.63198" lon="5.64627">
        <ele>540.4</ele>
        <time>2021-10-25T12:04:01Z</time>
      </trkpt>
      <trkpt lat="46.63194" lon="5.64654">
        <ele>541.6</ele>
        <time>2021-10-25T12:04:05Z</time>
      </trkpt>
      <trkpt lat="46.63193" lon="5.64666">
        <ele>542.6</ele>
        <time>2021-10-25T12:04:07Z</time>
      </trkpt>
      <trkpt lat="46.63192" lon="5.64672">
        <ele>543.2</ele>
        <time>2021-10-25T12:04:08Z</time>
      </trkpt>
      <trkpt lat="46.6319" lon="5.64684">
        <ele>543.8</ele>
        <time>2021-10-25T12:04:10Z</time>
      </trkpt>
      <trkpt lat="46.63188" lon="5.64701">
        <ele>544.6</ele>
        <time>2021-10-25T12:04:13Z</time>
      </trkpt>
      <trkpt lat="46.63187" lon="5.64709">
        <ele>545</ele>
        <time>2021-10-25T12:04:14Z</time>
      </trkpt>
      <trkpt lat="46.63186" lon="5.64721">
        <ele>545.6</ele>
        <time>2021-10-25T12:04:16Z</time>
      </trkpt>
      <trkpt lat="46.63187" lon="5.64743">
        <ele>546.2</ele>
        <time>2021-10-25T12:04:19Z</time>
      </trkpt>
      <trkpt lat="46.63188" lon="5.64768">
        <ele>546.6</ele>
        <time>2021-10-25T12:04:22Z</time>
      </trkpt>
      <trkpt lat="46.63189" lon="5.64778">
        <ele>546.6</ele>
        <time>2021-10-25T12:04:23Z</time>
      </trkpt>
      <trkpt lat="46.63191" lon="5.64788">
        <ele>546.6</ele>
        <time>2021-10-25T12:04:24Z</time>
      </trkpt>
      <trkpt lat="46.63204" lon="5.64831">
        <ele>546.2</ele>
        <time>2021-10-25T12:04:29Z</time>
      </trkpt>
      <trkpt lat="46.63206" lon="5.64848">
        <ele>546.2</ele>
        <time>2021-10-25T12:04:31Z</time>
      </trkpt>
      <trkpt lat="46.63205" lon="5.64865">
        <ele>546.2</ele>
        <time>2021-10-25T12:04:33Z</time>
      </trkpt>
      <trkpt lat="46.63196" lon="5.64901">
        <ele>547.2</ele>
        <time>2021-10-25T12:04:38Z</time>
      </trkpt>
      <trkpt lat="46.63193" lon="5.64914">
        <ele>547.4</ele>
        <time>2021-10-25T12:04:40Z</time>
      </trkpt>
      <trkpt lat="46.63187" lon="5.64935">
        <ele>547.6</ele>
        <time>2021-10-25T12:04:43Z</time>
      </trkpt>
      <trkpt lat="46.63174" lon="5.64976">
        <ele>547.6</ele>
        <time>2021-10-25T12:04:48Z</time>
      </trkpt>
      <trkpt lat="46.63152" lon="5.65037">
        <ele>547.2</ele>
        <time>2021-10-25T12:04:55Z</time>
      </trkpt>
      <trkpt lat="46.63138" lon="5.65077">
        <ele>546.4</ele>
        <time>2021-10-25T12:04:59Z</time>
      </trkpt>
      <trkpt lat="46.63131" lon="5.65098">
        <ele>546.2</ele>
        <time>2021-10-25T12:05:01Z</time>
      </trkpt>
      <trkpt lat="46.63117" lon="5.65142">
        <ele>545.4</ele>
        <time>2021-10-25T12:05:05Z</time>
      </trkpt>
      <trkpt lat="46.63103" lon="5.65185">
        <ele>545</ele>
        <time>2021-10-25T12:05:09Z</time>
      </trkpt>
      <trkpt lat="46.63087" lon="5.65246">
        <ele>544.8</ele>
        <time>2021-10-25T12:05:15Z</time>
      </trkpt>
      <trkpt lat="46.63073" lon="5.65295">
        <ele>546.2</ele>
        <time>2021-10-25T12:05:21Z</time>
      </trkpt>
      <trkpt lat="46.63068" lon="5.6531">
        <ele>546.6</ele>
        <time>2021-10-25T12:05:23Z</time>
      </trkpt>
      <trkpt lat="46.63054" lon="5.65347">
        <ele>547.6</ele>
        <time>2021-10-25T12:05:28Z</time>
      </trkpt>
      <trkpt lat="46.63035" lon="5.65384">
        <ele>548.2</ele>
        <time>2021-10-25T12:05:33Z</time>
      </trkpt>
      <trkpt lat="46.6303" lon="5.6539">
        <ele>548.2</ele>
        <time>2021-10-25T12:05:34Z</time>
      </trkpt>
      <trkpt lat="46.62999" lon="5.65422">
        <ele>548.2</ele>
        <time>2021-10-25T12:05:39Z</time>
      </trkpt>
      <trkpt lat="46.62991" lon="5.65427">
        <ele>548.2</ele>
        <time>2021-10-25T12:05:40Z</time>
      </trkpt>
      <trkpt lat="46.62951" lon="5.65457">
        <ele>546.4</ele>
        <time>2021-10-25T12:05:45Z</time>
      </trkpt>
      <trkpt lat="46.62927" lon="5.65481">
        <ele>544.8</ele>
        <time>2021-10-25T12:05:48Z</time>
      </trkpt>
      <trkpt lat="46.6292" lon="5.65488">
        <ele>543.8</ele>
        <time>2021-10-25T12:05:49Z</time>
      </trkpt>
      <trkpt lat="46.62904" lon="5.65505">
        <ele>542.6</ele>
        <time>2021-10-25T12:05:51Z</time>
      </trkpt>
      <trkpt lat="46.62882" lon="5.65535">
        <ele>541.6</ele>
        <time>2021-10-25T12:05:54Z</time>
      </trkpt>
      <trkpt lat="46.62876" lon="5.65547">
        <ele>541.4</ele>
        <time>2021-10-25T12:05:55Z</time>
      </trkpt>
      <trkpt lat="46.6286" lon="5.65586">
        <ele>539.8</ele>
        <time>2021-10-25T12:05:58Z</time>
      </trkpt>
      <trkpt lat="46.62856" lon="5.656">
        <ele>539.6</ele>
        <time>2021-10-25T12:05:59Z</time>
      </trkpt>
      <trkpt lat="46.62847" lon="5.65629">
        <ele>538.8</ele>
        <time>2021-10-25T12:06:01Z</time>
      </trkpt>
      <trkpt lat="46.62843" lon="5.65644">
        <ele>537.4</ele>
        <time>2021-10-25T12:06:02Z</time>
      </trkpt>
      <trkpt lat="46.62839" lon="5.65659">
        <ele>536.2</ele>
        <time>2021-10-25T12:06:03Z</time>
      </trkpt>
      <trkpt lat="46.62827" lon="5.65704">
        <ele>535.2</ele>
        <time>2021-10-25T12:06:06Z</time>
      </trkpt>
      <trkpt lat="46.62824" lon="5.65716">
        <ele>534</ele>
        <time>2021-10-25T12:06:07Z</time>
      </trkpt>
      <trkpt lat="46.62816" lon="5.65746">
        <ele>532.8</ele>
        <time>2021-10-25T12:06:09Z</time>
      </trkpt>
      <trkpt lat="46.62808" lon="5.65781">
        <ele>532.2</ele>
        <time>2021-10-25T12:06:12Z</time>
      </trkpt>
      <trkpt lat="46.6279" lon="5.65847">
        <ele>532.8</ele>
        <time>2021-10-25T12:06:18Z</time>
      </trkpt>
      <trkpt lat="46.62783" lon="5.65878">
        <ele>534</ele>
        <time>2021-10-25T12:06:21Z</time>
      </trkpt>
      <trkpt lat="46.62777" lon="5.65903">
        <ele>535</ele>
        <time>2021-10-25T12:06:24Z</time>
      </trkpt>
      <trkpt lat="46.62775" lon="5.65911">
        <ele>535.6</ele>
        <time>2021-10-25T12:06:25Z</time>
      </trkpt>
      <trkpt lat="46.62767" lon="5.65942">
        <ele>536.8</ele>
        <time>2021-10-25T12:06:29Z</time>
      </trkpt>
      <trkpt lat="46.62765" lon="5.65948">
        <ele>537.2</ele>
        <time>2021-10-25T12:06:30Z</time>
      </trkpt>
      <trkpt lat="46.62756" lon="5.65973">
        <ele>538.2</ele>
        <time>2021-10-25T12:06:34Z</time>
      </trkpt>
      <trkpt lat="46.62751" lon="5.65985">
        <ele>539.2</ele>
        <time>2021-10-25T12:06:36Z</time>
      </trkpt>
      <trkpt lat="46.62743" lon="5.66008">
        <ele>540.2</ele>
        <time>2021-10-25T12:06:40Z</time>
      </trkpt>
      <trkpt lat="46.62741" lon="5.66012">
        <ele>540.4</ele>
        <time>2021-10-25T12:06:41Z</time>
      </trkpt>
      <trkpt lat="46.62739" lon="5.66019">
        <ele>540.6</ele>
        <time>2021-10-25T12:06:42Z</time>
      </trkpt>
      <trkpt lat="46.6274" lon="5.66031">
        <ele>541.6</ele>
        <time>2021-10-25T12:06:44Z</time>
      </trkpt>
      <trkpt lat="46.62745" lon="5.66038">
        <ele>542.4</ele>
        <time>2021-10-25T12:06:46Z</time>
      </trkpt>
      <trkpt lat="46.62751" lon="5.66042">
        <ele>542.4</ele>
        <time>2021-10-25T12:06:47Z</time>
      </trkpt>
      <trkpt lat="46.62755" lon="5.66045">
        <ele>542.6</ele>
        <time>2021-10-25T12:06:48Z</time>
      </trkpt>
      <trkpt lat="46.6277" lon="5.66054">
        <ele>542.8</ele>
        <time>2021-10-25T12:06:51Z</time>
      </trkpt>
      <trkpt lat="46.62776" lon="5.66057">
        <ele>543</ele>
        <time>2021-10-25T12:06:52Z</time>
      </trkpt>
      <trkpt lat="46.62781" lon="5.66059">
        <ele>543</ele>
        <time>2021-10-25T12:06:53Z</time>
      </trkpt>
      <trkpt lat="46.628" lon="5.66071">
        <ele>543.8</ele>
        <time>2021-10-25T12:06:57Z</time>
      </trkpt>
      <trkpt lat="46.62817" lon="5.66082">
        <ele>544.8</ele>
        <time>2021-10-25T12:07:01Z</time>
      </trkpt>
      <trkpt lat="46.62821" lon="5.66083">
        <ele>545</ele>
        <time>2021-10-25T12:07:02Z</time>
      </trkpt>
      <trkpt lat="46.62826" lon="5.66084">
        <ele>545.2</ele>
        <time>2021-10-25T12:07:03Z</time>
      </trkpt>
      <trkpt lat="46.62849" lon="5.66081">
        <ele>545.8</ele>
        <time>2021-10-25T12:07:08Z</time>
      </trkpt>
      <trkpt lat="46.62858" lon="5.66079">
        <ele>546</ele>
        <time>2021-10-25T12:07:10Z</time>
      </trkpt>
      <trkpt lat="46.62862" lon="5.66077">
        <ele>546.2</ele>
        <time>2021-10-25T12:07:11Z</time>
      </trkpt>
      <trkpt lat="46.62874" lon="5.6607">
        <ele>547</ele>
        <time>2021-10-25T12:07:14Z</time>
      </trkpt>
      <trkpt lat="46.62877" lon="5.66066">
        <ele>547</ele>
        <time>2021-10-25T12:07:15Z</time>
      </trkpt>
      <trkpt lat="46.62885" lon="5.66058">
        <ele>547.4</ele>
        <time>2021-10-25T12:07:17Z</time>
      </trkpt>
      <trkpt lat="46.62905" lon="5.66034">
        <ele>548</ele>
        <time>2021-10-25T12:07:22Z</time>
      </trkpt>
      <trkpt lat="46.62921" lon="5.66015">
        <ele>548.4</ele>
        <time>2021-10-25T12:07:26Z</time>
      </trkpt>
      <trkpt lat="46.62952" lon="5.65979">
        <ele>549</ele>
        <time>2021-10-25T12:07:33Z</time>
      </trkpt>
      <trkpt lat="46.62979" lon="5.65953">
        <ele>548.6</ele>
        <time>2021-10-25T12:07:38Z</time>
      </trkpt>
      <trkpt lat="46.63017" lon="5.65923">
        <ele>546.8</ele>
        <time>2021-10-25T12:07:44Z</time>
      </trkpt>
      <trkpt lat="46.63024" lon="5.65919">
        <ele>546.6</ele>
        <time>2021-10-25T12:07:45Z</time>
      </trkpt>
      <trkpt lat="46.6304" lon="5.65915">
        <ele>546.2</ele>
        <time>2021-10-25T12:07:47Z</time>
      </trkpt>
      <trkpt lat="46.63054" lon="5.65914">
        <ele>545</ele>
        <time>2021-10-25T12:07:49Z</time>
      </trkpt>
      <trkpt lat="46.63071" lon="5.65914">
        <ele>543.8</ele>
        <time>2021-10-25T12:07:51Z</time>
      </trkpt>
      <trkpt lat="46.63097" lon="5.65913">
        <ele>542.8</ele>
        <time>2021-10-25T12:07:54Z</time>
      </trkpt>
      <trkpt lat="46.63106" lon="5.65912">
        <ele>542.4</ele>
        <time>2021-10-25T12:07:55Z</time>
      </trkpt>
      <trkpt lat="46.63149" lon="5.65902">
        <ele>541.6</ele>
        <time>2021-10-25T12:08:00Z</time>
      </trkpt>
      <trkpt lat="46.63169" lon="5.65897">
        <ele>540.8</ele>
        <time>2021-10-25T12:08:02Z</time>
      </trkpt>
      <trkpt lat="46.63179" lon="5.65894">
        <ele>540.4</ele>
        <time>2021-10-25T12:08:03Z</time>
      </trkpt>
      <trkpt lat="46.63198" lon="5.65887">
        <ele>539</ele>
        <time>2021-10-25T12:08:05Z</time>
      </trkpt>
      <trkpt lat="46.63217" lon="5.65879">
        <ele>538</ele>
        <time>2021-10-25T12:08:07Z</time>
      </trkpt>
      <trkpt lat="46.63226" lon="5.65874">
        <ele>537.8</ele>
        <time>2021-10-25T12:08:08Z</time>
      </trkpt>
      <trkpt lat="46.63243" lon="5.65864">
        <ele>536.8</ele>
        <time>2021-10-25T12:08:10Z</time>
      </trkpt>
      <trkpt lat="46.63272" lon="5.65848">
        <ele>535.4</ele>
        <time>2021-10-25T12:08:13Z</time>
      </trkpt>
      <trkpt lat="46.6329" lon="5.6584">
        <ele>534.8</ele>
        <time>2021-10-25T12:08:15Z</time>
      </trkpt>
      <trkpt lat="46.63297" lon="5.65836">
        <ele>534.2</ele>
        <time>2021-10-25T12:08:16Z</time>
      </trkpt>
      <trkpt lat="46.63339" lon="5.65809">
        <ele>533.6</ele>
        <time>2021-10-25T12:08:21Z</time>
      </trkpt>
      <trkpt lat="46.63374" lon="5.65788">
        <ele>533.2</ele>
        <time>2021-10-25T12:08:25Z</time>
      </trkpt>
      <trkpt lat="46.63399" lon="5.65778">
        <ele>532.8</ele>
        <time>2021-10-25T12:08:28Z</time>
      </trkpt>
      <trkpt lat="46.63442" lon="5.65757">
        <ele>532.4</ele>
        <time>2021-10-25T12:08:33Z</time>
      </trkpt>
      <trkpt lat="46.63457" lon="5.65753">
        <ele>532.2</ele>
        <time>2021-10-25T12:08:35Z</time>
      </trkpt>
      <trkpt lat="46.63482" lon="5.65754">
        <ele>532.2</ele>
        <time>2021-10-25T12:08:38Z</time>
      </trkpt>
      <trkpt lat="46.6354" lon="5.65766">
        <ele>532</ele>
        <time>2021-10-25T12:08:45Z</time>
      </trkpt>
      <trkpt lat="46.63548" lon="5.65768">
        <ele>532</ele>
        <time>2021-10-25T12:08:46Z</time>
      </trkpt>
      <trkpt lat="46.63606" lon="5.65782">
        <ele>532</ele>
        <time>2021-10-25T12:08:54Z</time>
      </trkpt>
      <trkpt lat="46.63629" lon="5.65793">
        <ele>532.2</ele>
        <time>2021-10-25T12:08:58Z</time>
      </trkpt>
      <trkpt lat="46.63633" lon="5.65796">
        <ele>532.2</ele>
        <time>2021-10-25T12:08:59Z</time>
      </trkpt>
      <trkpt lat="46.6364" lon="5.65805">
        <ele>532.2</ele>
        <time>2021-10-25T12:09:02Z</time>
      </trkpt>
      <trkpt lat="46.63643" lon="5.65814">
        <ele>532.2</ele>
        <time>2021-10-25T12:09:07Z</time>
      </trkpt>
      <trkpt lat="46.63643" lon="5.65814">
        <ele>532.2</ele>
        <time>2021-10-25T12:09:08Z</time>
      </trkpt>
      <trkpt lat="46.63644" lon="5.65817">
        <ele>532</ele>
        <time>2021-10-25T12:09:56Z</time>
      </trkpt>
      <trkpt lat="46.63646" lon="5.65825">
        <ele>531.8</ele>
        <time>2021-10-25T12:09:58Z</time>
      </trkpt>
      <trkpt lat="46.63656" lon="5.65851">
        <ele>531.6</ele>
        <time>2021-10-25T12:10:02Z</time>
      </trkpt>
      <trkpt lat="46.63664" lon="5.65867">
        <ele>531.2</ele>
        <time>2021-10-25T12:10:04Z</time>
      </trkpt>
      <trkpt lat="46.63669" lon="5.65874">
        <ele>531</ele>
        <time>2021-10-25T12:10:05Z</time>
      </trkpt>
      <trkpt lat="46.63675" lon="5.65881">
        <ele>531</ele>
        <time>2021-10-25T12:10:06Z</time>
      </trkpt>
      <trkpt lat="46.63713" lon="5.65921">
        <ele>530.8</ele>
        <time>2021-10-25T12:10:13Z</time>
      </trkpt>
      <trkpt lat="46.63728" lon="5.65944">
        <ele>531.6</ele>
        <time>2021-10-25T12:10:16Z</time>
      </trkpt>
      <trkpt lat="46.63731" lon="5.65952">
        <ele>531.6</ele>
        <time>2021-10-25T12:10:17Z</time>
      </trkpt>
      <trkpt lat="46.63735" lon="5.65961">
        <ele>531.6</ele>
        <time>2021-10-25T12:10:18Z</time>
      </trkpt>
      <trkpt lat="46.63745" lon="5.65978">
        <ele>531.6</ele>
        <time>2021-10-25T12:10:20Z</time>
      </trkpt>
      <trkpt lat="46.63751" lon="5.65984">
        <ele>531.6</ele>
        <time>2021-10-25T12:10:21Z</time>
      </trkpt>
      <trkpt lat="46.63778" lon="5.66007">
        <ele>530.2</ele>
        <time>2021-10-25T12:10:25Z</time>
      </trkpt>
      <trkpt lat="46.63805" lon="5.66041">
        <ele>529.2</ele>
        <time>2021-10-25T12:10:29Z</time>
      </trkpt>
      <trkpt lat="46.63827" lon="5.66066">
        <ele>527.6</ele>
        <time>2021-10-25T12:10:32Z</time>
      </trkpt>
      <trkpt lat="46.63849" lon="5.66088">
        <ele>526.8</ele>
        <time>2021-10-25T12:10:35Z</time>
      </trkpt>
      <trkpt lat="46.63858" lon="5.66095">
        <ele>526.4</ele>
        <time>2021-10-25T12:10:36Z</time>
      </trkpt>
      <trkpt lat="46.63883" lon="5.66113">
        <ele>525.2</ele>
        <time>2021-10-25T12:10:39Z</time>
      </trkpt>
      <trkpt lat="46.639" lon="5.66123">
        <ele>524.6</ele>
        <time>2021-10-25T12:10:41Z</time>
      </trkpt>
      <trkpt lat="46.63934" lon="5.66147">
        <ele>524.2</ele>
        <time>2021-10-25T12:10:45Z</time>
      </trkpt>
      <trkpt lat="46.63941" lon="5.66156">
        <ele>524</ele>
        <time>2021-10-25T12:10:46Z</time>
      </trkpt>
      <trkpt lat="46.63947" lon="5.66166">
        <ele>523.8</ele>
        <time>2021-10-25T12:10:47Z</time>
      </trkpt>
      <trkpt lat="46.63957" lon="5.66187">
        <ele>523.4</ele>
        <time>2021-10-25T12:10:49Z</time>
      </trkpt>
      <trkpt lat="46.63961" lon="5.66198">
        <ele>523.2</ele>
        <time>2021-10-25T12:10:50Z</time>
      </trkpt>
      <trkpt lat="46.63972" lon="5.66219">
        <ele>522.8</ele>
        <time>2021-10-25T12:10:52Z</time>
      </trkpt>
      <trkpt lat="46.63985" lon="5.66236">
        <ele>522.2</ele>
        <time>2021-10-25T12:10:54Z</time>
      </trkpt>
      <trkpt lat="46.64011" lon="5.66256">
        <ele>522</ele>
        <time>2021-10-25T12:10:58Z</time>
      </trkpt>
      <trkpt lat="46.6405" lon="5.66277">
        <ele>522.8</ele>
        <time>2021-10-25T12:11:04Z</time>
      </trkpt>
      <trkpt lat="46.64062" lon="5.66284">
        <ele>523.4</ele>
        <time>2021-10-25T12:11:06Z</time>
      </trkpt>
      <trkpt lat="46.64066" lon="5.66288">
        <ele>524</ele>
        <time>2021-10-25T12:11:07Z</time>
      </trkpt>
      <trkpt lat="46.64076" lon="5.66298">
        <ele>525</ele>
        <time>2021-10-25T12:11:09Z</time>
      </trkpt>
      <trkpt lat="46.6408" lon="5.66303">
        <ele>525.4</ele>
        <time>2021-10-25T12:11:10Z</time>
      </trkpt>
      <trkpt lat="46.64087" lon="5.66315">
        <ele>526</ele>
        <time>2021-10-25T12:11:12Z</time>
      </trkpt>
      <trkpt lat="46.6409" lon="5.66322">
        <ele>526.2</ele>
        <time>2021-10-25T12:11:13Z</time>
      </trkpt>
      <trkpt lat="46.64093" lon="5.66329">
        <ele>526.4</ele>
        <time>2021-10-25T12:11:14Z</time>
      </trkpt>
      <trkpt lat="46.64102" lon="5.6637">
        <ele>527.2</ele>
        <time>2021-10-25T12:11:19Z</time>
      </trkpt>
      <trkpt lat="46.64103" lon="5.66377">
        <ele>527.4</ele>
        <time>2021-10-25T12:11:20Z</time>
      </trkpt>
      <trkpt lat="46.64114" lon="5.66446">
        <ele>528</ele>
        <time>2021-10-25T12:11:28Z</time>
      </trkpt>
      <trkpt lat="46.64117" lon="5.66462">
        <ele>528.2</ele>
        <time>2021-10-25T12:11:30Z</time>
      </trkpt>
      <trkpt lat="46.64129" lon="5.6654">
        <ele>528.4</ele>
        <time>2021-10-25T12:11:38Z</time>
      </trkpt>
      <trkpt lat="46.64142" lon="5.66627">
        <ele>527.6</ele>
        <time>2021-10-25T12:11:46Z</time>
      </trkpt>
      <trkpt lat="46.64149" lon="5.66671">
        <ele>527.2</ele>
        <time>2021-10-25T12:11:50Z</time>
      </trkpt>
      <trkpt lat="46.64158" lon="5.66729">
        <ele>527</ele>
        <time>2021-10-25T12:11:55Z</time>
      </trkpt>
      <trkpt lat="46.64167" lon="5.66788">
        <ele>526.2</ele>
        <time>2021-10-25T12:12:00Z</time>
      </trkpt>
      <trkpt lat="46.64171" lon="5.66812">
        <ele>525.8</ele>
        <time>2021-10-25T12:12:02Z</time>
      </trkpt>
      <trkpt lat="46.64177" lon="5.6685">
        <ele>525.2</ele>
        <time>2021-10-25T12:12:05Z</time>
      </trkpt>
      <trkpt lat="46.64189" lon="5.66929">
        <ele>523.6</ele>
        <time>2021-10-25T12:12:11Z</time>
      </trkpt>
      <trkpt lat="46.642" lon="5.66987">
        <ele>522.4</ele>
        <time>2021-10-25T12:12:15Z</time>
      </trkpt>
      <trkpt lat="46.64205" lon="5.67001">
        <ele>521.6</ele>
        <time>2021-10-25T12:12:16Z</time>
      </trkpt>
      <trkpt lat="46.64211" lon="5.67015">
        <ele>521.2</ele>
        <time>2021-10-25T12:12:17Z</time>
      </trkpt>
      <trkpt lat="46.64223" lon="5.67042">
        <ele>520.2</ele>
        <time>2021-10-25T12:12:19Z</time>
      </trkpt>
      <trkpt lat="46.64239" lon="5.67072">
        <ele>518.8</ele>
        <time>2021-10-25T12:12:21Z</time>
      </trkpt>
      <trkpt lat="46.64251" lon="5.67096">
        <ele>517.6</ele>
        <time>2021-10-25T12:12:23Z</time>
      </trkpt>
      <trkpt lat="46.64258" lon="5.6711">
        <ele>516.8</ele>
        <time>2021-10-25T12:12:24Z</time>
      </trkpt>
      <trkpt lat="46.64265" lon="5.67123">
        <ele>516.4</ele>
        <time>2021-10-25T12:12:25Z</time>
      </trkpt>
      <trkpt lat="46.64289" lon="5.67174">
        <ele>515</ele>
        <time>2021-10-25T12:12:29Z</time>
      </trkpt>
      <trkpt lat="46.64313" lon="5.67219">
        <ele>514</ele>
        <time>2021-10-25T12:12:33Z</time>
      </trkpt>
      <trkpt lat="46.64325" lon="5.67241">
        <ele>513.4</ele>
        <time>2021-10-25T12:12:35Z</time>
      </trkpt>
      <trkpt lat="46.64346" lon="5.67281">
        <ele>513</ele>
        <time>2021-10-25T12:12:39Z</time>
      </trkpt>
      <trkpt lat="46.64351" lon="5.67289">
        <ele>513</ele>
        <time>2021-10-25T12:12:40Z</time>
      </trkpt>
      <trkpt lat="46.64372" lon="5.67326">
        <ele>514</ele>
        <time>2021-10-25T12:12:45Z</time>
      </trkpt>
      <trkpt lat="46.64375" lon="5.67331">
        <ele>514.2</ele>
        <time>2021-10-25T12:12:46Z</time>
      </trkpt>
      <trkpt lat="46.64375" lon="5.67337">
        <ele>514.4</ele>
        <time>2021-10-25T12:12:47Z</time>
      </trkpt>
      <trkpt lat="46.64369" lon="5.67343">
        <ele>514.4</ele>
        <time>2021-10-25T12:12:49Z</time>
      </trkpt>
      <trkpt lat="46.64358" lon="5.67347">
        <ele>514.4</ele>
        <time>2021-10-25T12:12:51Z</time>
      </trkpt>
      <trkpt lat="46.64352" lon="5.6735">
        <ele>514.4</ele>
        <time>2021-10-25T12:12:52Z</time>
      </trkpt>
      <trkpt lat="46.64319" lon="5.67378">
        <ele>513.8</ele>
        <time>2021-10-25T12:12:57Z</time>
      </trkpt>
      <trkpt lat="46.6428" lon="5.67428">
        <ele>513.8</ele>
        <time>2021-10-25T12:13:05Z</time>
      </trkpt>
      <trkpt lat="46.64271" lon="5.6744">
        <ele>514</ele>
        <time>2021-10-25T12:13:07Z</time>
      </trkpt>
      <trkpt lat="46.64266" lon="5.67454">
        <ele>514.6</ele>
        <time>2021-10-25T12:13:09Z</time>
      </trkpt>
      <trkpt lat="46.64263" lon="5.6747">
        <ele>515.4</ele>
        <time>2021-10-25T12:13:11Z</time>
      </trkpt>
      <trkpt lat="46.64258" lon="5.67502">
        <ele>516.4</ele>
        <time>2021-10-25T12:13:15Z</time>
      </trkpt>
      <trkpt lat="46.64256" lon="5.67518">
        <ele>516.6</ele>
        <time>2021-10-25T12:13:17Z</time>
      </trkpt>
      <trkpt lat="46.64249" lon="5.67539">
        <ele>517</ele>
        <time>2021-10-25T12:13:20Z</time>
      </trkpt>
      <trkpt lat="46.64239" lon="5.67561">
        <ele>517.4</ele>
        <time>2021-10-25T12:13:23Z</time>
      </trkpt>
      <trkpt lat="46.64231" lon="5.67576">
        <ele>517.8</ele>
        <time>2021-10-25T12:13:25Z</time>
      </trkpt>
      <trkpt lat="46.64194" lon="5.67647">
        <ele>517.8</ele>
        <time>2021-10-25T12:13:34Z</time>
      </trkpt>
      <trkpt lat="46.64183" lon="5.67669">
        <ele>518.2</ele>
        <time>2021-10-25T12:13:37Z</time>
      </trkpt>
      <trkpt lat="46.64159" lon="5.67714">
        <ele>518.2</ele>
        <time>2021-10-25T12:13:43Z</time>
      </trkpt>
      <trkpt lat="46.64123" lon="5.67769">
        <ele>517.8</ele>
        <time>2021-10-25T12:13:51Z</time>
      </trkpt>
      <trkpt lat="46.64114" lon="5.67781">
        <ele>517.8</ele>
        <time>2021-10-25T12:13:53Z</time>
      </trkpt>
      <trkpt lat="46.64097" lon="5.6781">
        <ele>518.2</ele>
        <time>2021-10-25T12:13:57Z</time>
      </trkpt>
      <trkpt lat="46.64088" lon="5.67831">
        <ele>518.4</ele>
        <time>2021-10-25T12:14:00Z</time>
      </trkpt>
      <trkpt lat="46.64084" lon="5.67839">
        <ele>518.6</ele>
        <time>2021-10-25T12:14:01Z</time>
      </trkpt>
      <trkpt lat="46.64081" lon="5.67849">
        <ele>518.6</ele>
        <time>2021-10-25T12:14:02Z</time>
      </trkpt>
      <trkpt lat="46.64079" lon="5.67857">
        <ele>518.8</ele>
        <time>2021-10-25T12:14:03Z</time>
      </trkpt>
      <trkpt lat="46.64076" lon="5.67883">
        <ele>519</ele>
        <time>2021-10-25T12:14:06Z</time>
      </trkpt>
      <trkpt lat="46.64074" lon="5.67913">
        <ele>519.4</ele>
        <time>2021-10-25T12:14:09Z</time>
      </trkpt>
      <trkpt lat="46.64073" lon="5.67931">
        <ele>519.6</ele>
        <time>2021-10-25T12:14:11Z</time>
      </trkpt>
      <trkpt lat="46.64071" lon="5.6794">
        <ele>519.6</ele>
        <time>2021-10-25T12:14:12Z</time>
      </trkpt>
      <trkpt lat="46.64067" lon="5.67947">
        <ele>519.6</ele>
        <time>2021-10-25T12:14:13Z</time>
      </trkpt>
      <trkpt lat="46.6406" lon="5.67958">
        <ele>519.6</ele>
        <time>2021-10-25T12:14:15Z</time>
      </trkpt>
      <trkpt lat="46.64052" lon="5.67965">
        <ele>519.8</ele>
        <time>2021-10-25T12:14:17Z</time>
      </trkpt>
      <trkpt lat="46.64044" lon="5.67969">
        <ele>520.6</ele>
        <time>2021-10-25T12:14:19Z</time>
      </trkpt>
      <trkpt lat="46.64031" lon="5.67976">
        <ele>521.6</ele>
        <time>2021-10-25T12:14:23Z</time>
      </trkpt>
      <trkpt lat="46.64026" lon="5.67978">
        <ele>522</ele>
        <time>2021-10-25T12:14:25Z</time>
      </trkpt>
      <trkpt lat="46.64016" lon="5.67979">
        <ele>522.8</ele>
        <time>2021-10-25T12:14:29Z</time>
      </trkpt>
      <trkpt lat="46.64013" lon="5.67979">
        <ele>522.8</ele>
        <time>2021-10-25T12:14:30Z</time>
      </trkpt>
      <trkpt lat="46.63993" lon="5.67981">
        <ele>523.6</ele>
        <time>2021-10-25T12:14:36Z</time>
      </trkpt>
      <trkpt lat="46.63983" lon="5.67979">
        <ele>523.8</ele>
        <time>2021-10-25T12:14:38Z</time>
      </trkpt>
      <trkpt lat="46.63977" lon="5.67977">
        <ele>523.8</ele>
        <time>2021-10-25T12:14:39Z</time>
      </trkpt>
      <trkpt lat="46.63972" lon="5.67976">
        <ele>523.8</ele>
        <time>2021-10-25T12:14:40Z</time>
      </trkpt>
      <trkpt lat="46.63943" lon="5.67976">
        <ele>523.4</ele>
        <time>2021-10-25T12:14:44Z</time>
      </trkpt>
      <trkpt lat="46.63917" lon="5.67966">
        <ele>522.6</ele>
        <time>2021-10-25T12:14:47Z</time>
      </trkpt>
      <trkpt lat="46.63909" lon="5.67963">
        <ele>521.6</ele>
        <time>2021-10-25T12:14:48Z</time>
      </trkpt>
      <trkpt lat="46.63901" lon="5.6796">
        <ele>521.2</ele>
        <time>2021-10-25T12:14:49Z</time>
      </trkpt>
      <trkpt lat="46.63891" lon="5.67959">
        <ele>520.4</ele>
        <time>2021-10-25T12:14:50Z</time>
      </trkpt>
      <trkpt lat="46.6388" lon="5.67961">
        <ele>520.2</ele>
        <time>2021-10-25T12:14:51Z</time>
      </trkpt>
      <trkpt lat="46.63871" lon="5.67963">
        <ele>519.8</ele>
        <time>2021-10-25T12:14:52Z</time>
      </trkpt>
      <trkpt lat="46.63847" lon="5.6797">
        <ele>519</ele>
        <time>2021-10-25T12:14:55Z</time>
      </trkpt>
      <trkpt lat="46.6382" lon="5.67979">
        <ele>518.6</ele>
        <time>2021-10-25T12:14:58Z</time>
      </trkpt>
      <trkpt lat="46.63772" lon="5.67987">
        <ele>518.4</ele>
        <time>2021-10-25T12:15:04Z</time>
      </trkpt>
      <trkpt lat="46.63754" lon="5.67981">
        <ele>518</ele>
        <time>2021-10-25T12:15:06Z</time>
      </trkpt>
      <trkpt lat="46.63743" lon="5.67975">
        <ele>517.8</ele>
        <time>2021-10-25T12:15:07Z</time>
      </trkpt>
      <trkpt lat="46.63735" lon="5.67967">
        <ele>517.4</ele>
        <time>2021-10-25T12:15:08Z</time>
      </trkpt>
      <trkpt lat="46.63722" lon="5.67948">
        <ele>516.4</ele>
        <time>2021-10-25T12:15:10Z</time>
      </trkpt>
      <trkpt lat="46.63714" lon="5.67934">
        <ele>515</ele>
        <time>2021-10-25T12:15:11Z</time>
      </trkpt>
      <trkpt lat="46.637" lon="5.67911">
        <ele>513.6</ele>
        <time>2021-10-25T12:15:13Z</time>
      </trkpt>
      <trkpt lat="46.63686" lon="5.67886">
        <ele>511.8</ele>
        <time>2021-10-25T12:15:15Z</time>
      </trkpt>
      <trkpt lat="46.63669" lon="5.67863">
        <ele>510.2</ele>
        <time>2021-10-25T12:15:17Z</time>
      </trkpt>
      <trkpt lat="46.6366" lon="5.67853">
        <ele>509.8</ele>
        <time>2021-10-25T12:15:18Z</time>
      </trkpt>
      <trkpt lat="46.63642" lon="5.67839">
        <ele>507.8</ele>
        <time>2021-10-25T12:15:20Z</time>
      </trkpt>
      <trkpt lat="46.6362" lon="5.67825">
        <ele>505.6</ele>
        <time>2021-10-25T12:15:22Z</time>
      </trkpt>
      <trkpt lat="46.63611" lon="5.6782">
        <ele>505</ele>
        <time>2021-10-25T12:15:23Z</time>
      </trkpt>
      <trkpt lat="46.63604" lon="5.67817">
        <ele>504.2</ele>
        <time>2021-10-25T12:15:24Z</time>
      </trkpt>
      <trkpt lat="46.63587" lon="5.67819">
        <ele>503.6</ele>
        <time>2021-10-25T12:15:26Z</time>
      </trkpt>
      <trkpt lat="46.63583" lon="5.67823">
        <ele>503.2</ele>
        <time>2021-10-25T12:15:27Z</time>
      </trkpt>
      <trkpt lat="46.63579" lon="5.67833">
        <ele>503</ele>
        <time>2021-10-25T12:15:28Z</time>
      </trkpt>
      <trkpt lat="46.63583" lon="5.67854">
        <ele>502.6</ele>
        <time>2021-10-25T12:15:30Z</time>
      </trkpt>
      <trkpt lat="46.63596" lon="5.67875">
        <ele>502</ele>
        <time>2021-10-25T12:15:32Z</time>
      </trkpt>
      <trkpt lat="46.63603" lon="5.67883">
        <ele>501.8</ele>
        <time>2021-10-25T12:15:33Z</time>
      </trkpt>
      <trkpt lat="46.6361" lon="5.67892">
        <ele>500.6</ele>
        <time>2021-10-25T12:15:34Z</time>
      </trkpt>
      <trkpt lat="46.63623" lon="5.67908">
        <ele>499</ele>
        <time>2021-10-25T12:15:36Z</time>
      </trkpt>
      <trkpt lat="46.63631" lon="5.6792">
        <ele>498.8</ele>
        <time>2021-10-25T12:15:37Z</time>
      </trkpt>
      <trkpt lat="46.63638" lon="5.6793">
        <ele>498.4</ele>
        <time>2021-10-25T12:15:38Z</time>
      </trkpt>
      <trkpt lat="46.63643" lon="5.67941">
        <ele>498.2</ele>
        <time>2021-10-25T12:15:39Z</time>
      </trkpt>
      <trkpt lat="46.63648" lon="5.67953">
        <ele>497.8</ele>
        <time>2021-10-25T12:15:40Z</time>
      </trkpt>
      <trkpt lat="46.63658" lon="5.67976">
        <ele>497</ele>
        <time>2021-10-25T12:15:42Z</time>
      </trkpt>
      <trkpt lat="46.63662" lon="5.67986">
        <ele>496.4</ele>
        <time>2021-10-25T12:15:43Z</time>
      </trkpt>
      <trkpt lat="46.63668" lon="5.67999">
        <ele>495.8</ele>
        <time>2021-10-25T12:15:45Z</time>
      </trkpt>
      <trkpt lat="46.63688" lon="5.68037">
        <ele>495.4</ele>
        <time>2021-10-25T12:15:51Z</time>
      </trkpt>
      <trkpt lat="46.63692" lon="5.68045">
        <ele>495.4</ele>
        <time>2021-10-25T12:15:52Z</time>
      </trkpt>
      <trkpt lat="46.63696" lon="5.68053">
        <ele>495.2</ele>
        <time>2021-10-25T12:15:53Z</time>
      </trkpt>
      <trkpt lat="46.63703" lon="5.68069">
        <ele>495</ele>
        <time>2021-10-25T12:15:55Z</time>
      </trkpt>
      <trkpt lat="46.63709" lon="5.68079">
        <ele>494.8</ele>
        <time>2021-10-25T12:15:56Z</time>
      </trkpt>
      <trkpt lat="46.63725" lon="5.68107">
        <ele>494.4</ele>
        <time>2021-10-25T12:15:59Z</time>
      </trkpt>
      <trkpt lat="46.63742" lon="5.68141">
        <ele>494</ele>
        <time>2021-10-25T12:16:02Z</time>
      </trkpt>
      <trkpt lat="46.63753" lon="5.68162">
        <ele>493.6</ele>
        <time>2021-10-25T12:16:04Z</time>
      </trkpt>
      <trkpt lat="46.63758" lon="5.68174">
        <ele>492.8</ele>
        <time>2021-10-25T12:16:05Z</time>
      </trkpt>
      <trkpt lat="46.63764" lon="5.68199">
        <ele>491.8</ele>
        <time>2021-10-25T12:16:07Z</time>
      </trkpt>
      <trkpt lat="46.63766" lon="5.68212">
        <ele>491.6</ele>
        <time>2021-10-25T12:16:08Z</time>
      </trkpt>
      <trkpt lat="46.6377" lon="5.68277">
        <ele>490.4</ele>
        <time>2021-10-25T12:16:13Z</time>
      </trkpt>
      <trkpt lat="46.63771" lon="5.68287">
        <ele>490.4</ele>
        <time>2021-10-25T12:16:14Z</time>
      </trkpt>
      <trkpt lat="46.6377" lon="5.68372">
        <ele>490.6</ele>
        <time>2021-10-25T12:16:21Z</time>
      </trkpt>
      <trkpt lat="46.63769" lon="5.68384">
        <ele>490.6</ele>
        <time>2021-10-25T12:16:22Z</time>
      </trkpt>
      <trkpt lat="46.63759" lon="5.68417">
        <ele>490.4</ele>
        <time>2021-10-25T12:16:25Z</time>
      </trkpt>
      <trkpt lat="46.63742" lon="5.68451">
        <ele>488.8</ele>
        <time>2021-10-25T12:16:28Z</time>
      </trkpt>
      <trkpt lat="46.63737" lon="5.68459">
        <ele>488.2</ele>
        <time>2021-10-25T12:16:29Z</time>
      </trkpt>
      <trkpt lat="46.63713" lon="5.68502">
        <ele>487.6</ele>
        <time>2021-10-25T12:16:33Z</time>
      </trkpt>
      <trkpt lat="46.63683" lon="5.68551">
        <ele>486.6</ele>
        <time>2021-10-25T12:16:38Z</time>
      </trkpt>
      <trkpt lat="46.6367" lon="5.68566">
        <ele>486.4</ele>
        <time>2021-10-25T12:16:40Z</time>
      </trkpt>
      <trkpt lat="46.63645" lon="5.68587">
        <ele>486</ele>
        <time>2021-10-25T12:16:43Z</time>
      </trkpt>
      <trkpt lat="46.6363" lon="5.68597">
        <ele>485.6</ele>
        <time>2021-10-25T12:16:45Z</time>
      </trkpt>
      <trkpt lat="46.636" lon="5.68611">
        <ele>485</ele>
        <time>2021-10-25T12:16:48Z</time>
      </trkpt>
      <trkpt lat="46.63592" lon="5.68615">
        <ele>484.4</ele>
        <time>2021-10-25T12:16:49Z</time>
      </trkpt>
      <trkpt lat="46.63559" lon="5.6863">
        <ele>482.6</ele>
        <time>2021-10-25T12:16:52Z</time>
      </trkpt>
      <trkpt lat="46.63551" lon="5.68634">
        <ele>482.2</ele>
        <time>2021-10-25T12:16:53Z</time>
      </trkpt>
      <trkpt lat="46.63529" lon="5.68646">
        <ele>481.6</ele>
        <time>2021-10-25T12:16:55Z</time>
      </trkpt>
      <trkpt lat="46.63501" lon="5.6866">
        <ele>480.4</ele>
        <time>2021-10-25T12:16:58Z</time>
      </trkpt>
      <trkpt lat="46.63461" lon="5.68684">
        <ele>479.2</ele>
        <time>2021-10-25T12:17:03Z</time>
      </trkpt>
      <trkpt lat="46.63451" lon="5.68691">
        <ele>479.2</ele>
        <time>2021-10-25T12:17:04Z</time>
      </trkpt>
      <trkpt lat="46.63397" lon="5.68739">
        <ele>479</ele>
        <time>2021-10-25T12:17:11Z</time>
      </trkpt>
      <trkpt lat="46.63386" lon="5.68756">
        <ele>478.6</ele>
        <time>2021-10-25T12:17:13Z</time>
      </trkpt>
      <trkpt lat="46.63377" lon="5.68777">
        <ele>478.2</ele>
        <time>2021-10-25T12:17:15Z</time>
      </trkpt>
      <trkpt lat="46.63352" lon="5.68843">
        <ele>477.8</ele>
        <time>2021-10-25T12:17:21Z</time>
      </trkpt>
      <trkpt lat="46.63326" lon="5.68881">
        <ele>477</ele>
        <time>2021-10-25T12:17:24Z</time>
      </trkpt>
      <trkpt lat="46.63318" lon="5.68892">
        <ele>476.8</ele>
        <time>2021-10-25T12:17:26Z</time>
      </trkpt>
      <trkpt lat="46.63304" lon="5.6891">
        <ele>476</ele>
        <time>2021-10-25T12:17:28Z</time>
      </trkpt>
      <trkpt lat="46.63291" lon="5.68927">
        <ele>475.8</ele>
        <time>2021-10-25T12:17:29Z</time>
      </trkpt>
      <trkpt lat="46.63277" lon="5.6895">
        <ele>475.2</ele>
        <time>2021-10-25T12:17:31Z</time>
      </trkpt>
      <trkpt lat="46.63271" lon="5.68961">
        <ele>474.8</ele>
        <time>2021-10-25T12:17:33Z</time>
      </trkpt>
      <trkpt lat="46.63263" lon="5.68984">
        <ele>474.6</ele>
        <time>2021-10-25T12:17:34Z</time>
      </trkpt>
      <trkpt lat="46.63258" lon="5.68996">
        <ele>473.8</ele>
        <time>2021-10-25T12:17:36Z</time>
      </trkpt>
      <trkpt lat="46.63249" lon="5.69023">
        <ele>473.6</ele>
        <time>2021-10-25T12:17:37Z</time>
      </trkpt>
      <trkpt lat="46.63236" lon="5.69061">
        <ele>472.4</ele>
        <time>2021-10-25T12:17:40Z</time>
      </trkpt>
      <trkpt lat="46.63225" lon="5.69086">
        <ele>471.8</ele>
        <time>2021-10-25T12:17:42Z</time>
      </trkpt>
      <trkpt lat="46.63214" lon="5.69108">
        <ele>470.8</ele>
        <time>2021-10-25T12:17:45Z</time>
      </trkpt>
      <trkpt lat="46.63195" lon="5.69145">
        <ele>469.8</ele>
        <time>2021-10-25T12:17:47Z</time>
      </trkpt>
      <trkpt lat="46.63188" lon="5.69156">
        <ele>469.4</ele>
        <time>2021-10-25T12:17:48Z</time>
      </trkpt>
      <trkpt lat="46.63183" lon="5.69165">
        <ele>468.8</ele>
        <time>2021-10-25T12:17:50Z</time>
      </trkpt>
      <trkpt lat="46.63142" lon="5.69228">
        <ele>468</ele>
        <time>2021-10-25T12:17:55Z</time>
      </trkpt>
      <trkpt lat="46.6313" lon="5.69249">
        <ele>467.8</ele>
        <time>2021-10-25T12:17:58Z</time>
      </trkpt>
      <trkpt lat="46.63103" lon="5.69302">
        <ele>467.4</ele>
        <time>2021-10-25T12:18:02Z</time>
      </trkpt>
      <trkpt lat="46.63084" lon="5.69358">
        <ele>467.4</ele>
        <time>2021-10-25T12:18:08Z</time>
      </trkpt>
      <trkpt lat="46.63067" lon="5.69434">
        <ele>467</ele>
        <time>2021-10-25T12:18:14Z</time>
      </trkpt>
      <trkpt lat="46.63064" lon="5.69445">
        <ele>467</ele>
        <time>2021-10-25T12:18:15Z</time>
      </trkpt>
      <trkpt lat="46.6305" lon="5.69508">
        <ele>467.4</ele>
        <time>2021-10-25T12:18:22Z</time>
      </trkpt>
      <trkpt lat="46.63023" lon="5.69577">
        <ele>468.2</ele>
        <time>2021-10-25T12:18:28Z</time>
      </trkpt>
      <trkpt lat="46.62985" lon="5.69645">
        <ele>467.8</ele>
        <time>2021-10-25T12:18:36Z</time>
      </trkpt>
      <trkpt lat="46.62945" lon="5.6971">
        <ele>468</ele>
        <time>2021-10-25T12:18:44Z</time>
      </trkpt>
      <trkpt lat="46.62899" lon="5.69775">
        <ele>468.4</ele>
        <time>2021-10-25T12:18:53Z</time>
      </trkpt>
      <trkpt lat="46.62883" lon="5.69796">
        <ele>468.8</ele>
        <time>2021-10-25T12:18:56Z</time>
      </trkpt>
      <trkpt lat="46.62878" lon="5.69804">
        <ele>469</ele>
        <time>2021-10-25T12:18:57Z</time>
      </trkpt>
      <trkpt lat="46.62873" lon="5.69811">
        <ele>469</ele>
        <time>2021-10-25T12:18:58Z</time>
      </trkpt>
      <trkpt lat="46.62844" lon="5.69853">
        <ele>469.8</ele>
        <time>2021-10-25T12:19:05Z</time>
      </trkpt>
      <trkpt lat="46.6283" lon="5.69872">
        <ele>470</ele>
        <time>2021-10-25T12:19:07Z</time>
      </trkpt>
      <trkpt lat="46.62812" lon="5.69899">
        <ele>470.8</ele>
        <time>2021-10-25T12:19:11Z</time>
      </trkpt>
      <trkpt lat="46.62798" lon="5.69918">
        <ele>471.2</ele>
        <time>2021-10-25T12:19:14Z</time>
      </trkpt>
      <trkpt lat="46.62782" lon="5.69943">
        <ele>471.4</ele>
        <time>2021-10-25T12:19:19Z</time>
      </trkpt>
      <trkpt lat="46.62747" lon="5.69994">
        <ele>472.4</ele>
        <time>2021-10-25T12:19:26Z</time>
      </trkpt>
      <trkpt lat="46.62736" lon="5.70011">
        <ele>472.8</ele>
        <time>2021-10-25T12:19:30Z</time>
      </trkpt>
      <trkpt lat="46.62728" lon="5.70024">
        <ele>473</ele>
        <time>2021-10-25T12:19:31Z</time>
      </trkpt>
      <trkpt lat="46.62724" lon="5.7003">
        <ele>473.6</ele>
        <time>2021-10-25T12:19:33Z</time>
      </trkpt>
      <trkpt lat="46.62693" lon="5.70078">
        <ele>474.6</ele>
        <time>2021-10-25T12:19:41Z</time>
      </trkpt>
      <trkpt lat="46.6268" lon="5.70101">
        <ele>475</ele>
        <time>2021-10-25T12:19:44Z</time>
      </trkpt>
      <trkpt lat="46.62673" lon="5.70114">
        <ele>476</ele>
        <time>2021-10-25T12:19:47Z</time>
      </trkpt>
      <trkpt lat="46.62667" lon="5.70125">
        <ele>476.4</ele>
        <time>2021-10-25T12:19:48Z</time>
      </trkpt>
      <trkpt lat="46.62663" lon="5.70133">
        <ele>477</ele>
        <time>2021-10-25T12:19:50Z</time>
      </trkpt>
      <trkpt lat="46.62655" lon="5.70148">
        <ele>478.4</ele>
        <time>2021-10-25T12:19:53Z</time>
      </trkpt>
      <trkpt lat="46.62645" lon="5.70167">
        <ele>479.6</ele>
        <time>2021-10-25T12:19:57Z</time>
      </trkpt>
      <trkpt lat="46.62639" lon="5.70181">
        <ele>480.8</ele>
        <time>2021-10-25T12:20:00Z</time>
      </trkpt>
      <trkpt lat="46.62638" lon="5.70186">
        <ele>481.2</ele>
        <time>2021-10-25T12:20:01Z</time>
      </trkpt>
      <trkpt lat="46.62628" lon="5.70217">
        <ele>481.8</ele>
        <time>2021-10-25T12:20:06Z</time>
      </trkpt>
      <trkpt lat="46.62622" lon="5.70239">
        <ele>482.2</ele>
        <time>2021-10-25T12:20:09Z</time>
      </trkpt>
      <trkpt lat="46.62606" lon="5.70286">
        <ele>483</ele>
        <time>2021-10-25T12:20:17Z</time>
      </trkpt>
      <trkpt lat="46.62586" lon="5.7035">
        <ele>483.6</ele>
        <time>2021-10-25T12:20:24Z</time>
      </trkpt>
      <trkpt lat="46.62572" lon="5.70393">
        <ele>483.2</ele>
        <time>2021-10-25T12:20:30Z</time>
      </trkpt>
      <trkpt lat="46.62543" lon="5.7047">
        <ele>482.2</ele>
        <time>2021-10-25T12:20:37Z</time>
      </trkpt>
      <trkpt lat="46.62537" lon="5.7048">
        <ele>482</ele>
        <time>2021-10-25T12:20:38Z</time>
      </trkpt>
      <trkpt lat="46.62532" lon="5.70488">
        <ele>481.6</ele>
        <time>2021-10-25T12:20:39Z</time>
      </trkpt>
      <trkpt lat="46.62521" lon="5.70498">
        <ele>481.6</ele>
        <time>2021-10-25T12:20:41Z</time>
      </trkpt>
      <trkpt lat="46.62499" lon="5.70511">
        <ele>481</ele>
        <time>2021-10-25T12:20:44Z</time>
      </trkpt>
      <trkpt lat="46.62488" lon="5.70514">
        <ele>480.6</ele>
        <time>2021-10-25T12:20:46Z</time>
      </trkpt>
      <trkpt lat="46.62472" lon="5.70516">
        <ele>481</ele>
        <time>2021-10-25T12:20:50Z</time>
      </trkpt>
      <trkpt lat="46.62462" lon="5.70513">
        <ele>481.2</ele>
        <time>2021-10-25T12:20:55Z</time>
      </trkpt>
      <trkpt lat="46.62462" lon="5.70518">
        <ele>481.2</ele>
        <time>2021-10-25T12:20:58Z</time>
      </trkpt>
      <trkpt lat="46.62465" lon="5.7052">
        <ele>481.2</ele>
        <time>2021-10-25T12:20:59Z</time>
      </trkpt>
      <trkpt lat="46.62473" lon="5.70531">
        <ele>481</ele>
        <time>2021-10-25T12:21:02Z</time>
      </trkpt>
      <trkpt lat="46.6248" lon="5.70541">
        <ele>481</ele>
        <time>2021-10-25T12:21:04Z</time>
      </trkpt>
      <trkpt lat="46.62494" lon="5.70556">
        <ele>481.2</ele>
        <time>2021-10-25T12:21:07Z</time>
      </trkpt>
      <trkpt lat="46.625" lon="5.70562">
        <ele>481.4</ele>
        <time>2021-10-25T12:21:08Z</time>
      </trkpt>
      <trkpt lat="46.62518" lon="5.70576">
        <ele>481.2</ele>
        <time>2021-10-25T12:21:11Z</time>
      </trkpt>
      <trkpt lat="46.62556" lon="5.706">
        <ele>479.6</ele>
        <time>2021-10-25T12:21:16Z</time>
      </trkpt>
      <trkpt lat="46.62564" lon="5.70605">
        <ele>478.8</ele>
        <time>2021-10-25T12:21:17Z</time>
      </trkpt>
      <trkpt lat="46.62581" lon="5.70617">
        <ele>478.2</ele>
        <time>2021-10-25T12:21:19Z</time>
      </trkpt>
      <trkpt lat="46.62589" lon="5.70623">
        <ele>478</ele>
        <time>2021-10-25T12:21:20Z</time>
      </trkpt>
      <trkpt lat="46.62602" lon="5.70635">
        <ele>477.4</ele>
        <time>2021-10-25T12:21:22Z</time>
      </trkpt>
      <trkpt lat="46.62617" lon="5.70649">
        <ele>477.2</ele>
        <time>2021-10-25T12:21:24Z</time>
      </trkpt>
      <trkpt lat="46.62645" lon="5.7067">
        <ele>477.8</ele>
        <time>2021-10-25T12:21:28Z</time>
      </trkpt>
      <trkpt lat="46.62652" lon="5.70674">
        <ele>478.4</ele>
        <time>2021-10-25T12:21:29Z</time>
      </trkpt>
      <trkpt lat="46.62686" lon="5.7069">
        <ele>479.4</ele>
        <time>2021-10-25T12:21:33Z</time>
      </trkpt>
      <trkpt lat="46.62736" lon="5.70714">
        <ele>479.2</ele>
        <time>2021-10-25T12:21:38Z</time>
      </trkpt>
      <trkpt lat="46.62747" lon="5.70718">
        <ele>477</ele>
        <time>2021-10-25T12:21:40Z</time>
      </trkpt>
      <trkpt lat="46.62769" lon="5.70725">
        <ele>475.6</ele>
        <time>2021-10-25T12:21:42Z</time>
      </trkpt>
      <trkpt lat="46.628" lon="5.70734">
        <ele>474.6</ele>
        <time>2021-10-25T12:21:44Z</time>
      </trkpt>
      <trkpt lat="46.62819" lon="5.70741">
        <ele>473.6</ele>
        <time>2021-10-25T12:21:46Z</time>
      </trkpt>
      <trkpt lat="46.62819" lon="5.70741">
        <ele>473.4</ele>
        <time>2021-10-25T12:21:47Z</time>
      </trkpt>
      <trkpt lat="46.62872" lon="5.70764">
        <ele>473</ele>
        <time>2021-10-25T12:21:52Z</time>
      </trkpt>
      <trkpt lat="46.62879" lon="5.70768">
        <ele>473</ele>
        <time>2021-10-25T12:21:53Z</time>
      </trkpt>
      <trkpt lat="46.62907" lon="5.70781">
        <ele>474.4</ele>
        <time>2021-10-25T12:21:57Z</time>
      </trkpt>
      <trkpt lat="46.6292" lon="5.70787">
        <ele>475.4</ele>
        <time>2021-10-25T12:22:00Z</time>
      </trkpt>
      <trkpt lat="46.62949" lon="5.70799">
        <ele>476.4</ele>
        <time>2021-10-25T12:22:04Z</time>
      </trkpt>
      <trkpt lat="46.6296" lon="5.70804">
        <ele>477.2</ele>
        <time>2021-10-25T12:22:06Z</time>
      </trkpt>
      <trkpt lat="46.62965" lon="5.70806">
        <ele>477.6</ele>
        <time>2021-10-25T12:22:07Z</time>
      </trkpt>
      <trkpt lat="46.62981" lon="5.70813">
        <ele>478.8</ele>
        <time>2021-10-25T12:22:10Z</time>
      </trkpt>
      <trkpt lat="46.62997" lon="5.7082">
        <ele>479.4</ele>
        <time>2021-10-25T12:22:14Z</time>
      </trkpt>
      <trkpt lat="46.63007" lon="5.70824">
        <ele>479.8</ele>
        <time>2021-10-25T12:22:15Z</time>
      </trkpt>
      <trkpt lat="46.63027" lon="5.70832">
        <ele>481</ele>
        <time>2021-10-25T12:22:19Z</time>
      </trkpt>
      <trkpt lat="46.63042" lon="5.70837">
        <ele>482.4</ele>
        <time>2021-10-25T12:22:23Z</time>
      </trkpt>
      <trkpt lat="46.63051" lon="5.70842">
        <ele>482.6</ele>
        <time>2021-10-25T12:22:24Z</time>
      </trkpt>
      <trkpt lat="46.63068" lon="5.70851">
        <ele>483.6</ele>
        <time>2021-10-25T12:22:28Z</time>
      </trkpt>
      <trkpt lat="46.63085" lon="5.70863">
        <ele>485</ele>
        <time>2021-10-25T12:22:32Z</time>
      </trkpt>
      <trkpt lat="46.63089" lon="5.70866">
        <ele>485.2</ele>
        <time>2021-10-25T12:22:33Z</time>
      </trkpt>
      <trkpt lat="46.63099" lon="5.70877">
        <ele>486.6</ele>
        <time>2021-10-25T12:22:37Z</time>
      </trkpt>
      <trkpt lat="46.63112" lon="5.70895">
        <ele>487.2</ele>
        <time>2021-10-25T12:22:40Z</time>
      </trkpt>
      <trkpt lat="46.63115" lon="5.709">
        <ele>487.6</ele>
        <time>2021-10-25T12:22:41Z</time>
      </trkpt>
      <trkpt lat="46.63126" lon="5.7092">
        <ele>488.8</ele>
        <time>2021-10-25T12:22:45Z</time>
      </trkpt>
      <trkpt lat="46.63133" lon="5.70936">
        <ele>489.6</ele>
        <time>2021-10-25T12:22:48Z</time>
      </trkpt>
      <trkpt lat="46.63135" lon="5.70941">
        <ele>489.8</ele>
        <time>2021-10-25T12:22:49Z</time>
      </trkpt>
      <trkpt lat="46.63147" lon="5.70967">
        <ele>490.8</ele>
        <time>2021-10-25T12:22:54Z</time>
      </trkpt>
      <trkpt lat="46.63155" lon="5.70989">
        <ele>491.6</ele>
        <time>2021-10-25T12:22:58Z</time>
      </trkpt>
      <trkpt lat="46.63156" lon="5.70993">
        <ele>492</ele>
        <time>2021-10-25T12:23:00Z</time>
      </trkpt>
      <trkpt lat="46.63166" lon="5.71024">
        <ele>493.2</ele>
        <time>2021-10-25T12:23:05Z</time>
      </trkpt>
      <trkpt lat="46.6317" lon="5.71035">
        <ele>493.6</ele>
        <time>2021-10-25T12:23:07Z</time>
      </trkpt>
      <trkpt lat="46.63174" lon="5.71044">
        <ele>494.2</ele>
        <time>2021-10-25T12:23:09Z</time>
      </trkpt>
      <trkpt lat="46.63184" lon="5.71069">
        <ele>495.2</ele>
        <time>2021-10-25T12:23:14Z</time>
      </trkpt>
      <trkpt lat="46.63197" lon="5.71095">
        <ele>496.4</ele>
        <time>2021-10-25T12:23:19Z</time>
      </trkpt>
      <trkpt lat="46.63204" lon="5.71104">
        <ele>496.8</ele>
        <time>2021-10-25T12:23:21Z</time>
      </trkpt>
      <trkpt lat="46.63211" lon="5.71113">
        <ele>497.4</ele>
        <time>2021-10-25T12:23:23Z</time>
      </trkpt>
      <trkpt lat="46.63221" lon="5.71122">
        <ele>498.6</ele>
        <time>2021-10-25T12:23:27Z</time>
      </trkpt>
      <trkpt lat="46.63233" lon="5.71129">
        <ele>499</ele>
        <time>2021-10-25T12:23:29Z</time>
      </trkpt>
      <trkpt lat="46.63246" lon="5.71132">
        <ele>499.8</ele>
        <time>2021-10-25T12:23:33Z</time>
      </trkpt>
      <trkpt lat="46.63268" lon="5.71136">
        <ele>501</ele>
        <time>2021-10-25T12:23:38Z</time>
      </trkpt>
      <trkpt lat="46.63281" lon="5.71136">
        <ele>501.4</ele>
        <time>2021-10-25T12:23:40Z</time>
      </trkpt>
      <trkpt lat="46.63284" lon="5.71136">
        <ele>501.6</ele>
        <time>2021-10-25T12:23:41Z</time>
      </trkpt>
      <trkpt lat="46.63284" lon="5.71136">
        <ele>502.2</ele>
        <time>2021-10-25T12:23:42Z</time>
      </trkpt>
      <trkpt lat="46.63302" lon="5.71138">
        <ele>503.4</ele>
        <time>2021-10-25T12:23:46Z</time>
      </trkpt>
      <trkpt lat="46.63305" lon="5.71138">
        <ele>503.6</ele>
        <time>2021-10-25T12:23:47Z</time>
      </trkpt>
      <trkpt lat="46.63311" lon="5.71138">
        <ele>504.4</ele>
        <time>2021-10-25T12:23:50Z</time>
      </trkpt>
      <trkpt lat="46.63322" lon="5.71138">
        <ele>505.4</ele>
        <time>2021-10-25T12:23:53Z</time>
      </trkpt>
      <trkpt lat="46.63327" lon="5.71137">
        <ele>505.4</ele>
        <time>2021-10-25T12:23:54Z</time>
      </trkpt>
      <trkpt lat="46.63347" lon="5.71137">
        <ele>505.8</ele>
        <time>2021-10-25T12:23:57Z</time>
      </trkpt>
      <trkpt lat="46.63371" lon="5.71137">
        <ele>506.6</ele>
        <time>2021-10-25T12:24:02Z</time>
      </trkpt>
      <trkpt lat="46.63391" lon="5.71137">
        <ele>507</ele>
        <time>2021-10-25T12:24:06Z</time>
      </trkpt>
      <trkpt lat="46.63416" lon="5.71138">
        <ele>507.8</ele>
        <time>2021-10-25T12:24:12Z</time>
      </trkpt>
      <trkpt lat="46.6343" lon="5.7114">
        <ele>508.2</ele>
        <time>2021-10-25T12:24:14Z</time>
      </trkpt>
      <trkpt lat="46.6344" lon="5.71143">
        <ele>508.6</ele>
        <time>2021-10-25T12:24:16Z</time>
      </trkpt>
      <trkpt lat="46.6345" lon="5.71145">
        <ele>509</ele>
        <time>2021-10-25T12:24:18Z</time>
      </trkpt>
      <trkpt lat="46.63505" lon="5.71156">
        <ele>509.8</ele>
        <time>2021-10-25T12:24:29Z</time>
      </trkpt>
      <trkpt lat="46.63515" lon="5.71158">
        <ele>510</ele>
        <time>2021-10-25T12:24:31Z</time>
      </trkpt>
      <trkpt lat="46.63549" lon="5.71166">
        <ele>511.2</ele>
        <time>2021-10-25T12:24:38Z</time>
      </trkpt>
      <trkpt lat="46.63554" lon="5.71166">
        <ele>511.6</ele>
        <time>2021-10-25T12:24:40Z</time>
      </trkpt>
      <trkpt lat="46.63564" lon="5.71169">
        <ele>511.8</ele>
        <time>2021-10-25T12:24:41Z</time>
      </trkpt>
      <trkpt lat="46.63573" lon="5.71172">
        <ele>512.2</ele>
        <time>2021-10-25T12:24:43Z</time>
      </trkpt>
      <trkpt lat="46.63581" lon="5.71175">
        <ele>512.4</ele>
        <time>2021-10-25T12:24:45Z</time>
      </trkpt>
      <trkpt lat="46.63594" lon="5.71186">
        <ele>512.8</ele>
        <time>2021-10-25T12:24:48Z</time>
      </trkpt>
      <trkpt lat="46.63603" lon="5.71197">
        <ele>513</ele>
        <time>2021-10-25T12:24:50Z</time>
      </trkpt>
      <trkpt lat="46.63619" lon="5.71224">
        <ele>513</ele>
        <time>2021-10-25T12:24:54Z</time>
      </trkpt>
      <trkpt lat="46.63619" lon="5.71224">
        <ele>513.2</ele>
        <time>2021-10-25T12:24:55Z</time>
      </trkpt>
      <trkpt lat="46.63626" lon="5.71241">
        <ele>513.4</ele>
        <time>2021-10-25T12:24:56Z</time>
      </trkpt>
      <trkpt lat="46.63655" lon="5.71314">
        <ele>512.8</ele>
        <time>2021-10-25T12:25:04Z</time>
      </trkpt>
      <trkpt lat="46.63662" lon="5.71333">
        <ele>512.6</ele>
        <time>2021-10-25T12:25:06Z</time>
      </trkpt>
      <trkpt lat="46.63678" lon="5.71356">
        <ele>512.6</ele>
        <time>2021-10-25T12:25:09Z</time>
      </trkpt>
      <trkpt lat="46.63692" lon="5.71368">
        <ele>512.6</ele>
        <time>2021-10-25T12:25:11Z</time>
      </trkpt>
      <trkpt lat="46.63704" lon="5.71375">
        <ele>512.6</ele>
        <time>2021-10-25T12:25:13Z</time>
      </trkpt>
      <trkpt lat="46.63744" lon="5.714">
        <ele>513.4</ele>
        <time>2021-10-25T12:25:20Z</time>
      </trkpt>
      <trkpt lat="46.6378" lon="5.71422">
        <ele>514.6</ele>
        <time>2021-10-25T12:25:27Z</time>
      </trkpt>
      <trkpt lat="46.63794" lon="5.71432">
        <ele>515.6</ele>
        <time>2021-10-25T12:25:30Z</time>
      </trkpt>
      <trkpt lat="46.63808" lon="5.71444">
        <ele>516</ele>
        <time>2021-10-25T12:25:33Z</time>
      </trkpt>
      <trkpt lat="46.63816" lon="5.71452">
        <ele>516.4</ele>
        <time>2021-10-25T12:25:35Z</time>
      </trkpt>
      <trkpt lat="46.63816" lon="5.71452">
        <ele>516.8</ele>
        <time>2021-10-25T12:25:36Z</time>
      </trkpt>
      <trkpt lat="46.63839" lon="5.71475">
        <ele>518</ele>
        <time>2021-10-25T12:25:40Z</time>
      </trkpt>
      <trkpt lat="46.63862" lon="5.715">
        <ele>519</ele>
        <time>2021-10-25T12:25:45Z</time>
      </trkpt>
      <trkpt lat="46.63869" lon="5.71509">
        <ele>519.2</ele>
        <time>2021-10-25T12:25:47Z</time>
      </trkpt>
      <trkpt lat="46.63874" lon="5.71514">
        <ele>519.4</ele>
        <time>2021-10-25T12:25:48Z</time>
      </trkpt>
      <trkpt lat="46.63885" lon="5.71528">
        <ele>519.6</ele>
        <time>2021-10-25T12:25:51Z</time>
      </trkpt>
      <trkpt lat="46.63889" lon="5.71533">
        <ele>519.8</ele>
        <time>2021-10-25T12:25:52Z</time>
      </trkpt>
      <trkpt lat="46.639" lon="5.71541">
        <ele>520.2</ele>
        <time>2021-10-25T12:25:54Z</time>
      </trkpt>
      <trkpt lat="46.63911" lon="5.71551">
        <ele>521</ele>
        <time>2021-10-25T12:25:57Z</time>
      </trkpt>
      <trkpt lat="46.63922" lon="5.71562">
        <ele>521</ele>
        <time>2021-10-25T12:25:58Z</time>
      </trkpt>
      <trkpt lat="46.63938" lon="5.71578">
        <ele>521.2</ele>
        <time>2021-10-25T12:26:01Z</time>
      </trkpt>
      <trkpt lat="46.63949" lon="5.71589">
        <ele>521.4</ele>
        <time>2021-10-25T12:26:03Z</time>
      </trkpt>
      <trkpt lat="46.63959" lon="5.71599">
        <ele>521.4</ele>
        <time>2021-10-25T12:26:05Z</time>
      </trkpt>
      <trkpt lat="46.63964" lon="5.71605">
        <ele>521.6</ele>
        <time>2021-10-25T12:26:07Z</time>
      </trkpt>
      <trkpt lat="46.63975" lon="5.71617">
        <ele>521.6</ele>
        <time>2021-10-25T12:26:08Z</time>
      </trkpt>
      <trkpt lat="46.63987" lon="5.71629">
        <ele>521.6</ele>
        <time>2021-10-25T12:26:10Z</time>
      </trkpt>
      <trkpt lat="46.64009" lon="5.71656">
        <ele>521.6</ele>
        <time>2021-10-25T12:26:14Z</time>
      </trkpt>
      <trkpt lat="46.64045" lon="5.71702">
        <ele>521.6</ele>
        <time>2021-10-25T12:26:21Z</time>
      </trkpt>
      <trkpt lat="46.64051" lon="5.71708">
        <ele>521.6</ele>
        <time>2021-10-25T12:26:22Z</time>
      </trkpt>
      <trkpt lat="46.64067" lon="5.7172">
        <ele>521.4</ele>
        <time>2021-10-25T12:26:25Z</time>
      </trkpt>
      <trkpt lat="46.64067" lon="5.7172">
        <ele>521.4</ele>
        <time>2021-10-25T12:26:26Z</time>
      </trkpt>
      <trkpt lat="46.64108" lon="5.71742">
        <ele>521.4</ele>
        <time>2021-10-25T12:26:32Z</time>
      </trkpt>
      <trkpt lat="46.64145" lon="5.71748">
        <ele>522.4</ele>
        <time>2021-10-25T12:26:38Z</time>
      </trkpt>
      <trkpt lat="46.64186" lon="5.71738">
        <ele>523</ele>
        <time>2021-10-25T12:26:44Z</time>
      </trkpt>
      <trkpt lat="46.64223" lon="5.71714">
        <ele>523.2</ele>
        <time>2021-10-25T12:26:51Z</time>
      </trkpt>
      <trkpt lat="46.64227" lon="5.7171">
        <ele>523.4</ele>
        <time>2021-10-25T12:26:52Z</time>
      </trkpt>
      <trkpt lat="46.64245" lon="5.71692">
        <ele>524.4</ele>
        <time>2021-10-25T12:26:56Z</time>
      </trkpt>
      <trkpt lat="46.64248" lon="5.71688">
        <ele>525</ele>
        <time>2021-10-25T12:26:57Z</time>
      </trkpt>
      <trkpt lat="46.64252" lon="5.71683">
        <ele>525.2</ele>
        <time>2021-10-25T12:26:58Z</time>
      </trkpt>
      <trkpt lat="46.64252" lon="5.71683">
        <ele>525.6</ele>
        <time>2021-10-25T12:26:59Z</time>
      </trkpt>
      <trkpt lat="46.6426" lon="5.7167">
        <ele>525.8</ele>
        <time>2021-10-25T12:27:00Z</time>
      </trkpt>
      <trkpt lat="46.64266" lon="5.7166">
        <ele>526.2</ele>
        <time>2021-10-25T12:27:02Z</time>
      </trkpt>
      <trkpt lat="46.64273" lon="5.71646">
        <ele>526.6</ele>
        <time>2021-10-25T12:27:04Z</time>
      </trkpt>
      <trkpt lat="46.64278" lon="5.71639">
        <ele>526.6</ele>
        <time>2021-10-25T12:27:05Z</time>
      </trkpt>
      <trkpt lat="46.64283" lon="5.71631">
        <ele>526.8</ele>
        <time>2021-10-25T12:27:06Z</time>
      </trkpt>
      <trkpt lat="46.64293" lon="5.71615">
        <ele>527</ele>
        <time>2021-10-25T12:27:08Z</time>
      </trkpt>
      <trkpt lat="46.64301" lon="5.71595">
        <ele>526.8</ele>
        <time>2021-10-25T12:27:10Z</time>
      </trkpt>
      <trkpt lat="46.64308" lon="5.71545">
        <ele>526.2</ele>
        <time>2021-10-25T12:27:14Z</time>
      </trkpt>
      <trkpt lat="46.64309" lon="5.71532">
        <ele>525.8</ele>
        <time>2021-10-25T12:27:15Z</time>
      </trkpt>
      <trkpt lat="46.6431" lon="5.71519">
        <ele>525.2</ele>
        <time>2021-10-25T12:27:16Z</time>
      </trkpt>
      <trkpt lat="46.6431" lon="5.71493">
        <ele>524.2</ele>
        <time>2021-10-25T12:27:18Z</time>
      </trkpt>
      <trkpt lat="46.64313" lon="5.71481">
        <ele>524</ele>
        <time>2021-10-25T12:27:19Z</time>
      </trkpt>
      <trkpt lat="46.64314" lon="5.71469">
        <ele>523.4</ele>
        <time>2021-10-25T12:27:20Z</time>
      </trkpt>
      <trkpt lat="46.64322" lon="5.71446">
        <ele>522.8</ele>
        <time>2021-10-25T12:27:22Z</time>
      </trkpt>
      <trkpt lat="46.64322" lon="5.71446">
        <ele>522.6</ele>
        <time>2021-10-25T12:27:23Z</time>
      </trkpt>
      <trkpt lat="46.64348" lon="5.71388">
        <ele>521.6</ele>
        <time>2021-10-25T12:27:27Z</time>
      </trkpt>
      <trkpt lat="46.64357" lon="5.71364">
        <ele>521.4</ele>
        <time>2021-10-25T12:27:29Z</time>
      </trkpt>
      <trkpt lat="46.6436" lon="5.71352">
        <ele>521.2</ele>
        <time>2021-10-25T12:27:30Z</time>
      </trkpt>
      <trkpt lat="46.64367" lon="5.71328">
        <ele>520.2</ele>
        <time>2021-10-25T12:27:32Z</time>
      </trkpt>
      <trkpt lat="46.64368" lon="5.71315">
        <ele>520.2</ele>
        <time>2021-10-25T12:27:33Z</time>
      </trkpt>
      <trkpt lat="46.64378" lon="5.71268">
        <ele>519</ele>
        <time>2021-10-25T12:27:37Z</time>
      </trkpt>
      <trkpt lat="46.64383" lon="5.71244">
        <ele>518.2</ele>
        <time>2021-10-25T12:27:39Z</time>
      </trkpt>
      <trkpt lat="46.64385" lon="5.71231">
        <ele>518</ele>
        <time>2021-10-25T12:27:40Z</time>
      </trkpt>
      <trkpt lat="46.64396" lon="5.7117">
        <ele>516.8</ele>
        <time>2021-10-25T12:27:45Z</time>
      </trkpt>
      <trkpt lat="46.64398" lon="5.71158">
        <ele>516.4</ele>
        <time>2021-10-25T12:27:46Z</time>
      </trkpt>
      <trkpt lat="46.64406" lon="5.71111">
        <ele>515.6</ele>
        <time>2021-10-25T12:27:50Z</time>
      </trkpt>
      <trkpt lat="46.64414" lon="5.71088">
        <ele>515.4</ele>
        <time>2021-10-25T12:27:52Z</time>
      </trkpt>
      <trkpt lat="46.64424" lon="5.71068">
        <ele>514.8</ele>
        <time>2021-10-25T12:27:54Z</time>
      </trkpt>
      <trkpt lat="46.64431" lon="5.7106">
        <ele>514.6</ele>
        <time>2021-10-25T12:27:55Z</time>
      </trkpt>
      <trkpt lat="46.64439" lon="5.71054">
        <ele>514.4</ele>
        <time>2021-10-25T12:27:56Z</time>
      </trkpt>
      <trkpt lat="46.64457" lon="5.71049">
        <ele>513.6</ele>
        <time>2021-10-25T12:27:58Z</time>
      </trkpt>
      <trkpt lat="46.64466" lon="5.71049">
        <ele>513.4</ele>
        <time>2021-10-25T12:27:59Z</time>
      </trkpt>
      <trkpt lat="46.64492" lon="5.71057">
        <ele>512.8</ele>
        <time>2021-10-25T12:28:02Z</time>
      </trkpt>
      <trkpt lat="46.64518" lon="5.71069">
        <ele>512.4</ele>
        <time>2021-10-25T12:28:05Z</time>
      </trkpt>
      <trkpt lat="46.64571" lon="5.71092">
        <ele>512</ele>
        <time>2021-10-25T12:28:11Z</time>
      </trkpt>
      <trkpt lat="46.64607" lon="5.71108">
        <ele>511.6</ele>
        <time>2021-10-25T12:28:15Z</time>
      </trkpt>
      <trkpt lat="46.64662" lon="5.71132">
        <ele>510.6</ele>
        <time>2021-10-25T12:28:21Z</time>
      </trkpt>
      <trkpt lat="46.64715" lon="5.71155">
        <ele>509.6</ele>
        <time>2021-10-25T12:28:27Z</time>
      </trkpt>
      <trkpt lat="46.64724" lon="5.71159">
        <ele>509.6</ele>
        <time>2021-10-25T12:28:28Z</time>
      </trkpt>
      <trkpt lat="46.64733" lon="5.71162">
        <ele>509.4</ele>
        <time>2021-10-25T12:28:29Z</time>
      </trkpt>
      <trkpt lat="46.64742" lon="5.71166">
        <ele>509.2</ele>
        <time>2021-10-25T12:28:30Z</time>
      </trkpt>
      <trkpt lat="46.64776" lon="5.71186">
        <ele>508.6</ele>
        <time>2021-10-25T12:28:34Z</time>
      </trkpt>
      <trkpt lat="46.64785" lon="5.71193">
        <ele>508.4</ele>
        <time>2021-10-25T12:28:35Z</time>
      </trkpt>
      <trkpt lat="46.64793" lon="5.71202">
        <ele>508.2</ele>
        <time>2021-10-25T12:28:36Z</time>
      </trkpt>
      <trkpt lat="46.64816" lon="5.71232">
        <ele>507.6</ele>
        <time>2021-10-25T12:28:39Z</time>
      </trkpt>
      <trkpt lat="46.64831" lon="5.71253">
        <ele>506</ele>
        <time>2021-10-25T12:28:41Z</time>
      </trkpt>
      <trkpt lat="46.64856" lon="5.71287">
        <ele>504.8</ele>
        <time>2021-10-25T12:28:44Z</time>
      </trkpt>
      <trkpt lat="46.64871" lon="5.71306">
        <ele>503.4</ele>
        <time>2021-10-25T12:28:46Z</time>
      </trkpt>
      <trkpt lat="46.64887" lon="5.71328">
        <ele>501.6</ele>
        <time>2021-10-25T12:28:48Z</time>
      </trkpt>
      <trkpt lat="46.64903" lon="5.7135">
        <ele>500.4</ele>
        <time>2021-10-25T12:28:50Z</time>
      </trkpt>
      <trkpt lat="46.64919" lon="5.71372">
        <ele>498.8</ele>
        <time>2021-10-25T12:28:52Z</time>
      </trkpt>
      <trkpt lat="46.64936" lon="5.71395">
        <ele>497.6</ele>
        <time>2021-10-25T12:28:54Z</time>
      </trkpt>
      <trkpt lat="46.6495" lon="5.71414">
        <ele>496.8</ele>
        <time>2021-10-25T12:28:56Z</time>
      </trkpt>
      <trkpt lat="46.64957" lon="5.71424">
        <ele>496.4</ele>
        <time>2021-10-25T12:28:57Z</time>
      </trkpt>
      <trkpt lat="46.6498" lon="5.71455">
        <ele>495.2</ele>
        <time>2021-10-25T12:29:00Z</time>
      </trkpt>
      <trkpt lat="46.65002" lon="5.71485">
        <ele>494.2</ele>
        <time>2021-10-25T12:29:03Z</time>
      </trkpt>
      <trkpt lat="46.65017" lon="5.71504">
        <ele>493</ele>
        <time>2021-10-25T12:29:05Z</time>
      </trkpt>
      <trkpt lat="46.65031" lon="5.71524">
        <ele>492</ele>
        <time>2021-10-25T12:29:07Z</time>
      </trkpt>
      <trkpt lat="46.65052" lon="5.71555">
        <ele>491</ele>
        <time>2021-10-25T12:29:10Z</time>
      </trkpt>
      <trkpt lat="46.65058" lon="5.71565">
        <ele>490.6</ele>
        <time>2021-10-25T12:29:11Z</time>
      </trkpt>
      <trkpt lat="46.65085" lon="5.71623">
        <ele>489.6</ele>
        <time>2021-10-25T12:29:16Z</time>
      </trkpt>
      <trkpt lat="46.65094" lon="5.71647">
        <ele>488.4</ele>
        <time>2021-10-25T12:29:18Z</time>
      </trkpt>
      <trkpt lat="46.651" lon="5.71672">
        <ele>487.8</ele>
        <time>2021-10-25T12:29:20Z</time>
      </trkpt>
      <trkpt lat="46.65103" lon="5.717">
        <ele>487.2</ele>
        <time>2021-10-25T12:29:22Z</time>
      </trkpt>
      <trkpt lat="46.65105" lon="5.71732">
        <ele>486.6</ele>
        <time>2021-10-25T12:29:24Z</time>
      </trkpt>
      <trkpt lat="46.65106" lon="5.71748">
        <ele>486.4</ele>
        <time>2021-10-25T12:29:25Z</time>
      </trkpt>
      <trkpt lat="46.65108" lon="5.71761">
        <ele>485.8</ele>
        <time>2021-10-25T12:29:26Z</time>
      </trkpt>
      <trkpt lat="46.6511" lon="5.71777">
        <ele>484.6</ele>
        <time>2021-10-25T12:29:27Z</time>
      </trkpt>
      <trkpt lat="46.65112" lon="5.71794">
        <ele>484.2</ele>
        <time>2021-10-25T12:29:28Z</time>
      </trkpt>
      <trkpt lat="46.65116" lon="5.71811">
        <ele>483.6</ele>
        <time>2021-10-25T12:29:29Z</time>
      </trkpt>
      <trkpt lat="46.6513" lon="5.71859">
        <ele>482.6</ele>
        <time>2021-10-25T12:29:32Z</time>
      </trkpt>
      <trkpt lat="46.65137" lon="5.71874">
        <ele>480.6</ele>
        <time>2021-10-25T12:29:33Z</time>
      </trkpt>
      <trkpt lat="46.65144" lon="5.71887">
        <ele>479.4</ele>
        <time>2021-10-25T12:29:34Z</time>
      </trkpt>
      <trkpt lat="46.6516" lon="5.71911">
        <ele>478.6</ele>
        <time>2021-10-25T12:29:36Z</time>
      </trkpt>
      <trkpt lat="46.65167" lon="5.71924">
        <ele>478</ele>
        <time>2021-10-25T12:29:37Z</time>
      </trkpt>
      <trkpt lat="46.65173" lon="5.71936">
        <ele>477.2</ele>
        <time>2021-10-25T12:29:38Z</time>
      </trkpt>
      <trkpt lat="46.65178" lon="5.7195">
        <ele>477</ele>
        <time>2021-10-25T12:29:39Z</time>
      </trkpt>
      <trkpt lat="46.65182" lon="5.71965">
        <ele>476.8</ele>
        <time>2021-10-25T12:29:40Z</time>
      </trkpt>
      <trkpt lat="46.65197" lon="5.72018">
        <ele>476.6</ele>
        <time>2021-10-25T12:29:44Z</time>
      </trkpt>
      <trkpt lat="46.65216" lon="5.72058">
        <ele>477</ele>
        <time>2021-10-25T12:29:48Z</time>
      </trkpt>
      <trkpt lat="46.65247" lon="5.72104">
        <ele>478.2</ele>
        <time>2021-10-25T12:29:54Z</time>
      </trkpt>
      <trkpt lat="46.65279" lon="5.72142">
        <ele>479.2</ele>
        <time>2021-10-25T12:29:59Z</time>
      </trkpt>
      <trkpt lat="46.65293" lon="5.72156">
        <ele>479.4</ele>
        <time>2021-10-25T12:30:01Z</time>
      </trkpt>
      <trkpt lat="46.65341" lon="5.72208">
        <ele>478.6</ele>
        <time>2021-10-25T12:30:08Z</time>
      </trkpt>
      <trkpt lat="46.65347" lon="5.72215">
        <ele>478.4</ele>
        <time>2021-10-25T12:30:09Z</time>
      </trkpt>
      <trkpt lat="46.65354" lon="5.72222">
        <ele>478.4</ele>
        <time>2021-10-25T12:30:10Z</time>
      </trkpt>
      <trkpt lat="46.65394" lon="5.72261">
        <ele>478.2</ele>
        <time>2021-10-25T12:30:16Z</time>
      </trkpt>
      <trkpt lat="46.65401" lon="5.72268">
        <ele>478.2</ele>
        <time>2021-10-25T12:30:17Z</time>
      </trkpt>
      <trkpt lat="46.65448" lon="5.7231">
        <ele>477.6</ele>
        <time>2021-10-25T12:30:24Z</time>
      </trkpt>
      <trkpt lat="46.65479" lon="5.72339">
        <ele>478.2</ele>
        <time>2021-10-25T12:30:29Z</time>
      </trkpt>
      <trkpt lat="46.65491" lon="5.72352">
        <ele>478.4</ele>
        <time>2021-10-25T12:30:31Z</time>
      </trkpt>
      <trkpt lat="46.65518" lon="5.72381">
        <ele>479</ele>
        <time>2021-10-25T12:30:36Z</time>
      </trkpt>
      <trkpt lat="46.65527" lon="5.7239">
        <ele>479.2</ele>
        <time>2021-10-25T12:30:38Z</time>
      </trkpt>
      <trkpt lat="46.65542" lon="5.72402">
        <ele>479.8</ele>
        <time>2021-10-25T12:30:41Z</time>
      </trkpt>
      <trkpt lat="46.6555" lon="5.72408">
        <ele>480.6</ele>
        <time>2021-10-25T12:30:43Z</time>
      </trkpt>
      <trkpt lat="46.65572" lon="5.72424">
        <ele>481.4</ele>
        <time>2021-10-25T12:30:48Z</time>
      </trkpt>
      <trkpt lat="46.65576" lon="5.72427">
        <ele>482</ele>
        <time>2021-10-25T12:30:49Z</time>
      </trkpt>
      <trkpt lat="46.65588" lon="5.72437">
        <ele>483.2</ele>
        <time>2021-10-25T12:30:52Z</time>
      </trkpt>
      <trkpt lat="46.65608" lon="5.72456">
        <ele>484.4</ele>
        <time>2021-10-25T12:30:57Z</time>
      </trkpt>
      <trkpt lat="46.65612" lon="5.72461">
        <ele>484.6</ele>
        <time>2021-10-25T12:30:58Z</time>
      </trkpt>
      <trkpt lat="46.65629" lon="5.72482">
        <ele>485.6</ele>
        <time>2021-10-25T12:31:02Z</time>
      </trkpt>
      <trkpt lat="46.65644" lon="5.72503">
        <ele>486</ele>
        <time>2021-10-25T12:31:06Z</time>
      </trkpt>
      <trkpt lat="46.65646" lon="5.7251">
        <ele>486</ele>
        <time>2021-10-25T12:31:07Z</time>
      </trkpt>
      <trkpt lat="46.65646" lon="5.72525">
        <ele>486.2</ele>
        <time>2021-10-25T12:31:09Z</time>
      </trkpt>
      <trkpt lat="46.6564" lon="5.72549">
        <ele>486.4</ele>
        <time>2021-10-25T12:31:12Z</time>
      </trkpt>
      <trkpt lat="46.65639" lon="5.72568">
        <ele>486.4</ele>
        <time>2021-10-25T12:31:14Z</time>
      </trkpt>
      <trkpt lat="46.65647" lon="5.72616">
        <ele>486.2</ele>
        <time>2021-10-25T12:31:19Z</time>
      </trkpt>
      <trkpt lat="46.65659" lon="5.7268">
        <ele>485.8</ele>
        <time>2021-10-25T12:31:26Z</time>
      </trkpt>
      <trkpt lat="46.65661" lon="5.72689">
        <ele>485.8</ele>
        <time>2021-10-25T12:31:27Z</time>
      </trkpt>
      <trkpt lat="46.65666" lon="5.72728">
        <ele>485.8</ele>
        <time>2021-10-25T12:31:31Z</time>
      </trkpt>
      <trkpt lat="46.65671" lon="5.72782">
        <ele>486</ele>
        <time>2021-10-25T12:31:37Z</time>
      </trkpt>
      <trkpt lat="46.65676" lon="5.72849">
        <ele>485.8</ele>
        <time>2021-10-25T12:31:44Z</time>
      </trkpt>
      <trkpt lat="46.65673" lon="5.72868">
        <ele>485.6</ele>
        <time>2021-10-25T12:31:46Z</time>
      </trkpt>
      <trkpt lat="46.65669" lon="5.72877">
        <ele>485.4</ele>
        <time>2021-10-25T12:31:47Z</time>
      </trkpt>
      <trkpt lat="46.65663" lon="5.72897">
        <ele>485.2</ele>
        <time>2021-10-25T12:31:49Z</time>
      </trkpt>
      <trkpt lat="46.6566" lon="5.72919">
        <ele>485.2</ele>
        <time>2021-10-25T12:31:51Z</time>
      </trkpt>
      <trkpt lat="46.6566" lon="5.72952">
        <ele>484.6</ele>
        <time>2021-10-25T12:31:54Z</time>
      </trkpt>
      <trkpt lat="46.65661" lon="5.72963">
        <ele>484.4</ele>
        <time>2021-10-25T12:31:55Z</time>
      </trkpt>
      <trkpt lat="46.65672" lon="5.73017">
        <ele>484</ele>
        <time>2021-10-25T12:32:00Z</time>
      </trkpt>
      <trkpt lat="46.65697" lon="5.73086">
        <ele>483.4</ele>
        <time>2021-10-25T12:32:07Z</time>
      </trkpt>
      <trkpt lat="46.65705" lon="5.73103">
        <ele>483.2</ele>
        <time>2021-10-25T12:32:09Z</time>
      </trkpt>
      <trkpt lat="46.6571" lon="5.73119">
        <ele>483.2</ele>
        <time>2021-10-25T12:32:11Z</time>
      </trkpt>
      <trkpt lat="46.65711" lon="5.73127">
        <ele>483.2</ele>
        <time>2021-10-25T12:32:12Z</time>
      </trkpt>
      <trkpt lat="46.65711" lon="5.73135">
        <ele>483</ele>
        <time>2021-10-25T12:32:13Z</time>
      </trkpt>
      <trkpt lat="46.6571" lon="5.73154">
        <ele>482.8</ele>
        <time>2021-10-25T12:32:15Z</time>
      </trkpt>
      <trkpt lat="46.65702" lon="5.7319">
        <ele>482</ele>
        <time>2021-10-25T12:32:19Z</time>
      </trkpt>
      <trkpt lat="46.65696" lon="5.73218">
        <ele>480.8</ele>
        <time>2021-10-25T12:32:22Z</time>
      </trkpt>
      <trkpt lat="46.65692" lon="5.73237">
        <ele>480.2</ele>
        <time>2021-10-25T12:32:24Z</time>
      </trkpt>
      <trkpt lat="46.65686" lon="5.73257">
        <ele>479.6</ele>
        <time>2021-10-25T12:32:26Z</time>
      </trkpt>
      <trkpt lat="46.65673" lon="5.73284">
        <ele>479.2</ele>
        <time>2021-10-25T12:32:29Z</time>
      </trkpt>
      <trkpt lat="46.65659" lon="5.73306">
        <ele>478.6</ele>
        <time>2021-10-25T12:32:32Z</time>
      </trkpt>
      <trkpt lat="46.65648" lon="5.7332">
        <ele>478.2</ele>
        <time>2021-10-25T12:32:34Z</time>
      </trkpt>
      <trkpt lat="46.65626" lon="5.73343">
        <ele>477.2</ele>
        <time>2021-10-25T12:32:38Z</time>
      </trkpt>
      <trkpt lat="46.65613" lon="5.73352">
        <ele>476.4</ele>
        <time>2021-10-25T12:32:40Z</time>
      </trkpt>
      <trkpt lat="46.65606" lon="5.73356">
        <ele>476.2</ele>
        <time>2021-10-25T12:32:41Z</time>
      </trkpt>
      <trkpt lat="46.65598" lon="5.73359">
        <ele>476</ele>
        <time>2021-10-25T12:32:42Z</time>
      </trkpt>
      <trkpt lat="46.65582" lon="5.73366">
        <ele>475.2</ele>
        <time>2021-10-25T12:32:44Z</time>
      </trkpt>
      <trkpt lat="46.65574" lon="5.7337">
        <ele>474.6</ele>
        <time>2021-10-25T12:32:45Z</time>
      </trkpt>
      <trkpt lat="46.65551" lon="5.73385">
        <ele>474</ele>
        <time>2021-10-25T12:32:48Z</time>
      </trkpt>
      <trkpt lat="46.65544" lon="5.73392">
        <ele>473.8</ele>
        <time>2021-10-25T12:32:49Z</time>
      </trkpt>
      <trkpt lat="46.65537" lon="5.734">
        <ele>473.6</ele>
        <time>2021-10-25T12:32:50Z</time>
      </trkpt>
      <trkpt lat="46.65523" lon="5.73418">
        <ele>473</ele>
        <time>2021-10-25T12:32:52Z</time>
      </trkpt>
      <trkpt lat="46.65518" lon="5.73429">
        <ele>472.8</ele>
        <time>2021-10-25T12:32:53Z</time>
      </trkpt>
      <trkpt lat="46.65514" lon="5.73441">
        <ele>472.4</ele>
        <time>2021-10-25T12:32:54Z</time>
      </trkpt>
      <trkpt lat="46.65506" lon="5.7348">
        <ele>471.6</ele>
        <time>2021-10-25T12:32:57Z</time>
      </trkpt>
      <trkpt lat="46.65504" lon="5.73493">
        <ele>471.4</ele>
        <time>2021-10-25T12:32:58Z</time>
      </trkpt>
      <trkpt lat="46.65495" lon="5.73582">
        <ele>470.8</ele>
        <time>2021-10-25T12:33:05Z</time>
      </trkpt>
      <trkpt lat="46.65489" lon="5.73666">
        <ele>470.8</ele>
        <time>2021-10-25T12:33:12Z</time>
      </trkpt>
      <trkpt lat="46.65488" lon="5.73679">
        <ele>470.8</ele>
        <time>2021-10-25T12:33:13Z</time>
      </trkpt>
      <trkpt lat="46.65485" lon="5.73767">
        <ele>470.6</ele>
        <time>2021-10-25T12:33:20Z</time>
      </trkpt>
      <trkpt lat="46.65484" lon="5.73792">
        <ele>470.2</ele>
        <time>2021-10-25T12:33:22Z</time>
      </trkpt>
      <trkpt lat="46.65481" lon="5.73854">
        <ele>469.2</ele>
        <time>2021-10-25T12:33:27Z</time>
      </trkpt>
      <trkpt lat="46.6548" lon="5.73878">
        <ele>468</ele>
        <time>2021-10-25T12:33:29Z</time>
      </trkpt>
      <trkpt lat="46.65478" lon="5.73917">
        <ele>467.4</ele>
        <time>2021-10-25T12:33:32Z</time>
      </trkpt>
      <trkpt lat="46.65478" lon="5.7393">
        <ele>466.8</ele>
        <time>2021-10-25T12:33:33Z</time>
      </trkpt>
      <trkpt lat="46.65474" lon="5.73983">
        <ele>465.8</ele>
        <time>2021-10-25T12:33:37Z</time>
      </trkpt>
      <trkpt lat="46.65471" lon="5.73997">
        <ele>465.6</ele>
        <time>2021-10-25T12:33:38Z</time>
      </trkpt>
      <trkpt lat="46.65468" lon="5.74009">
        <ele>465.4</ele>
        <time>2021-10-25T12:33:39Z</time>
      </trkpt>
      <trkpt lat="46.65465" lon="5.74021">
        <ele>465</ele>
        <time>2021-10-25T12:33:40Z</time>
      </trkpt>
      <trkpt lat="46.6546" lon="5.74033">
        <ele>464.8</ele>
        <time>2021-10-25T12:33:41Z</time>
      </trkpt>
      <trkpt lat="46.65455" lon="5.74044">
        <ele>464.4</ele>
        <time>2021-10-25T12:33:42Z</time>
      </trkpt>
      <trkpt lat="46.65438" lon="5.74075">
        <ele>463.8</ele>
        <time>2021-10-25T12:33:45Z</time>
      </trkpt>
      <trkpt lat="46.65421" lon="5.74103">
        <ele>463.6</ele>
        <time>2021-10-25T12:33:48Z</time>
      </trkpt>
      <trkpt lat="46.65404" lon="5.7413">
        <ele>463.4</ele>
        <time>2021-10-25T12:33:51Z</time>
      </trkpt>
      <trkpt lat="46.654" lon="5.7414">
        <ele>463.4</ele>
        <time>2021-10-25T12:33:52Z</time>
      </trkpt>
      <trkpt lat="46.65398" lon="5.7415">
        <ele>463.4</ele>
        <time>2021-10-25T12:33:53Z</time>
      </trkpt>
      <trkpt lat="46.65397" lon="5.7417">
        <ele>463.6</ele>
        <time>2021-10-25T12:33:55Z</time>
      </trkpt>
      <trkpt lat="46.65403" lon="5.74193">
        <ele>464.4</ele>
        <time>2021-10-25T12:33:58Z</time>
      </trkpt>
      <trkpt lat="46.65407" lon="5.74202">
        <ele>464.6</ele>
        <time>2021-10-25T12:33:59Z</time>
      </trkpt>
      <trkpt lat="46.65414" lon="5.74217">
        <ele>465.2</ele>
        <time>2021-10-25T12:34:01Z</time>
      </trkpt>
      <trkpt lat="46.65423" lon="5.74237">
        <ele>466.4</ele>
        <time>2021-10-25T12:34:04Z</time>
      </trkpt>
      <trkpt lat="46.65428" lon="5.7425">
        <ele>467.4</ele>
        <time>2021-10-25T12:34:06Z</time>
      </trkpt>
      <trkpt lat="46.65431" lon="5.74256">
        <ele>467.8</ele>
        <time>2021-10-25T12:34:07Z</time>
      </trkpt>
      <trkpt lat="46.65443" lon="5.74285">
        <ele>469</ele>
        <time>2021-10-25T12:34:12Z</time>
      </trkpt>
      <trkpt lat="46.65454" lon="5.74313">
        <ele>470.2</ele>
        <time>2021-10-25T12:34:17Z</time>
      </trkpt>
      <trkpt lat="46.65458" lon="5.74324">
        <ele>471</ele>
        <time>2021-10-25T12:34:19Z</time>
      </trkpt>
      <trkpt lat="46.65461" lon="5.74333">
        <ele>471.6</ele>
        <time>2021-10-25T12:34:21Z</time>
      </trkpt>
      <trkpt lat="46.65465" lon="5.74342">
        <ele>472</ele>
        <time>2021-10-25T12:34:23Z</time>
      </trkpt>
      <trkpt lat="46.65466" lon="5.74347">
        <ele>472</ele>
        <time>2021-10-25T12:34:24Z</time>
      </trkpt>
      <trkpt lat="46.65468" lon="5.74354">
        <ele>472.4</ele>
        <time>2021-10-25T12:34:26Z</time>
      </trkpt>
      <trkpt lat="46.65469" lon="5.74357">
        <ele>472.6</ele>
        <time>2021-10-25T12:34:27Z</time>
      </trkpt>
      <trkpt lat="46.65472" lon="5.74362">
        <ele>473</ele>
        <time>2021-10-25T12:34:29Z</time>
      </trkpt>
      <trkpt lat="46.65473" lon="5.74361">
        <ele>473.2</ele>
        <time>2021-10-25T12:34:30Z</time>
      </trkpt>
      <trkpt lat="46.65471" lon="5.74356">
        <ele>473.6</ele>
        <time>2021-10-25T12:34:32Z</time>
      </trkpt>
      <trkpt lat="46.65469" lon="5.74354">
        <ele>473.6</ele>
        <time>2021-10-25T12:34:33Z</time>
      </trkpt>
      <trkpt lat="46.65458" lon="5.74354">
        <ele>473.8</ele>
        <time>2021-10-25T12:34:37Z</time>
      </trkpt>
      <trkpt lat="46.65443" lon="5.74365">
        <ele>474</ele>
        <time>2021-10-25T12:34:42Z</time>
      </trkpt>
      <trkpt lat="46.65432" lon="5.74363">
        <ele>474.2</ele>
        <time>2021-10-25T12:34:45Z</time>
      </trkpt>
      <trkpt lat="46.65429" lon="5.74359">
        <ele>474.2</ele>
        <time>2021-10-25T12:34:46Z</time>
      </trkpt>
      <trkpt lat="46.65416" lon="5.74337">
        <ele>474.6</ele>
        <time>2021-10-25T12:34:50Z</time>
      </trkpt>
      <trkpt lat="46.65408" lon="5.74322">
        <ele>475</ele>
        <time>2021-10-25T12:34:53Z</time>
      </trkpt>
      <trkpt lat="46.65402" lon="5.74311">
        <ele>475.4</ele>
        <time>2021-10-25T12:34:56Z</time>
      </trkpt>
      <trkpt lat="46.65396" lon="5.74303">
        <ele>475.4</ele>
        <time>2021-10-25T12:34:57Z</time>
      </trkpt>
      <trkpt lat="46.65389" lon="5.74296">
        <ele>475.8</ele>
        <time>2021-10-25T12:34:59Z</time>
      </trkpt>
      <trkpt lat="46.65383" lon="5.7429">
        <ele>476.2</ele>
        <time>2021-10-25T12:35:01Z</time>
      </trkpt>
      <trkpt lat="46.65376" lon="5.74284">
        <ele>476.8</ele>
        <time>2021-10-25T12:35:03Z</time>
      </trkpt>
      <trkpt lat="46.65358" lon="5.74271">
        <ele>478</ele>
        <time>2021-10-25T12:35:08Z</time>
      </trkpt>
      <trkpt lat="46.65351" lon="5.74265">
        <ele>478.4</ele>
        <time>2021-10-25T12:35:10Z</time>
      </trkpt>
      <trkpt lat="46.65334" lon="5.74254">
        <ele>479</ele>
        <time>2021-10-25T12:35:15Z</time>
      </trkpt>
      <trkpt lat="46.65324" lon="5.74246">
        <ele>479.8</ele>
        <time>2021-10-25T12:35:18Z</time>
      </trkpt>
      <trkpt lat="46.65317" lon="5.74242">
        <ele>480.2</ele>
        <time>2021-10-25T12:35:20Z</time>
      </trkpt>
      <trkpt lat="46.65301" lon="5.7423">
        <ele>481.2</ele>
        <time>2021-10-25T12:35:25Z</time>
      </trkpt>
      <trkpt lat="46.65298" lon="5.74228">
        <ele>481.6</ele>
        <time>2021-10-25T12:35:26Z</time>
      </trkpt>
      <trkpt lat="46.65281" lon="5.74218">
        <ele>482.6</ele>
        <time>2021-10-25T12:35:31Z</time>
      </trkpt>
      <trkpt lat="46.65271" lon="5.74211">
        <ele>483.6</ele>
        <time>2021-10-25T12:35:34Z</time>
      </trkpt>
      <trkpt lat="46.65254" lon="5.74201">
        <ele>484.6</ele>
        <time>2021-10-25T12:35:39Z</time>
      </trkpt>
      <trkpt lat="46.6525" lon="5.742">
        <ele>484.8</ele>
        <time>2021-10-25T12:35:40Z</time>
      </trkpt>
      <trkpt lat="46.65233" lon="5.74197">
        <ele>486</ele>
        <time>2021-10-25T12:35:45Z</time>
      </trkpt>
      <trkpt lat="46.65222" lon="5.74197">
        <ele>486.8</ele>
        <time>2021-10-25T12:35:48Z</time>
      </trkpt>
      <trkpt lat="46.65219" lon="5.74197">
        <ele>487</ele>
        <time>2021-10-25T12:35:49Z</time>
      </trkpt>
      <trkpt lat="46.65195" lon="5.74206">
        <ele>487.8</ele>
        <time>2021-10-25T12:35:55Z</time>
      </trkpt>
      <trkpt lat="46.65191" lon="5.74209">
        <ele>487.8</ele>
        <time>2021-10-25T12:35:56Z</time>
      </trkpt>
      <trkpt lat="46.65182" lon="5.74215">
        <ele>488.2</ele>
        <time>2021-10-25T12:35:58Z</time>
      </trkpt>
      <trkpt lat="46.65178" lon="5.74219">
        <ele>488.2</ele>
        <time>2021-10-25T12:35:59Z</time>
      </trkpt>
      <trkpt lat="46.65173" lon="5.74224">
        <ele>488.2</ele>
        <time>2021-10-25T12:36:00Z</time>
      </trkpt>
      <trkpt lat="46.65143" lon="5.74264">
        <ele>488.2</ele>
        <time>2021-10-25T12:36:07Z</time>
      </trkpt>
      <trkpt lat="46.65129" lon="5.74293">
        <ele>487.4</ele>
        <time>2021-10-25T12:36:11Z</time>
      </trkpt>
      <trkpt lat="46.65126" lon="5.74299">
        <ele>487</ele>
        <time>2021-10-25T12:36:12Z</time>
      </trkpt>
      <trkpt lat="46.65124" lon="5.74305">
        <ele>487</ele>
        <time>2021-10-25T12:36:13Z</time>
      </trkpt>
      <trkpt lat="46.6511" lon="5.74349">
        <ele>486</ele>
        <time>2021-10-25T12:36:19Z</time>
      </trkpt>
      <trkpt lat="46.65107" lon="5.74358">
        <ele>486</ele>
        <time>2021-10-25T12:36:20Z</time>
      </trkpt>
      <trkpt lat="46.65095" lon="5.74397">
        <ele>485</ele>
        <time>2021-10-25T12:36:24Z</time>
      </trkpt>
      <trkpt lat="46.65089" lon="5.74417">
        <ele>484.6</ele>
        <time>2021-10-25T12:36:26Z</time>
      </trkpt>
      <trkpt lat="46.65077" lon="5.74459">
        <ele>484</ele>
        <time>2021-10-25T12:36:30Z</time>
      </trkpt>
      <trkpt lat="46.6507" lon="5.74492">
        <ele>483.2</ele>
        <time>2021-10-25T12:36:33Z</time>
      </trkpt>
      <trkpt lat="46.65069" lon="5.74514">
        <ele>482.6</ele>
        <time>2021-10-25T12:36:35Z</time>
      </trkpt>
      <trkpt lat="46.65071" lon="5.74537">
        <ele>482.4</ele>
        <time>2021-10-25T12:36:37Z</time>
      </trkpt>
      <trkpt lat="46.65084" lon="5.74594">
        <ele>481.6</ele>
        <time>2021-10-25T12:36:42Z</time>
      </trkpt>
      <trkpt lat="46.65086" lon="5.74606">
        <ele>481.6</ele>
        <time>2021-10-25T12:36:43Z</time>
      </trkpt>
      <trkpt lat="46.65086" lon="5.74644">
        <ele>480.8</ele>
        <time>2021-10-25T12:36:46Z</time>
      </trkpt>
      <trkpt lat="46.65085" lon="5.74657">
        <ele>480.2</ele>
        <time>2021-10-25T12:36:47Z</time>
      </trkpt>
      <trkpt lat="46.65078" lon="5.74711">
        <ele>478.8</ele>
        <time>2021-10-25T12:36:51Z</time>
      </trkpt>
      <trkpt lat="46.65075" lon="5.74739">
        <ele>477.4</ele>
        <time>2021-10-25T12:36:53Z</time>
      </trkpt>
      <trkpt lat="46.65068" lon="5.74792">
        <ele>476.8</ele>
        <time>2021-10-25T12:36:57Z</time>
      </trkpt>
      <trkpt lat="46.65063" lon="5.74831">
        <ele>476.4</ele>
        <time>2021-10-25T12:37:00Z</time>
      </trkpt>
      <trkpt lat="46.65056" lon="5.74867">
        <ele>475.6</ele>
        <time>2021-10-25T12:37:03Z</time>
      </trkpt>
      <trkpt lat="46.65049" lon="5.74886">
        <ele>474.8</ele>
        <time>2021-10-25T12:37:05Z</time>
      </trkpt>
      <trkpt lat="46.65045" lon="5.74894">
        <ele>474.6</ele>
        <time>2021-10-25T12:37:06Z</time>
      </trkpt>
      <trkpt lat="46.65036" lon="5.74907">
        <ele>473.8</ele>
        <time>2021-10-25T12:37:08Z</time>
      </trkpt>
      <trkpt lat="46.65025" lon="5.74919">
        <ele>472.4</ele>
        <time>2021-10-25T12:37:10Z</time>
      </trkpt>
      <trkpt lat="46.65001" lon="5.74944">
        <ele>471.4</ele>
        <time>2021-10-25T12:37:14Z</time>
      </trkpt>
      <trkpt lat="46.64985" lon="5.74964">
        <ele>471.2</ele>
        <time>2021-10-25T12:37:17Z</time>
      </trkpt>
      <trkpt lat="46.64978" lon="5.74977">
        <ele>471.4</ele>
        <time>2021-10-25T12:37:19Z</time>
      </trkpt>
      <trkpt lat="46.64971" lon="5.74992">
        <ele>471.4</ele>
        <time>2021-10-25T12:37:21Z</time>
      </trkpt>
      <trkpt lat="46.64965" lon="5.75007">
        <ele>471.4</ele>
        <time>2021-10-25T12:37:23Z</time>
      </trkpt>
      <trkpt lat="46.64959" lon="5.7503">
        <ele>471</ele>
        <time>2021-10-25T12:37:26Z</time>
      </trkpt>
      <trkpt lat="46.64956" lon="5.75051">
        <ele>471.2</ele>
        <time>2021-10-25T12:37:29Z</time>
      </trkpt>
      <trkpt lat="46.64952" lon="5.75062">
        <ele>471.2</ele>
        <time>2021-10-25T12:37:31Z</time>
      </trkpt>
      <trkpt lat="46.6494" lon="5.7507">
        <ele>471.8</ele>
        <time>2021-10-25T12:37:34Z</time>
      </trkpt>
      <trkpt lat="46.64931" lon="5.75065">
        <ele>472.6</ele>
        <time>2021-10-25T12:37:36Z</time>
      </trkpt>
      <trkpt lat="46.64927" lon="5.75062">
        <ele>472.8</ele>
        <time>2021-10-25T12:37:37Z</time>
      </trkpt>
      <trkpt lat="46.64915" lon="5.75041">
        <ele>473.6</ele>
        <time>2021-10-25T12:37:42Z</time>
      </trkpt>
      <trkpt lat="46.64909" lon="5.75031">
        <ele>474</ele>
        <time>2021-10-25T12:37:44Z</time>
      </trkpt>
      <trkpt lat="46.64899" lon="5.75018">
        <ele>474.8</ele>
        <time>2021-10-25T12:37:47Z</time>
      </trkpt>
      <trkpt lat="46.64892" lon="5.75012">
        <ele>475.4</ele>
        <time>2021-10-25T12:37:49Z</time>
      </trkpt>
      <trkpt lat="46.64876" lon="5.74999">
        <ele>476.6</ele>
        <time>2021-10-25T12:37:53Z</time>
      </trkpt>
      <trkpt lat="46.64872" lon="5.74997">
        <ele>477</ele>
        <time>2021-10-25T12:37:54Z</time>
      </trkpt>
      <trkpt lat="46.64857" lon="5.74987">
        <ele>477.6</ele>
        <time>2021-10-25T12:37:58Z</time>
      </trkpt>
      <trkpt lat="46.64846" lon="5.74981">
        <ele>478.8</ele>
        <time>2021-10-25T12:38:01Z</time>
      </trkpt>
      <trkpt lat="46.64827" lon="5.74964">
        <ele>479.8</ele>
        <time>2021-10-25T12:38:07Z</time>
      </trkpt>
      <trkpt lat="46.64824" lon="5.7496">
        <ele>480</ele>
        <time>2021-10-25T12:38:08Z</time>
      </trkpt>
      <trkpt lat="46.64817" lon="5.74948">
        <ele>481</ele>
        <time>2021-10-25T12:38:11Z</time>
      </trkpt>
      <trkpt lat="46.64813" lon="5.7494">
        <ele>481.4</ele>
        <time>2021-10-25T12:38:13Z</time>
      </trkpt>
      <trkpt lat="46.64805" lon="5.74924">
        <ele>482.2</ele>
        <time>2021-10-25T12:38:17Z</time>
      </trkpt>
      <trkpt lat="46.648" lon="5.74918">
        <ele>483</ele>
        <time>2021-10-25T12:38:19Z</time>
      </trkpt>
      <trkpt lat="46.64794" lon="5.74915">
        <ele>483.4</ele>
        <time>2021-10-25T12:38:21Z</time>
      </trkpt>
      <trkpt lat="46.64784" lon="5.74916">
        <ele>483.8</ele>
        <time>2021-10-25T12:38:24Z</time>
      </trkpt>
      <trkpt lat="46.64774" lon="5.74922">
        <ele>484.6</ele>
        <time>2021-10-25T12:38:27Z</time>
      </trkpt>
      <trkpt lat="46.64769" lon="5.74929">
        <ele>485</ele>
        <time>2021-10-25T12:38:29Z</time>
      </trkpt>
      <trkpt lat="46.64765" lon="5.74937">
        <ele>485.8</ele>
        <time>2021-10-25T12:38:31Z</time>
      </trkpt>
      <trkpt lat="46.64754" lon="5.74963">
        <ele>487</ele>
        <time>2021-10-25T12:38:37Z</time>
      </trkpt>
      <trkpt lat="46.64748" lon="5.74974">
        <ele>488.2</ele>
        <time>2021-10-25T12:38:40Z</time>
      </trkpt>
      <trkpt lat="46.64737" lon="5.74986">
        <ele>489</ele>
        <time>2021-10-25T12:38:44Z</time>
      </trkpt>
      <trkpt lat="46.64731" lon="5.74991">
        <ele>489.2</ele>
        <time>2021-10-25T12:38:46Z</time>
      </trkpt>
      <trkpt lat="46.64714" lon="5.75003">
        <ele>490.8</ele>
        <time>2021-10-25T12:38:51Z</time>
      </trkpt>
      <trkpt lat="46.64695" lon="5.75013">
        <ele>491.8</ele>
        <time>2021-10-25T12:38:57Z</time>
      </trkpt>
      <trkpt lat="46.6467" lon="5.75012">
        <ele>492.8</ele>
        <time>2021-10-25T12:39:03Z</time>
      </trkpt>
      <trkpt lat="46.64666" lon="5.75012">
        <ele>492.8</ele>
        <time>2021-10-25T12:39:04Z</time>
      </trkpt>
      <trkpt lat="46.64625" lon="5.75016">
        <ele>493.6</ele>
        <time>2021-10-25T12:39:12Z</time>
      </trkpt>
      <trkpt lat="46.64588" lon="5.7502">
        <ele>493.4</ele>
        <time>2021-10-25T12:39:19Z</time>
      </trkpt>
      <trkpt lat="46.64554" lon="5.75025">
        <ele>493.4</ele>
        <time>2021-10-25T12:39:25Z</time>
      </trkpt>
      <trkpt lat="46.64505" lon="5.75027">
        <ele>493.4</ele>
        <time>2021-10-25T12:39:33Z</time>
      </trkpt>
      <trkpt lat="46.64473" lon="5.75029">
        <ele>492.6</ele>
        <time>2021-10-25T12:39:38Z</time>
      </trkpt>
      <trkpt lat="46.64462" lon="5.75034">
        <ele>492.4</ele>
        <time>2021-10-25T12:39:40Z</time>
      </trkpt>
      <trkpt lat="46.64452" lon="5.75045">
        <ele>492.2</ele>
        <time>2021-10-25T12:39:42Z</time>
      </trkpt>
      <trkpt lat="46.64448" lon="5.75054">
        <ele>492</ele>
        <time>2021-10-25T12:39:43Z</time>
      </trkpt>
      <trkpt lat="46.64444" lon="5.75062">
        <ele>492</ele>
        <time>2021-10-25T12:39:44Z</time>
      </trkpt>
      <trkpt lat="46.64412" lon="5.75125">
        <ele>491.8</ele>
        <time>2021-10-25T12:39:52Z</time>
      </trkpt>
      <trkpt lat="46.64373" lon="5.75189">
        <ele>492.8</ele>
        <time>2021-10-25T12:40:01Z</time>
      </trkpt>
      <trkpt lat="46.64359" lon="5.75209">
        <ele>493</ele>
        <time>2021-10-25T12:40:04Z</time>
      </trkpt>
      <trkpt lat="46.64337" lon="5.75242">
        <ele>493.8</ele>
        <time>2021-10-25T12:40:09Z</time>
      </trkpt>
      <trkpt lat="46.64318" lon="5.75275">
        <ele>494.2</ele>
        <time>2021-10-25T12:40:14Z</time>
      </trkpt>
      <trkpt lat="46.64313" lon="5.75282">
        <ele>494.2</ele>
        <time>2021-10-25T12:40:15Z</time>
      </trkpt>
      <trkpt lat="46.64293" lon="5.75311">
        <ele>495.4</ele>
        <time>2021-10-25T12:40:21Z</time>
      </trkpt>
      <trkpt lat="46.64278" lon="5.75341">
        <ele>496</ele>
        <time>2021-10-25T12:40:26Z</time>
      </trkpt>
      <trkpt lat="46.64274" lon="5.75346">
        <ele>496</ele>
        <time>2021-10-25T12:40:27Z</time>
      </trkpt>
      <trkpt lat="46.64267" lon="5.75353">
        <ele>496.2</ele>
        <time>2021-10-25T12:40:29Z</time>
      </trkpt>
      <trkpt lat="46.64263" lon="5.75355">
        <ele>496.4</ele>
        <time>2021-10-25T12:40:30Z</time>
      </trkpt>
      <trkpt lat="46.64251" lon="5.75358">
        <ele>498</ele>
        <time>2021-10-25T12:40:33Z</time>
      </trkpt>
      <trkpt lat="46.64245" lon="5.75358">
        <ele>498.4</ele>
        <time>2021-10-25T12:40:35Z</time>
      </trkpt>
      <trkpt lat="46.64235" lon="5.75358">
        <ele>499</ele>
        <time>2021-10-25T12:40:38Z</time>
      </trkpt>
      <trkpt lat="46.64229" lon="5.75355">
        <ele>499.8</ele>
        <time>2021-10-25T12:40:40Z</time>
      </trkpt>
      <trkpt lat="46.64226" lon="5.75353">
        <ele>500</ele>
        <time>2021-10-25T12:40:41Z</time>
      </trkpt>
      <trkpt lat="46.64209" lon="5.75346">
        <ele>501.4</ele>
        <time>2021-10-25T12:40:46Z</time>
      </trkpt>
      <trkpt lat="46.64205" lon="5.75345">
        <ele>501.8</ele>
        <time>2021-10-25T12:40:47Z</time>
      </trkpt>
      <trkpt lat="46.6419" lon="5.7534">
        <ele>502.4</ele>
        <time>2021-10-25T12:40:51Z</time>
      </trkpt>
      <trkpt lat="46.64182" lon="5.75336">
        <ele>502.8</ele>
        <time>2021-10-25T12:40:53Z</time>
      </trkpt>
      <trkpt lat="46.64171" lon="5.7533">
        <ele>503.8</ele>
        <time>2021-10-25T12:40:56Z</time>
      </trkpt>
      <trkpt lat="46.64157" lon="5.75322">
        <ele>504.4</ele>
        <time>2021-10-25T12:40:59Z</time>
      </trkpt>
      <trkpt lat="46.64142" lon="5.75314">
        <ele>505</ele>
        <time>2021-10-25T12:41:03Z</time>
      </trkpt>
      <trkpt lat="46.64136" lon="5.7531">
        <ele>505.2</ele>
        <time>2021-10-25T12:41:05Z</time>
      </trkpt>
      <trkpt lat="46.64121" lon="5.75299">
        <ele>506</ele>
        <time>2021-10-25T12:41:09Z</time>
      </trkpt>
      <trkpt lat="46.64115" lon="5.75295">
        <ele>506.6</ele>
        <time>2021-10-25T12:41:11Z</time>
      </trkpt>
      <trkpt lat="46.64112" lon="5.75293">
        <ele>507</ele>
        <time>2021-10-25T12:41:12Z</time>
      </trkpt>
      <trkpt lat="46.64097" lon="5.75284">
        <ele>508.2</ele>
        <time>2021-10-25T12:41:17Z</time>
      </trkpt>
      <trkpt lat="46.64095" lon="5.75284">
        <ele>508.2</ele>
        <time>2021-10-25T12:41:18Z</time>
      </trkpt>
      <trkpt lat="46.64077" lon="5.75274">
        <ele>509.4</ele>
        <time>2021-10-25T12:41:24Z</time>
      </trkpt>
      <trkpt lat="46.6406" lon="5.75261">
        <ele>510</ele>
        <time>2021-10-25T12:41:29Z</time>
      </trkpt>
      <trkpt lat="46.64052" lon="5.75255">
        <ele>510.4</ele>
        <time>2021-10-25T12:41:31Z</time>
      </trkpt>
      <trkpt lat="46.64034" lon="5.75242">
        <ele>510.8</ele>
        <time>2021-10-25T12:41:36Z</time>
      </trkpt>
      <trkpt lat="46.64023" lon="5.75236">
        <ele>511.4</ele>
        <time>2021-10-25T12:41:39Z</time>
      </trkpt>
      <trkpt lat="46.64012" lon="5.7523">
        <ele>512.4</ele>
        <time>2021-10-25T12:41:42Z</time>
      </trkpt>
      <trkpt lat="46.64004" lon="5.75228">
        <ele>513</ele>
        <time>2021-10-25T12:41:44Z</time>
      </trkpt>
      <trkpt lat="46.63992" lon="5.75225">
        <ele>513.6</ele>
        <time>2021-10-25T12:41:47Z</time>
      </trkpt>
      <trkpt lat="46.63986" lon="5.75224">
        <ele>513.8</ele>
        <time>2021-10-25T12:41:49Z</time>
      </trkpt>
      <trkpt lat="46.63972" lon="5.75222">
        <ele>514.6</ele>
        <time>2021-10-25T12:41:53Z</time>
      </trkpt>
      <trkpt lat="46.63967" lon="5.75222">
        <ele>514.8</ele>
        <time>2021-10-25T12:41:54Z</time>
      </trkpt>
      <trkpt lat="46.63963" lon="5.7522">
        <ele>515</ele>
        <time>2021-10-25T12:41:55Z</time>
      </trkpt>
      <trkpt lat="46.63958" lon="5.75218">
        <ele>515.2</ele>
        <time>2021-10-25T12:41:56Z</time>
      </trkpt>
      <trkpt lat="46.63949" lon="5.75214">
        <ele>515.8</ele>
        <time>2021-10-25T12:41:58Z</time>
      </trkpt>
      <trkpt lat="46.63938" lon="5.75209">
        <ele>516</ele>
        <time>2021-10-25T12:42:00Z</time>
      </trkpt>
      <trkpt lat="46.63896" lon="5.75192">
        <ele>515.6</ele>
        <time>2021-10-25T12:42:07Z</time>
      </trkpt>
      <trkpt lat="46.63857" lon="5.75178">
        <ele>515.2</ele>
        <time>2021-10-25T12:42:13Z</time>
      </trkpt>
      <trkpt lat="46.6385" lon="5.75176">
        <ele>514.8</ele>
        <time>2021-10-25T12:42:14Z</time>
      </trkpt>
      <trkpt lat="46.63821" lon="5.75171">
        <ele>514.4</ele>
        <time>2021-10-25T12:42:18Z</time>
      </trkpt>
      <trkpt lat="46.63782" lon="5.75171">
        <ele>513.4</ele>
        <time>2021-10-25T12:42:23Z</time>
      </trkpt>
      <trkpt lat="46.63768" lon="5.75172">
        <ele>513.2</ele>
        <time>2021-10-25T12:42:25Z</time>
      </trkpt>
      <trkpt lat="46.63746" lon="5.75177">
        <ele>512.2</ele>
        <time>2021-10-25T12:42:28Z</time>
      </trkpt>
      <trkpt lat="46.63724" lon="5.75187">
        <ele>512.2</ele>
        <time>2021-10-25T12:42:31Z</time>
      </trkpt>
      <trkpt lat="46.63689" lon="5.75214">
        <ele>512</ele>
        <time>2021-10-25T12:42:36Z</time>
      </trkpt>
      <trkpt lat="46.63652" lon="5.75248">
        <ele>511.4</ele>
        <time>2021-10-25T12:42:42Z</time>
      </trkpt>
      <trkpt lat="46.63639" lon="5.7526">
        <ele>511.2</ele>
        <time>2021-10-25T12:42:44Z</time>
      </trkpt>
      <trkpt lat="46.63619" lon="5.75278">
        <ele>510.8</ele>
        <time>2021-10-25T12:42:47Z</time>
      </trkpt>
      <trkpt lat="46.63606" lon="5.75288">
        <ele>510.2</ele>
        <time>2021-10-25T12:42:49Z</time>
      </trkpt>
      <trkpt lat="46.63598" lon="5.75292">
        <ele>510</ele>
        <time>2021-10-25T12:42:50Z</time>
      </trkpt>
      <trkpt lat="46.6359" lon="5.75295">
        <ele>509.8</ele>
        <time>2021-10-25T12:42:51Z</time>
      </trkpt>
      <trkpt lat="46.63582" lon="5.75296">
        <ele>509.8</ele>
        <time>2021-10-25T12:42:52Z</time>
      </trkpt>
      <trkpt lat="46.63565" lon="5.75294">
        <ele>509.6</ele>
        <time>2021-10-25T12:42:54Z</time>
      </trkpt>
      <trkpt lat="46.63552" lon="5.75285">
        <ele>509.2</ele>
        <time>2021-10-25T12:42:56Z</time>
      </trkpt>
      <trkpt lat="46.63546" lon="5.75279">
        <ele>509</ele>
        <time>2021-10-25T12:42:57Z</time>
      </trkpt>
      <trkpt lat="46.63503" lon="5.7523">
        <ele>509</ele>
        <time>2021-10-25T12:43:04Z</time>
      </trkpt>
      <trkpt lat="46.63497" lon="5.75222">
        <ele>509.2</ele>
        <time>2021-10-25T12:43:05Z</time>
      </trkpt>
      <trkpt lat="46.63479" lon="5.752">
        <ele>509.2</ele>
        <time>2021-10-25T12:43:08Z</time>
      </trkpt>
      <trkpt lat="46.6347" lon="5.75183">
        <ele>509</ele>
        <time>2021-10-25T12:43:10Z</time>
      </trkpt>
      <trkpt lat="46.63466" lon="5.75173">
        <ele>509</ele>
        <time>2021-10-25T12:43:11Z</time>
      </trkpt>
      <trkpt lat="46.63463" lon="5.75163">
        <ele>509</ele>
        <time>2021-10-25T12:43:12Z</time>
      </trkpt>
      <trkpt lat="46.6346" lon="5.75142">
        <ele>509</ele>
        <time>2021-10-25T12:43:14Z</time>
      </trkpt>
      <trkpt lat="46.63452" lon="5.75068">
        <ele>509.2</ele>
        <time>2021-10-25T12:43:21Z</time>
      </trkpt>
      <trkpt lat="46.63443" lon="5.74985">
        <ele>509.6</ele>
        <time>2021-10-25T12:43:29Z</time>
      </trkpt>
      <trkpt lat="46.6344" lon="5.74975">
        <ele>509.6</ele>
        <time>2021-10-25T12:43:30Z</time>
      </trkpt>
      <trkpt lat="46.63429" lon="5.74914">
        <ele>509.8</ele>
        <time>2021-10-25T12:43:36Z</time>
      </trkpt>
      <trkpt lat="46.63427" lon="5.74905">
        <ele>510</ele>
        <time>2021-10-25T12:43:37Z</time>
      </trkpt>
      <trkpt lat="46.63424" lon="5.74896">
        <ele>510</ele>
        <time>2021-10-25T12:43:38Z</time>
      </trkpt>
      <trkpt lat="46.6342" lon="5.74883">
        <ele>510</ele>
        <time>2021-10-25T12:43:40Z</time>
      </trkpt>
      <trkpt lat="46.63417" lon="5.74878">
        <ele>510</ele>
        <time>2021-10-25T12:43:41Z</time>
      </trkpt>
      <trkpt lat="46.63412" lon="5.74871">
        <ele>510.2</ele>
        <time>2021-10-25T12:43:42Z</time>
      </trkpt>
      <trkpt lat="46.63398" lon="5.74854">
        <ele>510.2</ele>
        <time>2021-10-25T12:43:45Z</time>
      </trkpt>
      <trkpt lat="46.63392" lon="5.74849">
        <ele>510.2</ele>
        <time>2021-10-25T12:43:46Z</time>
      </trkpt>
      <trkpt lat="46.63375" lon="5.7484">
        <ele>510.6</ele>
        <time>2021-10-25T12:43:49Z</time>
      </trkpt>
      <trkpt lat="46.63364" lon="5.74838">
        <ele>510.8</ele>
        <time>2021-10-25T12:43:51Z</time>
      </trkpt>
      <trkpt lat="46.63346" lon="5.74837">
        <ele>511.4</ele>
        <time>2021-10-25T12:43:54Z</time>
      </trkpt>
      <trkpt lat="46.63334" lon="5.74836">
        <ele>511.8</ele>
        <time>2021-10-25T12:43:57Z</time>
      </trkpt>
      <trkpt lat="46.63294" lon="5.74837">
        <ele>512.6</ele>
        <time>2021-10-25T12:44:03Z</time>
      </trkpt>
      <trkpt lat="46.63282" lon="5.74839">
        <ele>513</ele>
        <time>2021-10-25T12:44:05Z</time>
      </trkpt>
      <trkpt lat="46.63253" lon="5.74845">
        <ele>513.6</ele>
        <time>2021-10-25T12:44:10Z</time>
      </trkpt>
      <trkpt lat="46.63242" lon="5.74848">
        <ele>514</ele>
        <time>2021-10-25T12:44:12Z</time>
      </trkpt>
      <trkpt lat="46.63212" lon="5.74856">
        <ele>514.8</ele>
        <time>2021-10-25T12:44:17Z</time>
      </trkpt>
      <trkpt lat="46.63201" lon="5.74859">
        <ele>515.2</ele>
        <time>2021-10-25T12:44:19Z</time>
      </trkpt>
      <trkpt lat="46.63168" lon="5.74869">
        <ele>516.2</ele>
        <time>2021-10-25T12:44:25Z</time>
      </trkpt>
      <trkpt lat="46.63163" lon="5.74871">
        <ele>516.6</ele>
        <time>2021-10-25T12:44:26Z</time>
      </trkpt>
      <trkpt lat="46.63137" lon="5.74879">
        <ele>517.4</ele>
        <time>2021-10-25T12:44:31Z</time>
      </trkpt>
      <trkpt lat="46.63127" lon="5.74882">
        <ele>517.6</ele>
        <time>2021-10-25T12:44:33Z</time>
      </trkpt>
      <trkpt lat="46.63096" lon="5.74892">
        <ele>518.4</ele>
        <time>2021-10-25T12:44:39Z</time>
      </trkpt>
      <trkpt lat="46.63086" lon="5.74897">
        <ele>518.8</ele>
        <time>2021-10-25T12:44:41Z</time>
      </trkpt>
      <trkpt lat="46.6306" lon="5.7491">
        <ele>519.4</ele>
        <time>2021-10-25T12:44:46Z</time>
      </trkpt>
      <trkpt lat="46.63045" lon="5.74918">
        <ele>519.8</ele>
        <time>2021-10-25T12:44:49Z</time>
      </trkpt>
      <trkpt lat="46.63026" lon="5.74929">
        <ele>520.6</ele>
        <time>2021-10-25T12:44:53Z</time>
      </trkpt>
      <trkpt lat="46.63005" lon="5.74941">
        <ele>521.2</ele>
        <time>2021-10-25T12:44:57Z</time>
      </trkpt>
      <trkpt lat="46.62995" lon="5.74946">
        <ele>521.6</ele>
        <time>2021-10-25T12:44:59Z</time>
      </trkpt>
      <trkpt lat="46.62968" lon="5.74955">
        <ele>522.2</ele>
        <time>2021-10-25T12:45:04Z</time>
      </trkpt>
      <trkpt lat="46.62963" lon="5.74956">
        <ele>522.4</ele>
        <time>2021-10-25T12:45:05Z</time>
      </trkpt>
      <trkpt lat="46.62953" lon="5.74958">
        <ele>522.8</ele>
        <time>2021-10-25T12:45:07Z</time>
      </trkpt>
      <trkpt lat="46.62937" lon="5.74962">
        <ele>523.4</ele>
        <time>2021-10-25T12:45:10Z</time>
      </trkpt>
      <trkpt lat="46.62926" lon="5.74965">
        <ele>523.8</ele>
        <time>2021-10-25T12:45:12Z</time>
      </trkpt>
      <trkpt lat="46.62907" lon="5.7497">
        <ele>524.6</ele>
        <time>2021-10-25T12:45:16Z</time>
      </trkpt>
      <trkpt lat="46.62901" lon="5.74972">
        <ele>525</ele>
        <time>2021-10-25T12:45:17Z</time>
      </trkpt>
      <trkpt lat="46.62868" lon="5.74981">
        <ele>526</ele>
        <time>2021-10-25T12:45:23Z</time>
      </trkpt>
      <trkpt lat="46.62829" lon="5.74996">
        <ele>526.8</ele>
        <time>2021-10-25T12:45:30Z</time>
      </trkpt>
      <trkpt lat="46.62813" lon="5.75005">
        <ele>527</ele>
        <time>2021-10-25T12:45:33Z</time>
      </trkpt>
      <trkpt lat="46.62791" lon="5.7502">
        <ele>527.2</ele>
        <time>2021-10-25T12:45:37Z</time>
      </trkpt>
      <trkpt lat="46.62749" lon="5.75058">
        <ele>527.6</ele>
        <time>2021-10-25T12:45:45Z</time>
      </trkpt>
      <trkpt lat="46.62701" lon="5.75103">
        <ele>528</ele>
        <time>2021-10-25T12:45:54Z</time>
      </trkpt>
      <trkpt lat="46.62695" lon="5.75108">
        <ele>528.2</ele>
        <time>2021-10-25T12:45:55Z</time>
      </trkpt>
      <trkpt lat="46.62653" lon="5.75147">
        <ele>528.6</ele>
        <time>2021-10-25T12:46:02Z</time>
      </trkpt>
      <trkpt lat="46.62637" lon="5.75165">
        <ele>528.4</ele>
        <time>2021-10-25T12:46:05Z</time>
      </trkpt>
      <trkpt lat="46.62627" lon="5.7518">
        <ele>528.4</ele>
        <time>2021-10-25T12:46:07Z</time>
      </trkpt>
      <trkpt lat="46.62593" lon="5.75224">
        <ele>529.4</ele>
        <time>2021-10-25T12:46:14Z</time>
      </trkpt>
      <trkpt lat="46.62589" lon="5.75228">
        <ele>529.6</ele>
        <time>2021-10-25T12:46:15Z</time>
      </trkpt>
      <trkpt lat="46.62545" lon="5.75275">
        <ele>529.8</ele>
        <time>2021-10-25T12:46:23Z</time>
      </trkpt>
      <trkpt lat="46.62513" lon="5.75292">
        <ele>529.8</ele>
        <time>2021-10-25T12:46:28Z</time>
      </trkpt>
      <trkpt lat="46.625" lon="5.75292">
        <ele>529.8</ele>
        <time>2021-10-25T12:46:30Z</time>
      </trkpt>
      <trkpt lat="46.62493" lon="5.7529">
        <ele>529.6</ele>
        <time>2021-10-25T12:46:31Z</time>
      </trkpt>
      <trkpt lat="46.62487" lon="5.75286">
        <ele>529.8</ele>
        <time>2021-10-25T12:46:32Z</time>
      </trkpt>
      <trkpt lat="46.62458" lon="5.75266">
        <ele>530.2</ele>
        <time>2021-10-25T12:46:37Z</time>
      </trkpt>
      <trkpt lat="46.6242" lon="5.75248">
        <ele>530.6</ele>
        <time>2021-10-25T12:46:43Z</time>
      </trkpt>
      <trkpt lat="46.62392" lon="5.75239">
        <ele>530.8</ele>
        <time>2021-10-25T12:46:47Z</time>
      </trkpt>
      <trkpt lat="46.62379" lon="5.75228">
        <ele>530.8</ele>
        <time>2021-10-25T12:46:49Z</time>
      </trkpt>
      <trkpt lat="46.62368" lon="5.75213">
        <ele>530.8</ele>
        <time>2021-10-25T12:46:51Z</time>
      </trkpt>
      <trkpt lat="46.62359" lon="5.75195">
        <ele>530.6</ele>
        <time>2021-10-25T12:46:53Z</time>
      </trkpt>
      <trkpt lat="46.62355" lon="5.75186">
        <ele>530.6</ele>
        <time>2021-10-25T12:46:54Z</time>
      </trkpt>
      <trkpt lat="46.62347" lon="5.75156">
        <ele>530.2</ele>
        <time>2021-10-25T12:46:57Z</time>
      </trkpt>
      <trkpt lat="46.62332" lon="5.7508">
        <ele>529.6</ele>
        <time>2021-10-25T12:47:04Z</time>
      </trkpt>
      <trkpt lat="46.6233" lon="5.75069">
        <ele>529.4</ele>
        <time>2021-10-25T12:47:05Z</time>
      </trkpt>
      <trkpt lat="46.62316" lon="5.74992">
        <ele>529.2</ele>
        <time>2021-10-25T12:47:12Z</time>
      </trkpt>
      <trkpt lat="46.62309" lon="5.74959">
        <ele>529</ele>
        <time>2021-10-25T12:47:15Z</time>
      </trkpt>
      <trkpt lat="46.62299" lon="5.74913">
        <ele>528.4</ele>
        <time>2021-10-25T12:47:19Z</time>
      </trkpt>
      <trkpt lat="46.6229" lon="5.74872">
        <ele>527.2</ele>
        <time>2021-10-25T12:47:23Z</time>
      </trkpt>
      <trkpt lat="46.6227" lon="5.7481">
        <ele>526.6</ele>
        <time>2021-10-25T12:47:29Z</time>
      </trkpt>
      <trkpt lat="46.62238" lon="5.74748">
        <ele>526.6</ele>
        <time>2021-10-25T12:47:36Z</time>
      </trkpt>
      <trkpt lat="46.62233" lon="5.74739">
        <ele>526.6</ele>
        <time>2021-10-25T12:47:37Z</time>
      </trkpt>
      <trkpt lat="46.62208" lon="5.74696">
        <ele>526.8</ele>
        <time>2021-10-25T12:47:42Z</time>
      </trkpt>
      <trkpt lat="46.62172" lon="5.74637">
        <ele>526.8</ele>
        <time>2021-10-25T12:47:49Z</time>
      </trkpt>
      <trkpt lat="46.62156" lon="5.74612">
        <ele>526.6</ele>
        <time>2021-10-25T12:47:52Z</time>
      </trkpt>
      <trkpt lat="46.62136" lon="5.74579">
        <ele>526.4</ele>
        <time>2021-10-25T12:47:56Z</time>
      </trkpt>
      <trkpt lat="46.62099" lon="5.74523">
        <ele>526.2</ele>
        <time>2021-10-25T12:48:03Z</time>
      </trkpt>
      <trkpt lat="46.62074" lon="5.74493">
        <ele>525.4</ele>
        <time>2021-10-25T12:48:07Z</time>
      </trkpt>
      <trkpt lat="46.62066" lon="5.74487">
        <ele>525.2</ele>
        <time>2021-10-25T12:48:08Z</time>
      </trkpt>
      <trkpt lat="46.62043" lon="5.74468">
        <ele>524</ele>
        <time>2021-10-25T12:48:11Z</time>
      </trkpt>
      <trkpt lat="46.62027" lon="5.74455">
        <ele>523.4</ele>
        <time>2021-10-25T12:48:13Z</time>
      </trkpt>
      <trkpt lat="46.62019" lon="5.74449">
        <ele>522.8</ele>
        <time>2021-10-25T12:48:14Z</time>
      </trkpt>
      <trkpt lat="46.62002" lon="5.74435">
        <ele>522</ele>
        <time>2021-10-25T12:48:16Z</time>
      </trkpt>
      <trkpt lat="46.61976" lon="5.74412">
        <ele>521.2</ele>
        <time>2021-10-25T12:48:19Z</time>
      </trkpt>
      <trkpt lat="46.6196" lon="5.74393">
        <ele>520.6</ele>
        <time>2021-10-25T12:48:21Z</time>
      </trkpt>
      <trkpt lat="46.61945" lon="5.7437">
        <ele>519.4</ele>
        <time>2021-10-25T12:48:23Z</time>
      </trkpt>
      <trkpt lat="46.61932" lon="5.74345">
        <ele>518.4</ele>
        <time>2021-10-25T12:48:25Z</time>
      </trkpt>
      <trkpt lat="46.6192" lon="5.74317">
        <ele>517.2</ele>
        <time>2021-10-25T12:48:27Z</time>
      </trkpt>
      <trkpt lat="46.6191" lon="5.74287">
        <ele>516.2</ele>
        <time>2021-10-25T12:48:29Z</time>
      </trkpt>
      <trkpt lat="46.61901" lon="5.74255">
        <ele>515</ele>
        <time>2021-10-25T12:48:31Z</time>
      </trkpt>
      <trkpt lat="46.61896" lon="5.74239">
        <ele>514.4</ele>
        <time>2021-10-25T12:48:32Z</time>
      </trkpt>
      <trkpt lat="46.6189" lon="5.74224">
        <ele>514.2</ele>
        <time>2021-10-25T12:48:33Z</time>
      </trkpt>
      <trkpt lat="46.61883" lon="5.7421">
        <ele>513.8</ele>
        <time>2021-10-25T12:48:34Z</time>
      </trkpt>
      <trkpt lat="46.61868" lon="5.74183">
        <ele>512.8</ele>
        <time>2021-10-25T12:48:36Z</time>
      </trkpt>
      <trkpt lat="46.61859" lon="5.74167">
        <ele>512.4</ele>
        <time>2021-10-25T12:48:37Z</time>
      </trkpt>
      <trkpt lat="46.6183" lon="5.74118">
        <ele>511</ele>
        <time>2021-10-25T12:48:41Z</time>
      </trkpt>
      <trkpt lat="46.61807" lon="5.74081">
        <ele>509</ele>
        <time>2021-10-25T12:48:44Z</time>
      </trkpt>
      <trkpt lat="46.618" lon="5.74068">
        <ele>508.8</ele>
        <time>2021-10-25T12:48:45Z</time>
      </trkpt>
      <trkpt lat="46.61792" lon="5.74056">
        <ele>508</ele>
        <time>2021-10-25T12:48:46Z</time>
      </trkpt>
      <trkpt lat="46.61777" lon="5.74031">
        <ele>506.8</ele>
        <time>2021-10-25T12:48:48Z</time>
      </trkpt>
      <trkpt lat="46.61763" lon="5.74006">
        <ele>505.8</ele>
        <time>2021-10-25T12:48:50Z</time>
      </trkpt>
      <trkpt lat="46.61747" lon="5.73983">
        <ele>505</ele>
        <time>2021-10-25T12:48:52Z</time>
      </trkpt>
      <trkpt lat="46.61739" lon="5.73972">
        <ele>504.8</ele>
        <time>2021-10-25T12:48:53Z</time>
      </trkpt>
      <trkpt lat="46.6173" lon="5.73963">
        <ele>504.8</ele>
        <time>2021-10-25T12:48:54Z</time>
      </trkpt>
      <trkpt lat="46.61721" lon="5.73955">
        <ele>504.6</ele>
        <time>2021-10-25T12:48:55Z</time>
      </trkpt>
      <trkpt lat="46.61712" lon="5.73948">
        <ele>504.6</ele>
        <time>2021-10-25T12:48:56Z</time>
      </trkpt>
      <trkpt lat="46.61658" lon="5.73914">
        <ele>503.6</ele>
        <time>2021-10-25T12:49:02Z</time>
      </trkpt>
      <trkpt lat="46.61633" lon="5.73892">
        <ele>502.4</ele>
        <time>2021-10-25T12:49:05Z</time>
      </trkpt>
      <trkpt lat="46.61617" lon="5.73874">
        <ele>502.2</ele>
        <time>2021-10-25T12:49:07Z</time>
      </trkpt>
      <trkpt lat="46.61574" lon="5.73813">
        <ele>501.2</ele>
        <time>2021-10-25T12:49:13Z</time>
      </trkpt>
      <trkpt lat="46.61567" lon="5.73803">
        <ele>500.6</ele>
        <time>2021-10-25T12:49:14Z</time>
      </trkpt>
      <trkpt lat="46.61552" lon="5.73783">
        <ele>500</ele>
        <time>2021-10-25T12:49:16Z</time>
      </trkpt>
      <trkpt lat="46.61515" lon="5.73733">
        <ele>498.8</ele>
        <time>2021-10-25T12:49:21Z</time>
      </trkpt>
      <trkpt lat="46.61507" lon="5.73722">
        <ele>498.6</ele>
        <time>2021-10-25T12:49:22Z</time>
      </trkpt>
      <trkpt lat="46.61487" lon="5.73683">
        <ele>497.6</ele>
        <time>2021-10-25T12:49:25Z</time>
      </trkpt>
      <trkpt lat="46.6147" lon="5.73645">
        <ele>496.4</ele>
        <time>2021-10-25T12:49:28Z</time>
      </trkpt>
      <trkpt lat="46.61454" lon="5.73606">
        <ele>495</ele>
        <time>2021-10-25T12:49:31Z</time>
      </trkpt>
      <trkpt lat="46.61438" lon="5.73567">
        <ele>493.8</ele>
        <time>2021-10-25T12:49:34Z</time>
      </trkpt>
      <trkpt lat="46.61433" lon="5.73557">
        <ele>493.4</ele>
        <time>2021-10-25T12:49:35Z</time>
      </trkpt>
      <trkpt lat="46.61413" lon="5.73519">
        <ele>492.8</ele>
        <time>2021-10-25T12:49:38Z</time>
      </trkpt>
      <trkpt lat="46.61406" lon="5.73508">
        <ele>492.2</ele>
        <time>2021-10-25T12:49:39Z</time>
      </trkpt>
      <trkpt lat="46.61399" lon="5.73498">
        <ele>492</ele>
        <time>2021-10-25T12:49:40Z</time>
      </trkpt>
      <trkpt lat="46.61391" lon="5.73489">
        <ele>491.8</ele>
        <time>2021-10-25T12:49:41Z</time>
      </trkpt>
      <trkpt lat="46.61365" lon="5.73465">
        <ele>490.6</ele>
        <time>2021-10-25T12:49:44Z</time>
      </trkpt>
      <trkpt lat="46.61357" lon="5.73458">
        <ele>490.4</ele>
        <time>2021-10-25T12:49:45Z</time>
      </trkpt>
      <trkpt lat="46.61339" lon="5.73444">
        <ele>489.6</ele>
        <time>2021-10-25T12:49:47Z</time>
      </trkpt>
      <trkpt lat="46.61304" lon="5.73413">
        <ele>488.4</ele>
        <time>2021-10-25T12:49:51Z</time>
      </trkpt>
      <trkpt lat="46.61288" lon="5.73393">
        <ele>487.2</ele>
        <time>2021-10-25T12:49:53Z</time>
      </trkpt>
      <trkpt lat="46.61266" lon="5.73361">
        <ele>486</ele>
        <time>2021-10-25T12:49:56Z</time>
      </trkpt>
      <trkpt lat="46.61245" lon="5.73328">
        <ele>485.6</ele>
        <time>2021-10-25T12:49:59Z</time>
      </trkpt>
      <trkpt lat="46.61225" lon="5.73296">
        <ele>485</ele>
        <time>2021-10-25T12:50:02Z</time>
      </trkpt>
      <trkpt lat="46.61212" lon="5.73274">
        <ele>484.4</ele>
        <time>2021-10-25T12:50:04Z</time>
      </trkpt>
      <trkpt lat="46.61202" lon="5.7325">
        <ele>483.8</ele>
        <time>2021-10-25T12:50:06Z</time>
      </trkpt>
      <trkpt lat="46.61193" lon="5.73224">
        <ele>483.2</ele>
        <time>2021-10-25T12:50:08Z</time>
      </trkpt>
      <trkpt lat="46.61184" lon="5.73197">
        <ele>482.6</ele>
        <time>2021-10-25T12:50:10Z</time>
      </trkpt>
      <trkpt lat="46.6116" lon="5.73133">
        <ele>481.6</ele>
        <time>2021-10-25T12:50:15Z</time>
      </trkpt>
      <trkpt lat="46.61154" lon="5.73121">
        <ele>481.4</ele>
        <time>2021-10-25T12:50:16Z</time>
      </trkpt>
      <trkpt lat="46.61147" lon="5.73111">
        <ele>480.8</ele>
        <time>2021-10-25T12:50:17Z</time>
      </trkpt>
      <trkpt lat="46.61139" lon="5.73101">
        <ele>480</ele>
        <time>2021-10-25T12:50:18Z</time>
      </trkpt>
      <trkpt lat="46.61124" lon="5.73084">
        <ele>479.6</ele>
        <time>2021-10-25T12:50:20Z</time>
      </trkpt>
      <trkpt lat="46.61108" lon="5.73066">
        <ele>479.6</ele>
        <time>2021-10-25T12:50:22Z</time>
      </trkpt>
      <trkpt lat="46.61068" lon="5.73026">
        <ele>478.8</ele>
        <time>2021-10-25T12:50:27Z</time>
      </trkpt>
      <trkpt lat="46.61053" lon="5.73011">
        <ele>478.4</ele>
        <time>2021-10-25T12:50:29Z</time>
      </trkpt>
      <trkpt lat="46.6103" lon="5.72987">
        <ele>477.4</ele>
        <time>2021-10-25T12:50:32Z</time>
      </trkpt>
      <trkpt lat="46.60989" lon="5.72945">
        <ele>476.6</ele>
        <time>2021-10-25T12:50:37Z</time>
      </trkpt>
      <trkpt lat="46.6098" lon="5.72937">
        <ele>476.4</ele>
        <time>2021-10-25T12:50:38Z</time>
      </trkpt>
      <trkpt lat="46.60971" lon="5.7293">
        <ele>475.6</ele>
        <time>2021-10-25T12:50:39Z</time>
      </trkpt>
      <trkpt lat="46.60962" lon="5.72924">
        <ele>475.4</ele>
        <time>2021-10-25T12:50:40Z</time>
      </trkpt>
      <trkpt lat="46.60951" lon="5.7292">
        <ele>474.2</ele>
        <time>2021-10-25T12:50:41Z</time>
      </trkpt>
      <trkpt lat="46.60941" lon="5.72918">
        <ele>472.6</ele>
        <time>2021-10-25T12:50:42Z</time>
      </trkpt>
      <trkpt lat="46.6093" lon="5.72918">
        <ele>472</ele>
        <time>2021-10-25T12:50:43Z</time>
      </trkpt>
      <trkpt lat="46.60919" lon="5.7292">
        <ele>471.4</ele>
        <time>2021-10-25T12:50:44Z</time>
      </trkpt>
      <trkpt lat="46.60908" lon="5.72924">
        <ele>471.2</ele>
        <time>2021-10-25T12:50:45Z</time>
      </trkpt>
      <trkpt lat="46.60878" lon="5.7294">
        <ele>469.6</ele>
        <time>2021-10-25T12:50:48Z</time>
      </trkpt>
      <trkpt lat="46.60859" lon="5.72951">
        <ele>468.2</ele>
        <time>2021-10-25T12:50:50Z</time>
      </trkpt>
      <trkpt lat="46.60822" lon="5.72974">
        <ele>467.4</ele>
        <time>2021-10-25T12:50:54Z</time>
      </trkpt>
      <trkpt lat="46.60787" lon="5.72991">
        <ele>466.6</ele>
        <time>2021-10-25T12:50:58Z</time>
      </trkpt>
      <trkpt lat="46.60778" lon="5.72993">
        <ele>466.6</ele>
        <time>2021-10-25T12:50:59Z</time>
      </trkpt>
      <trkpt lat="46.6076" lon="5.72993">
        <ele>466.4</ele>
        <time>2021-10-25T12:51:01Z</time>
      </trkpt>
      <trkpt lat="46.60743" lon="5.72989">
        <ele>466.4</ele>
        <time>2021-10-25T12:51:03Z</time>
      </trkpt>
      <trkpt lat="46.60707" lon="5.72967">
        <ele>467</ele>
        <time>2021-10-25T12:51:08Z</time>
      </trkpt>
      <trkpt lat="46.60664" lon="5.72939">
        <ele>468</ele>
        <time>2021-10-25T12:51:15Z</time>
      </trkpt>
      <trkpt lat="46.60658" lon="5.72935">
        <ele>468.4</ele>
        <time>2021-10-25T12:51:16Z</time>
      </trkpt>
      <trkpt lat="46.60623" lon="5.72911">
        <ele>468.6</ele>
        <time>2021-10-25T12:51:22Z</time>
      </trkpt>
      <trkpt lat="46.60592" lon="5.72888">
        <ele>469.6</ele>
        <time>2021-10-25T12:51:28Z</time>
      </trkpt>
      <trkpt lat="46.60586" lon="5.72882">
        <ele>469.8</ele>
        <time>2021-10-25T12:51:29Z</time>
      </trkpt>
      <trkpt lat="46.60569" lon="5.72862">
        <ele>470.4</ele>
        <time>2021-10-25T12:51:33Z</time>
      </trkpt>
      <trkpt lat="46.60565" lon="5.72856">
        <ele>470.6</ele>
        <time>2021-10-25T12:51:34Z</time>
      </trkpt>
      <trkpt lat="46.60561" lon="5.72849">
        <ele>470.8</ele>
        <time>2021-10-25T12:51:35Z</time>
      </trkpt>
      <trkpt lat="46.60545" lon="5.72818">
        <ele>471.6</ele>
        <time>2021-10-25T12:51:40Z</time>
      </trkpt>
      <trkpt lat="46.60543" lon="5.72812">
        <ele>472</ele>
        <time>2021-10-25T12:51:41Z</time>
      </trkpt>
      <trkpt lat="46.6054" lon="5.728">
        <ele>472.8</ele>
        <time>2021-10-25T12:51:43Z</time>
      </trkpt>
      <trkpt lat="46.60533" lon="5.72778">
        <ele>474</ele>
        <time>2021-10-25T12:51:47Z</time>
      </trkpt>
      <trkpt lat="46.60531" lon="5.72773">
        <ele>474.2</ele>
        <time>2021-10-25T12:51:48Z</time>
      </trkpt>
      <trkpt lat="46.60522" lon="5.72753">
        <ele>475.2</ele>
        <time>2021-10-25T12:51:52Z</time>
      </trkpt>
      <trkpt lat="46.60511" lon="5.72734">
        <ele>476</ele>
        <time>2021-10-25T12:51:56Z</time>
      </trkpt>
      <trkpt lat="46.60496" lon="5.72716">
        <ele>477.2</ele>
        <time>2021-10-25T12:52:01Z</time>
      </trkpt>
      <trkpt lat="46.60484" lon="5.72704">
        <ele>478.2</ele>
        <time>2021-10-25T12:52:05Z</time>
      </trkpt>
      <trkpt lat="46.60477" lon="5.72698">
        <ele>478.8</ele>
        <time>2021-10-25T12:52:07Z</time>
      </trkpt>
      <trkpt lat="46.60459" lon="5.72685">
        <ele>480</ele>
        <time>2021-10-25T12:52:12Z</time>
      </trkpt>
      <trkpt lat="46.60451" lon="5.7268">
        <ele>480.4</ele>
        <time>2021-10-25T12:52:14Z</time>
      </trkpt>
      <trkpt lat="46.60433" lon="5.72669">
        <ele>481</ele>
        <time>2021-10-25T12:52:19Z</time>
      </trkpt>
      <trkpt lat="46.60427" lon="5.72665">
        <ele>481.2</ele>
        <time>2021-10-25T12:52:21Z</time>
      </trkpt>
      <trkpt lat="46.60412" lon="5.72656">
        <ele>482</ele>
        <time>2021-10-25T12:52:25Z</time>
      </trkpt>
      <trkpt lat="46.60397" lon="5.72646">
        <ele>483</ele>
        <time>2021-10-25T12:52:29Z</time>
      </trkpt>
      <trkpt lat="46.60393" lon="5.72644">
        <ele>483.2</ele>
        <time>2021-10-25T12:52:30Z</time>
      </trkpt>
      <trkpt lat="46.60366" lon="5.72626">
        <ele>484.4</ele>
        <time>2021-10-25T12:52:37Z</time>
      </trkpt>
      <trkpt lat="46.60359" lon="5.72621">
        <ele>484.6</ele>
        <time>2021-10-25T12:52:39Z</time>
      </trkpt>
      <trkpt lat="46.6034" lon="5.72608">
        <ele>485.2</ele>
        <time>2021-10-25T12:52:44Z</time>
      </trkpt>
      <trkpt lat="46.60332" lon="5.72603">
        <ele>485.4</ele>
        <time>2021-10-25T12:52:46Z</time>
      </trkpt>
      <trkpt lat="46.60313" lon="5.72588">
        <ele>486.6</ele>
        <time>2021-10-25T12:52:51Z</time>
      </trkpt>
      <trkpt lat="46.60304" lon="5.72583">
        <ele>486.8</ele>
        <time>2021-10-25T12:52:53Z</time>
      </trkpt>
      <trkpt lat="46.60299" lon="5.7258">
        <ele>486.6</ele>
        <time>2021-10-25T12:52:54Z</time>
      </trkpt>
      <trkpt lat="46.60278" lon="5.72566">
        <ele>487.8</ele>
        <time>2021-10-25T12:52:59Z</time>
      </trkpt>
      <trkpt lat="46.60256" lon="5.72547">
        <ele>488.6</ele>
        <time>2021-10-25T12:53:04Z</time>
      </trkpt>
      <trkpt lat="46.60233" lon="5.72525">
        <ele>488.8</ele>
        <time>2021-10-25T12:53:09Z</time>
      </trkpt>
      <trkpt lat="46.6022" lon="5.72511">
        <ele>489.2</ele>
        <time>2021-10-25T12:53:12Z</time>
      </trkpt>
      <trkpt lat="46.60179" lon="5.72471">
        <ele>489.8</ele>
        <time>2021-10-25T12:53:21Z</time>
      </trkpt>
      <trkpt lat="46.60159" lon="5.72452">
        <ele>490</ele>
        <time>2021-10-25T12:53:25Z</time>
      </trkpt>
      <trkpt lat="46.60127" lon="5.72421">
        <ele>490</ele>
        <time>2021-10-25T12:53:31Z</time>
      </trkpt>
      <trkpt lat="46.60079" lon="5.72375">
        <ele>490</ele>
        <time>2021-10-25T12:53:40Z</time>
      </trkpt>
      <trkpt lat="46.60068" lon="5.72364">
        <ele>490.2</ele>
        <time>2021-10-25T12:53:42Z</time>
      </trkpt>
      <trkpt lat="46.6003" lon="5.72327">
        <ele>491.2</ele>
        <time>2021-10-25T12:53:49Z</time>
      </trkpt>
      <trkpt lat="46.60013" lon="5.72311">
        <ele>491.4</ele>
        <time>2021-10-25T12:53:52Z</time>
      </trkpt>
      <trkpt lat="46.59967" lon="5.72267">
        <ele>491</ele>
        <time>2021-10-25T12:54:00Z</time>
      </trkpt>
      <trkpt lat="46.59961" lon="5.72262">
        <ele>491</ele>
        <time>2021-10-25T12:54:02Z</time>
      </trkpt>
      <trkpt lat="46.59915" lon="5.72216">
        <ele>490.2</ele>
        <time>2021-10-25T12:54:09Z</time>
      </trkpt>
      <trkpt lat="46.59902" lon="5.72204">
        <ele>490.2</ele>
        <time>2021-10-25T12:54:11Z</time>
      </trkpt>
      <trkpt lat="46.59862" lon="5.72177">
        <ele>490</ele>
        <time>2021-10-25T12:54:17Z</time>
      </trkpt>
      <trkpt lat="46.59839" lon="5.72173">
        <ele>489.4</ele>
        <time>2021-10-25T12:54:20Z</time>
      </trkpt>
      <trkpt lat="46.59831" lon="5.72174">
        <ele>489.2</ele>
        <time>2021-10-25T12:54:21Z</time>
      </trkpt>
      <trkpt lat="46.59823" lon="5.72176">
        <ele>489.2</ele>
        <time>2021-10-25T12:54:22Z</time>
      </trkpt>
      <trkpt lat="46.59807" lon="5.72182">
        <ele>488.8</ele>
        <time>2021-10-25T12:54:24Z</time>
      </trkpt>
      <trkpt lat="46.598" lon="5.72187">
        <ele>488.6</ele>
        <time>2021-10-25T12:54:25Z</time>
      </trkpt>
      <trkpt lat="46.59785" lon="5.722">
        <ele>488.2</ele>
        <time>2021-10-25T12:54:27Z</time>
      </trkpt>
      <trkpt lat="46.59779" lon="5.72208">
        <ele>488</ele>
        <time>2021-10-25T12:54:28Z</time>
      </trkpt>
      <trkpt lat="46.59773" lon="5.72217">
        <ele>488</ele>
        <time>2021-10-25T12:54:29Z</time>
      </trkpt>
      <trkpt lat="46.59757" lon="5.72246">
        <ele>487</ele>
        <time>2021-10-25T12:54:32Z</time>
      </trkpt>
      <trkpt lat="46.59749" lon="5.72269">
        <ele>486.4</ele>
        <time>2021-10-25T12:54:34Z</time>
      </trkpt>
      <trkpt lat="46.59739" lon="5.72305">
        <ele>485.6</ele>
        <time>2021-10-25T12:54:37Z</time>
      </trkpt>
      <trkpt lat="46.59733" lon="5.7233">
        <ele>485</ele>
        <time>2021-10-25T12:54:39Z</time>
      </trkpt>
      <trkpt lat="46.59726" lon="5.72354">
        <ele>484.4</ele>
        <time>2021-10-25T12:54:41Z</time>
      </trkpt>
      <trkpt lat="46.59717" lon="5.72392">
        <ele>483</ele>
        <time>2021-10-25T12:54:44Z</time>
      </trkpt>
      <trkpt lat="46.59714" lon="5.72418">
        <ele>482.2</ele>
        <time>2021-10-25T12:54:46Z</time>
      </trkpt>
      <trkpt lat="46.59712" lon="5.72444">
        <ele>481.8</ele>
        <time>2021-10-25T12:54:48Z</time>
      </trkpt>
      <trkpt lat="46.59707" lon="5.72485">
        <ele>480.8</ele>
        <time>2021-10-25T12:54:51Z</time>
      </trkpt>
      <trkpt lat="46.59706" lon="5.72498">
        <ele>480.6</ele>
        <time>2021-10-25T12:54:52Z</time>
      </trkpt>
      <trkpt lat="46.59702" lon="5.72527">
        <ele>479.6</ele>
        <time>2021-10-25T12:54:54Z</time>
      </trkpt>
      <trkpt lat="46.597" lon="5.72542">
        <ele>479.2</ele>
        <time>2021-10-25T12:54:55Z</time>
      </trkpt>
      <trkpt lat="46.59694" lon="5.72569">
        <ele>478.6</ele>
        <time>2021-10-25T12:54:57Z</time>
      </trkpt>
      <trkpt lat="46.59688" lon="5.72596">
        <ele>477.4</ele>
        <time>2021-10-25T12:54:59Z</time>
      </trkpt>
      <trkpt lat="46.59684" lon="5.72609">
        <ele>476.4</ele>
        <time>2021-10-25T12:55:00Z</time>
      </trkpt>
      <trkpt lat="46.59676" lon="5.72634">
        <ele>475.4</ele>
        <time>2021-10-25T12:55:02Z</time>
      </trkpt>
      <trkpt lat="46.5967" lon="5.72646">
        <ele>475.2</ele>
        <time>2021-10-25T12:55:03Z</time>
      </trkpt>
      <trkpt lat="46.59659" lon="5.7267">
        <ele>474.6</ele>
        <time>2021-10-25T12:55:05Z</time>
      </trkpt>
      <trkpt lat="46.59654" lon="5.72682">
        <ele>474.4</ele>
        <time>2021-10-25T12:55:06Z</time>
      </trkpt>
      <trkpt lat="46.59651" lon="5.72695">
        <ele>474.2</ele>
        <time>2021-10-25T12:55:07Z</time>
      </trkpt>
      <trkpt lat="46.59649" lon="5.72709">
        <ele>473.8</ele>
        <time>2021-10-25T12:55:08Z</time>
      </trkpt>
      <trkpt lat="46.59649" lon="5.72735">
        <ele>472.8</ele>
        <time>2021-10-25T12:55:10Z</time>
      </trkpt>
      <trkpt lat="46.5965" lon="5.72748">
        <ele>472.6</ele>
        <time>2021-10-25T12:55:11Z</time>
      </trkpt>
      <trkpt lat="46.5965" lon="5.7276">
        <ele>472.4</ele>
        <time>2021-10-25T12:55:12Z</time>
      </trkpt>
      <trkpt lat="46.59644" lon="5.72783">
        <ele>472.2</ele>
        <time>2021-10-25T12:55:14Z</time>
      </trkpt>
      <trkpt lat="46.59625" lon="5.72817">
        <ele>472.4</ele>
        <time>2021-10-25T12:55:18Z</time>
      </trkpt>
      <trkpt lat="46.59619" lon="5.72832">
        <ele>472.6</ele>
        <time>2021-10-25T12:55:20Z</time>
      </trkpt>
      <trkpt lat="46.59616" lon="5.72849">
        <ele>474</ele>
        <time>2021-10-25T12:55:22Z</time>
      </trkpt>
      <trkpt lat="46.59614" lon="5.72865">
        <ele>475</ele>
        <time>2021-10-25T12:55:24Z</time>
      </trkpt>
      <trkpt lat="46.59615" lon="5.72881">
        <ele>476.4</ele>
        <time>2021-10-25T12:55:26Z</time>
      </trkpt>
      <trkpt lat="46.59616" lon="5.72888">
        <ele>476.8</ele>
        <time>2021-10-25T12:55:27Z</time>
      </trkpt>
      <trkpt lat="46.59616" lon="5.72903">
        <ele>477.4</ele>
        <time>2021-10-25T12:55:29Z</time>
      </trkpt>
      <trkpt lat="46.59618" lon="5.72925">
        <ele>478.4</ele>
        <time>2021-10-25T12:55:32Z</time>
      </trkpt>
      <trkpt lat="46.59618" lon="5.72938">
        <ele>478.8</ele>
        <time>2021-10-25T12:55:34Z</time>
      </trkpt>
      <trkpt lat="46.59618" lon="5.72945">
        <ele>479.4</ele>
        <time>2021-10-25T12:55:35Z</time>
      </trkpt>
      <trkpt lat="46.59618" lon="5.72965">
        <ele>480.4</ele>
        <time>2021-10-25T12:55:38Z</time>
      </trkpt>
      <trkpt lat="46.59618" lon="5.72983">
        <ele>481.4</ele>
        <time>2021-10-25T12:55:41Z</time>
      </trkpt>
      <trkpt lat="46.59617" lon="5.7299">
        <ele>481.6</ele>
        <time>2021-10-25T12:55:42Z</time>
      </trkpt>
      <trkpt lat="46.59617" lon="5.73006">
        <ele>482.6</ele>
        <time>2021-10-25T12:55:45Z</time>
      </trkpt>
      <trkpt lat="46.59617" lon="5.73013">
        <ele>482.8</ele>
        <time>2021-10-25T12:55:46Z</time>
      </trkpt>
      <trkpt lat="46.59619" lon="5.73029">
        <ele>483.6</ele>
        <time>2021-10-25T12:55:49Z</time>
      </trkpt>
      <trkpt lat="46.59623" lon="5.73052">
        <ele>484.8</ele>
        <time>2021-10-25T12:55:53Z</time>
      </trkpt>
      <trkpt lat="46.59625" lon="5.73062">
        <ele>485.4</ele>
        <time>2021-10-25T12:55:55Z</time>
      </trkpt>
      <trkpt lat="46.59637" lon="5.73086">
        <ele>486.2</ele>
        <time>2021-10-25T12:56:00Z</time>
      </trkpt>
      <trkpt lat="46.59647" lon="5.73103">
        <ele>487.2</ele>
        <time>2021-10-25T12:56:04Z</time>
      </trkpt>
      <trkpt lat="46.59663" lon="5.73132">
        <ele>488.2</ele>
        <time>2021-10-25T12:56:10Z</time>
      </trkpt>
      <trkpt lat="46.59664" lon="5.73137">
        <ele>488.6</ele>
        <time>2021-10-25T12:56:11Z</time>
      </trkpt>
      <trkpt lat="46.59667" lon="5.73149">
        <ele>489.2</ele>
        <time>2021-10-25T12:56:14Z</time>
      </trkpt>
      <trkpt lat="46.59668" lon="5.7316">
        <ele>489.6</ele>
        <time>2021-10-25T12:56:16Z</time>
      </trkpt>
      <trkpt lat="46.59672" lon="5.73181">
        <ele>490.4</ele>
        <time>2021-10-25T12:56:20Z</time>
      </trkpt>
      <trkpt lat="46.59673" lon="5.73187">
        <ele>490.8</ele>
        <time>2021-10-25T12:56:21Z</time>
      </trkpt>
      <trkpt lat="46.59676" lon="5.73218">
        <ele>491.8</ele>
        <time>2021-10-25T12:56:26Z</time>
      </trkpt>
      <trkpt lat="46.59678" lon="5.73235">
        <ele>492.2</ele>
        <time>2021-10-25T12:56:29Z</time>
      </trkpt>
      <trkpt lat="46.59678" lon="5.73259">
        <ele>493</ele>
        <time>2021-10-25T12:56:33Z</time>
      </trkpt>
      <trkpt lat="46.59678" lon="5.73275">
        <ele>494</ele>
        <time>2021-10-25T12:56:36Z</time>
      </trkpt>
      <trkpt lat="46.5968" lon="5.73297">
        <ele>494.6</ele>
        <time>2021-10-25T12:56:40Z</time>
      </trkpt>
      <trkpt lat="46.59681" lon="5.73309">
        <ele>495</ele>
        <time>2021-10-25T12:56:42Z</time>
      </trkpt>
      <trkpt lat="46.59685" lon="5.73345">
        <ele>496.4</ele>
        <time>2021-10-25T12:56:48Z</time>
      </trkpt>
      <trkpt lat="46.5969" lon="5.73404">
        <ele>497.4</ele>
        <time>2021-10-25T12:56:57Z</time>
      </trkpt>
      <trkpt lat="46.5969" lon="5.73411">
        <ele>497.6</ele>
        <time>2021-10-25T12:56:58Z</time>
      </trkpt>
      <trkpt lat="46.59691" lon="5.73424">
        <ele>497.8</ele>
        <time>2021-10-25T12:57:00Z</time>
      </trkpt>
      <trkpt lat="46.59688" lon="5.73463">
        <ele>498.4</ele>
        <time>2021-10-25T12:57:05Z</time>
      </trkpt>
      <trkpt lat="46.59684" lon="5.73505">
        <ele>498.4</ele>
        <time>2021-10-25T12:57:10Z</time>
      </trkpt>
      <trkpt lat="46.59682" lon="5.73522">
        <ele>498.6</ele>
        <time>2021-10-25T12:57:12Z</time>
      </trkpt>
      <trkpt lat="46.59675" lon="5.73608">
        <ele>499.4</ele>
        <time>2021-10-25T12:57:22Z</time>
      </trkpt>
      <trkpt lat="46.59674" lon="5.73616">
        <ele>499.4</ele>
        <time>2021-10-25T12:57:23Z</time>
      </trkpt>
      <trkpt lat="46.59671" lon="5.73665">
        <ele>499.4</ele>
        <time>2021-10-25T12:57:29Z</time>
      </trkpt>
      <trkpt lat="46.59665" lon="5.73706">
        <ele>499.8</ele>
        <time>2021-10-25T12:57:34Z</time>
      </trkpt>
      <trkpt lat="46.59659" lon="5.73737">
        <ele>500</ele>
        <time>2021-10-25T12:57:38Z</time>
      </trkpt>
      <trkpt lat="46.59643" lon="5.73813">
        <ele>500.6</ele>
        <time>2021-10-25T12:57:48Z</time>
      </trkpt>
      <trkpt lat="46.59641" lon="5.73821">
        <ele>500.6</ele>
        <time>2021-10-25T12:57:49Z</time>
      </trkpt>
      <trkpt lat="46.59638" lon="5.73835">
        <ele>500.8</ele>
        <time>2021-10-25T12:57:51Z</time>
      </trkpt>
      <trkpt lat="46.59633" lon="5.73858">
        <ele>500.8</ele>
        <time>2021-10-25T12:57:54Z</time>
      </trkpt>
      <trkpt lat="46.59617" lon="5.73911">
        <ele>501</ele>
        <time>2021-10-25T12:58:01Z</time>
      </trkpt>
      <trkpt lat="46.59593" lon="5.73966">
        <ele>501.6</ele>
        <time>2021-10-25T12:58:09Z</time>
      </trkpt>
      <trkpt lat="46.5959" lon="5.73972">
        <ele>501.6</ele>
        <time>2021-10-25T12:58:10Z</time>
      </trkpt>
      <trkpt lat="46.59582" lon="5.73991">
        <ele>501.8</ele>
        <time>2021-10-25T12:58:13Z</time>
      </trkpt>
      <trkpt lat="46.59578" lon="5.73997">
        <ele>502</ele>
        <time>2021-10-25T12:58:14Z</time>
      </trkpt>
      <trkpt lat="46.59575" lon="5.74003">
        <ele>502</ele>
        <time>2021-10-25T12:58:15Z</time>
      </trkpt>
      <trkpt lat="46.59568" lon="5.74015">
        <ele>502.4</ele>
        <time>2021-10-25T12:58:17Z</time>
      </trkpt>
      <trkpt lat="46.59557" lon="5.74034">
        <ele>502.8</ele>
        <time>2021-10-25T12:58:20Z</time>
      </trkpt>
      <trkpt lat="46.59554" lon="5.74042">
        <ele>503</ele>
        <time>2021-10-25T12:58:21Z</time>
      </trkpt>
      <trkpt lat="46.5955" lon="5.74057">
        <ele>503.2</ele>
        <time>2021-10-25T12:58:23Z</time>
      </trkpt>
      <trkpt lat="46.59549" lon="5.74073">
        <ele>503.4</ele>
        <time>2021-10-25T12:58:25Z</time>
      </trkpt>
      <trkpt lat="46.59553" lon="5.74087">
        <ele>503.4</ele>
        <time>2021-10-25T12:58:27Z</time>
      </trkpt>
      <trkpt lat="46.59557" lon="5.74093">
        <ele>503.4</ele>
        <time>2021-10-25T12:58:28Z</time>
      </trkpt>
      <trkpt lat="46.59592" lon="5.74151">
        <ele>503.4</ele>
        <time>2021-10-25T12:58:37Z</time>
      </trkpt>
      <trkpt lat="46.59621" lon="5.742">
        <ele>503.6</ele>
        <time>2021-10-25T12:58:44Z</time>
      </trkpt>
      <trkpt lat="46.59643" lon="5.74235">
        <ele>504.2</ele>
        <time>2021-10-25T12:58:49Z</time>
      </trkpt>
      <trkpt lat="46.59659" lon="5.74263">
        <ele>504.4</ele>
        <time>2021-10-25T12:58:53Z</time>
      </trkpt>
      <trkpt lat="46.59664" lon="5.74272">
        <ele>504.4</ele>
        <time>2021-10-25T12:58:54Z</time>
      </trkpt>
      <trkpt lat="46.59667" lon="5.74286">
        <ele>504.4</ele>
        <time>2021-10-25T12:58:56Z</time>
      </trkpt>
      <trkpt lat="46.59678" lon="5.74354">
        <ele>504.8</ele>
        <time>2021-10-25T12:59:03Z</time>
      </trkpt>
      <trkpt lat="46.59676" lon="5.74385">
        <ele>504.6</ele>
        <time>2021-10-25T12:59:06Z</time>
      </trkpt>
      <trkpt lat="46.59674" lon="5.74397">
        <ele>504.2</ele>
        <time>2021-10-25T12:59:07Z</time>
      </trkpt>
      <trkpt lat="46.59668" lon="5.7442">
        <ele>503.2</ele>
        <time>2021-10-25T12:59:09Z</time>
      </trkpt>
      <trkpt lat="46.59657" lon="5.74455">
        <ele>501.8</ele>
        <time>2021-10-25T12:59:12Z</time>
      </trkpt>
      <trkpt lat="46.59652" lon="5.74467">
        <ele>501.2</ele>
        <time>2021-10-25T12:59:13Z</time>
      </trkpt>
      <trkpt lat="46.59647" lon="5.74477">
        <ele>500.6</ele>
        <time>2021-10-25T12:59:15Z</time>
      </trkpt>
      <trkpt lat="46.59629" lon="5.74507">
        <ele>499.2</ele>
        <time>2021-10-25T12:59:17Z</time>
      </trkpt>
      <trkpt lat="46.59623" lon="5.74516">
        <ele>498.4</ele>
        <time>2021-10-25T12:59:18Z</time>
      </trkpt>
      <trkpt lat="46.59618" lon="5.74524">
        <ele>497.8</ele>
        <time>2021-10-25T12:59:19Z</time>
      </trkpt>
      <trkpt lat="46.59608" lon="5.74541">
        <ele>496.4</ele>
        <time>2021-10-25T12:59:21Z</time>
      </trkpt>
      <trkpt lat="46.59602" lon="5.74548">
        <ele>496.2</ele>
        <time>2021-10-25T12:59:22Z</time>
      </trkpt>
      <trkpt lat="46.59595" lon="5.74555">
        <ele>496</ele>
        <time>2021-10-25T12:59:23Z</time>
      </trkpt>
      <trkpt lat="46.59577" lon="5.74567">
        <ele>495.4</ele>
        <time>2021-10-25T12:59:25Z</time>
      </trkpt>
      <trkpt lat="46.59568" lon="5.74569">
        <ele>495.2</ele>
        <time>2021-10-25T12:59:26Z</time>
      </trkpt>
      <trkpt lat="46.59558" lon="5.74568">
        <ele>494.8</ele>
        <time>2021-10-25T12:59:27Z</time>
      </trkpt>
      <trkpt lat="46.5954" lon="5.74565">
        <ele>494.4</ele>
        <time>2021-10-25T12:59:29Z</time>
      </trkpt>
      <trkpt lat="46.59532" lon="5.7456">
        <ele>494</ele>
        <time>2021-10-25T12:59:30Z</time>
      </trkpt>
      <trkpt lat="46.59525" lon="5.74554">
        <ele>493.8</ele>
        <time>2021-10-25T12:59:31Z</time>
      </trkpt>
      <trkpt lat="46.5952" lon="5.74544">
        <ele>492.6</ele>
        <time>2021-10-25T12:59:32Z</time>
      </trkpt>
      <trkpt lat="46.59519" lon="5.74533">
        <ele>492.2</ele>
        <time>2021-10-25T12:59:33Z</time>
      </trkpt>
      <trkpt lat="46.59519" lon="5.74522">
        <ele>492</ele>
        <time>2021-10-25T12:59:34Z</time>
      </trkpt>
      <trkpt lat="46.59519" lon="5.74513">
        <ele>491.8</ele>
        <time>2021-10-25T12:59:35Z</time>
      </trkpt>
      <trkpt lat="46.59521" lon="5.74483">
        <ele>491.8</ele>
        <time>2021-10-25T12:59:38Z</time>
      </trkpt>
      <trkpt lat="46.59522" lon="5.74429">
        <ele>493.6</ele>
        <time>2021-10-25T12:59:44Z</time>
      </trkpt>
      <trkpt lat="46.5951" lon="5.74387">
        <ele>494</ele>
        <time>2021-10-25T12:59:48Z</time>
      </trkpt>
      <trkpt lat="46.5948" lon="5.7432">
        <ele>493</ele>
        <time>2021-10-25T12:59:55Z</time>
      </trkpt>
      <trkpt lat="46.59467" lon="5.74289">
        <ele>492.6</ele>
        <time>2021-10-25T12:59:58Z</time>
      </trkpt>
      <trkpt lat="46.59445" lon="5.74236">
        <ele>491.8</ele>
        <time>2021-10-25T13:00:03Z</time>
      </trkpt>
      <trkpt lat="46.59442" lon="5.74227">
        <ele>491.6</ele>
        <time>2021-10-25T13:00:04Z</time>
      </trkpt>
      <trkpt lat="46.59421" lon="5.74189">
        <ele>490.8</ele>
        <time>2021-10-25T13:00:08Z</time>
      </trkpt>
      <trkpt lat="46.59411" lon="5.74176">
        <ele>490.6</ele>
        <time>2021-10-25T13:00:10Z</time>
      </trkpt>
      <trkpt lat="46.59405" lon="5.7417">
        <ele>490.6</ele>
        <time>2021-10-25T13:00:11Z</time>
      </trkpt>
      <trkpt lat="46.59398" lon="5.74166">
        <ele>490.6</ele>
        <time>2021-10-25T13:00:12Z</time>
      </trkpt>
      <trkpt lat="46.59357" lon="5.74151">
        <ele>490.2</ele>
        <time>2021-10-25T13:00:17Z</time>
      </trkpt>
      <trkpt lat="46.59341" lon="5.74144">
        <ele>489.8</ele>
        <time>2021-10-25T13:00:19Z</time>
      </trkpt>
      <trkpt lat="46.59332" lon="5.74142">
        <ele>489.4</ele>
        <time>2021-10-25T13:00:20Z</time>
      </trkpt>
      <trkpt lat="46.59324" lon="5.74142">
        <ele>488.8</ele>
        <time>2021-10-25T13:00:21Z</time>
      </trkpt>
      <trkpt lat="46.59316" lon="5.74143">
        <ele>488.2</ele>
        <time>2021-10-25T13:00:22Z</time>
      </trkpt>
      <trkpt lat="46.59308" lon="5.74147">
        <ele>487.4</ele>
        <time>2021-10-25T13:00:23Z</time>
      </trkpt>
      <trkpt lat="46.59301" lon="5.74151">
        <ele>487.2</ele>
        <time>2021-10-25T13:00:24Z</time>
      </trkpt>
      <trkpt lat="46.59289" lon="5.74164">
        <ele>486</ele>
        <time>2021-10-25T13:00:26Z</time>
      </trkpt>
      <trkpt lat="46.59283" lon="5.7417">
        <ele>484.6</ele>
        <time>2021-10-25T13:00:27Z</time>
      </trkpt>
      <trkpt lat="46.59276" lon="5.74176">
        <ele>483.4</ele>
        <time>2021-10-25T13:00:28Z</time>
      </trkpt>
      <trkpt lat="46.59262" lon="5.74189">
        <ele>481.8</ele>
        <time>2021-10-25T13:00:30Z</time>
      </trkpt>
      <trkpt lat="46.59255" lon="5.74194">
        <ele>481.6</ele>
        <time>2021-10-25T13:00:31Z</time>
      </trkpt>
      <trkpt lat="46.59247" lon="5.74197">
        <ele>481</ele>
        <time>2021-10-25T13:00:32Z</time>
      </trkpt>
      <trkpt lat="46.5924" lon="5.74199">
        <ele>480.6</ele>
        <time>2021-10-25T13:00:33Z</time>
      </trkpt>
      <trkpt lat="46.59227" lon="5.74205">
        <ele>479.4</ele>
        <time>2021-10-25T13:00:35Z</time>
      </trkpt>
      <trkpt lat="46.5922" lon="5.74207">
        <ele>479.2</ele>
        <time>2021-10-25T13:00:36Z</time>
      </trkpt>
      <trkpt lat="46.5919" lon="5.7422">
        <ele>478.6</ele>
        <time>2021-10-25T13:00:40Z</time>
      </trkpt>
      <trkpt lat="46.59184" lon="5.74225">
        <ele>478.6</ele>
        <time>2021-10-25T13:00:41Z</time>
      </trkpt>
      <trkpt lat="46.59166" lon="5.74242">
        <ele>479.4</ele>
        <time>2021-10-25T13:00:44Z</time>
      </trkpt>
      <trkpt lat="46.59157" lon="5.74256">
        <ele>479.8</ele>
        <time>2021-10-25T13:00:46Z</time>
      </trkpt>
      <trkpt lat="46.59149" lon="5.74271">
        <ele>480</ele>
        <time>2021-10-25T13:00:48Z</time>
      </trkpt>
      <trkpt lat="46.59139" lon="5.74297">
        <ele>480.2</ele>
        <time>2021-10-25T13:00:51Z</time>
      </trkpt>
      <trkpt lat="46.59137" lon="5.74305">
        <ele>480.2</ele>
        <time>2021-10-25T13:00:52Z</time>
      </trkpt>
      <trkpt lat="46.59129" lon="5.74326">
        <ele>480.4</ele>
        <time>2021-10-25T13:00:54Z</time>
      </trkpt>
      <trkpt lat="46.59126" lon="5.74333">
        <ele>480.6</ele>
        <time>2021-10-25T13:00:55Z</time>
      </trkpt>
      <trkpt lat="46.59105" lon="5.74374">
        <ele>481.6</ele>
        <time>2021-10-25T13:01:00Z</time>
      </trkpt>
      <trkpt lat="46.59101" lon="5.74381">
        <ele>481.6</ele>
        <time>2021-10-25T13:01:01Z</time>
      </trkpt>
      <trkpt lat="46.59072" lon="5.74424">
        <ele>482.4</ele>
        <time>2021-10-25T13:01:07Z</time>
      </trkpt>
      <trkpt lat="46.5905" lon="5.74454">
        <ele>481.8</ele>
        <time>2021-10-25T13:01:11Z</time>
      </trkpt>
      <trkpt lat="46.59015" lon="5.74493">
        <ele>480.8</ele>
        <time>2021-10-25T13:01:17Z</time>
      </trkpt>
      <trkpt lat="46.58997" lon="5.74509">
        <ele>480.6</ele>
        <time>2021-10-25T13:01:20Z</time>
      </trkpt>
      <trkpt lat="46.5899" lon="5.74513">
        <ele>480.2</ele>
        <time>2021-10-25T13:01:21Z</time>
      </trkpt>
      <trkpt lat="46.58982" lon="5.74516">
        <ele>480</ele>
        <time>2021-10-25T13:01:22Z</time>
      </trkpt>
      <trkpt lat="46.58961" lon="5.74523">
        <ele>479.8</ele>
        <time>2021-10-25T13:01:25Z</time>
      </trkpt>
      <trkpt lat="46.58927" lon="5.74531">
        <ele>479.6</ele>
        <time>2021-10-25T13:01:30Z</time>
      </trkpt>
      <trkpt lat="46.58901" lon="5.74538">
        <ele>479.8</ele>
        <time>2021-10-25T13:01:34Z</time>
      </trkpt>
      <trkpt lat="46.58897" lon="5.7454">
        <ele>479.8</ele>
        <time>2021-10-25T13:01:35Z</time>
      </trkpt>
      <trkpt lat="46.58891" lon="5.74542">
        <ele>479.8</ele>
        <time>2021-10-25T13:01:36Z</time>
      </trkpt>
      <trkpt lat="46.58882" lon="5.74551">
        <ele>480</ele>
        <time>2021-10-25T13:01:38Z</time>
      </trkpt>
      <trkpt lat="46.58877" lon="5.74557">
        <ele>480.2</ele>
        <time>2021-10-25T13:01:39Z</time>
      </trkpt>
      <trkpt lat="46.58865" lon="5.74577">
        <ele>480.8</ele>
        <time>2021-10-25T13:01:42Z</time>
      </trkpt>
      <trkpt lat="46.58861" lon="5.74583">
        <ele>481.2</ele>
        <time>2021-10-25T13:01:43Z</time>
      </trkpt>
      <trkpt lat="46.58857" lon="5.7459">
        <ele>481.6</ele>
        <time>2021-10-25T13:01:44Z</time>
      </trkpt>
      <trkpt lat="46.58849" lon="5.74605">
        <ele>482.2</ele>
        <time>2021-10-25T13:01:46Z</time>
      </trkpt>
      <trkpt lat="46.58842" lon="5.74621">
        <ele>482.6</ele>
        <time>2021-10-25T13:01:48Z</time>
      </trkpt>
      <trkpt lat="46.58834" lon="5.74635">
        <ele>482.8</ele>
        <time>2021-10-25T13:01:50Z</time>
      </trkpt>
      <trkpt lat="46.5883" lon="5.74642">
        <ele>482.8</ele>
        <time>2021-10-25T13:01:51Z</time>
      </trkpt>
      <trkpt lat="46.5881" lon="5.74668">
        <ele>483.4</ele>
        <time>2021-10-25T13:01:56Z</time>
      </trkpt>
      <trkpt lat="46.58804" lon="5.74673">
        <ele>483.6</ele>
        <time>2021-10-25T13:01:57Z</time>
      </trkpt>
      <trkpt lat="46.58791" lon="5.74682">
        <ele>484.4</ele>
        <time>2021-10-25T13:02:00Z</time>
      </trkpt>
      <trkpt lat="46.58786" lon="5.74684">
        <ele>484.6</ele>
        <time>2021-10-25T13:02:01Z</time>
      </trkpt>
      <trkpt lat="46.58781" lon="5.74685">
        <ele>484.8</ele>
        <time>2021-10-25T13:02:02Z</time>
      </trkpt>
      <trkpt lat="46.58771" lon="5.74685">
        <ele>485.2</ele>
        <time>2021-10-25T13:02:04Z</time>
      </trkpt>
      <trkpt lat="46.58754" lon="5.74682">
        <ele>485.4</ele>
        <time>2021-10-25T13:02:08Z</time>
      </trkpt>
      <trkpt lat="46.58744" lon="5.74679">
        <ele>485.6</ele>
        <time>2021-10-25T13:02:10Z</time>
      </trkpt>
      <trkpt lat="46.58735" lon="5.74678">
        <ele>485.8</ele>
        <time>2021-10-25T13:02:12Z</time>
      </trkpt>
      <trkpt lat="46.58729" lon="5.74678">
        <ele>485.8</ele>
        <time>2021-10-25T13:02:13Z</time>
      </trkpt>
      <trkpt lat="46.58719" lon="5.74681">
        <ele>486</ele>
        <time>2021-10-25T13:02:15Z</time>
      </trkpt>
      <trkpt lat="46.58709" lon="5.74688">
        <ele>486</ele>
        <time>2021-10-25T13:02:17Z</time>
      </trkpt>
      <trkpt lat="46.58687" lon="5.7472">
        <ele>486.4</ele>
        <time>2021-10-25T13:02:23Z</time>
      </trkpt>
      <trkpt lat="46.58667" lon="5.74747">
        <ele>486.4</ele>
        <time>2021-10-25T13:02:28Z</time>
      </trkpt>
      <trkpt lat="46.5866" lon="5.74753">
        <ele>486.8</ele>
        <time>2021-10-25T13:02:30Z</time>
      </trkpt>
      <trkpt lat="46.5865" lon="5.74763">
        <ele>487.4</ele>
        <time>2021-10-25T13:02:33Z</time>
      </trkpt>
      <trkpt lat="46.5864" lon="5.74775">
        <ele>488.2</ele>
        <time>2021-10-25T13:02:36Z</time>
      </trkpt>
      <trkpt lat="46.58637" lon="5.74779">
        <ele>488.6</ele>
        <time>2021-10-25T13:02:37Z</time>
      </trkpt>
      <trkpt lat="46.58624" lon="5.74799">
        <ele>489.4</ele>
        <time>2021-10-25T13:02:42Z</time>
      </trkpt>
      <trkpt lat="46.58622" lon="5.74802">
        <ele>489.8</ele>
        <time>2021-10-25T13:02:43Z</time>
      </trkpt>
      <trkpt lat="46.58613" lon="5.74808">
        <ele>490.8</ele>
        <time>2021-10-25T13:02:46Z</time>
      </trkpt>
      <trkpt lat="46.5861" lon="5.74808">
        <ele>491</ele>
        <time>2021-10-25T13:02:47Z</time>
      </trkpt>
      <trkpt lat="46.58602" lon="5.74805">
        <ele>491.8</ele>
        <time>2021-10-25T13:02:49Z</time>
      </trkpt>
      <trkpt lat="46.586" lon="5.74803">
        <ele>492</ele>
        <time>2021-10-25T13:02:50Z</time>
      </trkpt>
      <trkpt lat="46.58595" lon="5.74799">
        <ele>492</ele>
        <time>2021-10-25T13:02:52Z</time>
      </trkpt>
      <trkpt lat="46.58587" lon="5.74791">
        <ele>493.4</ele>
        <time>2021-10-25T13:02:55Z</time>
      </trkpt>
      <trkpt lat="46.58579" lon="5.74786">
        <ele>494</ele>
        <time>2021-10-25T13:02:57Z</time>
      </trkpt>
      <trkpt lat="46.58571" lon="5.74781">
        <ele>494.6</ele>
        <time>2021-10-25T13:02:59Z</time>
      </trkpt>
      <trkpt lat="46.58555" lon="5.74772">
        <ele>496</ele>
        <time>2021-10-25T13:03:04Z</time>
      </trkpt>
      <trkpt lat="46.5853" lon="5.74766">
        <ele>497</ele>
        <time>2021-10-25T13:03:10Z</time>
      </trkpt>
      <trkpt lat="46.58516" lon="5.74764">
        <ele>497.6</ele>
        <time>2021-10-25T13:03:13Z</time>
      </trkpt>
      <trkpt lat="46.58506" lon="5.74766">
        <ele>497.8</ele>
        <time>2021-10-25T13:03:15Z</time>
      </trkpt>
      <trkpt lat="46.58502" lon="5.74767">
        <ele>498</ele>
        <time>2021-10-25T13:03:16Z</time>
      </trkpt>
      <trkpt lat="46.58496" lon="5.74769">
        <ele>498.2</ele>
        <time>2021-10-25T13:03:17Z</time>
      </trkpt>
      <trkpt lat="46.58485" lon="5.74775">
        <ele>498.2</ele>
        <time>2021-10-25T13:03:19Z</time>
      </trkpt>
      <trkpt lat="46.58463" lon="5.7479">
        <ele>498.2</ele>
        <time>2021-10-25T13:03:24Z</time>
      </trkpt>
      <trkpt lat="46.58458" lon="5.7479">
        <ele>498.2</ele>
        <time>2021-10-25T13:03:25Z</time>
      </trkpt>
      <trkpt lat="46.58453" lon="5.74789">
        <ele>498.2</ele>
        <time>2021-10-25T13:03:26Z</time>
      </trkpt>
      <trkpt lat="46.58443" lon="5.74784">
        <ele>498</ele>
        <time>2021-10-25T13:03:28Z</time>
      </trkpt>
      <trkpt lat="46.58427" lon="5.74777">
        <ele>498</ele>
        <time>2021-10-25T13:03:31Z</time>
      </trkpt>
      <trkpt lat="46.58415" lon="5.74775">
        <ele>498</ele>
        <time>2021-10-25T13:03:33Z</time>
      </trkpt>
      <trkpt lat="46.58409" lon="5.74775">
        <ele>498</ele>
        <time>2021-10-25T13:03:34Z</time>
      </trkpt>
      <trkpt lat="46.58397" lon="5.74776">
        <ele>497.8</ele>
        <time>2021-10-25T13:03:36Z</time>
      </trkpt>
      <trkpt lat="46.58391" lon="5.74779">
        <ele>497.8</ele>
        <time>2021-10-25T13:03:37Z</time>
      </trkpt>
      <trkpt lat="46.58386" lon="5.74781">
        <ele>497.6</ele>
        <time>2021-10-25T13:03:38Z</time>
      </trkpt>
      <trkpt lat="46.58377" lon="5.74786">
        <ele>497.4</ele>
        <time>2021-10-25T13:03:40Z</time>
      </trkpt>
      <trkpt lat="46.58366" lon="5.74795">
        <ele>497.4</ele>
        <time>2021-10-25T13:03:42Z</time>
      </trkpt>
      <trkpt lat="46.58357" lon="5.74803">
        <ele>497.4</ele>
        <time>2021-10-25T13:03:44Z</time>
      </trkpt>
      <trkpt lat="46.58352" lon="5.74807">
        <ele>497.4</ele>
        <time>2021-10-25T13:03:45Z</time>
      </trkpt>
      <trkpt lat="46.58335" lon="5.74817">
        <ele>498</ele>
        <time>2021-10-25T13:03:48Z</time>
      </trkpt>
      <trkpt lat="46.5833" lon="5.7482">
        <ele>498.2</ele>
        <time>2021-10-25T13:03:49Z</time>
      </trkpt>
      <trkpt lat="46.5832" lon="5.74823">
        <ele>498.8</ele>
        <time>2021-10-25T13:03:51Z</time>
      </trkpt>
      <trkpt lat="46.58304" lon="5.7483">
        <ele>499.2</ele>
        <time>2021-10-25T13:03:54Z</time>
      </trkpt>
      <trkpt lat="46.58297" lon="5.74833">
        <ele>499.2</ele>
        <time>2021-10-25T13:03:55Z</time>
      </trkpt>
      <trkpt lat="46.58276" lon="5.74837">
        <ele>499.8</ele>
        <time>2021-10-25T13:03:59Z</time>
      </trkpt>
      <trkpt lat="46.58271" lon="5.74836">
        <ele>500</ele>
        <time>2021-10-25T13:04:00Z</time>
      </trkpt>
      <trkpt lat="46.58266" lon="5.74834">
        <ele>500.2</ele>
        <time>2021-10-25T13:04:01Z</time>
      </trkpt>
      <trkpt lat="46.58251" lon="5.74827">
        <ele>500.4</ele>
        <time>2021-10-25T13:04:04Z</time>
      </trkpt>
      <trkpt lat="46.58246" lon="5.74826">
        <ele>500.4</ele>
        <time>2021-10-25T13:04:05Z</time>
      </trkpt>
      <trkpt lat="46.5824" lon="5.74826">
        <ele>500.6</ele>
        <time>2021-10-25T13:04:06Z</time>
      </trkpt>
      <trkpt lat="46.58234" lon="5.74826">
        <ele>500.8</ele>
        <time>2021-10-25T13:04:07Z</time>
      </trkpt>
      <trkpt lat="46.58228" lon="5.74827">
        <ele>500.8</ele>
        <time>2021-10-25T13:04:08Z</time>
      </trkpt>
      <trkpt lat="46.58217" lon="5.74831">
        <ele>500.8</ele>
        <time>2021-10-25T13:04:10Z</time>
      </trkpt>
      <trkpt lat="46.58207" lon="5.74834">
        <ele>501</ele>
        <time>2021-10-25T13:04:12Z</time>
      </trkpt>
      <trkpt lat="46.58196" lon="5.74837">
        <ele>501.4</ele>
        <time>2021-10-25T13:04:14Z</time>
      </trkpt>
      <trkpt lat="46.5819" lon="5.74839">
        <ele>501.4</ele>
        <time>2021-10-25T13:04:15Z</time>
      </trkpt>
      <trkpt lat="46.58178" lon="5.74842">
        <ele>501.6</ele>
        <time>2021-10-25T13:04:17Z</time>
      </trkpt>
      <trkpt lat="46.58162" lon="5.74851">
        <ele>501.8</ele>
        <time>2021-10-25T13:04:20Z</time>
      </trkpt>
      <trkpt lat="46.58138" lon="5.74864">
        <ele>502.2</ele>
        <time>2021-10-25T13:04:25Z</time>
      </trkpt>
      <trkpt lat="46.58124" lon="5.74872">
        <ele>502.6</ele>
        <time>2021-10-25T13:04:28Z</time>
      </trkpt>
      <trkpt lat="46.58114" lon="5.74876">
        <ele>502.8</ele>
        <time>2021-10-25T13:04:30Z</time>
      </trkpt>
      <trkpt lat="46.58092" lon="5.74888">
        <ele>503.4</ele>
        <time>2021-10-25T13:04:35Z</time>
      </trkpt>
      <trkpt lat="46.58088" lon="5.74891">
        <ele>503.8</ele>
        <time>2021-10-25T13:04:36Z</time>
      </trkpt>
      <trkpt lat="46.58064" lon="5.74911">
        <ele>504.8</ele>
        <time>2021-10-25T13:04:42Z</time>
      </trkpt>
      <trkpt lat="46.58051" lon="5.7492">
        <ele>505.2</ele>
        <time>2021-10-25T13:04:45Z</time>
      </trkpt>
      <trkpt lat="46.58037" lon="5.74926">
        <ele>505.8</ele>
        <time>2021-10-25T13:04:48Z</time>
      </trkpt>
      <trkpt lat="46.58033" lon="5.74928">
        <ele>505.8</ele>
        <time>2021-10-25T13:04:49Z</time>
      </trkpt>
      <trkpt lat="46.58022" lon="5.74936">
        <ele>505.8</ele>
        <time>2021-10-25T13:04:51Z</time>
      </trkpt>
      <trkpt lat="46.58016" lon="5.74942">
        <ele>506</ele>
        <time>2021-10-25T13:04:52Z</time>
      </trkpt>
      <trkpt lat="46.58003" lon="5.74952">
        <ele>505.8</ele>
        <time>2021-10-25T13:04:54Z</time>
      </trkpt>
      <trkpt lat="46.5799" lon="5.74958">
        <ele>505.8</ele>
        <time>2021-10-25T13:04:56Z</time>
      </trkpt>
      <trkpt lat="46.57984" lon="5.74962">
        <ele>505.6</ele>
        <time>2021-10-25T13:04:57Z</time>
      </trkpt>
      <trkpt lat="46.5798" lon="5.74967">
        <ele>505</ele>
        <time>2021-10-25T13:04:58Z</time>
      </trkpt>
      <trkpt lat="46.57977" lon="5.74974">
        <ele>504.8</ele>
        <time>2021-10-25T13:04:59Z</time>
      </trkpt>
      <trkpt lat="46.57971" lon="5.74991">
        <ele>504.6</ele>
        <time>2021-10-25T13:05:02Z</time>
      </trkpt>
      <trkpt lat="46.5796" lon="5.75019">
        <ele>505.6</ele>
        <time>2021-10-25T13:05:07Z</time>
      </trkpt>
      <trkpt lat="46.57956" lon="5.75025">
        <ele>505.8</ele>
        <time>2021-10-25T13:05:08Z</time>
      </trkpt>
      <trkpt lat="46.57954" lon="5.75029">
        <ele>506.2</ele>
        <time>2021-10-25T13:05:09Z</time>
      </trkpt>
      <trkpt lat="46.57945" lon="5.75043">
        <ele>507.2</ele>
        <time>2021-10-25T13:05:12Z</time>
      </trkpt>
      <trkpt lat="46.5794" lon="5.7505">
        <ele>507.8</ele>
        <time>2021-10-25T13:05:14Z</time>
      </trkpt>
      <trkpt lat="46.57935" lon="5.75057">
        <ele>508.4</ele>
        <time>2021-10-25T13:05:16Z</time>
      </trkpt>
      <trkpt lat="46.57927" lon="5.75075">
        <ele>509</ele>
        <time>2021-10-25T13:05:19Z</time>
      </trkpt>
      <trkpt lat="46.57924" lon="5.75079">
        <ele>509.4</ele>
        <time>2021-10-25T13:05:20Z</time>
      </trkpt>
      <trkpt lat="46.57906" lon="5.75096">
        <ele>510.6</ele>
        <time>2021-10-25T13:05:24Z</time>
      </trkpt>
      <trkpt lat="46.57901" lon="5.75099">
        <ele>510.8</ele>
        <time>2021-10-25T13:05:25Z</time>
      </trkpt>
      <trkpt lat="46.5789" lon="5.75106">
        <ele>511.8</ele>
        <time>2021-10-25T13:05:28Z</time>
      </trkpt>
      <trkpt lat="46.57885" lon="5.7511">
        <ele>512</ele>
        <time>2021-10-25T13:05:29Z</time>
      </trkpt>
      <trkpt lat="46.57874" lon="5.75123">
        <ele>512.6</ele>
        <time>2021-10-25T13:05:32Z</time>
      </trkpt>
      <trkpt lat="46.57866" lon="5.75134">
        <ele>513</ele>
        <time>2021-10-25T13:05:34Z</time>
      </trkpt>
      <trkpt lat="46.57863" lon="5.75138">
        <ele>513.2</ele>
        <time>2021-10-25T13:05:35Z</time>
      </trkpt>
      <trkpt lat="46.57853" lon="5.75152">
        <ele>514.2</ele>
        <time>2021-10-25T13:05:39Z</time>
      </trkpt>
      <trkpt lat="46.57848" lon="5.75161">
        <ele>514.6</ele>
        <time>2021-10-25T13:05:41Z</time>
      </trkpt>
      <trkpt lat="46.57839" lon="5.75175">
        <ele>515.2</ele>
        <time>2021-10-25T13:05:45Z</time>
      </trkpt>
      <trkpt lat="46.5783" lon="5.75197">
        <ele>516.2</ele>
        <time>2021-10-25T13:05:49Z</time>
      </trkpt>
      <trkpt lat="46.57828" lon="5.75204">
        <ele>516.4</ele>
        <time>2021-10-25T13:05:50Z</time>
      </trkpt>
      <trkpt lat="46.57818" lon="5.75232">
        <ele>516.2</ele>
        <time>2021-10-25T13:05:54Z</time>
      </trkpt>
      <trkpt lat="46.57817" lon="5.7524">
        <ele>516.2</ele>
        <time>2021-10-25T13:05:55Z</time>
      </trkpt>
      <trkpt lat="46.57815" lon="5.75247">
        <ele>516.2</ele>
        <time>2021-10-25T13:05:56Z</time>
      </trkpt>
      <trkpt lat="46.5781" lon="5.75269">
        <ele>516.2</ele>
        <time>2021-10-25T13:05:59Z</time>
      </trkpt>
      <trkpt lat="46.57804" lon="5.75281">
        <ele>516.2</ele>
        <time>2021-10-25T13:06:01Z</time>
      </trkpt>
      <trkpt lat="46.5778" lon="5.75321">
        <ele>516.8</ele>
        <time>2021-10-25T13:06:08Z</time>
      </trkpt>
      <trkpt lat="46.57768" lon="5.75354">
        <ele>517.6</ele>
        <time>2021-10-25T13:06:14Z</time>
      </trkpt>
      <trkpt lat="46.57767" lon="5.75359">
        <ele>517.8</ele>
        <time>2021-10-25T13:06:15Z</time>
      </trkpt>
      <trkpt lat="46.57763" lon="5.75377">
        <ele>518.6</ele>
        <time>2021-10-25T13:06:18Z</time>
      </trkpt>
      <trkpt lat="46.57762" lon="5.75391">
        <ele>519.4</ele>
        <time>2021-10-25T13:06:20Z</time>
      </trkpt>
      <trkpt lat="46.57763" lon="5.75398">
        <ele>519.6</ele>
        <time>2021-10-25T13:06:21Z</time>
      </trkpt>
      <trkpt lat="46.57764" lon="5.75405">
        <ele>519.8</ele>
        <time>2021-10-25T13:06:22Z</time>
      </trkpt>
      <trkpt lat="46.57765" lon="5.75411">
        <ele>520</ele>
        <time>2021-10-25T13:06:23Z</time>
      </trkpt>
      <trkpt lat="46.5777" lon="5.75438">
        <ele>520.6</ele>
        <time>2021-10-25T13:06:27Z</time>
      </trkpt>
      <trkpt lat="46.57766" lon="5.75448">
        <ele>520.8</ele>
        <time>2021-10-25T13:06:29Z</time>
      </trkpt>
      <trkpt lat="46.57763" lon="5.7545">
        <ele>521</ele>
        <time>2021-10-25T13:06:30Z</time>
      </trkpt>
      <trkpt lat="46.57759" lon="5.7545">
        <ele>521.2</ele>
        <time>2021-10-25T13:06:31Z</time>
      </trkpt>
      <trkpt lat="46.57757" lon="5.75447">
        <ele>521.4</ele>
        <time>2021-10-25T13:06:32Z</time>
      </trkpt>
      <trkpt lat="46.57755" lon="5.75434">
        <ele>522</ele>
        <time>2021-10-25T13:06:35Z</time>
      </trkpt>
      <trkpt lat="46.57753" lon="5.75425">
        <ele>522.6</ele>
        <time>2021-10-25T13:06:37Z</time>
      </trkpt>
      <trkpt lat="46.57751" lon="5.75416">
        <ele>523.2</ele>
        <time>2021-10-25T13:06:39Z</time>
      </trkpt>
      <trkpt lat="46.57749" lon="5.75404">
        <ele>524.2</ele>
        <time>2021-10-25T13:06:42Z</time>
      </trkpt>
      <trkpt lat="46.57749" lon="5.754">
        <ele>524.6</ele>
        <time>2021-10-25T13:06:43Z</time>
      </trkpt>
      <trkpt lat="46.57749" lon="5.75389">
        <ele>525.4</ele>
        <time>2021-10-25T13:06:46Z</time>
      </trkpt>
      <trkpt lat="46.57749" lon="5.75385">
        <ele>525.6</ele>
        <time>2021-10-25T13:06:47Z</time>
      </trkpt>
      <trkpt lat="46.5775" lon="5.75382">
        <ele>525.8</ele>
        <time>2021-10-25T13:06:48Z</time>
      </trkpt>
      <trkpt lat="46.57752" lon="5.75365">
        <ele>527</ele>
        <time>2021-10-25T13:06:52Z</time>
      </trkpt>
      <trkpt lat="46.57755" lon="5.75347">
        <ele>528.4</ele>
        <time>2021-10-25T13:06:57Z</time>
      </trkpt>
      <trkpt lat="46.57756" lon="5.75344">
        <ele>528.6</ele>
        <time>2021-10-25T13:06:58Z</time>
      </trkpt>
      <trkpt lat="46.57756" lon="5.75339">
        <ele>529</ele>
        <time>2021-10-25T13:06:59Z</time>
      </trkpt>
      <trkpt lat="46.57756" lon="5.75335">
        <ele>529.4</ele>
        <time>2021-10-25T13:07:00Z</time>
      </trkpt>
      <trkpt lat="46.57757" lon="5.75313">
        <ele>530.6</ele>
        <time>2021-10-25T13:07:04Z</time>
      </trkpt>
      <trkpt lat="46.57754" lon="5.75301">
        <ele>531.2</ele>
        <time>2021-10-25T13:07:06Z</time>
      </trkpt>
      <trkpt lat="46.5775" lon="5.75291">
        <ele>531.8</ele>
        <time>2021-10-25T13:07:08Z</time>
      </trkpt>
      <trkpt lat="46.5774" lon="5.7528">
        <ele>532.4</ele>
        <time>2021-10-25T13:07:11Z</time>
      </trkpt>
      <trkpt lat="46.57733" lon="5.75268">
        <ele>533.2</ele>
        <time>2021-10-25T13:07:14Z</time>
      </trkpt>
      <trkpt lat="46.5773" lon="5.7526">
        <ele>533.6</ele>
        <time>2021-10-25T13:07:16Z</time>
      </trkpt>
      <trkpt lat="46.57729" lon="5.75255">
        <ele>533.8</ele>
        <time>2021-10-25T13:07:17Z</time>
      </trkpt>
      <trkpt lat="46.57731" lon="5.75241">
        <ele>534.2</ele>
        <time>2021-10-25T13:07:20Z</time>
      </trkpt>
      <trkpt lat="46.57732" lon="5.75238">
        <ele>534.6</ele>
        <time>2021-10-25T13:07:21Z</time>
      </trkpt>
      <trkpt lat="46.57734" lon="5.75235">
        <ele>534.8</ele>
        <time>2021-10-25T13:07:22Z</time>
      </trkpt>
      <trkpt lat="46.5774" lon="5.7523">
        <ele>535.4</ele>
        <time>2021-10-25T13:07:24Z</time>
      </trkpt>
      <trkpt lat="46.57754" lon="5.75224">
        <ele>536.6</ele>
        <time>2021-10-25T13:07:29Z</time>
      </trkpt>
      <trkpt lat="46.57759" lon="5.7522">
        <ele>536.8</ele>
        <time>2021-10-25T13:07:31Z</time>
      </trkpt>
      <trkpt lat="46.57765" lon="5.75208">
        <ele>537.8</ele>
        <time>2021-10-25T13:07:34Z</time>
      </trkpt>
      <trkpt lat="46.57769" lon="5.75197">
        <ele>538.4</ele>
        <time>2021-10-25T13:07:37Z</time>
      </trkpt>
      <trkpt lat="46.57772" lon="5.75186">
        <ele>538.8</ele>
        <time>2021-10-25T13:07:40Z</time>
      </trkpt>
      <trkpt lat="46.57776" lon="5.75168">
        <ele>540</ele>
        <time>2021-10-25T13:07:45Z</time>
      </trkpt>
      <trkpt lat="46.57777" lon="5.75152">
        <ele>541</ele>
        <time>2021-10-25T13:07:49Z</time>
      </trkpt>
      <trkpt lat="46.57775" lon="5.75146">
        <ele>541.6</ele>
        <time>2021-10-25T13:07:52Z</time>
      </trkpt>
      <trkpt lat="46.57772" lon="5.7514">
        <ele>542</ele>
        <time>2021-10-25T13:07:53Z</time>
      </trkpt>
      <trkpt lat="46.57769" lon="5.75137">
        <ele>542.2</ele>
        <time>2021-10-25T13:07:54Z</time>
      </trkpt>
      <trkpt lat="46.57765" lon="5.75133">
        <ele>542.6</ele>
        <time>2021-10-25T13:07:56Z</time>
      </trkpt>
      <trkpt lat="46.57757" lon="5.75127">
        <ele>543.2</ele>
        <time>2021-10-25T13:07:59Z</time>
      </trkpt>
      <trkpt lat="46.57747" lon="5.75119">
        <ele>544</ele>
        <time>2021-10-25T13:08:03Z</time>
      </trkpt>
      <trkpt lat="46.57744" lon="5.75113">
        <ele>544.2</ele>
        <time>2021-10-25T13:08:05Z</time>
      </trkpt>
      <trkpt lat="46.57738" lon="5.75107">
        <ele>545</ele>
        <time>2021-10-25T13:08:08Z</time>
      </trkpt>
      <trkpt lat="46.57738" lon="5.75105">
        <ele>545.2</ele>
        <time>2021-10-25T13:08:09Z</time>
      </trkpt>
      <trkpt lat="46.57737" lon="5.75104">
        <ele>545.4</ele>
        <time>2021-10-25T13:08:10Z</time>
      </trkpt>
      <trkpt lat="46.57734" lon="5.75103">
        <ele>546</ele>
        <time>2021-10-25T13:08:13Z</time>
      </trkpt>
      <trkpt lat="46.57732" lon="5.75097">
        <ele>546.4</ele>
        <time>2021-10-25T13:08:16Z</time>
      </trkpt>
      <trkpt lat="46.57728" lon="5.75091">
        <ele>546.4</ele>
        <time>2021-10-25T13:08:19Z</time>
      </trkpt>
      <trkpt lat="46.57718" lon="5.75078">
        <ele>546.6</ele>
        <time>2021-10-25T13:08:23Z</time>
      </trkpt>
      <trkpt lat="46.57711" lon="5.7507">
        <ele>546.6</ele>
        <time>2021-10-25T13:08:25Z</time>
      </trkpt>
      <trkpt lat="46.57704" lon="5.75062">
        <ele>546.6</ele>
        <time>2021-10-25T13:08:27Z</time>
      </trkpt>
      <trkpt lat="46.57689" lon="5.75046">
        <ele>546.6</ele>
        <time>2021-10-25T13:08:31Z</time>
      </trkpt>
      <trkpt lat="46.5768" lon="5.75038">
        <ele>547</ele>
        <time>2021-10-25T13:08:33Z</time>
      </trkpt>
      <trkpt lat="46.57675" lon="5.75034">
        <ele>547.2</ele>
        <time>2021-10-25T13:08:34Z</time>
      </trkpt>
      <trkpt lat="46.57655" lon="5.75024">
        <ele>547.4</ele>
        <time>2021-10-25T13:08:38Z</time>
      </trkpt>
      <trkpt lat="46.5765" lon="5.75021">
        <ele>547.6</ele>
        <time>2021-10-25T13:08:39Z</time>
      </trkpt>
      <trkpt lat="46.57641" lon="5.75017">
        <ele>547.6</ele>
        <time>2021-10-25T13:08:41Z</time>
      </trkpt>
      <trkpt lat="46.57631" lon="5.75014">
        <ele>547.8</ele>
        <time>2021-10-25T13:08:43Z</time>
      </trkpt>
      <trkpt lat="46.57616" lon="5.75012">
        <ele>548</ele>
        <time>2021-10-25T13:08:46Z</time>
      </trkpt>
      <trkpt lat="46.57605" lon="5.7501">
        <ele>548</ele>
        <time>2021-10-25T13:08:48Z</time>
      </trkpt>
      <trkpt lat="46.576" lon="5.75009">
        <ele>548.2</ele>
        <time>2021-10-25T13:08:49Z</time>
      </trkpt>
      <trkpt lat="46.5759" lon="5.75008">
        <ele>548.2</ele>
        <time>2021-10-25T13:08:51Z</time>
      </trkpt>
      <trkpt lat="46.57579" lon="5.75005">
        <ele>548.6</ele>
        <time>2021-10-25T13:08:53Z</time>
      </trkpt>
      <trkpt lat="46.57574" lon="5.75003">
        <ele>548.8</ele>
        <time>2021-10-25T13:08:54Z</time>
      </trkpt>
      <trkpt lat="46.5756" lon="5.7499">
        <ele>549.4</ele>
        <time>2021-10-25T13:08:57Z</time>
      </trkpt>
      <trkpt lat="46.57532" lon="5.74974">
        <ele>549.4</ele>
        <time>2021-10-25T13:09:02Z</time>
      </trkpt>
      <trkpt lat="46.57492" lon="5.74961">
        <ele>549</ele>
        <time>2021-10-25T13:09:07Z</time>
      </trkpt>
      <trkpt lat="46.57469" lon="5.74947">
        <ele>547.4</ele>
        <time>2021-10-25T13:09:10Z</time>
      </trkpt>
      <trkpt lat="46.57464" lon="5.74937">
        <ele>546.8</ele>
        <time>2021-10-25T13:09:11Z</time>
      </trkpt>
      <trkpt lat="46.57459" lon="5.74924">
        <ele>546.6</ele>
        <time>2021-10-25T13:09:12Z</time>
      </trkpt>
      <trkpt lat="46.57456" lon="5.7491">
        <ele>545.4</ele>
        <time>2021-10-25T13:09:13Z</time>
      </trkpt>
      <trkpt lat="46.57448" lon="5.74885">
        <ele>543.6</ele>
        <time>2021-10-25T13:09:15Z</time>
      </trkpt>
      <trkpt lat="46.5744" lon="5.7486">
        <ele>542.6</ele>
        <time>2021-10-25T13:09:17Z</time>
      </trkpt>
      <trkpt lat="46.57428" lon="5.74823">
        <ele>540.8</ele>
        <time>2021-10-25T13:09:20Z</time>
      </trkpt>
      <trkpt lat="46.57424" lon="5.74811">
        <ele>540.4</ele>
        <time>2021-10-25T13:09:21Z</time>
      </trkpt>
      <trkpt lat="46.57421" lon="5.74799">
        <ele>539.8</ele>
        <time>2021-10-25T13:09:22Z</time>
      </trkpt>
      <trkpt lat="46.5742" lon="5.74778">
        <ele>539.2</ele>
        <time>2021-10-25T13:09:24Z</time>
      </trkpt>
      <trkpt lat="46.57427" lon="5.74752">
        <ele>539</ele>
        <time>2021-10-25T13:09:27Z</time>
      </trkpt>
      <trkpt lat="46.57428" lon="5.74744">
        <ele>539</ele>
        <time>2021-10-25T13:09:28Z</time>
      </trkpt>
      <trkpt lat="46.57427" lon="5.74736">
        <ele>539.2</ele>
        <time>2021-10-25T13:09:29Z</time>
      </trkpt>
      <trkpt lat="46.57423" lon="5.74729">
        <ele>539.2</ele>
        <time>2021-10-25T13:09:30Z</time>
      </trkpt>
      <trkpt lat="46.57418" lon="5.74723">
        <ele>539.2</ele>
        <time>2021-10-25T13:09:31Z</time>
      </trkpt>
      <trkpt lat="46.57399" lon="5.74713">
        <ele>539.2</ele>
        <time>2021-10-25T13:09:34Z</time>
      </trkpt>
      <trkpt lat="46.57358" lon="5.74674">
        <ele>539</ele>
        <time>2021-10-25T13:09:41Z</time>
      </trkpt>
      <trkpt lat="46.57324" lon="5.74642">
        <ele>539</ele>
        <time>2021-10-25T13:09:47Z</time>
      </trkpt>
      <trkpt lat="46.573" lon="5.7462">
        <ele>539</ele>
        <time>2021-10-25T13:09:52Z</time>
      </trkpt>
      <trkpt lat="46.57284" lon="5.74608">
        <ele>539.8</ele>
        <time>2021-10-25T13:09:56Z</time>
      </trkpt>
      <trkpt lat="46.57277" lon="5.74602">
        <ele>541</ele>
        <time>2021-10-25T13:09:58Z</time>
      </trkpt>
      <trkpt lat="46.57268" lon="5.74596">
        <ele>542.2</ele>
        <time>2021-10-25T13:10:00Z</time>
      </trkpt>
      <trkpt lat="46.57261" lon="5.7459">
        <ele>542.8</ele>
        <time>2021-10-25T13:10:02Z</time>
      </trkpt>
      <trkpt lat="46.57254" lon="5.74583">
        <ele>543.6</ele>
        <time>2021-10-25T13:10:04Z</time>
      </trkpt>
      <trkpt lat="46.57245" lon="5.74574">
        <ele>544.6</ele>
        <time>2021-10-25T13:10:07Z</time>
      </trkpt>
      <trkpt lat="46.57235" lon="5.74566">
        <ele>545.4</ele>
        <time>2021-10-25T13:10:10Z</time>
      </trkpt>
      <trkpt lat="46.57231" lon="5.74564">
        <ele>545.8</ele>
        <time>2021-10-25T13:10:11Z</time>
      </trkpt>
      <trkpt lat="46.57213" lon="5.7455">
        <ele>547.4</ele>
        <time>2021-10-25T13:10:16Z</time>
      </trkpt>
      <trkpt lat="46.57209" lon="5.74548">
        <ele>547.6</ele>
        <time>2021-10-25T13:10:17Z</time>
      </trkpt>
      <trkpt lat="46.57193" lon="5.74538">
        <ele>548.4</ele>
        <time>2021-10-25T13:10:21Z</time>
      </trkpt>
      <trkpt lat="46.57177" lon="5.74527">
        <ele>549</ele>
        <time>2021-10-25T13:10:25Z</time>
      </trkpt>
      <trkpt lat="46.57169" lon="5.74521">
        <ele>549.6</ele>
        <time>2021-10-25T13:10:27Z</time>
      </trkpt>
      <trkpt lat="46.57147" lon="5.74505">
        <ele>550.8</ele>
        <time>2021-10-25T13:10:33Z</time>
      </trkpt>
      <trkpt lat="46.57129" lon="5.74493">
        <ele>552</ele>
        <time>2021-10-25T13:10:38Z</time>
      </trkpt>
      <trkpt lat="46.57123" lon="5.74488">
        <ele>552</ele>
        <time>2021-10-25T13:10:40Z</time>
      </trkpt>
      <trkpt lat="46.5711" lon="5.74479">
        <ele>553.2</ele>
        <time>2021-10-25T13:10:44Z</time>
      </trkpt>
      <trkpt lat="46.571" lon="5.74472">
        <ele>554</ele>
        <time>2021-10-25T13:10:47Z</time>
      </trkpt>
      <trkpt lat="46.57097" lon="5.7447">
        <ele>554.6</ele>
        <time>2021-10-25T13:10:48Z</time>
      </trkpt>
      <trkpt lat="46.57086" lon="5.74461">
        <ele>555.6</ele>
        <time>2021-10-25T13:10:52Z</time>
      </trkpt>
      <trkpt lat="46.57076" lon="5.74455">
        <ele>556.4</ele>
        <time>2021-10-25T13:10:55Z</time>
      </trkpt>
      <trkpt lat="46.57071" lon="5.74452">
        <ele>556.8</ele>
        <time>2021-10-25T13:10:57Z</time>
      </trkpt>
      <trkpt lat="46.57056" lon="5.74444">
        <ele>557.8</ele>
        <time>2021-10-25T13:11:02Z</time>
      </trkpt>
      <trkpt lat="46.57041" lon="5.74439">
        <ele>559.2</ele>
        <time>2021-10-25T13:11:07Z</time>
      </trkpt>
      <trkpt lat="46.57028" lon="5.74435">
        <ele>560.2</ele>
        <time>2021-10-25T13:11:11Z</time>
      </trkpt>
      <trkpt lat="46.57012" lon="5.74431">
        <ele>561.6</ele>
        <time>2021-10-25T13:11:16Z</time>
      </trkpt>
      <trkpt lat="46.57001" lon="5.74426">
        <ele>562.6</ele>
        <time>2021-10-25T13:11:20Z</time>
      </trkpt>
      <trkpt lat="46.56998" lon="5.74425">
        <ele>562.8</ele>
        <time>2021-10-25T13:11:21Z</time>
      </trkpt>
      <trkpt lat="46.56986" lon="5.7442">
        <ele>563.8</ele>
        <time>2021-10-25T13:11:25Z</time>
      </trkpt>
      <trkpt lat="46.56975" lon="5.74415">
        <ele>564.8</ele>
        <time>2021-10-25T13:11:29Z</time>
      </trkpt>
      <trkpt lat="46.56961" lon="5.74409">
        <ele>566</ele>
        <time>2021-10-25T13:11:34Z</time>
      </trkpt>
      <trkpt lat="46.56949" lon="5.74404">
        <ele>567.2</ele>
        <time>2021-10-25T13:11:38Z</time>
      </trkpt>
      <trkpt lat="46.56947" lon="5.74402">
        <ele>567.2</ele>
        <time>2021-10-25T13:11:39Z</time>
      </trkpt>
      <trkpt lat="46.56933" lon="5.74393">
        <ele>568.2</ele>
        <time>2021-10-25T13:11:44Z</time>
      </trkpt>
      <trkpt lat="46.56922" lon="5.74383">
        <ele>569</ele>
        <time>2021-10-25T13:11:48Z</time>
      </trkpt>
      <trkpt lat="46.56917" lon="5.74377">
        <ele>569.4</ele>
        <time>2021-10-25T13:11:50Z</time>
      </trkpt>
      <trkpt lat="46.56911" lon="5.74369">
        <ele>570.4</ele>
        <time>2021-10-25T13:11:53Z</time>
      </trkpt>
      <trkpt lat="46.56902" lon="5.74357">
        <ele>571.6</ele>
        <time>2021-10-25T13:11:57Z</time>
      </trkpt>
      <trkpt lat="46.56898" lon="5.74351">
        <ele>572.2</ele>
        <time>2021-10-25T13:11:59Z</time>
      </trkpt>
      <trkpt lat="46.5689" lon="5.74339">
        <ele>572.8</ele>
        <time>2021-10-25T13:12:02Z</time>
      </trkpt>
      <trkpt lat="46.56881" lon="5.74324">
        <ele>573.4</ele>
        <time>2021-10-25T13:12:05Z</time>
      </trkpt>
      <trkpt lat="46.56871" lon="5.74306">
        <ele>574</ele>
        <time>2021-10-25T13:12:08Z</time>
      </trkpt>
      <trkpt lat="46.56865" lon="5.7429">
        <ele>574</ele>
        <time>2021-10-25T13:12:10Z</time>
      </trkpt>
      <trkpt lat="46.56848" lon="5.74233">
        <ele>573.8</ele>
        <time>2021-10-25T13:12:16Z</time>
      </trkpt>
      <trkpt lat="46.56835" lon="5.74202">
        <ele>572.8</ele>
        <time>2021-10-25T13:12:19Z</time>
      </trkpt>
      <trkpt lat="46.56824" lon="5.74181">
        <ele>572.2</ele>
        <time>2021-10-25T13:12:21Z</time>
      </trkpt>
      <trkpt lat="46.56817" lon="5.74171">
        <ele>571.6</ele>
        <time>2021-10-25T13:12:22Z</time>
      </trkpt>
      <trkpt lat="46.56795" lon="5.74142">
        <ele>569.6</ele>
        <time>2021-10-25T13:12:25Z</time>
      </trkpt>
      <trkpt lat="46.56786" lon="5.74133">
        <ele>569</ele>
        <time>2021-10-25T13:12:26Z</time>
      </trkpt>
      <trkpt lat="46.56778" lon="5.74123">
        <ele>568.4</ele>
        <time>2021-10-25T13:12:27Z</time>
      </trkpt>
      <trkpt lat="46.56761" lon="5.74105">
        <ele>567.2</ele>
        <time>2021-10-25T13:12:29Z</time>
      </trkpt>
      <trkpt lat="46.56743" lon="5.74088">
        <ele>565.8</ele>
        <time>2021-10-25T13:12:31Z</time>
      </trkpt>
      <trkpt lat="46.56733" lon="5.7408">
        <ele>564.8</ele>
        <time>2021-10-25T13:12:32Z</time>
      </trkpt>
      <trkpt lat="46.56714" lon="5.74065">
        <ele>563.8</ele>
        <time>2021-10-25T13:12:34Z</time>
      </trkpt>
      <trkpt lat="46.56693" lon="5.74052">
        <ele>563</ele>
        <time>2021-10-25T13:12:36Z</time>
      </trkpt>
      <trkpt lat="46.56673" lon="5.74038">
        <ele>562.4</ele>
        <time>2021-10-25T13:12:38Z</time>
      </trkpt>
      <trkpt lat="46.56663" lon="5.7403">
        <ele>561.2</ele>
        <time>2021-10-25T13:12:39Z</time>
      </trkpt>
      <trkpt lat="46.56653" lon="5.74022">
        <ele>560.2</ele>
        <time>2021-10-25T13:12:41Z</time>
      </trkpt>
      <trkpt lat="46.56615" lon="5.73983">
        <ele>559</ele>
        <time>2021-10-25T13:12:44Z</time>
      </trkpt>
      <trkpt lat="46.56606" lon="5.73972">
        <ele>557.6</ele>
        <time>2021-10-25T13:12:45Z</time>
      </trkpt>
      <trkpt lat="46.56597" lon="5.73961">
        <ele>556.8</ele>
        <time>2021-10-25T13:12:46Z</time>
      </trkpt>
      <trkpt lat="46.56588" lon="5.73951">
        <ele>556.4</ele>
        <time>2021-10-25T13:12:47Z</time>
      </trkpt>
      <trkpt lat="46.56578" lon="5.73942">
        <ele>555.4</ele>
        <time>2021-10-25T13:12:48Z</time>
      </trkpt>
      <trkpt lat="46.56567" lon="5.73935">
        <ele>554.8</ele>
        <time>2021-10-25T13:12:49Z</time>
      </trkpt>
      <trkpt lat="46.56556" lon="5.73929">
        <ele>554</ele>
        <time>2021-10-25T13:12:50Z</time>
      </trkpt>
      <trkpt lat="46.56545" lon="5.73925">
        <ele>553.6</ele>
        <time>2021-10-25T13:12:51Z</time>
      </trkpt>
      <trkpt lat="46.56533" lon="5.73922">
        <ele>553</ele>
        <time>2021-10-25T13:12:52Z</time>
      </trkpt>
      <trkpt lat="46.56522" lon="5.7392">
        <ele>552</ele>
        <time>2021-10-25T13:12:53Z</time>
      </trkpt>
      <trkpt lat="46.56498" lon="5.73919">
        <ele>550.8</ele>
        <time>2021-10-25T13:12:55Z</time>
      </trkpt>
      <trkpt lat="46.56487" lon="5.73921">
        <ele>550</ele>
        <time>2021-10-25T13:12:56Z</time>
      </trkpt>
      <trkpt lat="46.56475" lon="5.73922">
        <ele>549.4</ele>
        <time>2021-10-25T13:12:57Z</time>
      </trkpt>
      <trkpt lat="46.56451" lon="5.73927">
        <ele>548</ele>
        <time>2021-10-25T13:12:59Z</time>
      </trkpt>
      <trkpt lat="46.56426" lon="5.73929">
        <ele>546.6</ele>
        <time>2021-10-25T13:13:01Z</time>
      </trkpt>
      <trkpt lat="46.56414" lon="5.73926">
        <ele>545.4</ele>
        <time>2021-10-25T13:13:02Z</time>
      </trkpt>
      <trkpt lat="46.56403" lon="5.7392">
        <ele>544.8</ele>
        <time>2021-10-25T13:13:03Z</time>
      </trkpt>
      <trkpt lat="46.56394" lon="5.73911">
        <ele>544.2</ele>
        <time>2021-10-25T13:13:04Z</time>
      </trkpt>
      <trkpt lat="46.56386" lon="5.739">
        <ele>543.8</ele>
        <time>2021-10-25T13:13:05Z</time>
      </trkpt>
      <trkpt lat="46.56369" lon="5.7388">
        <ele>543</ele>
        <time>2021-10-25T13:13:07Z</time>
      </trkpt>
      <trkpt lat="46.56329" lon="5.73833">
        <ele>542.8</ele>
        <time>2021-10-25T13:13:12Z</time>
      </trkpt>
      <trkpt lat="46.56282" lon="5.73781">
        <ele>542.8</ele>
        <time>2021-10-25T13:13:18Z</time>
      </trkpt>
      <trkpt lat="46.56266" lon="5.73765">
        <ele>541.8</ele>
        <time>2021-10-25T13:13:20Z</time>
      </trkpt>
      <trkpt lat="46.56259" lon="5.73755">
        <ele>541.6</ele>
        <time>2021-10-25T13:13:21Z</time>
      </trkpt>
      <trkpt lat="46.56249" lon="5.73732">
        <ele>541</ele>
        <time>2021-10-25T13:13:23Z</time>
      </trkpt>
      <trkpt lat="46.56246" lon="5.73718">
        <ele>540.6</ele>
        <time>2021-10-25T13:13:24Z</time>
      </trkpt>
      <trkpt lat="46.56244" lon="5.73705">
        <ele>540.4</ele>
        <time>2021-10-25T13:13:25Z</time>
      </trkpt>
      <trkpt lat="46.56244" lon="5.73676">
        <ele>539.8</ele>
        <time>2021-10-25T13:13:27Z</time>
      </trkpt>
      <trkpt lat="46.5625" lon="5.7365">
        <ele>539.4</ele>
        <time>2021-10-25T13:13:29Z</time>
      </trkpt>
      <trkpt lat="46.56255" lon="5.73638">
        <ele>539.2</ele>
        <time>2021-10-25T13:13:30Z</time>
      </trkpt>
      <trkpt lat="46.56266" lon="5.73615">
        <ele>538.2</ele>
        <time>2021-10-25T13:13:32Z</time>
      </trkpt>
      <trkpt lat="46.56283" lon="5.7358">
        <ele>537</ele>
        <time>2021-10-25T13:13:35Z</time>
      </trkpt>
      <trkpt lat="46.56293" lon="5.73556">
        <ele>536.4</ele>
        <time>2021-10-25T13:13:37Z</time>
      </trkpt>
      <trkpt lat="46.56302" lon="5.73531">
        <ele>535.8</ele>
        <time>2021-10-25T13:13:39Z</time>
      </trkpt>
      <trkpt lat="46.56307" lon="5.73504">
        <ele>535</ele>
        <time>2021-10-25T13:13:41Z</time>
      </trkpt>
      <trkpt lat="46.56307" lon="5.73476">
        <ele>534.4</ele>
        <time>2021-10-25T13:13:43Z</time>
      </trkpt>
      <trkpt lat="46.56306" lon="5.73434">
        <ele>533.2</ele>
        <time>2021-10-25T13:13:46Z</time>
      </trkpt>
      <trkpt lat="46.56307" lon="5.7342">
        <ele>533</ele>
        <time>2021-10-25T13:13:47Z</time>
      </trkpt>
      <trkpt lat="46.56312" lon="5.73379">
        <ele>532.4</ele>
        <time>2021-10-25T13:13:50Z</time>
      </trkpt>
      <trkpt lat="46.56316" lon="5.73352">
        <ele>532</ele>
        <time>2021-10-25T13:13:52Z</time>
      </trkpt>
      <trkpt lat="46.56322" lon="5.73282">
        <ele>531.2</ele>
        <time>2021-10-25T13:13:57Z</time>
      </trkpt>
      <trkpt lat="46.56321" lon="5.73268">
        <ele>531</ele>
        <time>2021-10-25T13:13:58Z</time>
      </trkpt>
      <trkpt lat="46.56319" lon="5.73253">
        <ele>530.6</ele>
        <time>2021-10-25T13:13:59Z</time>
      </trkpt>
      <trkpt lat="46.56316" lon="5.7324">
        <ele>530.2</ele>
        <time>2021-10-25T13:14:00Z</time>
      </trkpt>
      <trkpt lat="46.56306" lon="5.73216">
        <ele>529.4</ele>
        <time>2021-10-25T13:14:02Z</time>
      </trkpt>
      <trkpt lat="46.56294" lon="5.73192">
        <ele>528.8</ele>
        <time>2021-10-25T13:14:04Z</time>
      </trkpt>
      <trkpt lat="46.56285" lon="5.73166">
        <ele>528.4</ele>
        <time>2021-10-25T13:14:06Z</time>
      </trkpt>
      <trkpt lat="46.56282" lon="5.73152">
        <ele>528.2</ele>
        <time>2021-10-25T13:14:07Z</time>
      </trkpt>
      <trkpt lat="46.5628" lon="5.73137">
        <ele>528</ele>
        <time>2021-10-25T13:14:08Z</time>
      </trkpt>
      <trkpt lat="46.56279" lon="5.73122">
        <ele>527.2</ele>
        <time>2021-10-25T13:14:10Z</time>
      </trkpt>
      <trkpt lat="46.56279" lon="5.73075">
        <ele>526.2</ele>
        <time>2021-10-25T13:14:12Z</time>
      </trkpt>
      <trkpt lat="46.56278" lon="5.73059">
        <ele>525.8</ele>
        <time>2021-10-25T13:14:13Z</time>
      </trkpt>
      <trkpt lat="46.56278" lon="5.73042">
        <ele>525.4</ele>
        <time>2021-10-25T13:14:14Z</time>
      </trkpt>
      <trkpt lat="46.5628" lon="5.73027">
        <ele>524.4</ele>
        <time>2021-10-25T13:14:15Z</time>
      </trkpt>
      <trkpt lat="46.56284" lon="5.73012">
        <ele>524</ele>
        <time>2021-10-25T13:14:16Z</time>
      </trkpt>
      <trkpt lat="46.5629" lon="5.73001">
        <ele>523</ele>
        <time>2021-10-25T13:14:17Z</time>
      </trkpt>
      <trkpt lat="46.56298" lon="5.72993">
        <ele>522.6</ele>
        <time>2021-10-25T13:14:18Z</time>
      </trkpt>
      <trkpt lat="46.56308" lon="5.72988">
        <ele>522</ele>
        <time>2021-10-25T13:14:19Z</time>
      </trkpt>
      <trkpt lat="46.56319" lon="5.72985">
        <ele>521</ele>
        <time>2021-10-25T13:14:20Z</time>
      </trkpt>
      <trkpt lat="46.56329" lon="5.72982">
        <ele>520.4</ele>
        <time>2021-10-25T13:14:21Z</time>
      </trkpt>
      <trkpt lat="46.56338" lon="5.7298">
        <ele>519.8</ele>
        <time>2021-10-25T13:14:22Z</time>
      </trkpt>
      <trkpt lat="46.56351" lon="5.72966">
        <ele>518.6</ele>
        <time>2021-10-25T13:14:24Z</time>
      </trkpt>
      <trkpt lat="46.56344" lon="5.72949">
        <ele>517.6</ele>
        <time>2021-10-25T13:14:26Z</time>
      </trkpt>
      <trkpt lat="46.56328" lon="5.72941">
        <ele>516.4</ele>
        <time>2021-10-25T13:14:28Z</time>
      </trkpt>
      <trkpt lat="46.56318" lon="5.72938">
        <ele>515.8</ele>
        <time>2021-10-25T13:14:29Z</time>
      </trkpt>
      <trkpt lat="46.56308" lon="5.72935">
        <ele>515.2</ele>
        <time>2021-10-25T13:14:30Z</time>
      </trkpt>
      <trkpt lat="46.56288" lon="5.7293">
        <ele>513.8</ele>
        <time>2021-10-25T13:14:32Z</time>
      </trkpt>
      <trkpt lat="46.56267" lon="5.72927">
        <ele>512.8</ele>
        <time>2021-10-25T13:14:34Z</time>
      </trkpt>
      <trkpt lat="46.56233" lon="5.72924">
        <ele>511</ele>
        <time>2021-10-25T13:14:37Z</time>
      </trkpt>
      <trkpt lat="46.56221" lon="5.72923">
        <ele>509.8</ele>
        <time>2021-10-25T13:14:38Z</time>
      </trkpt>
      <trkpt lat="46.56199" lon="5.72921">
        <ele>508.8</ele>
        <time>2021-10-25T13:14:40Z</time>
      </trkpt>
      <trkpt lat="46.56189" lon="5.72919">
        <ele>508</ele>
        <time>2021-10-25T13:14:41Z</time>
      </trkpt>
      <trkpt lat="46.56189" lon="5.72919">
        <ele>507.6</ele>
        <time>2021-10-25T13:14:42Z</time>
      </trkpt>
      <trkpt lat="46.5617" lon="5.72908">
        <ele>507</ele>
        <time>2021-10-25T13:14:43Z</time>
      </trkpt>
      <trkpt lat="46.56162" lon="5.72901">
        <ele>506.6</ele>
        <time>2021-10-25T13:14:44Z</time>
      </trkpt>
      <trkpt lat="46.56154" lon="5.72893">
        <ele>506.2</ele>
        <time>2021-10-25T13:14:45Z</time>
      </trkpt>
      <trkpt lat="46.56125" lon="5.72856">
        <ele>505.6</ele>
        <time>2021-10-25T13:14:49Z</time>
      </trkpt>
      <trkpt lat="46.56111" lon="5.72838">
        <ele>505.2</ele>
        <time>2021-10-25T13:14:51Z</time>
      </trkpt>
      <trkpt lat="46.56083" lon="5.72799">
        <ele>503.8</ele>
        <time>2021-10-25T13:14:55Z</time>
      </trkpt>
      <trkpt lat="46.56061" lon="5.7277">
        <ele>503.2</ele>
        <time>2021-10-25T13:14:58Z</time>
      </trkpt>
      <trkpt lat="46.5604" lon="5.72741">
        <ele>502.4</ele>
        <time>2021-10-25T13:15:01Z</time>
      </trkpt>
      <trkpt lat="46.56004" lon="5.72695">
        <ele>501.2</ele>
        <time>2021-10-25T13:15:06Z</time>
      </trkpt>
      <trkpt lat="46.55979" lon="5.72662">
        <ele>500.2</ele>
        <time>2021-10-25T13:15:10Z</time>
      </trkpt>
      <trkpt lat="46.55973" lon="5.72654">
        <ele>500</ele>
        <time>2021-10-25T13:15:11Z</time>
      </trkpt>
      <trkpt lat="46.55964" lon="5.72638">
        <ele>500</ele>
        <time>2021-10-25T13:15:13Z</time>
      </trkpt>
      <trkpt lat="46.55961" lon="5.7263">
        <ele>500</ele>
        <time>2021-10-25T13:15:14Z</time>
      </trkpt>
      <trkpt lat="46.55961" lon="5.72622">
        <ele>500</ele>
        <time>2021-10-25T13:15:15Z</time>
      </trkpt>
      <trkpt lat="46.55964" lon="5.72615">
        <ele>500</ele>
        <time>2021-10-25T13:15:16Z</time>
      </trkpt>
      <trkpt lat="46.55968" lon="5.7261">
        <ele>500</ele>
        <time>2021-10-25T13:15:17Z</time>
      </trkpt>
      <trkpt lat="46.55981" lon="5.72601">
        <ele>500</ele>
        <time>2021-10-25T13:15:19Z</time>
      </trkpt>
      <trkpt lat="46.56019" lon="5.72577">
        <ele>499.6</ele>
        <time>2021-10-25T13:15:24Z</time>
      </trkpt>
      <trkpt lat="46.56045" lon="5.7256">
        <ele>499.2</ele>
        <time>2021-10-25T13:15:27Z</time>
      </trkpt>
      <trkpt lat="46.56063" lon="5.72548">
        <ele>498.6</ele>
        <time>2021-10-25T13:15:30Z</time>
      </trkpt>
      <trkpt lat="46.56099" lon="5.72525">
        <ele>497.8</ele>
        <time>2021-10-25T13:15:33Z</time>
      </trkpt>
      <trkpt lat="46.56126" lon="5.72507">
        <ele>496.4</ele>
        <time>2021-10-25T13:15:36Z</time>
      </trkpt>
      <trkpt lat="46.56134" lon="5.72502">
        <ele>496.2</ele>
        <time>2021-10-25T13:15:37Z</time>
      </trkpt>
      <trkpt lat="46.56186" lon="5.72467">
        <ele>495.6</ele>
        <time>2021-10-25T13:15:43Z</time>
      </trkpt>
      <trkpt lat="46.56211" lon="5.72451">
        <ele>495.4</ele>
        <time>2021-10-25T13:15:46Z</time>
      </trkpt>
      <trkpt lat="46.56228" lon="5.7244">
        <ele>495.2</ele>
        <time>2021-10-25T13:15:48Z</time>
      </trkpt>
      <trkpt lat="46.56279" lon="5.72406">
        <ele>494.8</ele>
        <time>2021-10-25T13:15:54Z</time>
      </trkpt>
      <trkpt lat="46.56297" lon="5.72395">
        <ele>494.8</ele>
        <time>2021-10-25T13:15:56Z</time>
      </trkpt>
      <trkpt lat="46.56324" lon="5.72377">
        <ele>494.2</ele>
        <time>2021-10-25T13:15:59Z</time>
      </trkpt>
      <trkpt lat="46.56364" lon="5.72349">
        <ele>493.2</ele>
        <time>2021-10-25T13:16:04Z</time>
      </trkpt>
      <trkpt lat="46.56391" lon="5.7233">
        <ele>492.4</ele>
        <time>2021-10-25T13:16:07Z</time>
      </trkpt>
      <trkpt lat="46.56446" lon="5.72293">
        <ele>492.4</ele>
        <time>2021-10-25T13:16:14Z</time>
      </trkpt>
      <trkpt lat="46.56461" lon="5.72283">
        <ele>492.4</ele>
        <time>2021-10-25T13:16:16Z</time>
      </trkpt>
      <trkpt lat="46.56517" lon="5.72244">
        <ele>492.6</ele>
        <time>2021-10-25T13:16:23Z</time>
      </trkpt>
      <trkpt lat="46.56556" lon="5.72214">
        <ele>492.6</ele>
        <time>2021-10-25T13:16:28Z</time>
      </trkpt>
      <trkpt lat="46.56599" lon="5.72165">
        <ele>492.8</ele>
        <time>2021-10-25T13:16:35Z</time>
      </trkpt>
      <trkpt lat="46.56639" lon="5.72111">
        <ele>493</ele>
        <time>2021-10-25T13:16:42Z</time>
      </trkpt>
      <trkpt lat="46.56645" lon="5.72103">
        <ele>493</ele>
        <time>2021-10-25T13:16:43Z</time>
      </trkpt>
      <trkpt lat="46.5668" lon="5.72039">
        <ele>493</ele>
        <time>2021-10-25T13:16:50Z</time>
      </trkpt>
      <trkpt lat="46.56713" lon="5.7197">
        <ele>492.8</ele>
        <time>2021-10-25T13:16:57Z</time>
      </trkpt>
      <trkpt lat="46.56745" lon="5.71901">
        <ele>492.2</ele>
        <time>2021-10-25T13:17:04Z</time>
      </trkpt>
      <trkpt lat="46.56777" lon="5.71832">
        <ele>493.2</ele>
        <time>2021-10-25T13:17:12Z</time>
      </trkpt>
      <trkpt lat="46.56808" lon="5.71763">
        <ele>494.2</ele>
        <time>2021-10-25T13:17:20Z</time>
      </trkpt>
      <trkpt lat="46.56814" lon="5.71748">
        <ele>494.6</ele>
        <time>2021-10-25T13:17:22Z</time>
      </trkpt>
      <trkpt lat="46.56844" lon="5.71683">
        <ele>495.2</ele>
        <time>2021-10-25T13:17:30Z</time>
      </trkpt>
      <trkpt lat="46.5686" lon="5.71648">
        <ele>495.6</ele>
        <time>2021-10-25T13:17:34Z</time>
      </trkpt>
      <trkpt lat="46.56888" lon="5.71585">
        <ele>496.2</ele>
        <time>2021-10-25T13:17:42Z</time>
      </trkpt>
      <trkpt lat="46.56909" lon="5.71538">
        <ele>496.8</ele>
        <time>2021-10-25T13:17:48Z</time>
      </trkpt>
      <trkpt lat="46.56924" lon="5.71506">
        <ele>497.4</ele>
        <time>2021-10-25T13:17:52Z</time>
      </trkpt>
      <trkpt lat="46.56933" lon="5.71484">
        <ele>498</ele>
        <time>2021-10-25T13:17:55Z</time>
      </trkpt>
      <trkpt lat="46.56958" lon="5.71418">
        <ele>497.8</ele>
        <time>2021-10-25T13:18:03Z</time>
      </trkpt>
      <trkpt lat="46.56968" lon="5.71357">
        <ele>497.4</ele>
        <time>2021-10-25T13:18:09Z</time>
      </trkpt>
      <trkpt lat="46.56973" lon="5.71304">
        <ele>496.8</ele>
        <time>2021-10-25T13:18:14Z</time>
      </trkpt>
      <trkpt lat="46.56975" lon="5.71283">
        <ele>496.6</ele>
        <time>2021-10-25T13:18:16Z</time>
      </trkpt>
      <trkpt lat="46.56978" lon="5.71227">
        <ele>496</ele>
        <time>2021-10-25T13:18:21Z</time>
      </trkpt>
      <trkpt lat="46.56979" lon="5.71208">
        <ele>495.8</ele>
        <time>2021-10-25T13:18:23Z</time>
      </trkpt>
      <trkpt lat="46.56981" lon="5.71173">
        <ele>495.8</ele>
        <time>2021-10-25T13:18:26Z</time>
      </trkpt>
      <trkpt lat="46.56983" lon="5.7109">
        <ele>495.8</ele>
        <time>2021-10-25T13:18:34Z</time>
      </trkpt>
      <trkpt lat="46.56985" lon="5.71068">
        <ele>495.6</ele>
        <time>2021-10-25T13:18:36Z</time>
      </trkpt>
      <trkpt lat="46.56986" lon="5.71057">
        <ele>495.6</ele>
        <time>2021-10-25T13:18:37Z</time>
      </trkpt>
      <trkpt lat="46.56992" lon="5.71041">
        <ele>495.8</ele>
        <time>2021-10-25T13:18:39Z</time>
      </trkpt>
      <trkpt lat="46.5701" lon="5.71023">
        <ele>496</ele>
        <time>2021-10-25T13:18:42Z</time>
      </trkpt>
      <trkpt lat="46.57043" lon="5.71012">
        <ele>496.6</ele>
        <time>2021-10-25T13:18:47Z</time>
      </trkpt>
      <trkpt lat="46.57079" lon="5.70997">
        <ele>497</ele>
        <time>2021-10-25T13:18:52Z</time>
      </trkpt>
      <trkpt lat="46.57126" lon="5.70976">
        <ele>497.2</ele>
        <time>2021-10-25T13:18:58Z</time>
      </trkpt>
      <trkpt lat="46.57185" lon="5.70947">
        <ele>496.2</ele>
        <time>2021-10-25T13:19:05Z</time>
      </trkpt>
      <trkpt lat="46.57191" lon="5.70944">
        <ele>496</ele>
        <time>2021-10-25T13:19:06Z</time>
      </trkpt>
      <trkpt lat="46.57245" lon="5.70913">
        <ele>494.8</ele>
        <time>2021-10-25T13:19:13Z</time>
      </trkpt>
      <trkpt lat="46.57254" lon="5.70907">
        <ele>494.8</ele>
        <time>2021-10-25T13:19:14Z</time>
      </trkpt>
      <trkpt lat="46.57299" lon="5.70873">
        <ele>493.4</ele>
        <time>2021-10-25T13:19:20Z</time>
      </trkpt>
      <trkpt lat="46.57337" lon="5.70844">
        <ele>492.4</ele>
        <time>2021-10-25T13:19:25Z</time>
      </trkpt>
      <trkpt lat="46.57353" lon="5.70831">
        <ele>492.2</ele>
        <time>2021-10-25T13:19:27Z</time>
      </trkpt>
      <trkpt lat="46.57385" lon="5.70807">
        <ele>491.2</ele>
        <time>2021-10-25T13:19:31Z</time>
      </trkpt>
      <trkpt lat="46.57407" lon="5.70787">
        <ele>490.4</ele>
        <time>2021-10-25T13:19:34Z</time>
      </trkpt>
      <trkpt lat="46.57414" lon="5.7078">
        <ele>490.2</ele>
        <time>2021-10-25T13:19:35Z</time>
      </trkpt>
      <trkpt lat="46.5744" lon="5.7076">
        <ele>489</ele>
        <time>2021-10-25T13:19:38Z</time>
      </trkpt>
      <trkpt lat="46.57465" lon="5.70739">
        <ele>488</ele>
        <time>2021-10-25T13:19:41Z</time>
      </trkpt>
      <trkpt lat="46.5749" lon="5.70718">
        <ele>487</ele>
        <time>2021-10-25T13:19:44Z</time>
      </trkpt>
      <trkpt lat="46.57499" lon="5.70711">
        <ele>486.4</ele>
        <time>2021-10-25T13:19:45Z</time>
      </trkpt>
      <trkpt lat="46.57522" lon="5.707">
        <ele>485.2</ele>
        <time>2021-10-25T13:19:47Z</time>
      </trkpt>
      <trkpt lat="46.57533" lon="5.70696">
        <ele>484.4</ele>
        <time>2021-10-25T13:19:48Z</time>
      </trkpt>
      <trkpt lat="46.57541" lon="5.70692">
        <ele>483.8</ele>
        <time>2021-10-25T13:19:49Z</time>
      </trkpt>
      <trkpt lat="46.57552" lon="5.70687">
        <ele>482.8</ele>
        <time>2021-10-25T13:19:50Z</time>
      </trkpt>
      <trkpt lat="46.57576" lon="5.70673">
        <ele>481.4</ele>
        <time>2021-10-25T13:19:52Z</time>
      </trkpt>
      <trkpt lat="46.57586" lon="5.70664">
        <ele>481</ele>
        <time>2021-10-25T13:19:53Z</time>
      </trkpt>
      <trkpt lat="46.57596" lon="5.70654">
        <ele>480</ele>
        <time>2021-10-25T13:19:54Z</time>
      </trkpt>
      <trkpt lat="46.57613" lon="5.70637">
        <ele>478.6</ele>
        <time>2021-10-25T13:19:56Z</time>
      </trkpt>
      <trkpt lat="46.57632" lon="5.70617">
        <ele>477.2</ele>
        <time>2021-10-25T13:19:58Z</time>
      </trkpt>
      <trkpt lat="46.57653" lon="5.70595">
        <ele>476</ele>
        <time>2021-10-25T13:20:00Z</time>
      </trkpt>
      <trkpt lat="46.57671" lon="5.70576">
        <ele>474.4</ele>
        <time>2021-10-25T13:20:02Z</time>
      </trkpt>
      <trkpt lat="46.57697" lon="5.7055">
        <ele>473.2</ele>
        <time>2021-10-25T13:20:05Z</time>
      </trkpt>
      <trkpt lat="46.57726" lon="5.7052">
        <ele>472</ele>
        <time>2021-10-25T13:20:08Z</time>
      </trkpt>
      <trkpt lat="46.57745" lon="5.70503">
        <ele>471.2</ele>
        <time>2021-10-25T13:20:10Z</time>
      </trkpt>
      <trkpt lat="46.57753" lon="5.70497">
        <ele>470.6</ele>
        <time>2021-10-25T13:20:11Z</time>
      </trkpt>
      <trkpt lat="46.57777" lon="5.7049">
        <ele>469.8</ele>
        <time>2021-10-25T13:20:13Z</time>
      </trkpt>
      <trkpt lat="46.57798" lon="5.7049">
        <ele>469.2</ele>
        <time>2021-10-25T13:20:15Z</time>
      </trkpt>
      <trkpt lat="46.57826" lon="5.70488">
        <ele>468.6</ele>
        <time>2021-10-25T13:20:17Z</time>
      </trkpt>
      <trkpt lat="46.57838" lon="5.70484">
        <ele>467.6</ele>
        <time>2021-10-25T13:20:18Z</time>
      </trkpt>
      <trkpt lat="46.5785" lon="5.70479">
        <ele>466.2</ele>
        <time>2021-10-25T13:20:19Z</time>
      </trkpt>
      <trkpt lat="46.57861" lon="5.70473">
        <ele>464.2</ele>
        <time>2021-10-25T13:20:20Z</time>
      </trkpt>
      <trkpt lat="46.57872" lon="5.70466">
        <ele>463.2</ele>
        <time>2021-10-25T13:20:21Z</time>
      </trkpt>
      <trkpt lat="46.57882" lon="5.70459">
        <ele>462.2</ele>
        <time>2021-10-25T13:20:22Z</time>
      </trkpt>
      <trkpt lat="46.57901" lon="5.70445">
        <ele>460.6</ele>
        <time>2021-10-25T13:20:24Z</time>
      </trkpt>
      <trkpt lat="46.5791" lon="5.70439">
        <ele>459.4</ele>
        <time>2021-10-25T13:20:25Z</time>
      </trkpt>
      <trkpt lat="46.57928" lon="5.70431">
        <ele>458.4</ele>
        <time>2021-10-25T13:20:27Z</time>
      </trkpt>
      <trkpt lat="46.57937" lon="5.70427">
        <ele>458</ele>
        <time>2021-10-25T13:20:28Z</time>
      </trkpt>
      <trkpt lat="46.57947" lon="5.70425">
        <ele>457.8</ele>
        <time>2021-10-25T13:20:29Z</time>
      </trkpt>
      <trkpt lat="46.5798" lon="5.70421">
        <ele>456.6</ele>
        <time>2021-10-25T13:20:32Z</time>
      </trkpt>
      <trkpt lat="46.58024" lon="5.70415">
        <ele>456</ele>
        <time>2021-10-25T13:20:36Z</time>
      </trkpt>
      <trkpt lat="46.58035" lon="5.70414">
        <ele>455.6</ele>
        <time>2021-10-25T13:20:37Z</time>
      </trkpt>
      <trkpt lat="46.58055" lon="5.70411">
        <ele>454.2</ele>
        <time>2021-10-25T13:20:39Z</time>
      </trkpt>
      <trkpt lat="46.58079" lon="5.70408">
        <ele>452.6</ele>
        <time>2021-10-25T13:20:41Z</time>
      </trkpt>
      <trkpt lat="46.58099" lon="5.70404">
        <ele>452</ele>
        <time>2021-10-25T13:20:43Z</time>
      </trkpt>
      <trkpt lat="46.58109" lon="5.704">
        <ele>451.8</ele>
        <time>2021-10-25T13:20:44Z</time>
      </trkpt>
      <trkpt lat="46.58119" lon="5.70395">
        <ele>451.6</ele>
        <time>2021-10-25T13:20:45Z</time>
      </trkpt>
      <trkpt lat="46.58128" lon="5.7039">
        <ele>451.4</ele>
        <time>2021-10-25T13:20:46Z</time>
      </trkpt>
      <trkpt lat="46.58136" lon="5.70383">
        <ele>451.2</ele>
        <time>2021-10-25T13:20:47Z</time>
      </trkpt>
      <trkpt lat="46.58145" lon="5.70376">
        <ele>450.8</ele>
        <time>2021-10-25T13:20:48Z</time>
      </trkpt>
      <trkpt lat="46.58161" lon="5.70363">
        <ele>450.4</ele>
        <time>2021-10-25T13:20:50Z</time>
      </trkpt>
      <trkpt lat="46.58196" lon="5.70338">
        <ele>450.2</ele>
        <time>2021-10-25T13:20:54Z</time>
      </trkpt>
      <trkpt lat="46.58245" lon="5.70301">
        <ele>450</ele>
        <time>2021-10-25T13:21:00Z</time>
      </trkpt>
      <trkpt lat="46.58261" lon="5.70288">
        <ele>449.6</ele>
        <time>2021-10-25T13:21:02Z</time>
      </trkpt>
      <trkpt lat="46.58268" lon="5.70282">
        <ele>449.2</ele>
        <time>2021-10-25T13:21:03Z</time>
      </trkpt>
      <trkpt lat="46.5828" lon="5.70273">
        <ele>448.8</ele>
        <time>2021-10-25T13:21:05Z</time>
      </trkpt>
      <trkpt lat="46.58283" lon="5.70271">
        <ele>448.8</ele>
        <time>2021-10-25T13:21:06Z</time>
      </trkpt>
      <trkpt lat="46.58284" lon="5.70272">
        <ele>448.8</ele>
        <time>2021-10-25T13:21:09Z</time>
      </trkpt>
      <trkpt lat="46.58284" lon="5.70272">
        <ele>449</ele>
        <time>2021-10-25T13:21:12Z</time>
      </trkpt>
      <trkpt lat="46.58287" lon="5.70268">
        <ele>449.2</ele>
        <time>2021-10-25T13:21:47Z</time>
      </trkpt>
      <trkpt lat="46.58291" lon="5.70265">
        <ele>449.2</ele>
        <time>2021-10-25T13:21:49Z</time>
      </trkpt>
      <trkpt lat="46.58303" lon="5.70255">
        <ele>449</ele>
        <time>2021-10-25T13:21:53Z</time>
      </trkpt>
      <trkpt lat="46.58306" lon="5.70252">
        <ele>449</ele>
        <time>2021-10-25T13:21:54Z</time>
      </trkpt>
      <trkpt lat="46.5832" lon="5.70242">
        <ele>449</ele>
        <time>2021-10-25T13:21:57Z</time>
      </trkpt>
      <trkpt lat="46.58353" lon="5.70215">
        <ele>448.8</ele>
        <time>2021-10-25T13:22:03Z</time>
      </trkpt>
      <trkpt lat="46.58405" lon="5.70183">
        <ele>449.2</ele>
        <time>2021-10-25T13:22:13Z</time>
      </trkpt>
      <trkpt lat="46.58416" lon="5.70177">
        <ele>449.6</ele>
        <time>2021-10-25T13:22:15Z</time>
      </trkpt>
      <trkpt lat="46.58426" lon="5.70173">
        <ele>450.2</ele>
        <time>2021-10-25T13:22:17Z</time>
      </trkpt>
      <trkpt lat="46.58431" lon="5.70171">
        <ele>450.6</ele>
        <time>2021-10-25T13:22:18Z</time>
      </trkpt>
      <trkpt lat="46.58464" lon="5.70165">
        <ele>451.8</ele>
        <time>2021-10-25T13:22:24Z</time>
      </trkpt>
      <trkpt lat="46.58481" lon="5.70164">
        <ele>452.2</ele>
        <time>2021-10-25T13:22:27Z</time>
      </trkpt>
      <trkpt lat="46.58509" lon="5.70164">
        <ele>452.6</ele>
        <time>2021-10-25T13:22:33Z</time>
      </trkpt>
      <trkpt lat="46.58512" lon="5.70164">
        <ele>452.6</ele>
        <time>2021-10-25T13:22:34Z</time>
      </trkpt>
      <trkpt lat="46.58516" lon="5.70159">
        <ele>453</ele>
        <time>2021-10-25T13:22:36Z</time>
      </trkpt>
      <trkpt lat="46.58516" lon="5.70153">
        <ele>453.2</ele>
        <time>2021-10-25T13:22:37Z</time>
      </trkpt>
      <trkpt lat="46.58514" lon="5.70136">
        <ele>453.2</ele>
        <time>2021-10-25T13:22:39Z</time>
      </trkpt>
      <trkpt lat="46.58507" lon="5.70083">
        <ele>452.6</ele>
        <time>2021-10-25T13:22:45Z</time>
      </trkpt>
      <trkpt lat="46.58502" lon="5.70018">
        <ele>452.4</ele>
        <time>2021-10-25T13:22:52Z</time>
      </trkpt>
      <trkpt lat="46.58499" lon="5.69959">
        <ele>451.8</ele>
        <time>2021-10-25T13:22:57Z</time>
      </trkpt>
      <trkpt lat="46.585" lon="5.69947">
        <ele>451.6</ele>
        <time>2021-10-25T13:22:58Z</time>
      </trkpt>
      <trkpt lat="46.58506" lon="5.69925">
        <ele>450.6</ele>
        <time>2021-10-25T13:23:00Z</time>
      </trkpt>
      <trkpt lat="46.58516" lon="5.69893">
        <ele>449.4</ele>
        <time>2021-10-25T13:23:03Z</time>
      </trkpt>
      <trkpt lat="46.58529" lon="5.69849">
        <ele>448.8</ele>
        <time>2021-10-25T13:23:07Z</time>
      </trkpt>
      <trkpt lat="46.58549" lon="5.69776">
        <ele>448.8</ele>
        <time>2021-10-25T13:23:15Z</time>
      </trkpt>
      <trkpt lat="46.58564" lon="5.69729">
        <ele>449.2</ele>
        <time>2021-10-25T13:23:21Z</time>
      </trkpt>
      <trkpt lat="46.58559" lon="5.69719">
        <ele>449.6</ele>
        <time>2021-10-25T13:23:23Z</time>
      </trkpt>
      <trkpt lat="46.58541" lon="5.69698">
        <ele>449.8</ele>
        <time>2021-10-25T13:23:27Z</time>
      </trkpt>
      <trkpt lat="46.58498" lon="5.69648">
        <ele>450.6</ele>
        <time>2021-10-25T13:23:36Z</time>
      </trkpt>
      <trkpt lat="46.58472" lon="5.69615">
        <ele>451.6</ele>
        <time>2021-10-25T13:23:42Z</time>
      </trkpt>
      <trkpt lat="46.5846" lon="5.69602">
        <ele>452.4</ele>
        <time>2021-10-25T13:23:45Z</time>
      </trkpt>
      <trkpt lat="46.5845" lon="5.69591">
        <ele>453</ele>
        <time>2021-10-25T13:23:47Z</time>
      </trkpt>
      <trkpt lat="46.58433" lon="5.69573">
        <ele>454</ele>
        <time>2021-10-25T13:23:51Z</time>
      </trkpt>
      <trkpt lat="46.58425" lon="5.69563">
        <ele>454.2</ele>
        <time>2021-10-25T13:23:53Z</time>
      </trkpt>
      <trkpt lat="46.58396" lon="5.6953">
        <ele>455.2</ele>
        <time>2021-10-25T13:24:00Z</time>
      </trkpt>
      <trkpt lat="46.58384" lon="5.69517">
        <ele>455.8</ele>
        <time>2021-10-25T13:24:03Z</time>
      </trkpt>
      <trkpt lat="46.58379" lon="5.69511">
        <ele>456.2</ele>
        <time>2021-10-25T13:24:04Z</time>
      </trkpt>
      <trkpt lat="46.58376" lon="5.69506">
        <ele>456.4</ele>
        <time>2021-10-25T13:24:05Z</time>
      </trkpt>
      <trkpt lat="46.58362" lon="5.6949">
        <ele>457.2</ele>
        <time>2021-10-25T13:24:09Z</time>
      </trkpt>
      <trkpt lat="46.58357" lon="5.69485">
        <ele>457.4</ele>
        <time>2021-10-25T13:24:10Z</time>
      </trkpt>
      <trkpt lat="46.58332" lon="5.69456">
        <ele>458.6</ele>
        <time>2021-10-25T13:24:17Z</time>
      </trkpt>
      <trkpt lat="46.58329" lon="5.69453">
        <ele>458.8</ele>
        <time>2021-10-25T13:24:18Z</time>
      </trkpt>
      <trkpt lat="46.58325" lon="5.69448">
        <ele>459</ele>
        <time>2021-10-25T13:24:19Z</time>
      </trkpt>
      <trkpt lat="46.58315" lon="5.69434">
        <ele>459.8</ele>
        <time>2021-10-25T13:24:22Z</time>
      </trkpt>
      <trkpt lat="46.58304" lon="5.6942">
        <ele>460.2</ele>
        <time>2021-10-25T13:24:25Z</time>
      </trkpt>
      <trkpt lat="46.58287" lon="5.69399">
        <ele>460.8</ele>
        <time>2021-10-25T13:24:30Z</time>
      </trkpt>
      <trkpt lat="46.58278" lon="5.69387">
        <ele>461.8</ele>
        <time>2021-10-25T13:24:33Z</time>
      </trkpt>
      <trkpt lat="46.58268" lon="5.69375">
        <ele>462.4</ele>
        <time>2021-10-25T13:24:36Z</time>
      </trkpt>
      <trkpt lat="46.58257" lon="5.69363">
        <ele>462.8</ele>
        <time>2021-10-25T13:24:39Z</time>
      </trkpt>
      <trkpt lat="46.58251" lon="5.69356">
        <ele>463.2</ele>
        <time>2021-10-25T13:24:41Z</time>
      </trkpt>
      <trkpt lat="46.58243" lon="5.69349">
        <ele>464</ele>
        <time>2021-10-25T13:24:43Z</time>
      </trkpt>
      <trkpt lat="46.58237" lon="5.69341">
        <ele>464.4</ele>
        <time>2021-10-25T13:24:45Z</time>
      </trkpt>
      <trkpt lat="46.58221" lon="5.69327">
        <ele>465.2</ele>
        <time>2021-10-25T13:24:49Z</time>
      </trkpt>
      <trkpt lat="46.58205" lon="5.69312">
        <ele>466.2</ele>
        <time>2021-10-25T13:24:53Z</time>
      </trkpt>
      <trkpt lat="46.58196" lon="5.69312">
        <ele>466.4</ele>
        <time>2021-10-25T13:24:55Z</time>
      </trkpt>
      <trkpt lat="46.58193" lon="5.69315">
        <ele>466.6</ele>
        <time>2021-10-25T13:24:56Z</time>
      </trkpt>
      <trkpt lat="46.58178" lon="5.69328">
        <ele>467</ele>
        <time>2021-10-25T13:24:59Z</time>
      </trkpt>
      <trkpt lat="46.58173" lon="5.6933">
        <ele>467.2</ele>
        <time>2021-10-25T13:25:00Z</time>
      </trkpt>
      <trkpt lat="46.58163" lon="5.69331">
        <ele>467.6</ele>
        <time>2021-10-25T13:25:02Z</time>
      </trkpt>
      <trkpt lat="46.58158" lon="5.6933">
        <ele>467.8</ele>
        <time>2021-10-25T13:25:03Z</time>
      </trkpt>
      <trkpt lat="46.58142" lon="5.69331">
        <ele>468</ele>
        <time>2021-10-25T13:25:06Z</time>
      </trkpt>
      <trkpt lat="46.58128" lon="5.69331">
        <ele>468.6</ele>
        <time>2021-10-25T13:25:09Z</time>
      </trkpt>
      <trkpt lat="46.58112" lon="5.69332">
        <ele>468.8</ele>
        <time>2021-10-25T13:25:12Z</time>
      </trkpt>
      <trkpt lat="46.58102" lon="5.69333">
        <ele>469</ele>
        <time>2021-10-25T13:25:14Z</time>
      </trkpt>
      <trkpt lat="46.58069" lon="5.6934">
        <ele>469.8</ele>
        <time>2021-10-25T13:25:20Z</time>
      </trkpt>
      <trkpt lat="46.58041" lon="5.69347">
        <ele>470.2</ele>
        <time>2021-10-25T13:25:25Z</time>
      </trkpt>
      <trkpt lat="46.57994" lon="5.69353">
        <ele>470.8</ele>
        <time>2021-10-25T13:25:33Z</time>
      </trkpt>
      <trkpt lat="46.5798" lon="5.69354">
        <ele>470.8</ele>
        <time>2021-10-25T13:25:35Z</time>
      </trkpt>
      <trkpt lat="46.57956" lon="5.69355">
        <ele>471</ele>
        <time>2021-10-25T13:25:39Z</time>
      </trkpt>
      <trkpt lat="46.57917" lon="5.69363">
        <ele>472</ele>
        <time>2021-10-25T13:25:46Z</time>
      </trkpt>
      <trkpt lat="46.57878" lon="5.69377">
        <ele>473</ele>
        <time>2021-10-25T13:25:53Z</time>
      </trkpt>
      <trkpt lat="46.57857" lon="5.69385">
        <ele>473.2</ele>
        <time>2021-10-25T13:25:57Z</time>
      </trkpt>
      <trkpt lat="46.57822" lon="5.69398">
        <ele>474</ele>
        <time>2021-10-25T13:26:03Z</time>
      </trkpt>
      <trkpt lat="46.57812" lon="5.69404">
        <ele>474.2</ele>
        <time>2021-10-25T13:26:05Z</time>
      </trkpt>
      <trkpt lat="46.57806" lon="5.69408">
        <ele>474.4</ele>
        <time>2021-10-25T13:26:06Z</time>
      </trkpt>
      <trkpt lat="46.578" lon="5.69415">
        <ele>474.4</ele>
        <time>2021-10-25T13:26:07Z</time>
      </trkpt>
      <trkpt lat="46.57791" lon="5.69431">
        <ele>474.2</ele>
        <time>2021-10-25T13:26:09Z</time>
      </trkpt>
      <trkpt lat="46.57786" lon="5.69439">
        <ele>474.2</ele>
        <time>2021-10-25T13:26:10Z</time>
      </trkpt>
      <trkpt lat="46.57758" lon="5.69489">
        <ele>473</ele>
        <time>2021-10-25T13:26:16Z</time>
      </trkpt>
      <trkpt lat="46.57748" lon="5.69505">
        <ele>472.8</ele>
        <time>2021-10-25T13:26:18Z</time>
      </trkpt>
      <trkpt lat="46.57735" lon="5.69519">
        <ele>472.6</ele>
        <time>2021-10-25T13:26:20Z</time>
      </trkpt>
      <trkpt lat="46.57721" lon="5.69528">
        <ele>472.6</ele>
        <time>2021-10-25T13:26:22Z</time>
      </trkpt>
      <trkpt lat="46.57709" lon="5.69531">
        <ele>472.6</ele>
        <time>2021-10-25T13:26:24Z</time>
      </trkpt>
      <trkpt lat="46.5769" lon="5.69528">
        <ele>473</ele>
        <time>2021-10-25T13:26:27Z</time>
      </trkpt>
      <trkpt lat="46.57684" lon="5.69525">
        <ele>473.4</ele>
        <time>2021-10-25T13:26:28Z</time>
      </trkpt>
      <trkpt lat="46.57679" lon="5.69522">
        <ele>473.6</ele>
        <time>2021-10-25T13:26:29Z</time>
      </trkpt>
      <trkpt lat="46.57669" lon="5.69515">
        <ele>473.8</ele>
        <time>2021-10-25T13:26:31Z</time>
      </trkpt>
      <trkpt lat="46.57665" lon="5.6951">
        <ele>474</ele>
        <time>2021-10-25T13:26:32Z</time>
      </trkpt>
      <trkpt lat="46.57661" lon="5.69505">
        <ele>474.4</ele>
        <time>2021-10-25T13:26:33Z</time>
      </trkpt>
      <trkpt lat="46.57653" lon="5.69496">
        <ele>475.2</ele>
        <time>2021-10-25T13:26:35Z</time>
      </trkpt>
      <trkpt lat="46.57641" lon="5.69482">
        <ele>476.2</ele>
        <time>2021-10-25T13:26:38Z</time>
      </trkpt>
      <trkpt lat="46.57637" lon="5.69477">
        <ele>476.4</ele>
        <time>2021-10-25T13:26:39Z</time>
      </trkpt>
      <trkpt lat="46.57633" lon="5.6947">
        <ele>476.6</ele>
        <time>2021-10-25T13:26:40Z</time>
      </trkpt>
      <trkpt lat="46.57609" lon="5.69447">
        <ele>477.6</ele>
        <time>2021-10-25T13:26:45Z</time>
      </trkpt>
      <trkpt lat="46.576" lon="5.6944">
        <ele>477.8</ele>
        <time>2021-10-25T13:26:47Z</time>
      </trkpt>
      <trkpt lat="46.57591" lon="5.69435">
        <ele>478.2</ele>
        <time>2021-10-25T13:26:49Z</time>
      </trkpt>
      <trkpt lat="46.57579" lon="5.69428">
        <ele>479</ele>
        <time>2021-10-25T13:26:52Z</time>
      </trkpt>
      <trkpt lat="46.57569" lon="5.69415">
        <ele>479.4</ele>
        <time>2021-10-25T13:26:55Z</time>
      </trkpt>
      <trkpt lat="46.57563" lon="5.69404">
        <ele>479.8</ele>
        <time>2021-10-25T13:26:57Z</time>
      </trkpt>
      <trkpt lat="46.57559" lon="5.69399">
        <ele>480</ele>
        <time>2021-10-25T13:26:58Z</time>
      </trkpt>
      <trkpt lat="46.57538" lon="5.69378">
        <ele>481</ele>
        <time>2021-10-25T13:27:03Z</time>
      </trkpt>
      <trkpt lat="46.57533" lon="5.69373">
        <ele>481</ele>
        <time>2021-10-25T13:27:04Z</time>
      </trkpt>
      <trkpt lat="46.57511" lon="5.69347">
        <ele>481.4</ele>
        <time>2021-10-25T13:27:09Z</time>
      </trkpt>
      <trkpt lat="46.57485" lon="5.69314">
        <ele>482.2</ele>
        <time>2021-10-25T13:27:15Z</time>
      </trkpt>
      <trkpt lat="46.5748" lon="5.69309">
        <ele>482.2</ele>
        <time>2021-10-25T13:27:16Z</time>
      </trkpt>
      <trkpt lat="46.57448" lon="5.6929">
        <ele>482.6</ele>
        <time>2021-10-25T13:27:22Z</time>
      </trkpt>
      <trkpt lat="46.57415" lon="5.6927">
        <ele>482.8</ele>
        <time>2021-10-25T13:27:28Z</time>
      </trkpt>
      <trkpt lat="46.57406" lon="5.69262">
        <ele>483.2</ele>
        <time>2021-10-25T13:27:30Z</time>
      </trkpt>
      <trkpt lat="46.57379" lon="5.69244">
        <ele>483.2</ele>
        <time>2021-10-25T13:27:35Z</time>
      </trkpt>
      <trkpt lat="46.57344" lon="5.69207">
        <ele>483</ele>
        <time>2021-10-25T13:27:42Z</time>
      </trkpt>
      <trkpt lat="46.57306" lon="5.69159">
        <ele>484</ele>
        <time>2021-10-25T13:27:51Z</time>
      </trkpt>
      <trkpt lat="46.57301" lon="5.69154">
        <ele>484.4</ele>
        <time>2021-10-25T13:27:52Z</time>
      </trkpt>
      <trkpt lat="46.57264" lon="5.69106">
        <ele>485.4</ele>
        <time>2021-10-25T13:28:00Z</time>
      </trkpt>
      <trkpt lat="46.5722" lon="5.6905">
        <ele>485.4</ele>
        <time>2021-10-25T13:28:09Z</time>
      </trkpt>
      <trkpt lat="46.57214" lon="5.69042">
        <ele>485.4</ele>
        <time>2021-10-25T13:28:10Z</time>
      </trkpt>
      <trkpt lat="46.57171" lon="5.68987">
        <ele>486.2</ele>
        <time>2021-10-25T13:28:19Z</time>
      </trkpt>
      <trkpt lat="46.57167" lon="5.6898">
        <ele>486.2</ele>
        <time>2021-10-25T13:28:20Z</time>
      </trkpt>
      <trkpt lat="46.57136" lon="5.68941">
        <ele>486.6</ele>
        <time>2021-10-25T13:28:26Z</time>
      </trkpt>
      <trkpt lat="46.57104" lon="5.68899">
        <ele>487</ele>
        <time>2021-10-25T13:28:33Z</time>
      </trkpt>
      <trkpt lat="46.57076" lon="5.68862">
        <ele>487.6</ele>
        <time>2021-10-25T13:28:39Z</time>
      </trkpt>
      <trkpt lat="46.57057" lon="5.6884">
        <ele>488</ele>
        <time>2021-10-25T13:28:43Z</time>
      </trkpt>
      <trkpt lat="46.57043" lon="5.68826">
        <ele>488.6</ele>
        <time>2021-10-25T13:28:46Z</time>
      </trkpt>
      <trkpt lat="46.57026" lon="5.68815">
        <ele>489</ele>
        <time>2021-10-25T13:28:49Z</time>
      </trkpt>
      <trkpt lat="46.57008" lon="5.68806">
        <ele>489.4</ele>
        <time>2021-10-25T13:28:52Z</time>
      </trkpt>
      <trkpt lat="46.56995" lon="5.68801">
        <ele>489.8</ele>
        <time>2021-10-25T13:28:54Z</time>
      </trkpt>
      <trkpt lat="46.56971" lon="5.6879">
        <ele>490.2</ele>
        <time>2021-10-25T13:28:58Z</time>
      </trkpt>
      <trkpt lat="46.56943" lon="5.68778">
        <ele>490.8</ele>
        <time>2021-10-25T13:29:03Z</time>
      </trkpt>
      <trkpt lat="46.56927" lon="5.6877">
        <ele>491.2</ele>
        <time>2021-10-25T13:29:06Z</time>
      </trkpt>
      <trkpt lat="46.56904" lon="5.68759">
        <ele>492</ele>
        <time>2021-10-25T13:29:10Z</time>
      </trkpt>
      <trkpt lat="46.5688" lon="5.6875">
        <ele>492.6</ele>
        <time>2021-10-25T13:29:14Z</time>
      </trkpt>
      <trkpt lat="46.56832" lon="5.68728">
        <ele>492.6</ele>
        <time>2021-10-25T13:29:22Z</time>
      </trkpt>
      <trkpt lat="46.56795" lon="5.68705">
        <ele>492.8</ele>
        <time>2021-10-25T13:29:29Z</time>
      </trkpt>
      <trkpt lat="46.56777" lon="5.68693">
        <ele>493</ele>
        <time>2021-10-25T13:29:33Z</time>
      </trkpt>
      <trkpt lat="46.56763" lon="5.68682">
        <ele>493.4</ele>
        <time>2021-10-25T13:29:36Z</time>
      </trkpt>
      <trkpt lat="46.5675" lon="5.68671">
        <ele>494.4</ele>
        <time>2021-10-25T13:29:39Z</time>
      </trkpt>
      <trkpt lat="46.56728" lon="5.68654">
        <ele>495.4</ele>
        <time>2021-10-25T13:29:44Z</time>
      </trkpt>
      <trkpt lat="46.56723" lon="5.68651">
        <ele>495.6</ele>
        <time>2021-10-25T13:29:45Z</time>
      </trkpt>
      <trkpt lat="46.5669" lon="5.68631">
        <ele>496.2</ele>
        <time>2021-10-25T13:29:52Z</time>
      </trkpt>
      <trkpt lat="46.56671" lon="5.68616">
        <ele>497</ele>
        <time>2021-10-25T13:29:56Z</time>
      </trkpt>
      <trkpt lat="46.56656" lon="5.68605">
        <ele>497.8</ele>
        <time>2021-10-25T13:29:59Z</time>
      </trkpt>
      <trkpt lat="46.56647" lon="5.68597">
        <ele>498.2</ele>
        <time>2021-10-25T13:30:01Z</time>
      </trkpt>
      <trkpt lat="46.56606" lon="5.68567">
        <ele>498.8</ele>
        <time>2021-10-25T13:30:09Z</time>
      </trkpt>
      <trkpt lat="46.56555" lon="5.68531">
        <ele>499</ele>
        <time>2021-10-25T13:30:19Z</time>
      </trkpt>
      <trkpt lat="46.56505" lon="5.68498">
        <ele>499.2</ele>
        <time>2021-10-25T13:30:28Z</time>
      </trkpt>
      <trkpt lat="46.56494" lon="5.6849">
        <ele>499.2</ele>
        <time>2021-10-25T13:30:30Z</time>
      </trkpt>
      <trkpt lat="46.56443" lon="5.68452">
        <ele>499.6</ele>
        <time>2021-10-25T13:30:39Z</time>
      </trkpt>
      <trkpt lat="46.5639" lon="5.68412">
        <ele>499.4</ele>
        <time>2021-10-25T13:30:48Z</time>
      </trkpt>
      <trkpt lat="46.56385" lon="5.68408">
        <ele>499.4</ele>
        <time>2021-10-25T13:30:49Z</time>
      </trkpt>
      <trkpt lat="46.56333" lon="5.68368">
        <ele>498.8</ele>
        <time>2021-10-25T13:30:58Z</time>
      </trkpt>
      <trkpt lat="46.56326" lon="5.68364">
        <ele>499</ele>
        <time>2021-10-25T13:30:59Z</time>
      </trkpt>
      <trkpt lat="46.56314" lon="5.68356">
        <ele>499</ele>
        <time>2021-10-25T13:31:01Z</time>
      </trkpt>
      <trkpt lat="46.56303" lon="5.68349">
        <ele>499</ele>
        <time>2021-10-25T13:31:03Z</time>
      </trkpt>
      <trkpt lat="46.5625" lon="5.6831">
        <ele>498.4</ele>
        <time>2021-10-25T13:31:11Z</time>
      </trkpt>
      <trkpt lat="46.56195" lon="5.6827">
        <ele>497.6</ele>
        <time>2021-10-25T13:31:19Z</time>
      </trkpt>
      <trkpt lat="46.5616" lon="5.68249">
        <ele>497.2</ele>
        <time>2021-10-25T13:31:24Z</time>
      </trkpt>
      <trkpt lat="46.56152" lon="5.68246">
        <ele>497</ele>
        <time>2021-10-25T13:31:25Z</time>
      </trkpt>
      <trkpt lat="46.56122" lon="5.68236">
        <ele>496.2</ele>
        <time>2021-10-25T13:31:29Z</time>
      </trkpt>
      <trkpt lat="46.56092" lon="5.68225">
        <ele>495.4</ele>
        <time>2021-10-25T13:31:33Z</time>
      </trkpt>
      <trkpt lat="46.56048" lon="5.6821">
        <ele>495.6</ele>
        <time>2021-10-25T13:31:39Z</time>
      </trkpt>
      <trkpt lat="46.56041" lon="5.68208">
        <ele>495.4</ele>
        <time>2021-10-25T13:31:40Z</time>
      </trkpt>
      <trkpt lat="46.56026" lon="5.68203">
        <ele>495</ele>
        <time>2021-10-25T13:31:42Z</time>
      </trkpt>
      <trkpt lat="46.55976" lon="5.68184">
        <ele>494</ele>
        <time>2021-10-25T13:31:49Z</time>
      </trkpt>
      <trkpt lat="46.55929" lon="5.6816">
        <ele>492.8</ele>
        <time>2021-10-25T13:31:55Z</time>
      </trkpt>
      <trkpt lat="46.55921" lon="5.68156">
        <ele>492.4</ele>
        <time>2021-10-25T13:31:56Z</time>
      </trkpt>
      <trkpt lat="46.55899" lon="5.68145">
        <ele>491.8</ele>
        <time>2021-10-25T13:31:59Z</time>
      </trkpt>
      <trkpt lat="46.5586" lon="5.6812">
        <ele>490.8</ele>
        <time>2021-10-25T13:32:04Z</time>
      </trkpt>
      <trkpt lat="46.55852" lon="5.68111">
        <ele>490.4</ele>
        <time>2021-10-25T13:32:05Z</time>
      </trkpt>
      <trkpt lat="46.55846" lon="5.68102">
        <ele>490.2</ele>
        <time>2021-10-25T13:32:06Z</time>
      </trkpt>
      <trkpt lat="46.55833" lon="5.68075">
        <ele>489.8</ele>
        <time>2021-10-25T13:32:09Z</time>
      </trkpt>
      <trkpt lat="46.55828" lon="5.68063">
        <ele>489.8</ele>
        <time>2021-10-25T13:32:10Z</time>
      </trkpt>
      <trkpt lat="46.55823" lon="5.68041">
        <ele>489.6</ele>
        <time>2021-10-25T13:32:12Z</time>
      </trkpt>
      <trkpt lat="46.55809" lon="5.68001">
        <ele>489.6</ele>
        <time>2021-10-25T13:32:16Z</time>
      </trkpt>
      <trkpt lat="46.55782" lon="5.67949">
        <ele>489.6</ele>
        <time>2021-10-25T13:32:22Z</time>
      </trkpt>
      <trkpt lat="46.55742" lon="5.67889">
        <ele>489.6</ele>
        <time>2021-10-25T13:32:31Z</time>
      </trkpt>
      <trkpt lat="46.55736" lon="5.67882">
        <ele>489.8</ele>
        <time>2021-10-25T13:32:33Z</time>
      </trkpt>
      <trkpt lat="46.55698" lon="5.67825">
        <ele>490</ele>
        <time>2021-10-25T13:32:40Z</time>
      </trkpt>
      <trkpt lat="46.55659" lon="5.67767">
        <ele>489.6</ele>
        <time>2021-10-25T13:32:48Z</time>
      </trkpt>
      <trkpt lat="46.55655" lon="5.6776">
        <ele>489.6</ele>
        <time>2021-10-25T13:32:49Z</time>
      </trkpt>
      <trkpt lat="46.55621" lon="5.67707">
        <ele>489.8</ele>
        <time>2021-10-25T13:32:57Z</time>
      </trkpt>
      <trkpt lat="46.55617" lon="5.67701">
        <ele>489.6</ele>
        <time>2021-10-25T13:32:58Z</time>
      </trkpt>
      <trkpt lat="46.55604" lon="5.67695">
        <ele>489.6</ele>
        <time>2021-10-25T13:33:00Z</time>
      </trkpt>
      <trkpt lat="46.55586" lon="5.6769">
        <ele>490</ele>
        <time>2021-10-25T13:33:03Z</time>
      </trkpt>
      <trkpt lat="46.55575" lon="5.67681">
        <ele>490.2</ele>
        <time>2021-10-25T13:33:05Z</time>
      </trkpt>
      <trkpt lat="46.55542" lon="5.67649">
        <ele>490.2</ele>
        <time>2021-10-25T13:33:11Z</time>
      </trkpt>
      <trkpt lat="46.55537" lon="5.67643">
        <ele>490.2</ele>
        <time>2021-10-25T13:33:12Z</time>
      </trkpt>
      <trkpt lat="46.55533" lon="5.67636">
        <ele>490.2</ele>
        <time>2021-10-25T13:33:13Z</time>
      </trkpt>
      <trkpt lat="46.55525" lon="5.67613">
        <ele>490.2</ele>
        <time>2021-10-25T13:33:16Z</time>
      </trkpt>
      <trkpt lat="46.55513" lon="5.67582">
        <ele>490.6</ele>
        <time>2021-10-25T13:33:20Z</time>
      </trkpt>
      <trkpt lat="46.55507" lon="5.67571">
        <ele>491</ele>
        <time>2021-10-25T13:33:22Z</time>
      </trkpt>
      <trkpt lat="46.55501" lon="5.67557">
        <ele>491</ele>
        <time>2021-10-25T13:33:24Z</time>
      </trkpt>
      <trkpt lat="46.55499" lon="5.67545">
        <ele>491.8</ele>
        <time>2021-10-25T13:33:26Z</time>
      </trkpt>
      <trkpt lat="46.55499" lon="5.67538">
        <ele>492.2</ele>
        <time>2021-10-25T13:33:27Z</time>
      </trkpt>
      <trkpt lat="46.555" lon="5.67532">
        <ele>492.2</ele>
        <time>2021-10-25T13:33:28Z</time>
      </trkpt>
      <trkpt lat="46.55502" lon="5.6752">
        <ele>493.2</ele>
        <time>2021-10-25T13:33:30Z</time>
      </trkpt>
      <trkpt lat="46.55505" lon="5.67514">
        <ele>493.4</ele>
        <time>2021-10-25T13:33:31Z</time>
      </trkpt>
      <trkpt lat="46.55507" lon="5.67508">
        <ele>493.8</ele>
        <time>2021-10-25T13:33:32Z</time>
      </trkpt>
      <trkpt lat="46.55518" lon="5.6749">
        <ele>494.4</ele>
        <time>2021-10-25T13:33:35Z</time>
      </trkpt>
      <trkpt lat="46.55526" lon="5.67466">
        <ele>494.6</ele>
        <time>2021-10-25T13:33:38Z</time>
      </trkpt>
      <trkpt lat="46.55531" lon="5.67447">
        <ele>494.8</ele>
        <time>2021-10-25T13:33:40Z</time>
      </trkpt>
      <trkpt lat="46.55545" lon="5.67396">
        <ele>494</ele>
        <time>2021-10-25T13:33:46Z</time>
      </trkpt>
      <trkpt lat="46.5555" lon="5.67376">
        <ele>493.4</ele>
        <time>2021-10-25T13:33:48Z</time>
      </trkpt>
      <trkpt lat="46.55553" lon="5.67368">
        <ele>493.2</ele>
        <time>2021-10-25T13:33:49Z</time>
      </trkpt>
      <trkpt lat="46.55561" lon="5.67354">
        <ele>493</ele>
        <time>2021-10-25T13:33:51Z</time>
      </trkpt>
      <trkpt lat="46.55572" lon="5.67338">
        <ele>492.6</ele>
        <time>2021-10-25T13:33:53Z</time>
      </trkpt>
      <trkpt lat="46.55583" lon="5.6733">
        <ele>492.4</ele>
        <time>2021-10-25T13:33:55Z</time>
      </trkpt>
      <trkpt lat="46.5559" lon="5.67327">
        <ele>492.2</ele>
        <time>2021-10-25T13:33:56Z</time>
      </trkpt>
      <trkpt lat="46.55599" lon="5.67325">
        <ele>492</ele>
        <time>2021-10-25T13:33:57Z</time>
      </trkpt>
      <trkpt lat="46.55606" lon="5.67325">
        <ele>491.8</ele>
        <time>2021-10-25T13:33:58Z</time>
      </trkpt>
      <trkpt lat="46.55646" lon="5.6733">
        <ele>491.2</ele>
        <time>2021-10-25T13:34:03Z</time>
      </trkpt>
      <trkpt lat="46.55654" lon="5.6733">
        <ele>490.6</ele>
        <time>2021-10-25T13:34:04Z</time>
      </trkpt>
      <trkpt lat="46.55663" lon="5.67328">
        <ele>490.4</ele>
        <time>2021-10-25T13:34:05Z</time>
      </trkpt>
      <trkpt lat="46.55678" lon="5.67321">
        <ele>490.2</ele>
        <time>2021-10-25T13:34:07Z</time>
      </trkpt>
      <trkpt lat="46.55684" lon="5.67316">
        <ele>490.2</ele>
        <time>2021-10-25T13:34:08Z</time>
      </trkpt>
      <trkpt lat="46.55703" lon="5.67295">
        <ele>490.2</ele>
        <time>2021-10-25T13:34:11Z</time>
      </trkpt>
      <trkpt lat="46.55738" lon="5.67237">
        <ele>489.8</ele>
        <time>2021-10-25T13:34:18Z</time>
      </trkpt>
      <trkpt lat="46.55768" lon="5.67165">
        <ele>489.8</ele>
        <time>2021-10-25T13:34:26Z</time>
      </trkpt>
      <trkpt lat="46.55796" lon="5.67094">
        <ele>490</ele>
        <time>2021-10-25T13:34:34Z</time>
      </trkpt>
      <trkpt lat="46.558" lon="5.67085">
        <ele>490</ele>
        <time>2021-10-25T13:34:35Z</time>
      </trkpt>
      <trkpt lat="46.55827" lon="5.67017">
        <ele>490</ele>
        <time>2021-10-25T13:34:43Z</time>
      </trkpt>
      <trkpt lat="46.55831" lon="5.67009">
        <ele>490</ele>
        <time>2021-10-25T13:34:44Z</time>
      </trkpt>
      <trkpt lat="46.55855" lon="5.66943">
        <ele>491</ele>
        <time>2021-10-25T13:34:52Z</time>
      </trkpt>
      <trkpt lat="46.55876" lon="5.66887">
        <ele>491.4</ele>
        <time>2021-10-25T13:34:59Z</time>
      </trkpt>
      <trkpt lat="46.55884" lon="5.66863">
        <ele>491.8</ele>
        <time>2021-10-25T13:35:02Z</time>
      </trkpt>
      <trkpt lat="46.55899" lon="5.66825">
        <ele>492.6</ele>
        <time>2021-10-25T13:35:07Z</time>
      </trkpt>
      <trkpt lat="46.55916" lon="5.66779">
        <ele>492.8</ele>
        <time>2021-10-25T13:35:13Z</time>
      </trkpt>
      <trkpt lat="46.55928" lon="5.66748">
        <ele>493</ele>
        <time>2021-10-25T13:35:17Z</time>
      </trkpt>
      <trkpt lat="46.55931" lon="5.6674">
        <ele>493.2</ele>
        <time>2021-10-25T13:35:18Z</time>
      </trkpt>
      <trkpt lat="46.55943" lon="5.6671">
        <ele>493.8</ele>
        <time>2021-10-25T13:35:22Z</time>
      </trkpt>
      <trkpt lat="46.55951" lon="5.66687">
        <ele>494.2</ele>
        <time>2021-10-25T13:35:25Z</time>
      </trkpt>
      <trkpt lat="46.55972" lon="5.66614">
        <ele>494.8</ele>
        <time>2021-10-25T13:35:34Z</time>
      </trkpt>
      <trkpt lat="46.55974" lon="5.66606">
        <ele>494.8</ele>
        <time>2021-10-25T13:35:35Z</time>
      </trkpt>
      <trkpt lat="46.55978" lon="5.66592">
        <ele>495</ele>
        <time>2021-10-25T13:35:37Z</time>
      </trkpt>
      <trkpt lat="46.5598" lon="5.66585">
        <ele>495.2</ele>
        <time>2021-10-25T13:35:38Z</time>
      </trkpt>
      <trkpt lat="46.55985" lon="5.66573">
        <ele>495.6</ele>
        <time>2021-10-25T13:35:40Z</time>
      </trkpt>
      <trkpt lat="46.55991" lon="5.66564">
        <ele>496</ele>
        <time>2021-10-25T13:35:42Z</time>
      </trkpt>
      <trkpt lat="46.55994" lon="5.66559">
        <ele>496.4</ele>
        <time>2021-10-25T13:35:43Z</time>
      </trkpt>
      <trkpt lat="46.55995" lon="5.66553">
        <ele>496.6</ele>
        <time>2021-10-25T13:35:44Z</time>
      </trkpt>
      <trkpt lat="46.55995" lon="5.66547">
        <ele>496.8</ele>
        <time>2021-10-25T13:35:45Z</time>
      </trkpt>
      <trkpt lat="46.55989" lon="5.66533">
        <ele>497.2</ele>
        <time>2021-10-25T13:35:47Z</time>
      </trkpt>
      <trkpt lat="46.55974" lon="5.66498">
        <ele>498</ele>
        <time>2021-10-25T13:35:52Z</time>
      </trkpt>
      <trkpt lat="46.55953" lon="5.66443">
        <ele>498</ele>
        <time>2021-10-25T13:35:59Z</time>
      </trkpt>
      <trkpt lat="46.55931" lon="5.66402">
        <ele>497.8</ele>
        <time>2021-10-25T13:36:04Z</time>
      </trkpt>
      <trkpt lat="46.55892" lon="5.66356">
        <ele>497.4</ele>
        <time>2021-10-25T13:36:11Z</time>
      </trkpt>
      <trkpt lat="46.55847" lon="5.6631">
        <ele>497.4</ele>
        <time>2021-10-25T13:36:19Z</time>
      </trkpt>
      <trkpt lat="46.55842" lon="5.66304">
        <ele>497.4</ele>
        <time>2021-10-25T13:36:20Z</time>
      </trkpt>
      <trkpt lat="46.55802" lon="5.66263">
        <ele>497.4</ele>
        <time>2021-10-25T13:36:27Z</time>
      </trkpt>
      <trkpt lat="46.55771" lon="5.66231">
        <ele>497.6</ele>
        <time>2021-10-25T13:36:33Z</time>
      </trkpt>
      <trkpt lat="46.55756" lon="5.66215">
        <ele>498</ele>
        <time>2021-10-25T13:36:36Z</time>
      </trkpt>
      <trkpt lat="46.55751" lon="5.66209">
        <ele>498.2</ele>
        <time>2021-10-25T13:36:37Z</time>
      </trkpt>
      <trkpt lat="46.55743" lon="5.662">
        <ele>498.8</ele>
        <time>2021-10-25T13:36:39Z</time>
      </trkpt>
      <trkpt lat="46.55739" lon="5.66195">
        <ele>498.8</ele>
        <time>2021-10-25T13:36:40Z</time>
      </trkpt>
      <trkpt lat="46.55726" lon="5.66182">
        <ele>499.4</ele>
        <time>2021-10-25T13:36:43Z</time>
      </trkpt>
      <trkpt lat="46.55722" lon="5.66177">
        <ele>499.8</ele>
        <time>2021-10-25T13:36:44Z</time>
      </trkpt>
      <trkpt lat="46.55709" lon="5.66165">
        <ele>500.4</ele>
        <time>2021-10-25T13:36:47Z</time>
      </trkpt>
      <trkpt lat="46.55693" lon="5.6615">
        <ele>501.6</ele>
        <time>2021-10-25T13:36:51Z</time>
      </trkpt>
      <trkpt lat="46.55661" lon="5.66111">
        <ele>502.6</ele>
        <time>2021-10-25T13:36:59Z</time>
      </trkpt>
      <trkpt lat="46.55655" lon="5.66098">
        <ele>502.8</ele>
        <time>2021-10-25T13:37:01Z</time>
      </trkpt>
      <trkpt lat="46.5565" lon="5.66085">
        <ele>502.8</ele>
        <time>2021-10-25T13:37:03Z</time>
      </trkpt>
      <trkpt lat="46.55649" lon="5.6608">
        <ele>503.2</ele>
        <time>2021-10-25T13:37:04Z</time>
      </trkpt>
      <trkpt lat="46.55648" lon="5.66072">
        <ele>503.4</ele>
        <time>2021-10-25T13:37:05Z</time>
      </trkpt>
      <trkpt lat="46.55646" lon="5.66058">
        <ele>504</ele>
        <time>2021-10-25T13:37:07Z</time>
      </trkpt>
      <trkpt lat="46.55647" lon="5.66044">
        <ele>504.2</ele>
        <time>2021-10-25T13:37:09Z</time>
      </trkpt>
      <trkpt lat="46.55647" lon="5.66037">
        <ele>504.4</ele>
        <time>2021-10-25T13:37:10Z</time>
      </trkpt>
      <trkpt lat="46.55651" lon="5.66011">
        <ele>505</ele>
        <time>2021-10-25T13:37:14Z</time>
      </trkpt>
      <trkpt lat="46.55652" lon="5.66006">
        <ele>505</ele>
        <time>2021-10-25T13:37:15Z</time>
      </trkpt>
      <trkpt lat="46.5566" lon="5.65984">
        <ele>506.2</ele>
        <time>2021-10-25T13:37:19Z</time>
      </trkpt>
      <trkpt lat="46.55664" lon="5.65974">
        <ele>507.2</ele>
        <time>2021-10-25T13:37:21Z</time>
      </trkpt>
      <trkpt lat="46.55666" lon="5.65969">
        <ele>507.2</ele>
        <time>2021-10-25T13:37:22Z</time>
      </trkpt>
      <trkpt lat="46.55674" lon="5.65949">
        <ele>508.4</ele>
        <time>2021-10-25T13:37:26Z</time>
      </trkpt>
      <trkpt lat="46.5568" lon="5.65933">
        <ele>509.4</ele>
        <time>2021-10-25T13:37:29Z</time>
      </trkpt>
      <trkpt lat="46.55683" lon="5.65922">
        <ele>509.8</ele>
        <time>2021-10-25T13:37:31Z</time>
      </trkpt>
      <trkpt lat="46.55685" lon="5.65906">
        <ele>510.4</ele>
        <time>2021-10-25T13:37:34Z</time>
      </trkpt>
      <trkpt lat="46.55684" lon="5.65894">
        <ele>510.8</ele>
        <time>2021-10-25T13:37:36Z</time>
      </trkpt>
      <trkpt lat="46.55682" lon="5.65876">
        <ele>511.6</ele>
        <time>2021-10-25T13:37:39Z</time>
      </trkpt>
      <trkpt lat="46.55677" lon="5.65862">
        <ele>511.8</ele>
        <time>2021-10-25T13:37:42Z</time>
      </trkpt>
      <trkpt lat="46.55674" lon="5.65853">
        <ele>512.6</ele>
        <time>2021-10-25T13:37:44Z</time>
      </trkpt>
      <trkpt lat="46.55661" lon="5.65834">
        <ele>513.6</ele>
        <time>2021-10-25T13:37:49Z</time>
      </trkpt>
      <trkpt lat="46.55658" lon="5.65831">
        <ele>513.8</ele>
        <time>2021-10-25T13:37:50Z</time>
      </trkpt>
      <trkpt lat="46.55645" lon="5.65822">
        <ele>514.8</ele>
        <time>2021-10-25T13:37:54Z</time>
      </trkpt>
      <trkpt lat="46.55635" lon="5.65814">
        <ele>516</ele>
        <time>2021-10-25T13:37:57Z</time>
      </trkpt>
      <trkpt lat="46.55632" lon="5.65812">
        <ele>516</ele>
        <time>2021-10-25T13:37:58Z</time>
      </trkpt>
      <trkpt lat="46.55612" lon="5.65801">
        <ele>517.4</ele>
        <time>2021-10-25T13:38:04Z</time>
      </trkpt>
      <trkpt lat="46.55594" lon="5.6579">
        <ele>518.2</ele>
        <time>2021-10-25T13:38:09Z</time>
      </trkpt>
      <trkpt lat="46.55587" lon="5.65785">
        <ele>518.8</ele>
        <time>2021-10-25T13:38:11Z</time>
      </trkpt>
      <trkpt lat="46.55564" lon="5.65771">
        <ele>520.2</ele>
        <time>2021-10-25T13:38:18Z</time>
      </trkpt>
      <trkpt lat="46.55548" lon="5.6576">
        <ele>521.4</ele>
        <time>2021-10-25T13:38:23Z</time>
      </trkpt>
      <trkpt lat="46.55532" lon="5.65749">
        <ele>522.6</ele>
        <time>2021-10-25T13:38:28Z</time>
      </trkpt>
      <trkpt lat="46.55522" lon="5.65742">
        <ele>523</ele>
        <time>2021-10-25T13:38:31Z</time>
      </trkpt>
      <trkpt lat="46.55512" lon="5.65734">
        <ele>523.8</ele>
        <time>2021-10-25T13:38:34Z</time>
      </trkpt>
      <trkpt lat="46.5549" lon="5.65719">
        <ele>524.8</ele>
        <time>2021-10-25T13:38:40Z</time>
      </trkpt>
      <trkpt lat="46.55487" lon="5.65716">
        <ele>525</ele>
        <time>2021-10-25T13:38:41Z</time>
      </trkpt>
      <trkpt lat="46.55469" lon="5.65704">
        <ele>526</ele>
        <time>2021-10-25T13:38:46Z</time>
      </trkpt>
      <trkpt lat="46.5545" lon="5.65691">
        <ele>527.2</ele>
        <time>2021-10-25T13:38:51Z</time>
      </trkpt>
      <trkpt lat="46.55446" lon="5.65688">
        <ele>527.4</ele>
        <time>2021-10-25T13:38:52Z</time>
      </trkpt>
      <trkpt lat="46.55426" lon="5.65674">
        <ele>528.2</ele>
        <time>2021-10-25T13:38:57Z</time>
      </trkpt>
      <trkpt lat="46.55401" lon="5.65657">
        <ele>529.2</ele>
        <time>2021-10-25T13:39:03Z</time>
      </trkpt>
      <trkpt lat="46.55397" lon="5.65655">
        <ele>529.4</ele>
        <time>2021-10-25T13:39:04Z</time>
      </trkpt>
      <trkpt lat="46.55364" lon="5.65635">
        <ele>530.4</ele>
        <time>2021-10-25T13:39:12Z</time>
      </trkpt>
      <trkpt lat="46.55331" lon="5.65618">
        <ele>531.6</ele>
        <time>2021-10-25T13:39:19Z</time>
      </trkpt>
      <trkpt lat="46.55318" lon="5.6561">
        <ele>531.8</ele>
        <time>2021-10-25T13:39:22Z</time>
      </trkpt>
      <trkpt lat="46.55309" lon="5.65605">
        <ele>532.6</ele>
        <time>2021-10-25T13:39:24Z</time>
      </trkpt>
      <trkpt lat="46.5528" lon="5.65584">
        <ele>533.8</ele>
        <time>2021-10-25T13:39:31Z</time>
      </trkpt>
      <trkpt lat="46.55256" lon="5.65568">
        <ele>534.8</ele>
        <time>2021-10-25T13:39:37Z</time>
      </trkpt>
      <trkpt lat="46.55248" lon="5.65563">
        <ele>535</ele>
        <time>2021-10-25T13:39:39Z</time>
      </trkpt>
      <trkpt lat="46.55227" lon="5.65549">
        <ele>536</ele>
        <time>2021-10-25T13:39:44Z</time>
      </trkpt>
      <trkpt lat="46.55207" lon="5.65536">
        <ele>537</ele>
        <time>2021-10-25T13:39:49Z</time>
      </trkpt>
      <trkpt lat="46.55203" lon="5.65534">
        <ele>537</ele>
        <time>2021-10-25T13:39:50Z</time>
      </trkpt>
      <trkpt lat="46.55182" lon="5.65521">
        <ele>538.2</ele>
        <time>2021-10-25T13:39:55Z</time>
      </trkpt>
      <trkpt lat="46.55172" lon="5.65516">
        <ele>538.8</ele>
        <time>2021-10-25T13:39:57Z</time>
      </trkpt>
      <trkpt lat="46.55157" lon="5.65512">
        <ele>539.4</ele>
        <time>2021-10-25T13:40:00Z</time>
      </trkpt>
      <trkpt lat="46.55152" lon="5.65511">
        <ele>539.4</ele>
        <time>2021-10-25T13:40:01Z</time>
      </trkpt>
      <trkpt lat="46.55137" lon="5.65509">
        <ele>539.4</ele>
        <time>2021-10-25T13:40:04Z</time>
      </trkpt>
      <trkpt lat="46.55088" lon="5.65499">
        <ele>540.6</ele>
        <time>2021-10-25T13:40:14Z</time>
      </trkpt>
      <trkpt lat="46.55079" lon="5.65498">
        <ele>540.8</ele>
        <time>2021-10-25T13:40:16Z</time>
      </trkpt>
      <trkpt lat="46.55034" lon="5.65489">
        <ele>541.6</ele>
        <time>2021-10-25T13:40:25Z</time>
      </trkpt>
      <trkpt lat="46.55029" lon="5.65488">
        <ele>541.8</ele>
        <time>2021-10-25T13:40:26Z</time>
      </trkpt>
      <trkpt lat="46.54989" lon="5.65481">
        <ele>542.8</ele>
        <time>2021-10-25T13:40:34Z</time>
      </trkpt>
      <trkpt lat="46.54973" lon="5.6548">
        <ele>543.2</ele>
        <time>2021-10-25T13:40:37Z</time>
      </trkpt>
      <trkpt lat="46.54952" lon="5.6548">
        <ele>543.8</ele>
        <time>2021-10-25T13:40:41Z</time>
      </trkpt>
      <trkpt lat="46.54914" lon="5.65482">
        <ele>544.2</ele>
        <time>2021-10-25T13:40:48Z</time>
      </trkpt>
      <trkpt lat="46.54859" lon="5.65483">
        <ele>545</ele>
        <time>2021-10-25T13:40:58Z</time>
      </trkpt>
      <trkpt lat="46.548" lon="5.65482">
        <ele>545.8</ele>
        <time>2021-10-25T13:41:09Z</time>
      </trkpt>
      <trkpt lat="46.5479" lon="5.65483">
        <ele>545.8</ele>
        <time>2021-10-25T13:41:11Z</time>
      </trkpt>
      <trkpt lat="46.54779" lon="5.65485">
        <ele>546</ele>
        <time>2021-10-25T13:41:13Z</time>
      </trkpt>
      <trkpt lat="46.54734" lon="5.65496">
        <ele>546.8</ele>
        <time>2021-10-25T13:41:21Z</time>
      </trkpt>
      <trkpt lat="46.54682" lon="5.65511">
        <ele>546.8</ele>
        <time>2021-10-25T13:41:30Z</time>
      </trkpt>
      <trkpt lat="46.54636" lon="5.65523">
        <ele>546.4</ele>
        <time>2021-10-25T13:41:38Z</time>
      </trkpt>
      <trkpt lat="46.546" lon="5.65521">
        <ele>546</ele>
        <time>2021-10-25T13:41:44Z</time>
      </trkpt>
      <trkpt lat="46.54565" lon="5.65503">
        <ele>546.2</ele>
        <time>2021-10-25T13:41:50Z</time>
      </trkpt>
      <trkpt lat="46.54512" lon="5.65464">
        <ele>545.8</ele>
        <time>2021-10-25T13:41:59Z</time>
      </trkpt>
      <trkpt lat="46.5446" lon="5.65426">
        <ele>546.4</ele>
        <time>2021-10-25T13:42:08Z</time>
      </trkpt>
      <trkpt lat="46.54456" lon="5.65422">
        <ele>546.4</ele>
        <time>2021-10-25T13:42:09Z</time>
      </trkpt>
      <trkpt lat="46.54434" lon="5.65406">
        <ele>547</ele>
        <time>2021-10-25T13:42:13Z</time>
      </trkpt>
      <trkpt lat="46.54419" lon="5.65395">
        <ele>547.6</ele>
        <time>2021-10-25T13:42:16Z</time>
      </trkpt>
      <trkpt lat="46.54399" lon="5.65382">
        <ele>548.2</ele>
        <time>2021-10-25T13:42:20Z</time>
      </trkpt>
      <trkpt lat="46.54386" lon="5.65371">
        <ele>549.6</ele>
        <time>2021-10-25T13:42:23Z</time>
      </trkpt>
      <trkpt lat="46.54382" lon="5.65367">
        <ele>549.8</ele>
        <time>2021-10-25T13:42:24Z</time>
      </trkpt>
      <trkpt lat="46.54361" lon="5.65345">
        <ele>551</ele>
        <time>2021-10-25T13:42:30Z</time>
      </trkpt>
      <trkpt lat="46.54358" lon="5.65341">
        <ele>551</ele>
        <time>2021-10-25T13:42:31Z</time>
      </trkpt>
      <trkpt lat="46.54347" lon="5.65328">
        <ele>552.2</ele>
        <time>2021-10-25T13:42:34Z</time>
      </trkpt>
      <trkpt lat="46.54328" lon="5.65306">
        <ele>553.4</ele>
        <time>2021-10-25T13:42:39Z</time>
      </trkpt>
      <trkpt lat="46.5432" lon="5.65297">
        <ele>554</ele>
        <time>2021-10-25T13:42:41Z</time>
      </trkpt>
      <trkpt lat="46.54313" lon="5.65288">
        <ele>554.4</ele>
        <time>2021-10-25T13:42:43Z</time>
      </trkpt>
      <trkpt lat="46.54282" lon="5.65252">
        <ele>555.6</ele>
        <time>2021-10-25T13:42:51Z</time>
      </trkpt>
      <trkpt lat="46.54274" lon="5.65243">
        <ele>556</ele>
        <time>2021-10-25T13:42:53Z</time>
      </trkpt>
      <trkpt lat="46.5424" lon="5.65201">
        <ele>557</ele>
        <time>2021-10-25T13:43:02Z</time>
      </trkpt>
      <trkpt lat="46.54212" lon="5.65161">
        <ele>558</ele>
        <time>2021-10-25T13:43:09Z</time>
      </trkpt>
      <trkpt lat="46.54174" lon="5.65111">
        <ele>557.2</ele>
        <time>2021-10-25T13:43:17Z</time>
      </trkpt>
      <trkpt lat="46.54144" lon="5.65076">
        <ele>556.4</ele>
        <time>2021-10-25T13:43:22Z</time>
      </trkpt>
      <trkpt lat="46.54137" lon="5.6507">
        <ele>555.8</ele>
        <time>2021-10-25T13:43:23Z</time>
      </trkpt>
      <trkpt lat="46.54102" lon="5.6504">
        <ele>554.8</ele>
        <time>2021-10-25T13:43:28Z</time>
      </trkpt>
      <trkpt lat="46.54088" lon="5.65029">
        <ele>554.6</ele>
        <time>2021-10-25T13:43:30Z</time>
      </trkpt>
      <trkpt lat="46.54036" lon="5.64986">
        <ele>555</ele>
        <time>2021-10-25T13:43:38Z</time>
      </trkpt>
      <trkpt lat="46.54029" lon="5.6498">
        <ele>555</ele>
        <time>2021-10-25T13:43:39Z</time>
      </trkpt>
      <trkpt lat="46.53984" lon="5.64941">
        <ele>554</ele>
        <time>2021-10-25T13:43:45Z</time>
      </trkpt>
      <trkpt lat="46.53976" lon="5.64934">
        <ele>553.6</ele>
        <time>2021-10-25T13:43:46Z</time>
      </trkpt>
      <trkpt lat="46.53951" lon="5.64911">
        <ele>552.6</ele>
        <time>2021-10-25T13:43:49Z</time>
      </trkpt>
      <trkpt lat="46.53925" lon="5.64888">
        <ele>551.4</ele>
        <time>2021-10-25T13:43:52Z</time>
      </trkpt>
      <trkpt lat="46.53907" lon="5.64873">
        <ele>550.4</ele>
        <time>2021-10-25T13:43:54Z</time>
      </trkpt>
      <trkpt lat="46.53891" lon="5.64859">
        <ele>549.2</ele>
        <time>2021-10-25T13:43:56Z</time>
      </trkpt>
      <trkpt lat="46.53867" lon="5.64838">
        <ele>548.2</ele>
        <time>2021-10-25T13:43:59Z</time>
      </trkpt>
      <trkpt lat="46.53853" lon="5.64826">
        <ele>548.2</ele>
        <time>2021-10-25T13:44:01Z</time>
      </trkpt>
      <trkpt lat="46.53829" lon="5.64805">
        <ele>548.6</ele>
        <time>2021-10-25T13:44:05Z</time>
      </trkpt>
      <trkpt lat="46.53801" lon="5.6478">
        <ele>549.4</ele>
        <time>2021-10-25T13:44:10Z</time>
      </trkpt>
      <trkpt lat="46.53795" lon="5.64775">
        <ele>549.6</ele>
        <time>2021-10-25T13:44:11Z</time>
      </trkpt>
      <trkpt lat="46.53775" lon="5.64758">
        <ele>550.4</ele>
        <time>2021-10-25T13:44:15Z</time>
      </trkpt>
      <trkpt lat="46.53759" lon="5.64745">
        <ele>551.2</ele>
        <time>2021-10-25T13:44:18Z</time>
      </trkpt>
      <trkpt lat="46.53737" lon="5.64725">
        <ele>551.6</ele>
        <time>2021-10-25T13:44:22Z</time>
      </trkpt>
      <trkpt lat="46.53703" lon="5.64695">
        <ele>551.8</ele>
        <time>2021-10-25T13:44:28Z</time>
      </trkpt>
      <trkpt lat="46.53656" lon="5.64653">
        <ele>551.8</ele>
        <time>2021-10-25T13:44:36Z</time>
      </trkpt>
      <trkpt lat="46.53643" lon="5.64643">
        <ele>551.8</ele>
        <time>2021-10-25T13:44:38Z</time>
      </trkpt>
      <trkpt lat="46.53594" lon="5.64599">
        <ele>552.2</ele>
        <time>2021-10-25T13:44:46Z</time>
      </trkpt>
      <trkpt lat="46.53581" lon="5.64588">
        <ele>552.2</ele>
        <time>2021-10-25T13:44:48Z</time>
      </trkpt>
      <trkpt lat="46.53531" lon="5.64545">
        <ele>551.8</ele>
        <time>2021-10-25T13:44:56Z</time>
      </trkpt>
      <trkpt lat="46.53519" lon="5.64535">
        <ele>551.8</ele>
        <time>2021-10-25T13:44:58Z</time>
      </trkpt>
      <trkpt lat="46.53472" lon="5.64495">
        <ele>551.6</ele>
        <time>2021-10-25T13:45:06Z</time>
      </trkpt>
      <trkpt lat="46.53421" lon="5.64453">
        <ele>551.6</ele>
        <time>2021-10-25T13:45:14Z</time>
      </trkpt>
      <trkpt lat="46.53374" lon="5.64414">
        <ele>551.8</ele>
        <time>2021-10-25T13:45:21Z</time>
      </trkpt>
      <trkpt lat="46.53322" lon="5.64372">
        <ele>552.2</ele>
        <time>2021-10-25T13:45:29Z</time>
      </trkpt>
      <trkpt lat="46.53309" lon="5.64361">
        <ele>552.2</ele>
        <time>2021-10-25T13:45:31Z</time>
      </trkpt>
      <trkpt lat="46.53258" lon="5.6432">
        <ele>552</ele>
        <time>2021-10-25T13:45:39Z</time>
      </trkpt>
      <trkpt lat="46.53234" lon="5.64301">
        <ele>552</ele>
        <time>2021-10-25T13:45:43Z</time>
      </trkpt>
      <trkpt lat="46.53199" lon="5.64272">
        <ele>552.6</ele>
        <time>2021-10-25T13:45:49Z</time>
      </trkpt>
      <trkpt lat="46.53181" lon="5.64258">
        <ele>552.6</ele>
        <time>2021-10-25T13:45:52Z</time>
      </trkpt>
      <trkpt lat="46.53141" lon="5.64226">
        <ele>552.4</ele>
        <time>2021-10-25T13:45:58Z</time>
      </trkpt>
      <trkpt lat="46.53092" lon="5.64188">
        <ele>551.8</ele>
        <time>2021-10-25T13:46:05Z</time>
      </trkpt>
      <trkpt lat="46.53084" lon="5.64183">
        <ele>551.6</ele>
        <time>2021-10-25T13:46:06Z</time>
      </trkpt>
      <trkpt lat="46.53042" lon="5.6416">
        <ele>550.6</ele>
        <time>2021-10-25T13:46:11Z</time>
      </trkpt>
      <trkpt lat="46.53034" lon="5.64155">
        <ele>549.8</ele>
        <time>2021-10-25T13:46:12Z</time>
      </trkpt>
      <trkpt lat="46.53018" lon="5.64146">
        <ele>548.6</ele>
        <time>2021-10-25T13:46:14Z</time>
      </trkpt>
      <trkpt lat="46.52977" lon="5.64124">
        <ele>547.6</ele>
        <time>2021-10-25T13:46:19Z</time>
      </trkpt>
      <trkpt lat="46.52961" lon="5.64116">
        <ele>547.4</ele>
        <time>2021-10-25T13:46:21Z</time>
      </trkpt>
      <trkpt lat="46.52946" lon="5.64108">
        <ele>547.2</ele>
        <time>2021-10-25T13:46:23Z</time>
      </trkpt>
      <trkpt lat="46.52915" lon="5.6409">
        <ele>546.6</ele>
        <time>2021-10-25T13:46:27Z</time>
      </trkpt>
      <trkpt lat="46.52898" lon="5.64082">
        <ele>546.2</ele>
        <time>2021-10-25T13:46:29Z</time>
      </trkpt>
      <trkpt lat="46.52864" lon="5.64059">
        <ele>545.4</ele>
        <time>2021-10-25T13:46:33Z</time>
      </trkpt>
      <trkpt lat="46.52854" lon="5.64054">
        <ele>545</ele>
        <time>2021-10-25T13:46:34Z</time>
      </trkpt>
      <trkpt lat="46.52845" lon="5.64047">
        <ele>543.4</ele>
        <time>2021-10-25T13:46:35Z</time>
      </trkpt>
      <trkpt lat="46.52835" lon="5.64041">
        <ele>542.2</ele>
        <time>2021-10-25T13:46:36Z</time>
      </trkpt>
      <trkpt lat="46.52815" lon="5.64028">
        <ele>541</ele>
        <time>2021-10-25T13:46:38Z</time>
      </trkpt>
      <trkpt lat="46.52805" lon="5.64022">
        <ele>540.4</ele>
        <time>2021-10-25T13:46:39Z</time>
      </trkpt>
      <trkpt lat="46.52794" lon="5.6402">
        <ele>539</ele>
        <time>2021-10-25T13:46:40Z</time>
      </trkpt>
      <trkpt lat="46.52783" lon="5.6402">
        <ele>538.4</ele>
        <time>2021-10-25T13:46:41Z</time>
      </trkpt>
      <trkpt lat="46.52772" lon="5.64023">
        <ele>537.6</ele>
        <time>2021-10-25T13:46:42Z</time>
      </trkpt>
      <trkpt lat="46.52751" lon="5.64025">
        <ele>535</ele>
        <time>2021-10-25T13:46:44Z</time>
      </trkpt>
      <trkpt lat="46.5274" lon="5.64023">
        <ele>534</ele>
        <time>2021-10-25T13:46:45Z</time>
      </trkpt>
      <trkpt lat="46.52731" lon="5.64016">
        <ele>533.6</ele>
        <time>2021-10-25T13:46:46Z</time>
      </trkpt>
      <trkpt lat="46.52725" lon="5.64005">
        <ele>533.4</ele>
        <time>2021-10-25T13:46:47Z</time>
      </trkpt>
      <trkpt lat="46.52688" lon="5.63949">
        <ele>533</ele>
        <time>2021-10-25T13:46:53Z</time>
      </trkpt>
      <trkpt lat="46.52677" lon="5.6393">
        <ele>533.4</ele>
        <time>2021-10-25T13:46:55Z</time>
      </trkpt>
      <trkpt lat="46.52668" lon="5.6391">
        <ele>533.8</ele>
        <time>2021-10-25T13:46:57Z</time>
      </trkpt>
      <trkpt lat="46.52662" lon="5.63888">
        <ele>534.2</ele>
        <time>2021-10-25T13:46:59Z</time>
      </trkpt>
      <trkpt lat="46.52658" lon="5.63866">
        <ele>534.4</ele>
        <time>2021-10-25T13:47:01Z</time>
      </trkpt>
      <trkpt lat="46.52651" lon="5.63773">
        <ele>534.8</ele>
        <time>2021-10-25T13:47:09Z</time>
      </trkpt>
      <trkpt lat="46.5265" lon="5.63751">
        <ele>534.8</ele>
        <time>2021-10-25T13:47:11Z</time>
      </trkpt>
      <trkpt lat="46.52653" lon="5.63727">
        <ele>535</ele>
        <time>2021-10-25T13:47:13Z</time>
      </trkpt>
      <trkpt lat="46.52656" lon="5.63713">
        <ele>534.8</ele>
        <time>2021-10-25T13:47:14Z</time>
      </trkpt>
      <trkpt lat="46.52661" lon="5.63692">
        <ele>534.6</ele>
        <time>2021-10-25T13:47:16Z</time>
      </trkpt>
      <trkpt lat="46.52681" lon="5.63609">
        <ele>534</ele>
        <time>2021-10-25T13:47:23Z</time>
      </trkpt>
      <trkpt lat="46.52683" lon="5.63597">
        <ele>533.8</ele>
        <time>2021-10-25T13:47:24Z</time>
      </trkpt>
      <trkpt lat="46.52685" lon="5.63584">
        <ele>533.8</ele>
        <time>2021-10-25T13:47:25Z</time>
      </trkpt>
      <trkpt lat="46.52692" lon="5.63519">
        <ele>532.4</ele>
        <time>2021-10-25T13:47:30Z</time>
      </trkpt>
      <trkpt lat="46.52693" lon="5.63492">
        <ele>530.8</ele>
        <time>2021-10-25T13:47:32Z</time>
      </trkpt>
      <trkpt lat="46.52691" lon="5.63464">
        <ele>529.8</ele>
        <time>2021-10-25T13:47:34Z</time>
      </trkpt>
      <trkpt lat="46.52687" lon="5.63421">
        <ele>528.2</ele>
        <time>2021-10-25T13:47:37Z</time>
      </trkpt>
      <trkpt lat="46.52685" lon="5.63406">
        <ele>527.8</ele>
        <time>2021-10-25T13:47:38Z</time>
      </trkpt>
      <trkpt lat="46.52683" lon="5.63391">
        <ele>526.8</ele>
        <time>2021-10-25T13:47:39Z</time>
      </trkpt>
      <trkpt lat="46.52678" lon="5.63362">
        <ele>525.6</ele>
        <time>2021-10-25T13:47:41Z</time>
      </trkpt>
      <trkpt lat="46.52672" lon="5.6332">
        <ele>524.4</ele>
        <time>2021-10-25T13:47:44Z</time>
      </trkpt>
      <trkpt lat="46.52669" lon="5.63292">
        <ele>523.8</ele>
        <time>2021-10-25T13:47:46Z</time>
      </trkpt>
      <trkpt lat="46.52662" lon="5.63251">
        <ele>523.2</ele>
        <time>2021-10-25T13:47:49Z</time>
      </trkpt>
      <trkpt lat="46.52653" lon="5.63201">
        <ele>522.8</ele>
        <time>2021-10-25T13:47:53Z</time>
      </trkpt>
      <trkpt lat="46.52634" lon="5.63124">
        <ele>523.4</ele>
        <time>2021-10-25T13:48:00Z</time>
      </trkpt>
      <trkpt lat="46.5262" lon="5.63073">
        <ele>524.4</ele>
        <time>2021-10-25T13:48:05Z</time>
      </trkpt>
      <trkpt lat="46.52615" lon="5.63053">
        <ele>524.6</ele>
        <time>2021-10-25T13:48:07Z</time>
      </trkpt>
      <trkpt lat="46.52594" lon="5.6297">
        <ele>524.6</ele>
        <time>2021-10-25T13:48:15Z</time>
      </trkpt>
      <trkpt lat="46.52592" lon="5.6296">
        <ele>524.6</ele>
        <time>2021-10-25T13:48:16Z</time>
      </trkpt>
      <trkpt lat="46.52572" lon="5.62884">
        <ele>524</ele>
        <time>2021-10-25T13:48:23Z</time>
      </trkpt>
      <trkpt lat="46.52564" lon="5.62853">
        <ele>523.6</ele>
        <time>2021-10-25T13:48:26Z</time>
      </trkpt>
      <trkpt lat="46.5256" lon="5.62839">
        <ele>523.4</ele>
        <time>2021-10-25T13:48:27Z</time>
      </trkpt>
      <trkpt lat="46.52539" lon="5.6277">
        <ele>522</ele>
        <time>2021-10-25T13:48:33Z</time>
      </trkpt>
      <trkpt lat="46.52535" lon="5.62758">
        <ele>521.8</ele>
        <time>2021-10-25T13:48:34Z</time>
      </trkpt>
      <trkpt lat="46.52524" lon="5.62721">
        <ele>520.8</ele>
        <time>2021-10-25T13:48:37Z</time>
      </trkpt>
      <trkpt lat="46.52517" lon="5.62695">
        <ele>519.8</ele>
        <time>2021-10-25T13:48:39Z</time>
      </trkpt>
      <trkpt lat="46.52508" lon="5.62668">
        <ele>518.4</ele>
        <time>2021-10-25T13:48:41Z</time>
      </trkpt>
      <trkpt lat="46.52504" lon="5.62654">
        <ele>517.6</ele>
        <time>2021-10-25T13:48:42Z</time>
      </trkpt>
      <trkpt lat="46.525" lon="5.62641">
        <ele>517.4</ele>
        <time>2021-10-25T13:48:43Z</time>
      </trkpt>
      <trkpt lat="46.52492" lon="5.62613">
        <ele>516.2</ele>
        <time>2021-10-25T13:48:45Z</time>
      </trkpt>
      <trkpt lat="46.52482" lon="5.62587">
        <ele>515.2</ele>
        <time>2021-10-25T13:48:47Z</time>
      </trkpt>
      <trkpt lat="46.52475" lon="5.62574">
        <ele>514.6</ele>
        <time>2021-10-25T13:48:48Z</time>
      </trkpt>
      <trkpt lat="46.52469" lon="5.62562">
        <ele>514</ele>
        <time>2021-10-25T13:48:49Z</time>
      </trkpt>
      <trkpt lat="46.52447" lon="5.62526">
        <ele>512.6</ele>
        <time>2021-10-25T13:48:52Z</time>
      </trkpt>
      <trkpt lat="46.52439" lon="5.62513">
        <ele>511.6</ele>
        <time>2021-10-25T13:48:53Z</time>
      </trkpt>
      <trkpt lat="46.52431" lon="5.62501">
        <ele>511.4</ele>
        <time>2021-10-25T13:48:54Z</time>
      </trkpt>
      <trkpt lat="46.52423" lon="5.62487">
        <ele>510.4</ele>
        <time>2021-10-25T13:48:55Z</time>
      </trkpt>
      <trkpt lat="46.52407" lon="5.62461">
        <ele>509</ele>
        <time>2021-10-25T13:48:57Z</time>
      </trkpt>
      <trkpt lat="46.524" lon="5.62446">
        <ele>507.6</ele>
        <time>2021-10-25T13:48:58Z</time>
      </trkpt>
      <trkpt lat="46.52389" lon="5.62414">
        <ele>505.2</ele>
        <time>2021-10-25T13:49:00Z</time>
      </trkpt>
      <trkpt lat="46.52381" lon="5.62381">
        <ele>502.6</ele>
        <time>2021-10-25T13:49:02Z</time>
      </trkpt>
      <trkpt lat="46.52375" lon="5.62345">
        <ele>501</ele>
        <time>2021-10-25T13:49:04Z</time>
      </trkpt>
      <trkpt lat="46.52374" lon="5.62327">
        <ele>499.8</ele>
        <time>2021-10-25T13:49:05Z</time>
      </trkpt>
      <trkpt lat="46.52373" lon="5.6231">
        <ele>499.4</ele>
        <time>2021-10-25T13:49:06Z</time>
      </trkpt>
      <trkpt lat="46.52373" lon="5.62292">
        <ele>498.2</ele>
        <time>2021-10-25T13:49:07Z</time>
      </trkpt>
      <trkpt lat="46.52374" lon="5.62257">
        <ele>496.8</ele>
        <time>2021-10-25T13:49:09Z</time>
      </trkpt>
      <trkpt lat="46.52376" lon="5.62223">
        <ele>495.4</ele>
        <time>2021-10-25T13:49:11Z</time>
      </trkpt>
      <trkpt lat="46.52379" lon="5.6219">
        <ele>494.4</ele>
        <time>2021-10-25T13:49:13Z</time>
      </trkpt>
      <trkpt lat="46.52382" lon="5.62128">
        <ele>493.4</ele>
        <time>2021-10-25T13:49:17Z</time>
      </trkpt>
      <trkpt lat="46.52387" lon="5.62059">
        <ele>492.8</ele>
        <time>2021-10-25T13:49:22Z</time>
      </trkpt>
      <trkpt lat="46.52392" lon="5.61972">
        <ele>494</ele>
        <time>2021-10-25T13:49:29Z</time>
      </trkpt>
      <trkpt lat="46.52393" lon="5.6196">
        <ele>494</ele>
        <time>2021-10-25T13:49:30Z</time>
      </trkpt>
      <trkpt lat="46.52395" lon="5.61927">
        <ele>494.4</ele>
        <time>2021-10-25T13:49:33Z</time>
      </trkpt>
      <trkpt lat="46.52396" lon="5.61886">
        <ele>495.4</ele>
        <time>2021-10-25T13:49:37Z</time>
      </trkpt>
      <trkpt lat="46.52397" lon="5.61877">
        <ele>495.6</ele>
        <time>2021-10-25T13:49:38Z</time>
      </trkpt>
      <trkpt lat="46.52395" lon="5.61858">
        <ele>496.4</ele>
        <time>2021-10-25T13:49:40Z</time>
      </trkpt>
      <trkpt lat="46.52394" lon="5.61849">
        <ele>496.8</ele>
        <time>2021-10-25T13:49:41Z</time>
      </trkpt>
      <trkpt lat="46.52393" lon="5.61833">
        <ele>497.6</ele>
        <time>2021-10-25T13:49:43Z</time>
      </trkpt>
      <trkpt lat="46.52389" lon="5.61814">
        <ele>498.6</ele>
        <time>2021-10-25T13:49:46Z</time>
      </trkpt>
      <trkpt lat="46.52388" lon="5.61804">
        <ele>500</ele>
        <time>2021-10-25T13:49:49Z</time>
      </trkpt>
      <trkpt lat="46.52388" lon="5.61804">
        <ele>500.2</ele>
        <time>2021-10-25T13:49:50Z</time>
      </trkpt>
      <trkpt lat="46.52388" lon="5.61804">
        <ele>500.8</ele>
        <time>2021-10-25T13:49:52Z</time>
      </trkpt>
      <trkpt lat="46.52385" lon="5.61796">
        <ele>501.4</ele>
        <time>2021-10-25T13:50:33Z</time>
      </trkpt>
      <trkpt lat="46.52383" lon="5.61787">
        <ele>501.4</ele>
        <time>2021-10-25T13:50:35Z</time>
      </trkpt>
      <trkpt lat="46.52378" lon="5.61759">
        <ele>501.8</ele>
        <time>2021-10-25T13:50:40Z</time>
      </trkpt>
      <trkpt lat="46.52375" lon="5.61738">
        <ele>502.4</ele>
        <time>2021-10-25T13:50:43Z</time>
      </trkpt>
      <trkpt lat="46.52374" lon="5.61731">
        <ele>502.4</ele>
        <time>2021-10-25T13:50:44Z</time>
      </trkpt>
      <trkpt lat="46.52369" lon="5.61711">
        <ele>502.8</ele>
        <time>2021-10-25T13:50:47Z</time>
      </trkpt>
      <trkpt lat="46.52367" lon="5.61699">
        <ele>503.6</ele>
        <time>2021-10-25T13:50:49Z</time>
      </trkpt>
      <trkpt lat="46.52365" lon="5.61686">
        <ele>504.6</ele>
        <time>2021-10-25T13:50:51Z</time>
      </trkpt>
      <trkpt lat="46.52359" lon="5.61661">
        <ele>505.8</ele>
        <time>2021-10-25T13:50:55Z</time>
      </trkpt>
      <trkpt lat="46.52356" lon="5.6165">
        <ele>506.6</ele>
        <time>2021-10-25T13:50:57Z</time>
      </trkpt>
      <trkpt lat="46.52354" lon="5.61645">
        <ele>507</ele>
        <time>2021-10-25T13:50:58Z</time>
      </trkpt>
      <trkpt lat="46.52349" lon="5.61635">
        <ele>507.6</ele>
        <time>2021-10-25T13:51:00Z</time>
      </trkpt>
      <trkpt lat="46.52344" lon="5.61627">
        <ele>508.2</ele>
        <time>2021-10-25T13:51:02Z</time>
      </trkpt>
      <trkpt lat="46.52337" lon="5.61621">
        <ele>508.6</ele>
        <time>2021-10-25T13:51:04Z</time>
      </trkpt>
      <trkpt lat="46.52329" lon="5.61616">
        <ele>509.2</ele>
        <time>2021-10-25T13:51:06Z</time>
      </trkpt>
      <trkpt lat="46.52325" lon="5.61613">
        <ele>509.6</ele>
        <time>2021-10-25T13:51:07Z</time>
      </trkpt>
      <trkpt lat="46.52303" lon="5.61596">
        <ele>510</ele>
        <time>2021-10-25T13:51:12Z</time>
      </trkpt>
      <trkpt lat="46.52274" lon="5.6157">
        <ele>510</ele>
        <time>2021-10-25T13:51:18Z</time>
      </trkpt>
      <trkpt lat="46.52232" lon="5.61525">
        <ele>509.6</ele>
        <time>2021-10-25T13:51:26Z</time>
      </trkpt>
      <trkpt lat="46.52184" lon="5.61476">
        <ele>510</ele>
        <time>2021-10-25T13:51:35Z</time>
      </trkpt>
      <trkpt lat="46.52174" lon="5.61465">
        <ele>510.2</ele>
        <time>2021-10-25T13:51:37Z</time>
      </trkpt>
      <trkpt lat="46.52169" lon="5.61459">
        <ele>510.4</ele>
        <time>2021-10-25T13:51:38Z</time>
      </trkpt>
      <trkpt lat="46.52164" lon="5.61454">
        <ele>510.6</ele>
        <time>2021-10-25T13:51:39Z</time>
      </trkpt>
      <trkpt lat="46.52125" lon="5.61408">
        <ele>511.6</ele>
        <time>2021-10-25T13:51:47Z</time>
      </trkpt>
      <trkpt lat="46.52118" lon="5.61394">
        <ele>511.6</ele>
        <time>2021-10-25T13:51:49Z</time>
      </trkpt>
      <trkpt lat="46.52114" lon="5.61377">
        <ele>512</ele>
        <time>2021-10-25T13:51:51Z</time>
      </trkpt>
      <trkpt lat="46.52103" lon="5.61311">
        <ele>512.8</ele>
        <time>2021-10-25T13:51:59Z</time>
      </trkpt>
      <trkpt lat="46.521" lon="5.61287">
        <ele>513.2</ele>
        <time>2021-10-25T13:52:02Z</time>
      </trkpt>
      <trkpt lat="46.52101" lon="5.61262">
        <ele>513.4</ele>
        <time>2021-10-25T13:52:05Z</time>
      </trkpt>
      <trkpt lat="46.52103" lon="5.6122">
        <ele>514</ele>
        <time>2021-10-25T13:52:10Z</time>
      </trkpt>
      <trkpt lat="46.52102" lon="5.61193">
        <ele>514.4</ele>
        <time>2021-10-25T13:52:13Z</time>
      </trkpt>
      <trkpt lat="46.52099" lon="5.61166">
        <ele>515</ele>
        <time>2021-10-25T13:52:16Z</time>
      </trkpt>
      <trkpt lat="46.52097" lon="5.61122">
        <ele>515.6</ele>
        <time>2021-10-25T13:52:21Z</time>
      </trkpt>
      <trkpt lat="46.52101" lon="5.61086">
        <ele>516</ele>
        <time>2021-10-25T13:52:25Z</time>
      </trkpt>
      <trkpt lat="46.52104" lon="5.61078">
        <ele>516</ele>
        <time>2021-10-25T13:52:26Z</time>
      </trkpt>
      <trkpt lat="46.52105" lon="5.6107">
        <ele>516.2</ele>
        <time>2021-10-25T13:52:27Z</time>
      </trkpt>
      <trkpt lat="46.52104" lon="5.61053">
        <ele>516.6</ele>
        <time>2021-10-25T13:52:29Z</time>
      </trkpt>
      <trkpt lat="46.52102" lon="5.61034">
        <ele>516.8</ele>
        <time>2021-10-25T13:52:31Z</time>
      </trkpt>
      <trkpt lat="46.52104" lon="5.61025">
        <ele>516.8</ele>
        <time>2021-10-25T13:52:32Z</time>
      </trkpt>
      <trkpt lat="46.52108" lon="5.61017">
        <ele>516.8</ele>
        <time>2021-10-25T13:52:33Z</time>
      </trkpt>
      <trkpt lat="46.52119" lon="5.61005">
        <ele>517</ele>
        <time>2021-10-25T13:52:35Z</time>
      </trkpt>
      <trkpt lat="46.52124" lon="5.60999">
        <ele>517</ele>
        <time>2021-10-25T13:52:36Z</time>
      </trkpt>
      <trkpt lat="46.52129" lon="5.60993">
        <ele>517</ele>
        <time>2021-10-25T13:52:37Z</time>
      </trkpt>
      <trkpt lat="46.52137" lon="5.60978">
        <ele>517.2</ele>
        <time>2021-10-25T13:52:39Z</time>
      </trkpt>
      <trkpt lat="46.52144" lon="5.60946">
        <ele>517.6</ele>
        <time>2021-10-25T13:52:43Z</time>
      </trkpt>
      <trkpt lat="46.52146" lon="5.60923">
        <ele>518.2</ele>
        <time>2021-10-25T13:52:46Z</time>
      </trkpt>
      <trkpt lat="46.52151" lon="5.60892">
        <ele>518.8</ele>
        <time>2021-10-25T13:52:50Z</time>
      </trkpt>
      <trkpt lat="46.52154" lon="5.60867">
        <ele>518.8</ele>
        <time>2021-10-25T13:52:53Z</time>
      </trkpt>
      <trkpt lat="46.52159" lon="5.60845">
        <ele>519.4</ele>
        <time>2021-10-25T13:52:56Z</time>
      </trkpt>
      <trkpt lat="46.5216" lon="5.60837">
        <ele>519.6</ele>
        <time>2021-10-25T13:52:57Z</time>
      </trkpt>
      <trkpt lat="46.52164" lon="5.60814">
        <ele>520.2</ele>
        <time>2021-10-25T13:53:00Z</time>
      </trkpt>
      <trkpt lat="46.52164" lon="5.60806">
        <ele>520.6</ele>
        <time>2021-10-25T13:53:01Z</time>
      </trkpt>
      <trkpt lat="46.52163" lon="5.6079">
        <ele>521.2</ele>
        <time>2021-10-25T13:53:03Z</time>
      </trkpt>
      <trkpt lat="46.52162" lon="5.60756">
        <ele>521.4</ele>
        <time>2021-10-25T13:53:07Z</time>
      </trkpt>
      <trkpt lat="46.52166" lon="5.60738">
        <ele>521.4</ele>
        <time>2021-10-25T13:53:09Z</time>
      </trkpt>
      <trkpt lat="46.52178" lon="5.60724">
        <ele>521.2</ele>
        <time>2021-10-25T13:53:11Z</time>
      </trkpt>
      <trkpt lat="46.52195" lon="5.60716">
        <ele>521</ele>
        <time>2021-10-25T13:53:13Z</time>
      </trkpt>
      <trkpt lat="46.52204" lon="5.60715">
        <ele>520.6</ele>
        <time>2021-10-25T13:53:14Z</time>
      </trkpt>
      <trkpt lat="46.52222" lon="5.60711">
        <ele>519.2</ele>
        <time>2021-10-25T13:53:16Z</time>
      </trkpt>
      <trkpt lat="46.52231" lon="5.60708">
        <ele>518.4</ele>
        <time>2021-10-25T13:53:17Z</time>
      </trkpt>
      <trkpt lat="46.5224" lon="5.60703">
        <ele>518</ele>
        <time>2021-10-25T13:53:18Z</time>
      </trkpt>
      <trkpt lat="46.52248" lon="5.60696">
        <ele>517.4</ele>
        <time>2021-10-25T13:53:19Z</time>
      </trkpt>
      <trkpt lat="46.52255" lon="5.60687">
        <ele>517</ele>
        <time>2021-10-25T13:53:20Z</time>
      </trkpt>
      <trkpt lat="46.5226" lon="5.60676">
        <ele>516.8</ele>
        <time>2021-10-25T13:53:21Z</time>
      </trkpt>
      <trkpt lat="46.52264" lon="5.60665">
        <ele>516</ele>
        <time>2021-10-25T13:53:22Z</time>
      </trkpt>
      <trkpt lat="46.52266" lon="5.60652">
        <ele>515.6</ele>
        <time>2021-10-25T13:53:23Z</time>
      </trkpt>
      <trkpt lat="46.52268" lon="5.60639">
        <ele>515</ele>
        <time>2021-10-25T13:53:24Z</time>
      </trkpt>
      <trkpt lat="46.52269" lon="5.60625">
        <ele>514.8</ele>
        <time>2021-10-25T13:53:25Z</time>
      </trkpt>
      <trkpt lat="46.52274" lon="5.60557">
        <ele>513.6</ele>
        <time>2021-10-25T13:53:30Z</time>
      </trkpt>
      <trkpt lat="46.52276" lon="5.60531">
        <ele>512.8</ele>
        <time>2021-10-25T13:53:32Z</time>
      </trkpt>
      <trkpt lat="46.52277" lon="5.60518">
        <ele>512.4</ele>
        <time>2021-10-25T13:53:33Z</time>
      </trkpt>
      <trkpt lat="46.52283" lon="5.60428">
        <ele>511.8</ele>
        <time>2021-10-25T13:53:40Z</time>
      </trkpt>
      <trkpt lat="46.52284" lon="5.60416">
        <ele>511.8</ele>
        <time>2021-10-25T13:53:41Z</time>
      </trkpt>
      <trkpt lat="46.52291" lon="5.60344">
        <ele>511.4</ele>
        <time>2021-10-25T13:53:47Z</time>
      </trkpt>
      <trkpt lat="46.52293" lon="5.6032">
        <ele>511.2</ele>
        <time>2021-10-25T13:53:49Z</time>
      </trkpt>
      <trkpt lat="46.52298" lon="5.60247">
        <ele>510.4</ele>
        <time>2021-10-25T13:53:55Z</time>
      </trkpt>
      <trkpt lat="46.52304" lon="5.60175">
        <ele>510</ele>
        <time>2021-10-25T13:54:01Z</time>
      </trkpt>
      <trkpt lat="46.52309" lon="5.60103">
        <ele>509.4</ele>
        <time>2021-10-25T13:54:07Z</time>
      </trkpt>
      <trkpt lat="46.52309" lon="5.60091">
        <ele>509.4</ele>
        <time>2021-10-25T13:54:08Z</time>
      </trkpt>
      <trkpt lat="46.52317" lon="5.60014">
        <ele>509.2</ele>
        <time>2021-10-25T13:54:14Z</time>
      </trkpt>
      <trkpt lat="46.52323" lon="5.59932">
        <ele>508.4</ele>
        <time>2021-10-25T13:54:20Z</time>
      </trkpt>
      <trkpt lat="46.52325" lon="5.59906">
        <ele>507.8</ele>
        <time>2021-10-25T13:54:22Z</time>
      </trkpt>
      <trkpt lat="46.52327" lon="5.5988">
        <ele>507.2</ele>
        <time>2021-10-25T13:54:24Z</time>
      </trkpt>
      <trkpt lat="46.52334" lon="5.59791">
        <ele>506.8</ele>
        <time>2021-10-25T13:54:31Z</time>
      </trkpt>
      <trkpt lat="46.52335" lon="5.59779">
        <ele>506.8</ele>
        <time>2021-10-25T13:54:32Z</time>
      </trkpt>
      <trkpt lat="46.52341" lon="5.59691">
        <ele>506.6</ele>
        <time>2021-10-25T13:54:39Z</time>
      </trkpt>
      <trkpt lat="46.52345" lon="5.59641">
        <ele>506.2</ele>
        <time>2021-10-25T13:54:43Z</time>
      </trkpt>
      <trkpt lat="46.5235" lon="5.59567">
        <ele>505.8</ele>
        <time>2021-10-25T13:54:49Z</time>
      </trkpt>
      <trkpt lat="46.52353" lon="5.59529">
        <ele>505</ele>
        <time>2021-10-25T13:54:52Z</time>
      </trkpt>
      <trkpt lat="46.52358" lon="5.59465">
        <ele>504</ele>
        <time>2021-10-25T13:54:57Z</time>
      </trkpt>
      <trkpt lat="46.52361" lon="5.59425">
        <ele>502.8</ele>
        <time>2021-10-25T13:55:00Z</time>
      </trkpt>
      <trkpt lat="46.52362" lon="5.59412">
        <ele>502.6</ele>
        <time>2021-10-25T13:55:01Z</time>
      </trkpt>
      <trkpt lat="46.52367" lon="5.59357">
        <ele>501.8</ele>
        <time>2021-10-25T13:55:05Z</time>
      </trkpt>
      <trkpt lat="46.52371" lon="5.59287">
        <ele>500.6</ele>
        <time>2021-10-25T13:55:10Z</time>
      </trkpt>
      <trkpt lat="46.52373" lon="5.59259">
        <ele>499.8</ele>
        <time>2021-10-25T13:55:12Z</time>
      </trkpt>
      <trkpt lat="46.52374" lon="5.59246">
        <ele>499.6</ele>
        <time>2021-10-25T13:55:13Z</time>
      </trkpt>
      <trkpt lat="46.52376" lon="5.59219">
        <ele>498.4</ele>
        <time>2021-10-25T13:55:15Z</time>
      </trkpt>
      <trkpt lat="46.5238" lon="5.59167">
        <ele>497.6</ele>
        <time>2021-10-25T13:55:19Z</time>
      </trkpt>
      <trkpt lat="46.52382" lon="5.59141">
        <ele>497.2</ele>
        <time>2021-10-25T13:55:21Z</time>
      </trkpt>
      <trkpt lat="46.52387" lon="5.59078">
        <ele>496.8</ele>
        <time>2021-10-25T13:55:26Z</time>
      </trkpt>
      <trkpt lat="46.52395" lon="5.58991">
        <ele>496.2</ele>
        <time>2021-10-25T13:55:33Z</time>
      </trkpt>
      <trkpt lat="46.52396" lon="5.58978">
        <ele>496.2</ele>
        <time>2021-10-25T13:55:34Z</time>
      </trkpt>
      <trkpt lat="46.52402" lon="5.58891">
        <ele>495.8</ele>
        <time>2021-10-25T13:55:41Z</time>
      </trkpt>
      <trkpt lat="46.52403" lon="5.58878">
        <ele>495.8</ele>
        <time>2021-10-25T13:55:42Z</time>
      </trkpt>
      <trkpt lat="46.5241" lon="5.5879">
        <ele>495.6</ele>
        <time>2021-10-25T13:55:49Z</time>
      </trkpt>
      <trkpt lat="46.52411" lon="5.58778">
        <ele>495.6</ele>
        <time>2021-10-25T13:55:50Z</time>
      </trkpt>
      <trkpt lat="46.52417" lon="5.58693">
        <ele>495.2</ele>
        <time>2021-10-25T13:55:57Z</time>
      </trkpt>
      <trkpt lat="46.52418" lon="5.58682">
        <ele>495.2</ele>
        <time>2021-10-25T13:55:58Z</time>
      </trkpt>
      <trkpt lat="46.52419" lon="5.5867">
        <ele>495</ele>
        <time>2021-10-25T13:55:59Z</time>
      </trkpt>
      <trkpt lat="46.52425" lon="5.58591">
        <ele>495.2</ele>
        <time>2021-10-25T13:56:06Z</time>
      </trkpt>
      <trkpt lat="46.52431" lon="5.58502">
        <ele>495</ele>
        <time>2021-10-25T13:56:14Z</time>
      </trkpt>
      <trkpt lat="46.52438" lon="5.58416">
        <ele>495.2</ele>
        <time>2021-10-25T13:56:22Z</time>
      </trkpt>
      <trkpt lat="46.52444" lon="5.58336">
        <ele>494.8</ele>
        <time>2021-10-25T13:56:29Z</time>
      </trkpt>
      <trkpt lat="46.52445" lon="5.58324">
        <ele>494.8</ele>
        <time>2021-10-25T13:56:30Z</time>
      </trkpt>
      <trkpt lat="46.52451" lon="5.58246">
        <ele>494.8</ele>
        <time>2021-10-25T13:56:37Z</time>
      </trkpt>
      <trkpt lat="46.52458" lon="5.5816">
        <ele>494.8</ele>
        <time>2021-10-25T13:56:45Z</time>
      </trkpt>
      <trkpt lat="46.52459" lon="5.58138">
        <ele>495</ele>
        <time>2021-10-25T13:56:47Z</time>
      </trkpt>
      <trkpt lat="46.52466" lon="5.58052">
        <ele>495</ele>
        <time>2021-10-25T13:56:55Z</time>
      </trkpt>
      <trkpt lat="46.52473" lon="5.57965">
        <ele>494.4</ele>
        <time>2021-10-25T13:57:03Z</time>
      </trkpt>
      <trkpt lat="46.52477" lon="5.57911">
        <ele>494</ele>
        <time>2021-10-25T13:57:08Z</time>
      </trkpt>
      <trkpt lat="46.52481" lon="5.57856">
        <ele>494</ele>
        <time>2021-10-25T13:57:13Z</time>
      </trkpt>
      <trkpt lat="46.52488" lon="5.57768">
        <ele>494.4</ele>
        <time>2021-10-25T13:57:21Z</time>
      </trkpt>
      <trkpt lat="46.5249" lon="5.57747">
        <ele>494.4</ele>
        <time>2021-10-25T13:57:23Z</time>
      </trkpt>
      <trkpt lat="46.52496" lon="5.5766">
        <ele>494.4</ele>
        <time>2021-10-25T13:57:31Z</time>
      </trkpt>
      <trkpt lat="46.52497" lon="5.57649">
        <ele>494.4</ele>
        <time>2021-10-25T13:57:32Z</time>
      </trkpt>
      <trkpt lat="46.52503" lon="5.57564">
        <ele>494.6</ele>
        <time>2021-10-25T13:57:40Z</time>
      </trkpt>
      <trkpt lat="46.52505" lon="5.57543">
        <ele>494.8</ele>
        <time>2021-10-25T13:57:42Z</time>
      </trkpt>
      <trkpt lat="46.52511" lon="5.57458">
        <ele>494.8</ele>
        <time>2021-10-25T13:57:50Z</time>
      </trkpt>
      <trkpt lat="46.52513" lon="5.57426">
        <ele>494.6</ele>
        <time>2021-10-25T13:57:53Z</time>
      </trkpt>
      <trkpt lat="46.5252" lon="5.57342">
        <ele>494</ele>
        <time>2021-10-25T13:58:01Z</time>
      </trkpt>
      <trkpt lat="46.52521" lon="5.57331">
        <ele>494</ele>
        <time>2021-10-25T13:58:02Z</time>
      </trkpt>
      <trkpt lat="46.52527" lon="5.57247">
        <ele>494</ele>
        <time>2021-10-25T13:58:10Z</time>
      </trkpt>
      <trkpt lat="46.52528" lon="5.57236">
        <ele>494</ele>
        <time>2021-10-25T13:58:11Z</time>
      </trkpt>
      <trkpt lat="46.52535" lon="5.57152">
        <ele>493.8</ele>
        <time>2021-10-25T13:58:19Z</time>
      </trkpt>
      <trkpt lat="46.52538" lon="5.5711">
        <ele>494</ele>
        <time>2021-10-25T13:58:23Z</time>
      </trkpt>
      <trkpt lat="46.52544" lon="5.57029">
        <ele>493.8</ele>
        <time>2021-10-25T13:58:31Z</time>
      </trkpt>
      <trkpt lat="46.5255" lon="5.56971">
        <ele>493.4</ele>
        <time>2021-10-25T13:58:37Z</time>
      </trkpt>
      <trkpt lat="46.52554" lon="5.56921">
        <ele>493.2</ele>
        <time>2021-10-25T13:58:42Z</time>
      </trkpt>
      <trkpt lat="46.52556" lon="5.56891">
        <ele>493.2</ele>
        <time>2021-10-25T13:58:45Z</time>
      </trkpt>
      <trkpt lat="46.52562" lon="5.5681">
        <ele>494</ele>
        <time>2021-10-25T13:58:53Z</time>
      </trkpt>
      <trkpt lat="46.52564" lon="5.5679">
        <ele>494</ele>
        <time>2021-10-25T13:58:55Z</time>
      </trkpt>
      <trkpt lat="46.52567" lon="5.56741">
        <ele>494.2</ele>
        <time>2021-10-25T13:59:00Z</time>
      </trkpt>
      <trkpt lat="46.52571" lon="5.56701">
        <ele>494.2</ele>
        <time>2021-10-25T13:59:04Z</time>
      </trkpt>
      <trkpt lat="46.52577" lon="5.56623">
        <ele>494.6</ele>
        <time>2021-10-25T13:59:12Z</time>
      </trkpt>
      <trkpt lat="46.52578" lon="5.56603">
        <ele>494.6</ele>
        <time>2021-10-25T13:59:14Z</time>
      </trkpt>
      <trkpt lat="46.52582" lon="5.56556">
        <ele>495.4</ele>
        <time>2021-10-25T13:59:19Z</time>
      </trkpt>
      <trkpt lat="46.52585" lon="5.5652">
        <ele>496.4</ele>
        <time>2021-10-25T13:59:23Z</time>
      </trkpt>
      <trkpt lat="46.52587" lon="5.56502">
        <ele>496.8</ele>
        <time>2021-10-25T13:59:25Z</time>
      </trkpt>
      <trkpt lat="46.52593" lon="5.5643">
        <ele>497.4</ele>
        <time>2021-10-25T13:59:33Z</time>
      </trkpt>
      <trkpt lat="46.52594" lon="5.56411">
        <ele>497.6</ele>
        <time>2021-10-25T13:59:35Z</time>
      </trkpt>
      <trkpt lat="46.526" lon="5.56328">
        <ele>497.4</ele>
        <time>2021-10-25T13:59:43Z</time>
      </trkpt>
      <trkpt lat="46.52601" lon="5.56317">
        <ele>497.2</ele>
        <time>2021-10-25T13:59:44Z</time>
      </trkpt>
      <trkpt lat="46.52603" lon="5.56283">
        <ele>496.4</ele>
        <time>2021-10-25T13:59:47Z</time>
      </trkpt>
      <trkpt lat="46.52607" lon="5.56237">
        <ele>495.2</ele>
        <time>2021-10-25T13:59:51Z</time>
      </trkpt>
      <trkpt lat="46.52608" lon="5.56225">
        <ele>495</ele>
        <time>2021-10-25T13:59:52Z</time>
      </trkpt>
      <trkpt lat="46.52613" lon="5.56165">
        <ele>494</ele>
        <time>2021-10-25T13:59:57Z</time>
      </trkpt>
      <trkpt lat="46.52616" lon="5.56117">
        <ele>493.4</ele>
        <time>2021-10-25T14:00:01Z</time>
      </trkpt>
      <trkpt lat="46.52623" lon="5.56036">
        <ele>493</ele>
        <time>2021-10-25T14:00:08Z</time>
      </trkpt>
      <trkpt lat="46.52629" lon="5.55955">
        <ele>492.8</ele>
        <time>2021-10-25T14:00:15Z</time>
      </trkpt>
      <trkpt lat="46.52632" lon="5.55921">
        <ele>492.8</ele>
        <time>2021-10-25T14:00:18Z</time>
      </trkpt>
      <trkpt lat="46.52638" lon="5.55843">
        <ele>492.6</ele>
        <time>2021-10-25T14:00:25Z</time>
      </trkpt>
      <trkpt lat="46.52645" lon="5.55758">
        <ele>492.4</ele>
        <time>2021-10-25T14:00:33Z</time>
      </trkpt>
      <trkpt lat="46.52647" lon="5.55725">
        <ele>492.4</ele>
        <time>2021-10-25T14:00:36Z</time>
      </trkpt>
      <trkpt lat="46.52654" lon="5.55637">
        <ele>492.2</ele>
        <time>2021-10-25T14:00:44Z</time>
      </trkpt>
      <trkpt lat="46.52656" lon="5.55615">
        <ele>492.2</ele>
        <time>2021-10-25T14:00:46Z</time>
      </trkpt>
      <trkpt lat="46.52661" lon="5.55542">
        <ele>492.2</ele>
        <time>2021-10-25T14:00:53Z</time>
      </trkpt>
      <trkpt lat="46.52668" lon="5.5546">
        <ele>492.8</ele>
        <time>2021-10-25T14:01:01Z</time>
      </trkpt>
      <trkpt lat="46.5267" lon="5.5543">
        <ele>493.2</ele>
        <time>2021-10-25T14:01:04Z</time>
      </trkpt>
      <trkpt lat="46.52676" lon="5.55353">
        <ele>493.8</ele>
        <time>2021-10-25T14:01:12Z</time>
      </trkpt>
      <trkpt lat="46.52679" lon="5.55318">
        <ele>494.4</ele>
        <time>2021-10-25T14:01:16Z</time>
      </trkpt>
      <trkpt lat="46.52682" lon="5.55273">
        <ele>495.2</ele>
        <time>2021-10-25T14:01:21Z</time>
      </trkpt>
      <trkpt lat="46.52684" lon="5.55246">
        <ele>495.6</ele>
        <time>2021-10-25T14:01:24Z</time>
      </trkpt>
      <trkpt lat="46.5269" lon="5.55171">
        <ele>495.8</ele>
        <time>2021-10-25T14:01:32Z</time>
      </trkpt>
      <trkpt lat="46.52697" lon="5.55085">
        <ele>496.2</ele>
        <time>2021-10-25T14:01:41Z</time>
      </trkpt>
      <trkpt lat="46.52697" lon="5.55075">
        <ele>496.2</ele>
        <time>2021-10-25T14:01:42Z</time>
      </trkpt>
      <trkpt lat="46.52702" lon="5.5502">
        <ele>496.6</ele>
        <time>2021-10-25T14:01:48Z</time>
      </trkpt>
      <trkpt lat="46.52705" lon="5.54985">
        <ele>497</ele>
        <time>2021-10-25T14:01:52Z</time>
      </trkpt>
      <trkpt lat="46.52707" lon="5.54953">
        <ele>497.6</ele>
        <time>2021-10-25T14:01:56Z</time>
      </trkpt>
      <trkpt lat="46.52709" lon="5.5493">
        <ele>498.2</ele>
        <time>2021-10-25T14:01:59Z</time>
      </trkpt>
      <trkpt lat="46.52711" lon="5.54908">
        <ele>498.8</ele>
        <time>2021-10-25T14:02:02Z</time>
      </trkpt>
      <trkpt lat="46.52713" lon="5.54858">
        <ele>499.8</ele>
        <time>2021-10-25T14:02:09Z</time>
      </trkpt>
      <trkpt lat="46.52715" lon="5.54827">
        <ele>501</ele>
        <time>2021-10-25T14:02:13Z</time>
      </trkpt>
      <trkpt lat="46.52718" lon="5.54792">
        <ele>502</ele>
        <time>2021-10-25T14:02:18Z</time>
      </trkpt>
      <trkpt lat="46.52718" lon="5.54785">
        <ele>502.2</ele>
        <time>2021-10-25T14:02:19Z</time>
      </trkpt>
      <trkpt lat="46.52723" lon="5.54725">
        <ele>503.2</ele>
        <time>2021-10-25T14:02:27Z</time>
      </trkpt>
      <trkpt lat="46.52725" lon="5.54704">
        <ele>503.4</ele>
        <time>2021-10-25T14:02:30Z</time>
      </trkpt>
      <trkpt lat="46.52729" lon="5.54653">
        <ele>504.2</ele>
        <time>2021-10-25T14:02:37Z</time>
      </trkpt>
      <trkpt lat="46.52731" lon="5.54638">
        <ele>504.8</ele>
        <time>2021-10-25T14:02:39Z</time>
      </trkpt>
      <trkpt lat="46.52735" lon="5.54627">
        <ele>505.2</ele>
        <time>2021-10-25T14:02:41Z</time>
      </trkpt>
      <trkpt lat="46.52741" lon="5.54616">
        <ele>505.4</ele>
        <time>2021-10-25T14:02:43Z</time>
      </trkpt>
      <trkpt lat="46.52749" lon="5.54611">
        <ele>505.8</ele>
        <time>2021-10-25T14:02:45Z</time>
      </trkpt>
      <trkpt lat="46.52756" lon="5.54609">
        <ele>506</ele>
        <time>2021-10-25T14:02:47Z</time>
      </trkpt>
      <trkpt lat="46.5276" lon="5.54609">
        <ele>506.6</ele>
        <time>2021-10-25T14:02:48Z</time>
      </trkpt>
      <trkpt lat="46.52777" lon="5.54609">
        <ele>507.6</ele>
        <time>2021-10-25T14:02:52Z</time>
      </trkpt>
      <trkpt lat="46.52787" lon="5.54609">
        <ele>508.2</ele>
        <time>2021-10-25T14:02:54Z</time>
      </trkpt>
      <trkpt lat="46.52796" lon="5.54609">
        <ele>508.8</ele>
        <time>2021-10-25T14:02:56Z</time>
      </trkpt>
      <trkpt lat="46.5282" lon="5.54609">
        <ele>509.8</ele>
        <time>2021-10-25T14:03:02Z</time>
      </trkpt>
      <trkpt lat="46.52827" lon="5.54609">
        <ele>510.8</ele>
        <time>2021-10-25T14:03:04Z</time>
      </trkpt>
      <trkpt lat="46.52831" lon="5.54609">
        <ele>511.2</ele>
        <time>2021-10-25T14:03:05Z</time>
      </trkpt>
      <trkpt lat="46.52846" lon="5.54611">
        <ele>511.8</ele>
        <time>2021-10-25T14:03:09Z</time>
      </trkpt>
      <trkpt lat="46.52855" lon="5.54613">
        <ele>512.4</ele>
        <time>2021-10-25T14:03:11Z</time>
      </trkpt>
      <trkpt lat="46.52878" lon="5.54616">
        <ele>513.6</ele>
        <time>2021-10-25T14:03:16Z</time>
      </trkpt>
      <trkpt lat="46.52915" lon="5.54619">
        <ele>514.6</ele>
        <time>2021-10-25T14:03:24Z</time>
      </trkpt>
      <trkpt lat="46.52928" lon="5.5462">
        <ele>515</ele>
        <time>2021-10-25T14:03:27Z</time>
      </trkpt>
      <trkpt lat="46.52943" lon="5.54621">
        <ele>515.8</ele>
        <time>2021-10-25T14:03:30Z</time>
      </trkpt>
      <trkpt lat="46.52972" lon="5.54623">
        <ele>516.6</ele>
        <time>2021-10-25T14:03:36Z</time>
      </trkpt>
      <trkpt lat="46.52977" lon="5.54624">
        <ele>516.8</ele>
        <time>2021-10-25T14:03:37Z</time>
      </trkpt>
      <trkpt lat="46.5302" lon="5.54628">
        <ele>518.2</ele>
        <time>2021-10-25T14:03:46Z</time>
      </trkpt>
      <trkpt lat="46.53035" lon="5.54631">
        <ele>518.8</ele>
        <time>2021-10-25T14:03:49Z</time>
      </trkpt>
      <trkpt lat="46.53044" lon="5.54632">
        <ele>519.2</ele>
        <time>2021-10-25T14:03:51Z</time>
      </trkpt>
      <trkpt lat="46.53072" lon="5.54632">
        <ele>520.2</ele>
        <time>2021-10-25T14:03:57Z</time>
      </trkpt>
      <trkpt lat="46.53077" lon="5.54632">
        <ele>520.4</ele>
        <time>2021-10-25T14:03:58Z</time>
      </trkpt>
      <trkpt lat="46.53118" lon="5.54634">
        <ele>521.2</ele>
        <time>2021-10-25T14:04:06Z</time>
      </trkpt>
      <trkpt lat="46.53133" lon="5.54637">
        <ele>521.4</ele>
        <time>2021-10-25T14:04:09Z</time>
      </trkpt>
      <trkpt lat="46.5316" lon="5.54644">
        <ele>522.4</ele>
        <time>2021-10-25T14:04:15Z</time>
      </trkpt>
      <trkpt lat="46.53165" lon="5.54645">
        <ele>522.8</ele>
        <time>2021-10-25T14:04:16Z</time>
      </trkpt>
      <trkpt lat="46.53183" lon="5.54649">
        <ele>524</ele>
        <time>2021-10-25T14:04:20Z</time>
      </trkpt>
      <trkpt lat="46.53196" lon="5.5465">
        <ele>524.8</ele>
        <time>2021-10-25T14:04:23Z</time>
      </trkpt>
      <trkpt lat="46.53201" lon="5.54651">
        <ele>525</ele>
        <time>2021-10-25T14:04:24Z</time>
      </trkpt>
      <trkpt lat="46.5322" lon="5.54653">
        <ele>526</ele>
        <time>2021-10-25T14:04:28Z</time>
      </trkpt>
      <trkpt lat="46.53248" lon="5.54658">
        <ele>526.8</ele>
        <time>2021-10-25T14:04:34Z</time>
      </trkpt>
      <trkpt lat="46.53253" lon="5.54658">
        <ele>527</ele>
        <time>2021-10-25T14:04:35Z</time>
      </trkpt>
      <trkpt lat="46.53294" lon="5.54668">
        <ele>528.4</ele>
        <time>2021-10-25T14:04:44Z</time>
      </trkpt>
      <trkpt lat="46.53304" lon="5.54671">
        <ele>528.6</ele>
        <time>2021-10-25T14:04:46Z</time>
      </trkpt>
      <trkpt lat="46.53322" lon="5.54677">
        <ele>529.4</ele>
        <time>2021-10-25T14:04:50Z</time>
      </trkpt>
      <trkpt lat="46.53354" lon="5.54687">
        <ele>530.6</ele>
        <time>2021-10-25T14:04:57Z</time>
      </trkpt>
      <trkpt lat="46.534" lon="5.54702">
        <ele>531.4</ele>
        <time>2021-10-25T14:05:06Z</time>
      </trkpt>
      <trkpt lat="46.53415" lon="5.54707">
        <ele>531.6</ele>
        <time>2021-10-25T14:05:09Z</time>
      </trkpt>
      <trkpt lat="46.53452" lon="5.5472">
        <ele>532.2</ele>
        <time>2021-10-25T14:05:16Z</time>
      </trkpt>
      <trkpt lat="46.53477" lon="5.54728">
        <ele>532.8</ele>
        <time>2021-10-25T14:05:21Z</time>
      </trkpt>
      <trkpt lat="46.53497" lon="5.54735">
        <ele>533.4</ele>
        <time>2021-10-25T14:05:25Z</time>
      </trkpt>
      <trkpt lat="46.53508" lon="5.54738">
        <ele>533.8</ele>
        <time>2021-10-25T14:05:27Z</time>
      </trkpt>
      <trkpt lat="46.53526" lon="5.54744">
        <ele>534.8</ele>
        <time>2021-10-25T14:05:31Z</time>
      </trkpt>
      <trkpt lat="46.53545" lon="5.54751">
        <ele>535.6</ele>
        <time>2021-10-25T14:05:35Z</time>
      </trkpt>
      <trkpt lat="46.5355" lon="5.54752">
        <ele>535.6</ele>
        <time>2021-10-25T14:05:36Z</time>
      </trkpt>
      <trkpt lat="46.53561" lon="5.54756">
        <ele>535.8</ele>
        <time>2021-10-25T14:05:38Z</time>
      </trkpt>
      <trkpt lat="46.53586" lon="5.54766">
        <ele>536.8</ele>
        <time>2021-10-25T14:05:43Z</time>
      </trkpt>
      <trkpt lat="46.53591" lon="5.54768">
        <ele>537.2</ele>
        <time>2021-10-25T14:05:44Z</time>
      </trkpt>
      <trkpt lat="46.53625" lon="5.54777">
        <ele>538.2</ele>
        <time>2021-10-25T14:05:50Z</time>
      </trkpt>
      <trkpt lat="46.53663" lon="5.5479">
        <ele>539</ele>
        <time>2021-10-25T14:05:57Z</time>
      </trkpt>
      <trkpt lat="46.53673" lon="5.54794">
        <ele>539.4</ele>
        <time>2021-10-25T14:05:59Z</time>
      </trkpt>
      <trkpt lat="46.53699" lon="5.54802">
        <ele>540.4</ele>
        <time>2021-10-25T14:06:04Z</time>
      </trkpt>
      <trkpt lat="46.53719" lon="5.54809">
        <ele>541.4</ele>
        <time>2021-10-25T14:06:08Z</time>
      </trkpt>
      <trkpt lat="46.53725" lon="5.54811">
        <ele>541.6</ele>
        <time>2021-10-25T14:06:09Z</time>
      </trkpt>
      <trkpt lat="46.53762" lon="5.54823">
        <ele>542.6</ele>
        <time>2021-10-25T14:06:16Z</time>
      </trkpt>
      <trkpt lat="46.53768" lon="5.54823">
        <ele>542.6</ele>
        <time>2021-10-25T14:06:17Z</time>
      </trkpt>
      <trkpt lat="46.53805" lon="5.5482">
        <ele>543.4</ele>
        <time>2021-10-25T14:06:24Z</time>
      </trkpt>
      <trkpt lat="46.5381" lon="5.5482">
        <ele>543.8</ele>
        <time>2021-10-25T14:06:25Z</time>
      </trkpt>
      <trkpt lat="46.53848" lon="5.5481">
        <ele>544.6</ele>
        <time>2021-10-25T14:06:32Z</time>
      </trkpt>
      <trkpt lat="46.53857" lon="5.54808">
        <ele>544.8</ele>
        <time>2021-10-25T14:06:34Z</time>
      </trkpt>
      <trkpt lat="46.53901" lon="5.54796">
        <ele>545.8</ele>
        <time>2021-10-25T14:06:42Z</time>
      </trkpt>
      <trkpt lat="46.53932" lon="5.54778">
        <ele>546.6</ele>
        <time>2021-10-25T14:06:48Z</time>
      </trkpt>
      <trkpt lat="46.5394" lon="5.54771">
        <ele>547</ele>
        <time>2021-10-25T14:06:50Z</time>
      </trkpt>
      <trkpt lat="46.53977" lon="5.54733">
        <ele>547.2</ele>
        <time>2021-10-25T14:06:58Z</time>
      </trkpt>
      <trkpt lat="46.53999" lon="5.54691">
        <ele>547.4</ele>
        <time>2021-10-25T14:07:04Z</time>
      </trkpt>
      <trkpt lat="46.5401" lon="5.54652">
        <ele>547.4</ele>
        <time>2021-10-25T14:07:08Z</time>
      </trkpt>
      <trkpt lat="46.5403" lon="5.54576">
        <ele>546.6</ele>
        <time>2021-10-25T14:07:15Z</time>
      </trkpt>
      <trkpt lat="46.54033" lon="5.54565">
        <ele>546.4</ele>
        <time>2021-10-25T14:07:16Z</time>
      </trkpt>
      <trkpt lat="46.54042" lon="5.54533">
        <ele>546</ele>
        <time>2021-10-25T14:07:19Z</time>
      </trkpt>
      <trkpt lat="46.54061" lon="5.54468">
        <ele>545.2</ele>
        <time>2021-10-25T14:07:25Z</time>
      </trkpt>
      <trkpt lat="46.54067" lon="5.54447">
        <ele>544.8</ele>
        <time>2021-10-25T14:07:27Z</time>
      </trkpt>
      <trkpt lat="46.54085" lon="5.54375">
        <ele>543.8</ele>
        <time>2021-10-25T14:07:34Z</time>
      </trkpt>
      <trkpt lat="46.54091" lon="5.54354">
        <ele>543.4</ele>
        <time>2021-10-25T14:07:36Z</time>
      </trkpt>
      <trkpt lat="46.54103" lon="5.54309">
        <ele>542.2</ele>
        <time>2021-10-25T14:07:40Z</time>
      </trkpt>
      <trkpt lat="46.54106" lon="5.54297">
        <ele>541.4</ele>
        <time>2021-10-25T14:07:41Z</time>
      </trkpt>
      <trkpt lat="46.54109" lon="5.54284">
        <ele>541.2</ele>
        <time>2021-10-25T14:07:42Z</time>
      </trkpt>
      <trkpt lat="46.54124" lon="5.54229">
        <ele>539.2</ele>
        <time>2021-10-25T14:07:46Z</time>
      </trkpt>
      <trkpt lat="46.54127" lon="5.54215">
        <ele>538.6</ele>
        <time>2021-10-25T14:07:47Z</time>
      </trkpt>
      <trkpt lat="46.54131" lon="5.54201">
        <ele>537.8</ele>
        <time>2021-10-25T14:07:48Z</time>
      </trkpt>
      <trkpt lat="46.54138" lon="5.54175">
        <ele>536.4</ele>
        <time>2021-10-25T14:07:50Z</time>
      </trkpt>
      <trkpt lat="46.54151" lon="5.54129">
        <ele>535.4</ele>
        <time>2021-10-25T14:07:53Z</time>
      </trkpt>
      <trkpt lat="46.54163" lon="5.54087">
        <ele>534.8</ele>
        <time>2021-10-25T14:07:56Z</time>
      </trkpt>
      <trkpt lat="46.54167" lon="5.54073">
        <ele>534</ele>
        <time>2021-10-25T14:07:57Z</time>
      </trkpt>
      <trkpt lat="46.54175" lon="5.54046">
        <ele>533</ele>
        <time>2021-10-25T14:07:59Z</time>
      </trkpt>
      <trkpt lat="46.54186" lon="5.54006">
        <ele>532.2</ele>
        <time>2021-10-25T14:08:02Z</time>
      </trkpt>
      <trkpt lat="46.54198" lon="5.53955">
        <ele>532</ele>
        <time>2021-10-25T14:08:06Z</time>
      </trkpt>
      <trkpt lat="46.54202" lon="5.53927">
        <ele>531.6</ele>
        <time>2021-10-25T14:08:08Z</time>
      </trkpt>
      <trkpt lat="46.54204" lon="5.53862">
        <ele>531.6</ele>
        <time>2021-10-25T14:08:13Z</time>
      </trkpt>
      <trkpt lat="46.54206" lon="5.53774">
        <ele>531</ele>
        <time>2021-10-25T14:08:20Z</time>
      </trkpt>
      <trkpt lat="46.54207" lon="5.53759">
        <ele>530.8</ele>
        <time>2021-10-25T14:08:21Z</time>
      </trkpt>
      <trkpt lat="46.5421" lon="5.53694">
        <ele>530.2</ele>
        <time>2021-10-25T14:08:26Z</time>
      </trkpt>
      <trkpt lat="46.54212" lon="5.53682">
        <ele>530</ele>
        <time>2021-10-25T14:08:27Z</time>
      </trkpt>
      <trkpt lat="46.54219" lon="5.53658">
        <ele>530</ele>
        <time>2021-10-25T14:08:29Z</time>
      </trkpt>
      <trkpt lat="46.54223" lon="5.53649">
        <ele>529.6</ele>
        <time>2021-10-25T14:08:30Z</time>
      </trkpt>
      <trkpt lat="46.54228" lon="5.53639">
        <ele>529.6</ele>
        <time>2021-10-25T14:08:31Z</time>
      </trkpt>
      <trkpt lat="46.54261" lon="5.53575">
        <ele>528.6</ele>
        <time>2021-10-25T14:08:37Z</time>
      </trkpt>
      <trkpt lat="46.54266" lon="5.53564">
        <ele>528.4</ele>
        <time>2021-10-25T14:08:38Z</time>
      </trkpt>
      <trkpt lat="46.5427" lon="5.53553">
        <ele>528.2</ele>
        <time>2021-10-25T14:08:39Z</time>
      </trkpt>
      <trkpt lat="46.54286" lon="5.53509">
        <ele>527.4</ele>
        <time>2021-10-25T14:08:43Z</time>
      </trkpt>
      <trkpt lat="46.54298" lon="5.53477">
        <ele>526.6</ele>
        <time>2021-10-25T14:08:46Z</time>
      </trkpt>
      <trkpt lat="46.54307" lon="5.53459">
        <ele>526.4</ele>
        <time>2021-10-25T14:08:48Z</time>
      </trkpt>
      <trkpt lat="46.54313" lon="5.5345">
        <ele>526.2</ele>
        <time>2021-10-25T14:08:49Z</time>
      </trkpt>
      <trkpt lat="46.54318" lon="5.53444">
        <ele>526</ele>
        <time>2021-10-25T14:08:50Z</time>
      </trkpt>
      <trkpt lat="46.54341" lon="5.53418">
        <ele>526</ele>
        <time>2021-10-25T14:08:53Z</time>
      </trkpt>
      <trkpt lat="46.54347" lon="5.53409">
        <ele>526</ele>
        <time>2021-10-25T14:08:54Z</time>
      </trkpt>
      <trkpt lat="46.54352" lon="5.53398">
        <ele>525.8</ele>
        <time>2021-10-25T14:08:55Z</time>
      </trkpt>
      <trkpt lat="46.54358" lon="5.53378">
        <ele>524.8</ele>
        <time>2021-10-25T14:08:57Z</time>
      </trkpt>
      <trkpt lat="46.54369" lon="5.53327">
        <ele>523.8</ele>
        <time>2021-10-25T14:09:01Z</time>
      </trkpt>
      <trkpt lat="46.54373" lon="5.53315">
        <ele>523.4</ele>
        <time>2021-10-25T14:09:02Z</time>
      </trkpt>
      <trkpt lat="46.54378" lon="5.53304">
        <ele>523.2</ele>
        <time>2021-10-25T14:09:03Z</time>
      </trkpt>
      <trkpt lat="46.54391" lon="5.53285">
        <ele>523</ele>
        <time>2021-10-25T14:09:05Z</time>
      </trkpt>
      <trkpt lat="46.54399" lon="5.53277">
        <ele>522.4</ele>
        <time>2021-10-25T14:09:06Z</time>
      </trkpt>
      <trkpt lat="46.54407" lon="5.53271">
        <ele>522</ele>
        <time>2021-10-25T14:09:07Z</time>
      </trkpt>
      <trkpt lat="46.54416" lon="5.53267">
        <ele>521.6</ele>
        <time>2021-10-25T14:09:08Z</time>
      </trkpt>
      <trkpt lat="46.54426" lon="5.53265">
        <ele>521</ele>
        <time>2021-10-25T14:09:09Z</time>
      </trkpt>
      <trkpt lat="46.54443" lon="5.5326">
        <ele>519.8</ele>
        <time>2021-10-25T14:09:11Z</time>
      </trkpt>
      <trkpt lat="46.54466" lon="5.53255">
        <ele>518.6</ele>
        <time>2021-10-25T14:09:13Z</time>
      </trkpt>
      <trkpt lat="46.54497" lon="5.53248">
        <ele>517</ele>
        <time>2021-10-25T14:09:16Z</time>
      </trkpt>
      <trkpt lat="46.54518" lon="5.53243">
        <ele>515.4</ele>
        <time>2021-10-25T14:09:18Z</time>
      </trkpt>
      <trkpt lat="46.5454" lon="5.53238">
        <ele>514.4</ele>
        <time>2021-10-25T14:09:20Z</time>
      </trkpt>
      <trkpt lat="46.54572" lon="5.53229">
        <ele>512.2</ele>
        <time>2021-10-25T14:09:23Z</time>
      </trkpt>
      <trkpt lat="46.54593" lon="5.53221">
        <ele>510.6</ele>
        <time>2021-10-25T14:09:25Z</time>
      </trkpt>
      <trkpt lat="46.54614" lon="5.53213">
        <ele>509.6</ele>
        <time>2021-10-25T14:09:27Z</time>
      </trkpt>
      <trkpt lat="46.54624" lon="5.53208">
        <ele>508.8</ele>
        <time>2021-10-25T14:09:28Z</time>
      </trkpt>
      <trkpt lat="46.54646" lon="5.532">
        <ele>507.2</ele>
        <time>2021-10-25T14:09:30Z</time>
      </trkpt>
      <trkpt lat="46.54668" lon="5.53196">
        <ele>506.6</ele>
        <time>2021-10-25T14:09:32Z</time>
      </trkpt>
      <trkpt lat="46.54691" lon="5.53196">
        <ele>505.4</ele>
        <time>2021-10-25T14:09:34Z</time>
      </trkpt>
      <trkpt lat="46.54714" lon="5.53199">
        <ele>504.2</ele>
        <time>2021-10-25T14:09:36Z</time>
      </trkpt>
      <trkpt lat="46.5475" lon="5.53201">
        <ele>502.2</ele>
        <time>2021-10-25T14:09:39Z</time>
      </trkpt>
      <trkpt lat="46.54772" lon="5.53197">
        <ele>500.6</ele>
        <time>2021-10-25T14:09:41Z</time>
      </trkpt>
      <trkpt lat="46.54804" lon="5.53182">
        <ele>499.2</ele>
        <time>2021-10-25T14:09:44Z</time>
      </trkpt>
      <trkpt lat="46.54823" lon="5.53172">
        <ele>498</ele>
        <time>2021-10-25T14:09:46Z</time>
      </trkpt>
      <trkpt lat="46.54855" lon="5.53154">
        <ele>497</ele>
        <time>2021-10-25T14:09:49Z</time>
      </trkpt>
      <trkpt lat="46.54872" lon="5.53141">
        <ele>496.4</ele>
        <time>2021-10-25T14:09:51Z</time>
      </trkpt>
      <trkpt lat="46.54888" lon="5.53123">
        <ele>495.8</ele>
        <time>2021-10-25T14:09:53Z</time>
      </trkpt>
      <trkpt lat="46.54894" lon="5.53111">
        <ele>495.8</ele>
        <time>2021-10-25T14:09:54Z</time>
      </trkpt>
      <trkpt lat="46.5493" lon="5.53037">
        <ele>494.6</ele>
        <time>2021-10-25T14:10:00Z</time>
      </trkpt>
      <trkpt lat="46.54935" lon="5.53024">
        <ele>493.8</ele>
        <time>2021-10-25T14:10:01Z</time>
      </trkpt>
      <trkpt lat="46.54941" lon="5.53012">
        <ele>492.8</ele>
        <time>2021-10-25T14:10:02Z</time>
      </trkpt>
      <trkpt lat="46.5495" lon="5.52985">
        <ele>492</ele>
        <time>2021-10-25T14:10:04Z</time>
      </trkpt>
      <trkpt lat="46.54953" lon="5.52971">
        <ele>491.8</ele>
        <time>2021-10-25T14:10:05Z</time>
      </trkpt>
      <trkpt lat="46.54959" lon="5.52943">
        <ele>490.6</ele>
        <time>2021-10-25T14:10:07Z</time>
      </trkpt>
      <trkpt lat="46.54965" lon="5.52915">
        <ele>489.4</ele>
        <time>2021-10-25T14:10:09Z</time>
      </trkpt>
      <trkpt lat="46.54977" lon="5.52877">
        <ele>488.4</ele>
        <time>2021-10-25T14:10:12Z</time>
      </trkpt>
      <trkpt lat="46.54992" lon="5.52848">
        <ele>487.4</ele>
        <time>2021-10-25T14:10:15Z</time>
      </trkpt>
      <trkpt lat="46.54998" lon="5.5284">
        <ele>487</ele>
        <time>2021-10-25T14:10:16Z</time>
      </trkpt>
      <trkpt lat="46.55025" lon="5.52804">
        <ele>487</ele>
        <time>2021-10-25T14:10:21Z</time>
      </trkpt>
      <trkpt lat="46.55045" lon="5.5277">
        <ele>487.4</ele>
        <time>2021-10-25T14:10:26Z</time>
      </trkpt>
      <trkpt lat="46.55071" lon="5.52709">
        <ele>487.8</ele>
        <time>2021-10-25T14:10:34Z</time>
      </trkpt>
      <trkpt lat="46.55092" lon="5.52658">
        <ele>487.6</ele>
        <time>2021-10-25T14:10:41Z</time>
      </trkpt>
      <trkpt lat="46.55097" lon="5.52644">
        <ele>487.6</ele>
        <time>2021-10-25T14:10:43Z</time>
      </trkpt>
      <trkpt lat="46.55102" lon="5.52623">
        <ele>487.6</ele>
        <time>2021-10-25T14:10:46Z</time>
      </trkpt>
      <trkpt lat="46.55103" lon="5.52616">
        <ele>487.8</ele>
        <time>2021-10-25T14:10:47Z</time>
      </trkpt>
      <trkpt lat="46.55104" lon="5.52603">
        <ele>488.2</ele>
        <time>2021-10-25T14:10:50Z</time>
      </trkpt>
      <trkpt lat="46.55104" lon="5.52602">
        <ele>488.4</ele>
        <time>2021-10-25T14:10:52Z</time>
      </trkpt>
      <trkpt lat="46.55104" lon="5.52602">
        <ele>488.6</ele>
        <time>2021-10-25T14:10:53Z</time>
      </trkpt>
      <trkpt lat="46.55102" lon="5.52599">
        <ele>489.6</ele>
        <time>2021-10-25T14:11:09Z</time>
      </trkpt>
      <trkpt lat="46.55097" lon="5.52591">
        <ele>489.6</ele>
        <time>2021-10-25T14:11:12Z</time>
      </trkpt>
      <trkpt lat="46.5509" lon="5.52571">
        <ele>489.8</ele>
        <time>2021-10-25T14:11:16Z</time>
      </trkpt>
      <trkpt lat="46.55077" lon="5.52537">
        <ele>490.8</ele>
        <time>2021-10-25T14:11:22Z</time>
      </trkpt>
      <trkpt lat="46.55075" lon="5.5253">
        <ele>491.2</ele>
        <time>2021-10-25T14:11:23Z</time>
      </trkpt>
      <trkpt lat="46.55074" lon="5.52525">
        <ele>491.4</ele>
        <time>2021-10-25T14:11:24Z</time>
      </trkpt>
      <trkpt lat="46.5507" lon="5.52513">
        <ele>492</ele>
        <time>2021-10-25T14:11:26Z</time>
      </trkpt>
      <trkpt lat="46.5506" lon="5.52477">
        <ele>493.2</ele>
        <time>2021-10-25T14:11:32Z</time>
      </trkpt>
      <trkpt lat="46.55055" lon="5.52465">
        <ele>493.6</ele>
        <time>2021-10-25T14:11:34Z</time>
      </trkpt>
      <trkpt lat="46.55047" lon="5.52442">
        <ele>494.6</ele>
        <time>2021-10-25T14:11:38Z</time>
      </trkpt>
      <trkpt lat="46.5504" lon="5.52422">
        <ele>495.4</ele>
        <time>2021-10-25T14:11:42Z</time>
      </trkpt>
      <trkpt lat="46.55037" lon="5.52412">
        <ele>495.6</ele>
        <time>2021-10-25T14:11:44Z</time>
      </trkpt>
      <trkpt lat="46.5503" lon="5.5239">
        <ele>496.8</ele>
        <time>2021-10-25T14:11:48Z</time>
      </trkpt>
      <trkpt lat="46.55027" lon="5.52379">
        <ele>497.4</ele>
        <time>2021-10-25T14:11:50Z</time>
      </trkpt>
      <trkpt lat="46.55021" lon="5.52365">
        <ele>497.8</ele>
        <time>2021-10-25T14:11:53Z</time>
      </trkpt>
      <trkpt lat="46.55014" lon="5.52345">
        <ele>498.8</ele>
        <time>2021-10-25T14:11:57Z</time>
      </trkpt>
      <trkpt lat="46.55012" lon="5.5234">
        <ele>499</ele>
        <time>2021-10-25T14:11:58Z</time>
      </trkpt>
      <trkpt lat="46.55006" lon="5.52326">
        <ele>500</ele>
        <time>2021-10-25T14:12:01Z</time>
      </trkpt>
      <trkpt lat="46.54998" lon="5.52313">
        <ele>500.6</ele>
        <time>2021-10-25T14:12:04Z</time>
      </trkpt>
      <trkpt lat="46.54993" lon="5.52305">
        <ele>501</ele>
        <time>2021-10-25T14:12:06Z</time>
      </trkpt>
      <trkpt lat="46.54983" lon="5.52292">
        <ele>502</ele>
        <time>2021-10-25T14:12:09Z</time>
      </trkpt>
      <trkpt lat="46.5497" lon="5.52279">
        <ele>503</ele>
        <time>2021-10-25T14:12:13Z</time>
      </trkpt>
      <trkpt lat="46.54966" lon="5.52276">
        <ele>503</ele>
        <time>2021-10-25T14:12:14Z</time>
      </trkpt>
      <trkpt lat="46.54944" lon="5.52263">
        <ele>504.2</ele>
        <time>2021-10-25T14:12:20Z</time>
      </trkpt>
      <trkpt lat="46.54925" lon="5.52254">
        <ele>505.6</ele>
        <time>2021-10-25T14:12:25Z</time>
      </trkpt>
      <trkpt lat="46.5491" lon="5.52248">
        <ele>506.2</ele>
        <time>2021-10-25T14:12:29Z</time>
      </trkpt>
      <trkpt lat="46.549" lon="5.52245">
        <ele>506.8</ele>
        <time>2021-10-25T14:12:32Z</time>
      </trkpt>
      <trkpt lat="46.54873" lon="5.52234">
        <ele>508.4</ele>
        <time>2021-10-25T14:12:39Z</time>
      </trkpt>
      <trkpt lat="46.54851" lon="5.52225">
        <ele>509.4</ele>
        <time>2021-10-25T14:12:45Z</time>
      </trkpt>
      <trkpt lat="46.54833" lon="5.52215">
        <ele>510.6</ele>
        <time>2021-10-25T14:12:50Z</time>
      </trkpt>
      <trkpt lat="46.54818" lon="5.52206">
        <ele>511.8</ele>
        <time>2021-10-25T14:12:54Z</time>
      </trkpt>
      <trkpt lat="46.54804" lon="5.52196">
        <ele>512.6</ele>
        <time>2021-10-25T14:12:58Z</time>
      </trkpt>
      <trkpt lat="46.54801" lon="5.52193">
        <ele>512.8</ele>
        <time>2021-10-25T14:12:59Z</time>
      </trkpt>
      <trkpt lat="46.54797" lon="5.5219">
        <ele>513.2</ele>
        <time>2021-10-25T14:13:00Z</time>
      </trkpt>
      <trkpt lat="46.5478" lon="5.52176">
        <ele>514</ele>
        <time>2021-10-25T14:13:05Z</time>
      </trkpt>
      <trkpt lat="46.5477" lon="5.52168">
        <ele>515.2</ele>
        <time>2021-10-25T14:13:08Z</time>
      </trkpt>
      <trkpt lat="46.54767" lon="5.52166">
        <ele>515.4</ele>
        <time>2021-10-25T14:13:09Z</time>
      </trkpt>
      <trkpt lat="46.54752" lon="5.52156">
        <ele>516.4</ele>
        <time>2021-10-25T14:13:13Z</time>
      </trkpt>
      <trkpt lat="46.54737" lon="5.52149">
        <ele>517.4</ele>
        <time>2021-10-25T14:13:17Z</time>
      </trkpt>
      <trkpt lat="46.54718" lon="5.52142">
        <ele>518.6</ele>
        <time>2021-10-25T14:13:22Z</time>
      </trkpt>
      <trkpt lat="46.54706" lon="5.52138">
        <ele>519.6</ele>
        <time>2021-10-25T14:13:25Z</time>
      </trkpt>
      <trkpt lat="46.54698" lon="5.52136">
        <ele>520.2</ele>
        <time>2021-10-25T14:13:27Z</time>
      </trkpt>
      <trkpt lat="46.54682" lon="5.5213">
        <ele>520.8</ele>
        <time>2021-10-25T14:13:31Z</time>
      </trkpt>
      <trkpt lat="46.54667" lon="5.52121">
        <ele>522</ele>
        <time>2021-10-25T14:13:35Z</time>
      </trkpt>
      <trkpt lat="46.54648" lon="5.5211">
        <ele>523</ele>
        <time>2021-10-25T14:13:40Z</time>
      </trkpt>
      <trkpt lat="46.54633" lon="5.52099">
        <ele>524</ele>
        <time>2021-10-25T14:13:44Z</time>
      </trkpt>
      <trkpt lat="46.54626" lon="5.52093">
        <ele>524.4</ele>
        <time>2021-10-25T14:13:46Z</time>
      </trkpt>
      <trkpt lat="46.54609" lon="5.52077">
        <ele>525.4</ele>
        <time>2021-10-25T14:13:51Z</time>
      </trkpt>
      <trkpt lat="46.54595" lon="5.52061">
        <ele>526.2</ele>
        <time>2021-10-25T14:13:55Z</time>
      </trkpt>
      <trkpt lat="46.54586" lon="5.52051">
        <ele>526.2</ele>
        <time>2021-10-25T14:13:57Z</time>
      </trkpt>
      <trkpt lat="46.5456" lon="5.52022">
        <ele>526.8</ele>
        <time>2021-10-25T14:14:03Z</time>
      </trkpt>
      <trkpt lat="46.54523" lon="5.5198">
        <ele>527</ele>
        <time>2021-10-25T14:14:11Z</time>
      </trkpt>
      <trkpt lat="46.54484" lon="5.51938">
        <ele>526.8</ele>
        <time>2021-10-25T14:14:18Z</time>
      </trkpt>
      <trkpt lat="46.54445" lon="5.51893">
        <ele>525.8</ele>
        <time>2021-10-25T14:14:25Z</time>
      </trkpt>
      <trkpt lat="46.54408" lon="5.51852">
        <ele>525.6</ele>
        <time>2021-10-25T14:14:32Z</time>
      </trkpt>
      <trkpt lat="46.54383" lon="5.51826">
        <ele>526.6</ele>
        <time>2021-10-25T14:14:37Z</time>
      </trkpt>
      <trkpt lat="46.54378" lon="5.51821">
        <ele>526.6</ele>
        <time>2021-10-25T14:14:38Z</time>
      </trkpt>
      <trkpt lat="46.54365" lon="5.51806">
        <ele>527.4</ele>
        <time>2021-10-25T14:14:41Z</time>
      </trkpt>
      <trkpt lat="46.54346" lon="5.51788">
        <ele>529</ele>
        <time>2021-10-25T14:14:45Z</time>
      </trkpt>
      <trkpt lat="46.54342" lon="5.51784">
        <ele>529.2</ele>
        <time>2021-10-25T14:14:46Z</time>
      </trkpt>
      <trkpt lat="46.5433" lon="5.51776">
        <ele>530.2</ele>
        <time>2021-10-25T14:14:48Z</time>
      </trkpt>
      <trkpt lat="46.5431" lon="5.51766">
        <ele>531</ele>
        <time>2021-10-25T14:14:52Z</time>
      </trkpt>
      <trkpt lat="46.543" lon="5.51762">
        <ele>531.2</ele>
        <time>2021-10-25T14:14:54Z</time>
      </trkpt>
      <trkpt lat="46.54272" lon="5.51752">
        <ele>532.4</ele>
        <time>2021-10-25T14:14:59Z</time>
      </trkpt>
      <trkpt lat="46.54257" lon="5.51745">
        <ele>533</ele>
        <time>2021-10-25T14:15:02Z</time>
      </trkpt>
      <trkpt lat="46.54245" lon="5.51738">
        <ele>533.6</ele>
        <time>2021-10-25T14:15:04Z</time>
      </trkpt>
      <trkpt lat="46.54221" lon="5.51716">
        <ele>534.2</ele>
        <time>2021-10-25T14:15:09Z</time>
      </trkpt>
      <trkpt lat="46.54177" lon="5.51665">
        <ele>534.4</ele>
        <time>2021-10-25T14:15:18Z</time>
      </trkpt>
      <trkpt lat="46.54148" lon="5.51629">
        <ele>534.6</ele>
        <time>2021-10-25T14:15:24Z</time>
      </trkpt>
      <trkpt lat="46.54138" lon="5.51617">
        <ele>534.8</ele>
        <time>2021-10-25T14:15:26Z</time>
      </trkpt>
      <trkpt lat="46.54095" lon="5.51564">
        <ele>534.4</ele>
        <time>2021-10-25T14:15:34Z</time>
      </trkpt>
      <trkpt lat="46.54065" lon="5.51527">
        <ele>533.6</ele>
        <time>2021-10-25T14:15:39Z</time>
      </trkpt>
      <trkpt lat="46.54048" lon="5.51506">
        <ele>532.8</ele>
        <time>2021-10-25T14:15:42Z</time>
      </trkpt>
      <trkpt lat="46.54002" lon="5.51451">
        <ele>533.2</ele>
        <time>2021-10-25T14:15:50Z</time>
      </trkpt>
      <trkpt lat="46.5398" lon="5.51426">
        <ele>533.8</ele>
        <time>2021-10-25T14:15:55Z</time>
      </trkpt>
      <trkpt lat="46.53972" lon="5.51417">
        <ele>534.6</ele>
        <time>2021-10-25T14:15:57Z</time>
      </trkpt>
      <trkpt lat="46.53956" lon="5.514">
        <ele>536.2</ele>
        <time>2021-10-25T14:16:01Z</time>
      </trkpt>
      <trkpt lat="46.53947" lon="5.51391">
        <ele>536.8</ele>
        <time>2021-10-25T14:16:03Z</time>
      </trkpt>
      <trkpt lat="46.53935" lon="5.51377">
        <ele>537.4</ele>
        <time>2021-10-25T14:16:06Z</time>
      </trkpt>
      <trkpt lat="46.53914" lon="5.51353">
        <ele>538</ele>
        <time>2021-10-25T14:16:11Z</time>
      </trkpt>
      <trkpt lat="46.53897" lon="5.51334">
        <ele>538.6</ele>
        <time>2021-10-25T14:16:15Z</time>
      </trkpt>
      <trkpt lat="46.53881" lon="5.51316">
        <ele>539.8</ele>
        <time>2021-10-25T14:16:19Z</time>
      </trkpt>
      <trkpt lat="46.53873" lon="5.51307">
        <ele>540.2</ele>
        <time>2021-10-25T14:16:21Z</time>
      </trkpt>
      <trkpt lat="46.53865" lon="5.51299">
        <ele>540.8</ele>
        <time>2021-10-25T14:16:23Z</time>
      </trkpt>
      <trkpt lat="46.53835" lon="5.51265">
        <ele>541.8</ele>
        <time>2021-10-25T14:16:31Z</time>
      </trkpt>
      <trkpt lat="46.53807" lon="5.51222">
        <ele>542.8</ele>
        <time>2021-10-25T14:16:39Z</time>
      </trkpt>
      <trkpt lat="46.53782" lon="5.51174">
        <ele>542</ele>
        <time>2021-10-25T14:16:45Z</time>
      </trkpt>
      <trkpt lat="46.53756" lon="5.51124">
        <ele>540.6</ele>
        <time>2021-10-25T14:16:50Z</time>
      </trkpt>
      <trkpt lat="46.53751" lon="5.51113">
        <ele>540.6</ele>
        <time>2021-10-25T14:16:51Z</time>
      </trkpt>
      <trkpt lat="46.53734" lon="5.51077">
        <ele>539.4</ele>
        <time>2021-10-25T14:16:54Z</time>
      </trkpt>
      <trkpt lat="46.53718" lon="5.51045">
        <ele>537.8</ele>
        <time>2021-10-25T14:16:57Z</time>
      </trkpt>
      <trkpt lat="46.53711" lon="5.51031">
        <ele>537.2</ele>
        <time>2021-10-25T14:16:58Z</time>
      </trkpt>
      <trkpt lat="46.53705" lon="5.5102">
        <ele>536.6</ele>
        <time>2021-10-25T14:16:59Z</time>
      </trkpt>
      <trkpt lat="46.53689" lon="5.50986">
        <ele>535.2</ele>
        <time>2021-10-25T14:17:02Z</time>
      </trkpt>
      <trkpt lat="46.53669" lon="5.50948">
        <ele>534</ele>
        <time>2021-10-25T14:17:05Z</time>
      </trkpt>
      <trkpt lat="46.53658" lon="5.50925">
        <ele>532.8</ele>
        <time>2021-10-25T14:17:07Z</time>
      </trkpt>
      <trkpt lat="46.53645" lon="5.50899">
        <ele>531.8</ele>
        <time>2021-10-25T14:17:09Z</time>
      </trkpt>
      <trkpt lat="46.53639" lon="5.50887">
        <ele>530.8</ele>
        <time>2021-10-25T14:17:10Z</time>
      </trkpt>
      <trkpt lat="46.53621" lon="5.5085">
        <ele>529</ele>
        <time>2021-10-25T14:17:13Z</time>
      </trkpt>
      <trkpt lat="46.53604" lon="5.50816">
        <ele>528</ele>
        <time>2021-10-25T14:17:16Z</time>
      </trkpt>
      <trkpt lat="46.53585" lon="5.50778">
        <ele>526.8</ele>
        <time>2021-10-25T14:17:19Z</time>
      </trkpt>
      <trkpt lat="46.53579" lon="5.50766">
        <ele>526.6</ele>
        <time>2021-10-25T14:17:20Z</time>
      </trkpt>
      <trkpt lat="46.53562" lon="5.50731">
        <ele>525.6</ele>
        <time>2021-10-25T14:17:23Z</time>
      </trkpt>
      <trkpt lat="46.53526" lon="5.50657">
        <ele>524.6</ele>
        <time>2021-10-25T14:17:29Z</time>
      </trkpt>
      <trkpt lat="46.5352" lon="5.50645">
        <ele>524.6</ele>
        <time>2021-10-25T14:17:30Z</time>
      </trkpt>
      <trkpt lat="46.53504" lon="5.50612">
        <ele>523</ele>
        <time>2021-10-25T14:17:33Z</time>
      </trkpt>
      <trkpt lat="46.53481" lon="5.50567">
        <ele>522</ele>
        <time>2021-10-25T14:17:37Z</time>
      </trkpt>
      <trkpt lat="46.53459" lon="5.50522">
        <ele>521</ele>
        <time>2021-10-25T14:17:41Z</time>
      </trkpt>
      <trkpt lat="46.53454" lon="5.50511">
        <ele>520.6</ele>
        <time>2021-10-25T14:17:42Z</time>
      </trkpt>
      <trkpt lat="46.53435" lon="5.50472">
        <ele>520.8</ele>
        <time>2021-10-25T14:17:46Z</time>
      </trkpt>
      <trkpt lat="46.53407" lon="5.50415">
        <ele>521.6</ele>
        <time>2021-10-25T14:17:52Z</time>
      </trkpt>
      <trkpt lat="46.53398" lon="5.50396">
        <ele>522</ele>
        <time>2021-10-25T14:17:54Z</time>
      </trkpt>
      <trkpt lat="46.53369" lon="5.50338">
        <ele>522.4</ele>
        <time>2021-10-25T14:18:00Z</time>
      </trkpt>
      <trkpt lat="46.53333" lon="5.50266">
        <ele>521.6</ele>
        <time>2021-10-25T14:18:07Z</time>
      </trkpt>
      <trkpt lat="46.53322" lon="5.50244">
        <ele>521</ele>
        <time>2021-10-25T14:18:09Z</time>
      </trkpt>
      <trkpt lat="46.53295" lon="5.50189">
        <ele>520.2</ele>
        <time>2021-10-25T14:18:14Z</time>
      </trkpt>
      <trkpt lat="46.5329" lon="5.5018">
        <ele>520</ele>
        <time>2021-10-25T14:18:15Z</time>
      </trkpt>
      <trkpt lat="46.53261" lon="5.5012">
        <ele>519</ele>
        <time>2021-10-25T14:18:20Z</time>
      </trkpt>
      <trkpt lat="46.53255" lon="5.50108">
        <ele>518.4</ele>
        <time>2021-10-25T14:18:21Z</time>
      </trkpt>
      <trkpt lat="46.5325" lon="5.50098">
        <ele>517</ele>
        <time>2021-10-25T14:18:22Z</time>
      </trkpt>
      <trkpt lat="46.53236" lon="5.50069">
        <ele>515</ele>
        <time>2021-10-25T14:18:24Z</time>
      </trkpt>
      <trkpt lat="46.53224" lon="5.50045">
        <ele>513.6</ele>
        <time>2021-10-25T14:18:26Z</time>
      </trkpt>
      <trkpt lat="46.53202" lon="5.50002">
        <ele>512.4</ele>
        <time>2021-10-25T14:18:29Z</time>
      </trkpt>
      <trkpt lat="46.53196" lon="5.49988">
        <ele>511.2</ele>
        <time>2021-10-25T14:18:30Z</time>
      </trkpt>
      <trkpt lat="46.53189" lon="5.49974">
        <ele>509.4</ele>
        <time>2021-10-25T14:18:31Z</time>
      </trkpt>
      <trkpt lat="46.53175" lon="5.49946">
        <ele>508</ele>
        <time>2021-10-25T14:18:33Z</time>
      </trkpt>
      <trkpt lat="46.53154" lon="5.49903">
        <ele>506.2</ele>
        <time>2021-10-25T14:18:36Z</time>
      </trkpt>
      <trkpt lat="46.53148" lon="5.49892">
        <ele>504.8</ele>
        <time>2021-10-25T14:18:37Z</time>
      </trkpt>
      <trkpt lat="46.53133" lon="5.49862">
        <ele>503.8</ele>
        <time>2021-10-25T14:18:39Z</time>
      </trkpt>
      <trkpt lat="46.53115" lon="5.49824">
        <ele>502.6</ele>
        <time>2021-10-25T14:18:42Z</time>
      </trkpt>
      <trkpt lat="46.53095" lon="5.49784">
        <ele>501.4</ele>
        <time>2021-10-25T14:18:45Z</time>
      </trkpt>
      <trkpt lat="46.53085" lon="5.49762">
        <ele>501</ele>
        <time>2021-10-25T14:18:46Z</time>
      </trkpt>
      <trkpt lat="46.53073" lon="5.49738">
        <ele>500.2</ele>
        <time>2021-10-25T14:18:49Z</time>
      </trkpt>
      <trkpt lat="46.53047" lon="5.49682">
        <ele>500</ele>
        <time>2021-10-25T14:18:54Z</time>
      </trkpt>
      <trkpt lat="46.53022" lon="5.49635">
        <ele>500.6</ele>
        <time>2021-10-25T14:18:59Z</time>
      </trkpt>
      <trkpt lat="46.53012" lon="5.49619">
        <ele>501.6</ele>
        <time>2021-10-25T14:19:01Z</time>
      </trkpt>
      <trkpt lat="46.52992" lon="5.49593">
        <ele>502.4</ele>
        <time>2021-10-25T14:19:05Z</time>
      </trkpt>
      <trkpt lat="46.52988" lon="5.49587">
        <ele>502.6</ele>
        <time>2021-10-25T14:19:06Z</time>
      </trkpt>
      <trkpt lat="46.52973" lon="5.4957">
        <ele>503.8</ele>
        <time>2021-10-25T14:19:09Z</time>
      </trkpt>
      <trkpt lat="46.52963" lon="5.49559">
        <ele>504.2</ele>
        <time>2021-10-25T14:19:11Z</time>
      </trkpt>
      <trkpt lat="46.52948" lon="5.49544">
        <ele>504.8</ele>
        <time>2021-10-25T14:19:14Z</time>
      </trkpt>
      <trkpt lat="46.52932" lon="5.49527">
        <ele>506</ele>
        <time>2021-10-25T14:19:17Z</time>
      </trkpt>
      <trkpt lat="46.52907" lon="5.49497">
        <ele>507.2</ele>
        <time>2021-10-25T14:19:22Z</time>
      </trkpt>
      <trkpt lat="46.52904" lon="5.49492">
        <ele>507.4</ele>
        <time>2021-10-25T14:19:23Z</time>
      </trkpt>
      <trkpt lat="46.5288" lon="5.49457">
        <ele>508.2</ele>
        <time>2021-10-25T14:19:28Z</time>
      </trkpt>
      <trkpt lat="46.5286" lon="5.49427">
        <ele>508.2</ele>
        <time>2021-10-25T14:19:32Z</time>
      </trkpt>
      <trkpt lat="46.52822" lon="5.49369">
        <ele>507.4</ele>
        <time>2021-10-25T14:19:40Z</time>
      </trkpt>
      <trkpt lat="46.52786" lon="5.49316">
        <ele>507.4</ele>
        <time>2021-10-25T14:19:47Z</time>
      </trkpt>
      <trkpt lat="46.52746" lon="5.49256">
        <ele>507.6</ele>
        <time>2021-10-25T14:19:54Z</time>
      </trkpt>
      <trkpt lat="46.52722" lon="5.4922">
        <ele>507.6</ele>
        <time>2021-10-25T14:19:59Z</time>
      </trkpt>
      <trkpt lat="46.5269" lon="5.49173">
        <ele>508.4</ele>
        <time>2021-10-25T14:20:07Z</time>
      </trkpt>
      <trkpt lat="46.52673" lon="5.49147">
        <ele>509.4</ele>
        <time>2021-10-25T14:20:10Z</time>
      </trkpt>
      <trkpt lat="46.5266" lon="5.49128">
        <ele>510.4</ele>
        <time>2021-10-25T14:20:14Z</time>
      </trkpt>
      <trkpt lat="46.52651" lon="5.49117">
        <ele>510.4</ele>
        <time>2021-10-25T14:20:15Z</time>
      </trkpt>
      <trkpt lat="46.5264" lon="5.49099">
        <ele>511.4</ele>
        <time>2021-10-25T14:20:19Z</time>
      </trkpt>
      <trkpt lat="46.52625" lon="5.49075">
        <ele>512</ele>
        <time>2021-10-25T14:20:22Z</time>
      </trkpt>
      <trkpt lat="46.52618" lon="5.49064">
        <ele>512.6</ele>
        <time>2021-10-25T14:20:25Z</time>
      </trkpt>
      <trkpt lat="46.5261" lon="5.49051">
        <ele>513</ele>
        <time>2021-10-25T14:20:26Z</time>
      </trkpt>
      <trkpt lat="46.52604" lon="5.49039">
        <ele>513.4</ele>
        <time>2021-10-25T14:20:28Z</time>
      </trkpt>
      <trkpt lat="46.52601" lon="5.49031">
        <ele>513.6</ele>
        <time>2021-10-25T14:20:30Z</time>
      </trkpt>
      <trkpt lat="46.52596" lon="5.49016">
        <ele>513.6</ele>
        <time>2021-10-25T14:20:31Z</time>
      </trkpt>
      <trkpt lat="46.52591" lon="5.4899">
        <ele>514</ele>
        <time>2021-10-25T14:20:35Z</time>
      </trkpt>
      <trkpt lat="46.52576" lon="5.48906">
        <ele>514</ele>
        <time>2021-10-25T14:20:43Z</time>
      </trkpt>
      <trkpt lat="46.52574" lon="5.48898">
        <ele>514</ele>
        <time>2021-10-25T14:20:44Z</time>
      </trkpt>
      <trkpt lat="46.52565" lon="5.48823">
        <ele>513.2</ele>
        <time>2021-10-25T14:20:51Z</time>
      </trkpt>
      <trkpt lat="46.52569" lon="5.48793">
        <ele>512.6</ele>
        <time>2021-10-25T14:20:55Z</time>
      </trkpt>
      <trkpt lat="46.5258" lon="5.48744">
        <ele>512.8</ele>
        <time>2021-10-25T14:20:59Z</time>
      </trkpt>
      <trkpt lat="46.52597" lon="5.48662">
        <ele>513.6</ele>
        <time>2021-10-25T14:21:07Z</time>
      </trkpt>
      <trkpt lat="46.52603" lon="5.48628">
        <ele>513.6</ele>
        <time>2021-10-25T14:21:10Z</time>
      </trkpt>
      <trkpt lat="46.52612" lon="5.48584">
        <ele>513.4</ele>
        <time>2021-10-25T14:21:14Z</time>
      </trkpt>
      <trkpt lat="46.52617" lon="5.48572">
        <ele>513.4</ele>
        <time>2021-10-25T14:21:15Z</time>
      </trkpt>
      <trkpt lat="46.52623" lon="5.48564">
        <ele>513.2</ele>
        <time>2021-10-25T14:21:16Z</time>
      </trkpt>
      <trkpt lat="46.5264" lon="5.4854">
        <ele>512.4</ele>
        <time>2021-10-25T14:21:19Z</time>
      </trkpt>
      <trkpt lat="46.52647" lon="5.4852">
        <ele>512.2</ele>
        <time>2021-10-25T14:21:21Z</time>
      </trkpt>
      <trkpt lat="46.52647" lon="5.48506">
        <ele>512</ele>
        <time>2021-10-25T14:21:22Z</time>
      </trkpt>
      <trkpt lat="46.52645" lon="5.48494">
        <ele>511.8</ele>
        <time>2021-10-25T14:21:23Z</time>
      </trkpt>
      <trkpt lat="46.52641" lon="5.48482">
        <ele>511.6</ele>
        <time>2021-10-25T14:21:25Z</time>
      </trkpt>
      <trkpt lat="46.52631" lon="5.48459">
        <ele>511.6</ele>
        <time>2021-10-25T14:21:26Z</time>
      </trkpt>
      <trkpt lat="46.52625" lon="5.48448">
        <ele>511</ele>
        <time>2021-10-25T14:21:27Z</time>
      </trkpt>
      <trkpt lat="46.52617" lon="5.48423">
        <ele>510.4</ele>
        <time>2021-10-25T14:21:29Z</time>
      </trkpt>
      <trkpt lat="46.52615" lon="5.48408">
        <ele>509.8</ele>
        <time>2021-10-25T14:21:31Z</time>
      </trkpt>
      <trkpt lat="46.5261" lon="5.48364">
        <ele>508.4</ele>
        <time>2021-10-25T14:21:33Z</time>
      </trkpt>
      <trkpt lat="46.52609" lon="5.4835">
        <ele>507.6</ele>
        <time>2021-10-25T14:21:34Z</time>
      </trkpt>
      <trkpt lat="46.52609" lon="5.4835">
        <ele>506.8</ele>
        <time>2021-10-25T14:21:35Z</time>
      </trkpt>
      <trkpt lat="46.52604" lon="5.48319">
        <ele>506.6</ele>
        <time>2021-10-25T14:21:36Z</time>
      </trkpt>
      <trkpt lat="46.52601" lon="5.48305">
        <ele>505.8</ele>
        <time>2021-10-25T14:21:37Z</time>
      </trkpt>
      <trkpt lat="46.5259" lon="5.48277">
        <ele>505</ele>
        <time>2021-10-25T14:21:39Z</time>
      </trkpt>
      <trkpt lat="46.52583" lon="5.48264">
        <ele>504</ele>
        <time>2021-10-25T14:21:41Z</time>
      </trkpt>
      <trkpt lat="46.52567" lon="5.48242">
        <ele>502.8</ele>
        <time>2021-10-25T14:21:42Z</time>
      </trkpt>
      <trkpt lat="46.52558" lon="5.48233">
        <ele>502.4</ele>
        <time>2021-10-25T14:21:43Z</time>
      </trkpt>
      <trkpt lat="46.52549" lon="5.48225">
        <ele>501.6</ele>
        <time>2021-10-25T14:21:44Z</time>
      </trkpt>
      <trkpt lat="46.5253" lon="5.48211">
        <ele>500.2</ele>
        <time>2021-10-25T14:21:46Z</time>
      </trkpt>
      <trkpt lat="46.52511" lon="5.48199">
        <ele>498.8</ele>
        <time>2021-10-25T14:21:48Z</time>
      </trkpt>
      <trkpt lat="46.52501" lon="5.48193">
        <ele>497.4</ele>
        <time>2021-10-25T14:21:50Z</time>
      </trkpt>
      <trkpt lat="46.52467" lon="5.48176">
        <ele>496</ele>
        <time>2021-10-25T14:21:53Z</time>
      </trkpt>
      <trkpt lat="46.52458" lon="5.48173">
        <ele>495.6</ele>
        <time>2021-10-25T14:21:54Z</time>
      </trkpt>
      <trkpt lat="46.52423" lon="5.48167">
        <ele>494.4</ele>
        <time>2021-10-25T14:21:56Z</time>
      </trkpt>
      <trkpt lat="46.524" lon="5.48168">
        <ele>492.8</ele>
        <time>2021-10-25T14:21:58Z</time>
      </trkpt>
      <trkpt lat="46.5238" lon="5.4817">
        <ele>491.6</ele>
        <time>2021-10-25T14:22:00Z</time>
      </trkpt>
      <trkpt lat="46.52368" lon="5.48171">
        <ele>491.2</ele>
        <time>2021-10-25T14:22:01Z</time>
      </trkpt>
      <trkpt lat="46.52359" lon="5.48169">
        <ele>490.6</ele>
        <time>2021-10-25T14:22:02Z</time>
      </trkpt>
      <trkpt lat="46.52352" lon="5.48164">
        <ele>490</ele>
        <time>2021-10-25T14:22:03Z</time>
      </trkpt>
      <trkpt lat="46.5235" lon="5.48157">
        <ele>489</ele>
        <time>2021-10-25T14:22:04Z</time>
      </trkpt>
      <trkpt lat="46.52358" lon="5.48144">
        <ele>488.2</ele>
        <time>2021-10-25T14:22:06Z</time>
      </trkpt>
      <trkpt lat="46.52366" lon="5.48141">
        <ele>488</ele>
        <time>2021-10-25T14:22:07Z</time>
      </trkpt>
      <trkpt lat="46.52385" lon="5.48139">
        <ele>487.4</ele>
        <time>2021-10-25T14:22:09Z</time>
      </trkpt>
      <trkpt lat="46.52395" lon="5.48137">
        <ele>487.2</ele>
        <time>2021-10-25T14:22:10Z</time>
      </trkpt>
      <trkpt lat="46.52406" lon="5.48134">
        <ele>486.8</ele>
        <time>2021-10-25T14:22:11Z</time>
      </trkpt>
      <trkpt lat="46.52427" lon="5.48129">
        <ele>485.4</ele>
        <time>2021-10-25T14:22:13Z</time>
      </trkpt>
      <trkpt lat="46.52438" lon="5.48126">
        <ele>484</ele>
        <time>2021-10-25T14:22:14Z</time>
      </trkpt>
      <trkpt lat="46.52449" lon="5.48123">
        <ele>482</ele>
        <time>2021-10-25T14:22:16Z</time>
      </trkpt>
      <trkpt lat="46.52484" lon="5.48114">
        <ele>480.8</ele>
        <time>2021-10-25T14:22:18Z</time>
      </trkpt>
      <trkpt lat="46.52529" lon="5.48105">
        <ele>478.4</ele>
        <time>2021-10-25T14:22:22Z</time>
      </trkpt>
      <trkpt lat="46.5255" lon="5.48106">
        <ele>477</ele>
        <time>2021-10-25T14:22:24Z</time>
      </trkpt>
      <trkpt lat="46.52561" lon="5.48108">
        <ele>475.8</ele>
        <time>2021-10-25T14:22:26Z</time>
      </trkpt>
      <trkpt lat="46.52595" lon="5.48115">
        <ele>474.6</ele>
        <time>2021-10-25T14:22:29Z</time>
      </trkpt>
      <trkpt lat="46.5263" lon="5.48122">
        <ele>473.6</ele>
        <time>2021-10-25T14:22:31Z</time>
      </trkpt>
      <trkpt lat="46.52641" lon="5.48124">
        <ele>473</ele>
        <time>2021-10-25T14:22:32Z</time>
      </trkpt>
      <trkpt lat="46.52664" lon="5.48128">
        <ele>471.8</ele>
        <time>2021-10-25T14:22:34Z</time>
      </trkpt>
      <trkpt lat="46.52675" lon="5.48131">
        <ele>470</ele>
        <time>2021-10-25T14:22:36Z</time>
      </trkpt>
      <trkpt lat="46.52697" lon="5.48135">
        <ele>469.4</ele>
        <time>2021-10-25T14:22:37Z</time>
      </trkpt>
      <trkpt lat="46.52709" lon="5.48137">
        <ele>468.8</ele>
        <time>2021-10-25T14:22:38Z</time>
      </trkpt>
      <trkpt lat="46.5272" lon="5.4814">
        <ele>467.8</ele>
        <time>2021-10-25T14:22:40Z</time>
      </trkpt>
      <trkpt lat="46.52771" lon="5.48148">
        <ele>466.4</ele>
        <time>2021-10-25T14:22:44Z</time>
      </trkpt>
      <trkpt lat="46.52771" lon="5.48148">
        <ele>466</ele>
        <time>2021-10-25T14:22:45Z</time>
      </trkpt>
      <trkpt lat="46.52789" lon="5.48151">
        <ele>465.8</ele>
        <time>2021-10-25T14:22:46Z</time>
      </trkpt>
      <trkpt lat="46.52806" lon="5.48146">
        <ele>465.6</ele>
        <time>2021-10-25T14:22:48Z</time>
      </trkpt>
      <trkpt lat="46.52813" lon="5.48141">
        <ele>465.4</ele>
        <time>2021-10-25T14:22:50Z</time>
      </trkpt>
      <trkpt lat="46.52832" lon="5.48107">
        <ele>464.4</ele>
        <time>2021-10-25T14:22:52Z</time>
      </trkpt>
      <trkpt lat="46.52836" lon="5.48096">
        <ele>463.8</ele>
        <time>2021-10-25T14:22:53Z</time>
      </trkpt>
      <trkpt lat="46.5284" lon="5.48083">
        <ele>462</ele>
        <time>2021-10-25T14:22:55Z</time>
      </trkpt>
      <trkpt lat="46.52853" lon="5.48045">
        <ele>461</ele>
        <time>2021-10-25T14:22:57Z</time>
      </trkpt>
      <trkpt lat="46.52857" lon="5.48032">
        <ele>460.8</ele>
        <time>2021-10-25T14:22:58Z</time>
      </trkpt>
      <trkpt lat="46.52861" lon="5.48018">
        <ele>459.8</ele>
        <time>2021-10-25T14:23:00Z</time>
      </trkpt>
      <trkpt lat="46.52874" lon="5.47974">
        <ele>458.8</ele>
        <time>2021-10-25T14:23:03Z</time>
      </trkpt>
      <trkpt lat="46.52874" lon="5.47974">
        <ele>458.2</ele>
        <time>2021-10-25T14:23:04Z</time>
      </trkpt>
      <trkpt lat="46.5288" lon="5.47953">
        <ele>457.6</ele>
        <time>2021-10-25T14:23:07Z</time>
      </trkpt>
      <trkpt lat="46.5288" lon="5.47949">
        <ele>457.4</ele>
        <time>2021-10-25T14:23:09Z</time>
      </trkpt>
      <trkpt lat="46.52879" lon="5.47944">
        <ele>457.4</ele>
        <time>2021-10-25T14:23:11Z</time>
      </trkpt>
      <trkpt lat="46.52872" lon="5.47939">
        <ele>457.4</ele>
        <time>2021-10-25T14:23:13Z</time>
      </trkpt>
      <trkpt lat="46.52848" lon="5.4793">
        <ele>457.2</ele>
        <time>2021-10-25T14:23:17Z</time>
      </trkpt>
      <trkpt lat="46.52843" lon="5.47928">
        <ele>457.2</ele>
        <time>2021-10-25T14:23:18Z</time>
      </trkpt>
      <trkpt lat="46.52835" lon="5.47925">
        <ele>457.2</ele>
        <time>2021-10-25T14:23:19Z</time>
      </trkpt>
      <trkpt lat="46.52811" lon="5.47916">
        <ele>456.6</ele>
        <time>2021-10-25T14:23:22Z</time>
      </trkpt>
      <trkpt lat="46.52776" lon="5.47904">
        <ele>456</ele>
        <time>2021-10-25T14:23:26Z</time>
      </trkpt>
      <trkpt lat="46.52755" lon="5.47895">
        <ele>456</ele>
        <time>2021-10-25T14:23:29Z</time>
      </trkpt>
      <trkpt lat="46.52701" lon="5.47877">
        <ele>455.8</ele>
        <time>2021-10-25T14:23:36Z</time>
      </trkpt>
      <trkpt lat="46.52677" lon="5.47869">
        <ele>456</ele>
        <time>2021-10-25T14:23:40Z</time>
      </trkpt>
      <trkpt lat="46.5262" lon="5.47849">
        <ele>455.6</ele>
        <time>2021-10-25T14:23:46Z</time>
      </trkpt>
      <trkpt lat="46.52611" lon="5.47845">
        <ele>455.4</ele>
        <time>2021-10-25T14:23:47Z</time>
      </trkpt>
      <trkpt lat="46.52569" lon="5.4783">
        <ele>455</ele>
        <time>2021-10-25T14:23:52Z</time>
      </trkpt>
      <trkpt lat="46.52544" lon="5.47823">
        <ele>454.4</ele>
        <time>2021-10-25T14:23:55Z</time>
      </trkpt>
      <trkpt lat="46.52517" lon="5.47814">
        <ele>454</ele>
        <time>2021-10-25T14:23:58Z</time>
      </trkpt>
      <trkpt lat="46.52477" lon="5.47797">
        <ele>453.8</ele>
        <time>2021-10-25T14:24:03Z</time>
      </trkpt>
      <trkpt lat="46.52443" lon="5.47784">
        <ele>453</ele>
        <time>2021-10-25T14:24:07Z</time>
      </trkpt>
      <trkpt lat="46.52392" lon="5.47763">
        <ele>452</ele>
        <time>2021-10-25T14:24:13Z</time>
      </trkpt>
      <trkpt lat="46.52384" lon="5.4776">
        <ele>452</ele>
        <time>2021-10-25T14:24:14Z</time>
      </trkpt>
      <trkpt lat="46.52326" lon="5.47734">
        <ele>451.4</ele>
        <time>2021-10-25T14:24:21Z</time>
      </trkpt>
      <trkpt lat="46.52318" lon="5.4773">
        <ele>451.2</ele>
        <time>2021-10-25T14:24:22Z</time>
      </trkpt>
      <trkpt lat="46.52286" lon="5.47715">
        <ele>451</ele>
        <time>2021-10-25T14:24:26Z</time>
      </trkpt>
      <trkpt lat="46.52229" lon="5.47688">
        <ele>450.6</ele>
        <time>2021-10-25T14:24:33Z</time>
      </trkpt>
      <trkpt lat="46.52206" lon="5.47676">
        <ele>450.8</ele>
        <time>2021-10-25T14:24:36Z</time>
      </trkpt>
      <trkpt lat="46.52153" lon="5.4765">
        <ele>451</ele>
        <time>2021-10-25T14:24:43Z</time>
      </trkpt>
      <trkpt lat="46.52146" lon="5.47646">
        <ele>451</ele>
        <time>2021-10-25T14:24:44Z</time>
      </trkpt>
      <trkpt lat="46.52094" lon="5.4762">
        <ele>451.4</ele>
        <time>2021-10-25T14:24:51Z</time>
      </trkpt>
      <trkpt lat="46.5204" lon="5.47599">
        <ele>450.8</ele>
        <time>2021-10-25T14:24:58Z</time>
      </trkpt>
      <trkpt lat="46.52026" lon="5.47593">
        <ele>450.8</ele>
        <time>2021-10-25T14:25:00Z</time>
      </trkpt>
      <trkpt lat="46.5197" lon="5.4757">
        <ele>450.2</ele>
        <time>2021-10-25T14:25:07Z</time>
      </trkpt>
      <trkpt lat="46.51937" lon="5.47557">
        <ele>450.2</ele>
        <time>2021-10-25T14:25:11Z</time>
      </trkpt>
      <trkpt lat="46.51875" lon="5.47532">
        <ele>450.2</ele>
        <time>2021-10-25T14:25:19Z</time>
      </trkpt>
      <trkpt lat="46.5185" lon="5.47522">
        <ele>450</ele>
        <time>2021-10-25T14:25:22Z</time>
      </trkpt>
      <trkpt lat="46.51797" lon="5.47501">
        <ele>449.8</ele>
        <time>2021-10-25T14:25:29Z</time>
      </trkpt>
      <trkpt lat="46.51757" lon="5.47485">
        <ele>449.8</ele>
        <time>2021-10-25T14:25:34Z</time>
      </trkpt>
      <trkpt lat="46.51732" lon="5.47475">
        <ele>449.8</ele>
        <time>2021-10-25T14:25:37Z</time>
      </trkpt>
      <trkpt lat="46.51699" lon="5.47462">
        <ele>449.6</ele>
        <time>2021-10-25T14:25:41Z</time>
      </trkpt>
      <trkpt lat="46.51642" lon="5.47439">
        <ele>448.8</ele>
        <time>2021-10-25T14:25:48Z</time>
      </trkpt>
      <trkpt lat="46.51634" lon="5.47436">
        <ele>448.4</ele>
        <time>2021-10-25T14:25:49Z</time>
      </trkpt>
      <trkpt lat="46.51578" lon="5.47412">
        <ele>448</ele>
        <time>2021-10-25T14:25:56Z</time>
      </trkpt>
      <trkpt lat="46.51561" lon="5.47406">
        <ele>448</ele>
        <time>2021-10-25T14:25:58Z</time>
      </trkpt>
      <trkpt lat="46.51512" lon="5.47385">
        <ele>447.8</ele>
        <time>2021-10-25T14:26:04Z</time>
      </trkpt>
      <trkpt lat="46.51506" lon="5.47383">
        <ele>447.6</ele>
        <time>2021-10-25T14:26:05Z</time>
      </trkpt>
      <trkpt lat="46.5145" lon="5.4736">
        <ele>447.4</ele>
        <time>2021-10-25T14:26:12Z</time>
      </trkpt>
      <trkpt lat="46.51435" lon="5.47354">
        <ele>447.2</ele>
        <time>2021-10-25T14:26:14Z</time>
      </trkpt>
      <trkpt lat="46.51377" lon="5.47329">
        <ele>447</ele>
        <time>2021-10-25T14:26:21Z</time>
      </trkpt>
      <trkpt lat="46.51377" lon="5.47329">
        <ele>447</ele>
        <time>2021-10-25T14:26:22Z</time>
      </trkpt>
      <trkpt lat="46.51317" lon="5.47307">
        <ele>447.8</ele>
        <time>2021-10-25T14:26:28Z</time>
      </trkpt>
      <trkpt lat="46.51276" lon="5.4729">
        <ele>447.6</ele>
        <time>2021-10-25T14:26:33Z</time>
      </trkpt>
      <trkpt lat="46.51218" lon="5.47267">
        <ele>447.2</ele>
        <time>2021-10-25T14:26:40Z</time>
      </trkpt>
      <trkpt lat="46.51193" lon="5.47257">
        <ele>447</ele>
        <time>2021-10-25T14:26:44Z</time>
      </trkpt>
      <trkpt lat="46.51137" lon="5.47235">
        <ele>446.8</ele>
        <time>2021-10-25T14:26:50Z</time>
      </trkpt>
      <trkpt lat="46.51121" lon="5.47228">
        <ele>446.8</ele>
        <time>2021-10-25T14:26:52Z</time>
      </trkpt>
      <trkpt lat="46.51064" lon="5.47209">
        <ele>446.8</ele>
        <time>2021-10-25T14:26:59Z</time>
      </trkpt>
      <trkpt lat="46.51007" lon="5.47187">
        <ele>447</ele>
        <time>2021-10-25T14:27:06Z</time>
      </trkpt>
      <trkpt lat="46.51" lon="5.47184">
        <ele>447</ele>
        <time>2021-10-25T14:27:07Z</time>
      </trkpt>
      <trkpt lat="46.50947" lon="5.4716">
        <ele>446.8</ele>
        <time>2021-10-25T14:27:14Z</time>
      </trkpt>
      <trkpt lat="46.50939" lon="5.47156">
        <ele>446.8</ele>
        <time>2021-10-25T14:27:15Z</time>
      </trkpt>
      <trkpt lat="46.50879" lon="5.47128">
        <ele>446.8</ele>
        <time>2021-10-25T14:27:23Z</time>
      </trkpt>
      <trkpt lat="46.50872" lon="5.47125">
        <ele>446.8</ele>
        <time>2021-10-25T14:27:24Z</time>
      </trkpt>
      <trkpt lat="46.50857" lon="5.47118">
        <ele>447</ele>
        <time>2021-10-25T14:27:26Z</time>
      </trkpt>
      <trkpt lat="46.50795" lon="5.47093">
        <ele>447</ele>
        <time>2021-10-25T14:27:34Z</time>
      </trkpt>
      <trkpt lat="46.50739" lon="5.4707">
        <ele>446.6</ele>
        <time>2021-10-25T14:27:41Z</time>
      </trkpt>
      <trkpt lat="46.5073" lon="5.47067">
        <ele>446.4</ele>
        <time>2021-10-25T14:27:42Z</time>
      </trkpt>
      <trkpt lat="46.50722" lon="5.47064">
        <ele>446.4</ele>
        <time>2021-10-25T14:27:43Z</time>
      </trkpt>
      <trkpt lat="46.50698" lon="5.47055">
        <ele>446</ele>
        <time>2021-10-25T14:27:46Z</time>
      </trkpt>
      <trkpt lat="46.50675" lon="5.47046">
        <ele>445.8</ele>
        <time>2021-10-25T14:27:49Z</time>
      </trkpt>
      <trkpt lat="46.5065" lon="5.47038">
        <ele>445.4</ele>
        <time>2021-10-25T14:27:53Z</time>
      </trkpt>
      <trkpt lat="46.50601" lon="5.47024">
        <ele>444.8</ele>
        <time>2021-10-25T14:27:58Z</time>
      </trkpt>
      <trkpt lat="46.5056" lon="5.47011">
        <ele>444.4</ele>
        <time>2021-10-25T14:28:03Z</time>
      </trkpt>
      <trkpt lat="46.50528" lon="5.47001">
        <ele>444.2</ele>
        <time>2021-10-25T14:28:07Z</time>
      </trkpt>
      <trkpt lat="46.50475" lon="5.46983">
        <ele>444.6</ele>
        <time>2021-10-25T14:28:14Z</time>
      </trkpt>
      <trkpt lat="46.5046" lon="5.46978">
        <ele>444.6</ele>
        <time>2021-10-25T14:28:16Z</time>
      </trkpt>
      <trkpt lat="46.50402" lon="5.46961">
        <ele>445</ele>
        <time>2021-10-25T14:28:24Z</time>
      </trkpt>
      <trkpt lat="46.50395" lon="5.4696">
        <ele>445.2</ele>
        <time>2021-10-25T14:28:25Z</time>
      </trkpt>
      <trkpt lat="46.50387" lon="5.4696">
        <ele>445.4</ele>
        <time>2021-10-25T14:28:26Z</time>
      </trkpt>
      <trkpt lat="46.50342" lon="5.46961">
        <ele>446.2</ele>
        <time>2021-10-25T14:28:32Z</time>
      </trkpt>
      <trkpt lat="46.50327" lon="5.46962">
        <ele>446.6</ele>
        <time>2021-10-25T14:28:34Z</time>
      </trkpt>
      <trkpt lat="46.50306" lon="5.46963">
        <ele>447.6</ele>
        <time>2021-10-25T14:28:38Z</time>
      </trkpt>
      <trkpt lat="46.50284" lon="5.46963">
        <ele>448</ele>
        <time>2021-10-25T14:28:40Z</time>
      </trkpt>
      <trkpt lat="46.50239" lon="5.46967">
        <ele>448.8</ele>
        <time>2021-10-25T14:28:46Z</time>
      </trkpt>
      <trkpt lat="46.50209" lon="5.46972">
        <ele>449</ele>
        <time>2021-10-25T14:28:50Z</time>
      </trkpt>
      <trkpt lat="46.50164" lon="5.46986">
        <ele>448.8</ele>
        <time>2021-10-25T14:28:56Z</time>
      </trkpt>
      <trkpt lat="46.50105" lon="5.4701">
        <ele>448.2</ele>
        <time>2021-10-25T14:29:04Z</time>
      </trkpt>
      <trkpt lat="46.50089" lon="5.47016">
        <ele>448.2</ele>
        <time>2021-10-25T14:29:06Z</time>
      </trkpt>
      <trkpt lat="46.50032" lon="5.47025">
        <ele>447.8</ele>
        <time>2021-10-25T14:29:13Z</time>
      </trkpt>
      <trkpt lat="46.50023" lon="5.47025">
        <ele>447.6</ele>
        <time>2021-10-25T14:29:14Z</time>
      </trkpt>
      <trkpt lat="46.49979" lon="5.47019">
        <ele>446.6</ele>
        <time>2021-10-25T14:29:19Z</time>
      </trkpt>
      <trkpt lat="46.49919" lon="5.47002">
        <ele>445.6</ele>
        <time>2021-10-25T14:29:26Z</time>
      </trkpt>
      <trkpt lat="46.4991" lon="5.47">
        <ele>445.4</ele>
        <time>2021-10-25T14:29:27Z</time>
      </trkpt>
      <trkpt lat="46.49893" lon="5.46997">
        <ele>445.2</ele>
        <time>2021-10-25T14:29:29Z</time>
      </trkpt>
      <trkpt lat="46.49839" lon="5.46986">
        <ele>445</ele>
        <time>2021-10-25T14:29:35Z</time>
      </trkpt>
      <trkpt lat="46.49821" lon="5.46983">
        <ele>444.8</ele>
        <time>2021-10-25T14:29:37Z</time>
      </trkpt>
      <trkpt lat="46.49804" lon="5.4698">
        <ele>444.4</ele>
        <time>2021-10-25T14:29:39Z</time>
      </trkpt>
      <trkpt lat="46.49742" lon="5.46969">
        <ele>443.6</ele>
        <time>2021-10-25T14:29:46Z</time>
      </trkpt>
      <trkpt lat="46.49706" lon="5.46964">
        <ele>443.2</ele>
        <time>2021-10-25T14:29:50Z</time>
      </trkpt>
      <trkpt lat="46.49697" lon="5.46962">
        <ele>443.2</ele>
        <time>2021-10-25T14:29:51Z</time>
      </trkpt>
      <trkpt lat="46.49651" lon="5.46953">
        <ele>442.2</ele>
        <time>2021-10-25T14:29:56Z</time>
      </trkpt>
      <trkpt lat="46.49622" lon="5.46946">
        <ele>441.6</ele>
        <time>2021-10-25T14:29:59Z</time>
      </trkpt>
      <trkpt lat="46.49603" lon="5.4694">
        <ele>440.8</ele>
        <time>2021-10-25T14:30:01Z</time>
      </trkpt>
      <trkpt lat="46.49565" lon="5.46927">
        <ele>439.6</ele>
        <time>2021-10-25T14:30:05Z</time>
      </trkpt>
      <trkpt lat="46.49538" lon="5.46915">
        <ele>438.8</ele>
        <time>2021-10-25T14:30:08Z</time>
      </trkpt>
      <trkpt lat="46.49529" lon="5.46911">
        <ele>438.6</ele>
        <time>2021-10-25T14:30:09Z</time>
      </trkpt>
      <trkpt lat="46.49475" lon="5.46883">
        <ele>437.8</ele>
        <time>2021-10-25T14:30:15Z</time>
      </trkpt>
      <trkpt lat="46.49475" lon="5.46883">
        <ele>437.6</ele>
        <time>2021-10-25T14:30:16Z</time>
      </trkpt>
      <trkpt lat="46.49429" lon="5.46859">
        <ele>436.6</ele>
        <time>2021-10-25T14:30:20Z</time>
      </trkpt>
      <trkpt lat="46.49401" lon="5.46845">
        <ele>435.4</ele>
        <time>2021-10-25T14:30:24Z</time>
      </trkpt>
      <trkpt lat="46.49355" lon="5.46821">
        <ele>434.2</ele>
        <time>2021-10-25T14:30:28Z</time>
      </trkpt>
      <trkpt lat="46.49336" lon="5.46811">
        <ele>433.6</ele>
        <time>2021-10-25T14:30:30Z</time>
      </trkpt>
      <trkpt lat="46.49317" lon="5.468">
        <ele>433</ele>
        <time>2021-10-25T14:30:32Z</time>
      </trkpt>
      <trkpt lat="46.49287" lon="5.46782">
        <ele>431.8</ele>
        <time>2021-10-25T14:30:35Z</time>
      </trkpt>
      <trkpt lat="46.49267" lon="5.4677">
        <ele>430.8</ele>
        <time>2021-10-25T14:30:37Z</time>
      </trkpt>
      <trkpt lat="46.49247" lon="5.46758">
        <ele>429.4</ele>
        <time>2021-10-25T14:30:39Z</time>
      </trkpt>
      <trkpt lat="46.49226" lon="5.46748">
        <ele>427.6</ele>
        <time>2021-10-25T14:30:41Z</time>
      </trkpt>
      <trkpt lat="46.49205" lon="5.46743">
        <ele>426.6</ele>
        <time>2021-10-25T14:30:43Z</time>
      </trkpt>
      <trkpt lat="46.49193" lon="5.46742">
        <ele>426.2</ele>
        <time>2021-10-25T14:30:44Z</time>
      </trkpt>
      <trkpt lat="46.49182" lon="5.46742">
        <ele>426</ele>
        <time>2021-10-25T14:30:45Z</time>
      </trkpt>
      <trkpt lat="46.4917" lon="5.46745">
        <ele>425.6</ele>
        <time>2021-10-25T14:30:46Z</time>
      </trkpt>
      <trkpt lat="46.49158" lon="5.46749">
        <ele>425</ele>
        <time>2021-10-25T14:30:47Z</time>
      </trkpt>
      <trkpt lat="46.49135" lon="5.46763">
        <ele>424.2</ele>
        <time>2021-10-25T14:30:49Z</time>
      </trkpt>
      <trkpt lat="46.49124" lon="5.46771">
        <ele>423.4</ele>
        <time>2021-10-25T14:30:50Z</time>
      </trkpt>
      <trkpt lat="46.49103" lon="5.4679">
        <ele>422.4</ele>
        <time>2021-10-25T14:30:52Z</time>
      </trkpt>
      <trkpt lat="46.49092" lon="5.468">
        <ele>422</ele>
        <time>2021-10-25T14:30:53Z</time>
      </trkpt>
      <trkpt lat="46.49081" lon="5.46809">
        <ele>421</ele>
        <time>2021-10-25T14:30:54Z</time>
      </trkpt>
      <trkpt lat="46.49059" lon="5.46828">
        <ele>419.2</ele>
        <time>2021-10-25T14:30:56Z</time>
      </trkpt>
      <trkpt lat="46.49037" lon="5.46846">
        <ele>418</ele>
        <time>2021-10-25T14:30:58Z</time>
      </trkpt>
      <trkpt lat="46.49015" lon="5.46866">
        <ele>416.8</ele>
        <time>2021-10-25T14:31:00Z</time>
      </trkpt>
      <trkpt lat="46.48992" lon="5.46887">
        <ele>415.8</ele>
        <time>2021-10-25T14:31:02Z</time>
      </trkpt>
      <trkpt lat="46.48969" lon="5.46905">
        <ele>414.8</ele>
        <time>2021-10-25T14:31:04Z</time>
      </trkpt>
      <trkpt lat="46.48956" lon="5.46912">
        <ele>414</ele>
        <time>2021-10-25T14:31:05Z</time>
      </trkpt>
      <trkpt lat="46.48956" lon="5.46912">
        <ele>413</ele>
        <time>2021-10-25T14:31:06Z</time>
      </trkpt>
      <trkpt lat="46.4893" lon="5.46918">
        <ele>412.4</ele>
        <time>2021-10-25T14:31:07Z</time>
      </trkpt>
      <trkpt lat="46.48917" lon="5.46918">
        <ele>411.8</ele>
        <time>2021-10-25T14:31:08Z</time>
      </trkpt>
      <trkpt lat="46.48904" lon="5.46917">
        <ele>410</ele>
        <time>2021-10-25T14:31:10Z</time>
      </trkpt>
      <trkpt lat="46.48878" lon="5.46911">
        <ele>409</ele>
        <time>2021-10-25T14:31:11Z</time>
      </trkpt>
      <trkpt lat="46.48865" lon="5.46907">
        <ele>407.8</ele>
        <time>2021-10-25T14:31:12Z</time>
      </trkpt>
      <trkpt lat="46.48865" lon="5.46907">
        <ele>406.6</ele>
        <time>2021-10-25T14:31:13Z</time>
      </trkpt>
      <trkpt lat="46.4884" lon="5.46897">
        <ele>406.2</ele>
        <time>2021-10-25T14:31:14Z</time>
      </trkpt>
      <trkpt lat="46.48828" lon="5.4689">
        <ele>405.4</ele>
        <time>2021-10-25T14:31:15Z</time>
      </trkpt>
      <trkpt lat="46.48804" lon="5.46877">
        <ele>403.8</ele>
        <time>2021-10-25T14:31:17Z</time>
      </trkpt>
      <trkpt lat="46.48781" lon="5.46863">
        <ele>401.8</ele>
        <time>2021-10-25T14:31:19Z</time>
      </trkpt>
      <trkpt lat="46.4877" lon="5.46856">
        <ele>400.6</ele>
        <time>2021-10-25T14:31:20Z</time>
      </trkpt>
      <trkpt lat="46.48748" lon="5.46843">
        <ele>399</ele>
        <time>2021-10-25T14:31:22Z</time>
      </trkpt>
      <trkpt lat="46.48714" lon="5.46822">
        <ele>398</ele>
        <time>2021-10-25T14:31:25Z</time>
      </trkpt>
      <trkpt lat="46.48695" lon="5.46811">
        <ele>396.8</ele>
        <time>2021-10-25T14:31:27Z</time>
      </trkpt>
      <trkpt lat="46.48661" lon="5.4679">
        <ele>395.8</ele>
        <time>2021-10-25T14:31:30Z</time>
      </trkpt>
      <trkpt lat="46.48642" lon="5.46778">
        <ele>395</ele>
        <time>2021-10-25T14:31:32Z</time>
      </trkpt>
      <trkpt lat="46.48629" lon="5.46771">
        <ele>394.4</ele>
        <time>2021-10-25T14:31:33Z</time>
      </trkpt>
      <trkpt lat="46.486" lon="5.46754">
        <ele>393</ele>
        <time>2021-10-25T14:31:36Z</time>
      </trkpt>
      <trkpt lat="46.48558" lon="5.46729">
        <ele>391.8</ele>
        <time>2021-10-25T14:31:40Z</time>
      </trkpt>
      <trkpt lat="46.48549" lon="5.46723">
        <ele>391.8</ele>
        <time>2021-10-25T14:31:41Z</time>
      </trkpt>
      <trkpt lat="46.4851" lon="5.467">
        <ele>390.8</ele>
        <time>2021-10-25T14:31:45Z</time>
      </trkpt>
      <trkpt lat="46.48482" lon="5.46683">
        <ele>389.8</ele>
        <time>2021-10-25T14:31:48Z</time>
      </trkpt>
      <trkpt lat="46.48473" lon="5.46678">
        <ele>389.6</ele>
        <time>2021-10-25T14:31:49Z</time>
      </trkpt>
      <trkpt lat="46.4842" lon="5.46646">
        <ele>389.2</ele>
        <time>2021-10-25T14:31:55Z</time>
      </trkpt>
      <trkpt lat="46.48395" lon="5.46631">
        <ele>388.8</ele>
        <time>2021-10-25T14:31:58Z</time>
      </trkpt>
      <trkpt lat="46.48386" lon="5.46626">
        <ele>388.8</ele>
        <time>2021-10-25T14:31:59Z</time>
      </trkpt>
      <trkpt lat="46.48328" lon="5.46594">
        <ele>388</ele>
        <time>2021-10-25T14:32:06Z</time>
      </trkpt>
      <trkpt lat="46.48277" lon="5.46584">
        <ele>388.6</ele>
        <time>2021-10-25T14:32:12Z</time>
      </trkpt>
      <trkpt lat="46.48221" lon="5.46574">
        <ele>389</ele>
        <time>2021-10-25T14:32:19Z</time>
      </trkpt>
      <trkpt lat="46.48197" lon="5.4657">
        <ele>389</ele>
        <time>2021-10-25T14:32:22Z</time>
      </trkpt>
      <trkpt lat="46.48143" lon="5.4656">
        <ele>389</ele>
        <time>2021-10-25T14:32:29Z</time>
      </trkpt>
      <trkpt lat="46.48114" lon="5.46555">
        <ele>389.2</ele>
        <time>2021-10-25T14:32:33Z</time>
      </trkpt>
      <trkpt lat="46.4806" lon="5.46546">
        <ele>389.4</ele>
        <time>2021-10-25T14:32:40Z</time>
      </trkpt>
      <trkpt lat="46.4806" lon="5.46546">
        <ele>389.4</ele>
        <time>2021-10-25T14:32:41Z</time>
      </trkpt>
      <trkpt lat="46.48001" lon="5.46535">
        <ele>389.6</ele>
        <time>2021-10-25T14:32:48Z</time>
      </trkpt>
      <trkpt lat="46.47994" lon="5.46534">
        <ele>389.8</ele>
        <time>2021-10-25T14:32:49Z</time>
      </trkpt>
      <trkpt lat="46.47933" lon="5.46522">
        <ele>389.8</ele>
        <time>2021-10-25T14:32:57Z</time>
      </trkpt>
      <trkpt lat="46.4791" lon="5.46518">
        <ele>389.8</ele>
        <time>2021-10-25T14:33:00Z</time>
      </trkpt>
      <trkpt lat="46.47857" lon="5.46509">
        <ele>389.8</ele>
        <time>2021-10-25T14:33:07Z</time>
      </trkpt>
      <trkpt lat="46.47825" lon="5.46503">
        <ele>389.6</ele>
        <time>2021-10-25T14:33:11Z</time>
      </trkpt>
      <trkpt lat="46.47786" lon="5.46496">
        <ele>389.4</ele>
        <time>2021-10-25T14:33:16Z</time>
      </trkpt>
      <trkpt lat="46.47731" lon="5.46486">
        <ele>389.2</ele>
        <time>2021-10-25T14:33:23Z</time>
      </trkpt>
      <trkpt lat="46.47707" lon="5.46482">
        <ele>389.2</ele>
        <time>2021-10-25T14:33:26Z</time>
      </trkpt>
      <trkpt lat="46.47653" lon="5.46472">
        <ele>388.8</ele>
        <time>2021-10-25T14:33:33Z</time>
      </trkpt>
      <trkpt lat="46.47645" lon="5.4647">
        <ele>388.8</ele>
        <time>2021-10-25T14:33:34Z</time>
      </trkpt>
      <trkpt lat="46.47588" lon="5.4646">
        <ele>388.4</ele>
        <time>2021-10-25T14:33:41Z</time>
      </trkpt>
      <trkpt lat="46.47564" lon="5.46456">
        <ele>388</ele>
        <time>2021-10-25T14:33:44Z</time>
      </trkpt>
      <trkpt lat="46.47564" lon="5.46456">
        <ele>387.8</ele>
        <time>2021-10-25T14:33:45Z</time>
      </trkpt>
      <trkpt lat="46.47506" lon="5.46446">
        <ele>386.8</ele>
        <time>2021-10-25T14:33:51Z</time>
      </trkpt>
      <trkpt lat="46.47472" lon="5.46439">
        <ele>386.4</ele>
        <time>2021-10-25T14:33:55Z</time>
      </trkpt>
      <trkpt lat="46.47411" lon="5.46429">
        <ele>385.6</ele>
        <time>2021-10-25T14:34:02Z</time>
      </trkpt>
      <trkpt lat="46.47394" lon="5.46426">
        <ele>385.2</ele>
        <time>2021-10-25T14:34:04Z</time>
      </trkpt>
      <trkpt lat="46.47332" lon="5.46414">
        <ele>384.6</ele>
        <time>2021-10-25T14:34:11Z</time>
      </trkpt>
      <trkpt lat="46.47323" lon="5.46413">
        <ele>384.6</ele>
        <time>2021-10-25T14:34:12Z</time>
      </trkpt>
      <trkpt lat="46.47315" lon="5.46411">
        <ele>384.6</ele>
        <time>2021-10-25T14:34:13Z</time>
      </trkpt>
      <trkpt lat="46.47253" lon="5.464">
        <ele>384</ele>
        <time>2021-10-25T14:34:20Z</time>
      </trkpt>
      <trkpt lat="46.47226" lon="5.46395">
        <ele>383.6</ele>
        <time>2021-10-25T14:34:23Z</time>
      </trkpt>
      <trkpt lat="46.47209" lon="5.46392">
        <ele>383.4</ele>
        <time>2021-10-25T14:34:25Z</time>
      </trkpt>
      <trkpt lat="46.47158" lon="5.46383">
        <ele>382.8</ele>
        <time>2021-10-25T14:34:31Z</time>
      </trkpt>
      <trkpt lat="46.47141" lon="5.4638">
        <ele>382</ele>
        <time>2021-10-25T14:34:33Z</time>
      </trkpt>
      <trkpt lat="46.47091" lon="5.46371">
        <ele>381.8</ele>
        <time>2021-10-25T14:34:39Z</time>
      </trkpt>
      <trkpt lat="46.47075" lon="5.46369">
        <ele>381.6</ele>
        <time>2021-10-25T14:34:41Z</time>
      </trkpt>
      <trkpt lat="46.47043" lon="5.46363">
        <ele>381.4</ele>
        <time>2021-10-25T14:34:45Z</time>
      </trkpt>
      <trkpt lat="46.47018" lon="5.46358">
        <ele>381.4</ele>
        <time>2021-10-25T14:34:48Z</time>
      </trkpt>
      <trkpt lat="46.46971" lon="5.4635">
        <ele>381.4</ele>
        <time>2021-10-25T14:34:54Z</time>
      </trkpt>
      <trkpt lat="46.46915" lon="5.4634">
        <ele>380.8</ele>
        <time>2021-10-25T14:35:01Z</time>
      </trkpt>
      <trkpt lat="46.46883" lon="5.46334">
        <ele>380.8</ele>
        <time>2021-10-25T14:35:05Z</time>
      </trkpt>
      <trkpt lat="46.46852" lon="5.46329">
        <ele>380.6</ele>
        <time>2021-10-25T14:35:09Z</time>
      </trkpt>
      <trkpt lat="46.46798" lon="5.46319">
        <ele>380.6</ele>
        <time>2021-10-25T14:35:16Z</time>
      </trkpt>
      <trkpt lat="46.46744" lon="5.46309">
        <ele>380.8</ele>
        <time>2021-10-25T14:35:23Z</time>
      </trkpt>
      <trkpt lat="46.46704" lon="5.46303">
        <ele>380.6</ele>
        <time>2021-10-25T14:35:28Z</time>
      </trkpt>
      <trkpt lat="46.46656" lon="5.46294">
        <ele>379.6</ele>
        <time>2021-10-25T14:35:34Z</time>
      </trkpt>
      <trkpt lat="46.4664" lon="5.46291">
        <ele>379.2</ele>
        <time>2021-10-25T14:35:36Z</time>
      </trkpt>
      <trkpt lat="46.46581" lon="5.4628">
        <ele>379.2</ele>
        <time>2021-10-25T14:35:43Z</time>
      </trkpt>
      <trkpt lat="46.46565" lon="5.46277">
        <ele>379.4</ele>
        <time>2021-10-25T14:35:45Z</time>
      </trkpt>
      <trkpt lat="46.46509" lon="5.46267">
        <ele>380</ele>
        <time>2021-10-25T14:35:52Z</time>
      </trkpt>
      <trkpt lat="46.46453" lon="5.46258">
        <ele>380</ele>
        <time>2021-10-25T14:35:59Z</time>
      </trkpt>
      <trkpt lat="46.46398" lon="5.46248">
        <ele>380</ele>
        <time>2021-10-25T14:36:06Z</time>
      </trkpt>
      <trkpt lat="46.46367" lon="5.46242">
        <ele>379.8</ele>
        <time>2021-10-25T14:36:10Z</time>
      </trkpt>
      <trkpt lat="46.46312" lon="5.46233">
        <ele>380</ele>
        <time>2021-10-25T14:36:17Z</time>
      </trkpt>
      <trkpt lat="46.4628" lon="5.46227">
        <ele>380</ele>
        <time>2021-10-25T14:36:21Z</time>
      </trkpt>
      <trkpt lat="46.46226" lon="5.46217">
        <ele>379.4</ele>
        <time>2021-10-25T14:36:28Z</time>
      </trkpt>
      <trkpt lat="46.46204" lon="5.46213">
        <ele>379.2</ele>
        <time>2021-10-25T14:36:31Z</time>
      </trkpt>
      <trkpt lat="46.46143" lon="5.46202">
        <ele>379.2</ele>
        <time>2021-10-25T14:36:39Z</time>
      </trkpt>
      <trkpt lat="46.46112" lon="5.46197">
        <ele>379</ele>
        <time>2021-10-25T14:36:43Z</time>
      </trkpt>
      <trkpt lat="46.46052" lon="5.46186">
        <ele>379.4</ele>
        <time>2021-10-25T14:36:51Z</time>
      </trkpt>
      <trkpt lat="46.45992" lon="5.46174">
        <ele>379.6</ele>
        <time>2021-10-25T14:36:59Z</time>
      </trkpt>
      <trkpt lat="46.45961" lon="5.4617">
        <ele>379.4</ele>
        <time>2021-10-25T14:37:03Z</time>
      </trkpt>
      <trkpt lat="46.45907" lon="5.46159">
        <ele>379.2</ele>
        <time>2021-10-25T14:37:10Z</time>
      </trkpt>
      <trkpt lat="46.45877" lon="5.46154">
        <ele>379.4</ele>
        <time>2021-10-25T14:37:14Z</time>
      </trkpt>
      <trkpt lat="46.45869" lon="5.46153">
        <ele>379.4</ele>
        <time>2021-10-25T14:37:15Z</time>
      </trkpt>
      <trkpt lat="46.45808" lon="5.46142">
        <ele>379.4</ele>
        <time>2021-10-25T14:37:23Z</time>
      </trkpt>
      <trkpt lat="46.45786" lon="5.46137">
        <ele>379.4</ele>
        <time>2021-10-25T14:37:26Z</time>
      </trkpt>
      <trkpt lat="46.45726" lon="5.46126">
        <ele>379.4</ele>
        <time>2021-10-25T14:37:34Z</time>
      </trkpt>
      <trkpt lat="46.45718" lon="5.46125">
        <ele>379.4</ele>
        <time>2021-10-25T14:37:35Z</time>
      </trkpt>
      <trkpt lat="46.45667" lon="5.46116">
        <ele>379.6</ele>
        <time>2021-10-25T14:37:42Z</time>
      </trkpt>
      <trkpt lat="46.45608" lon="5.46106">
        <ele>380.2</ele>
        <time>2021-10-25T14:37:50Z</time>
      </trkpt>
      <trkpt lat="46.45588" lon="5.46102">
        <ele>380.6</ele>
        <time>2021-10-25T14:37:53Z</time>
      </trkpt>
      <trkpt lat="46.45574" lon="5.46098">
        <ele>381</ele>
        <time>2021-10-25T14:37:55Z</time>
      </trkpt>
      <trkpt lat="46.45533" lon="5.46092">
        <ele>381.8</ele>
        <time>2021-10-25T14:38:01Z</time>
      </trkpt>
      <trkpt lat="46.45526" lon="5.46091">
        <ele>382</ele>
        <time>2021-10-25T14:38:02Z</time>
      </trkpt>
      <trkpt lat="46.45493" lon="5.46085">
        <ele>383</ele>
        <time>2021-10-25T14:38:07Z</time>
      </trkpt>
      <trkpt lat="46.45487" lon="5.46084">
        <ele>383.2</ele>
        <time>2021-10-25T14:38:08Z</time>
      </trkpt>
      <trkpt lat="46.45445" lon="5.46077">
        <ele>384.2</ele>
        <time>2021-10-25T14:38:15Z</time>
      </trkpt>
      <trkpt lat="46.45433" lon="5.46076">
        <ele>384.4</ele>
        <time>2021-10-25T14:38:17Z</time>
      </trkpt>
      <trkpt lat="46.45383" lon="5.46067">
        <ele>385.6</ele>
        <time>2021-10-25T14:38:25Z</time>
      </trkpt>
      <trkpt lat="46.45327" lon="5.46057">
        <ele>386.6</ele>
        <time>2021-10-25T14:38:34Z</time>
      </trkpt>
      <trkpt lat="46.45321" lon="5.46055">
        <ele>386.6</ele>
        <time>2021-10-25T14:38:35Z</time>
      </trkpt>
      <trkpt lat="46.45267" lon="5.4605">
        <ele>386.4</ele>
        <time>2021-10-25T14:38:44Z</time>
      </trkpt>
      <trkpt lat="46.45262" lon="5.46049">
        <ele>386.6</ele>
        <time>2021-10-25T14:38:45Z</time>
      </trkpt>
      <trkpt lat="46.45256" lon="5.46048">
        <ele>386.6</ele>
        <time>2021-10-25T14:38:46Z</time>
      </trkpt>
      <trkpt lat="46.45249" lon="5.4604">
        <ele>386.6</ele>
        <time>2021-10-25T14:38:48Z</time>
      </trkpt>
      <trkpt lat="46.4525" lon="5.4603">
        <ele>386.6</ele>
        <time>2021-10-25T14:38:50Z</time>
      </trkpt>
      <trkpt lat="46.45252" lon="5.46026">
        <ele>386.6</ele>
        <time>2021-10-25T14:38:51Z</time>
      </trkpt>
      <trkpt lat="46.45267" lon="5.45996">
        <ele>386.4</ele>
        <time>2021-10-25T14:38:56Z</time>
      </trkpt>
      <trkpt lat="46.45277" lon="5.45957">
        <ele>385.8</ele>
        <time>2021-10-25T14:39:00Z</time>
      </trkpt>
      <trkpt lat="46.45282" lon="5.45934">
        <ele>384.4</ele>
        <time>2021-10-25T14:39:02Z</time>
      </trkpt>
      <trkpt lat="46.45287" lon="5.4591">
        <ele>383.4</ele>
        <time>2021-10-25T14:39:04Z</time>
      </trkpt>
      <trkpt lat="46.4529" lon="5.45898">
        <ele>382.8</ele>
        <time>2021-10-25T14:39:05Z</time>
      </trkpt>
      <trkpt lat="46.45293" lon="5.45886">
        <ele>382</ele>
        <time>2021-10-25T14:39:06Z</time>
      </trkpt>
      <trkpt lat="46.45301" lon="5.45862">
        <ele>380.6</ele>
        <time>2021-10-25T14:39:08Z</time>
      </trkpt>
      <trkpt lat="46.45312" lon="5.45828">
        <ele>379.4</ele>
        <time>2021-10-25T14:39:11Z</time>
      </trkpt>
      <trkpt lat="46.45324" lon="5.45772">
        <ele>378.8</ele>
        <time>2021-10-25T14:39:16Z</time>
      </trkpt>
      <trkpt lat="46.45335" lon="5.45704">
        <ele>378.4</ele>
        <time>2021-10-25T14:39:22Z</time>
      </trkpt>
      <trkpt lat="46.45337" lon="5.45692">
        <ele>378.4</ele>
        <time>2021-10-25T14:39:23Z</time>
      </trkpt>
      <trkpt lat="46.45346" lon="5.45637">
        <ele>378.2</ele>
        <time>2021-10-25T14:39:28Z</time>
      </trkpt>
      <trkpt lat="46.4535" lon="5.45627">
        <ele>378.2</ele>
        <time>2021-10-25T14:39:29Z</time>
      </trkpt>
      <trkpt lat="46.45354" lon="5.45619">
        <ele>378</ele>
        <time>2021-10-25T14:39:30Z</time>
      </trkpt>
      <trkpt lat="46.45366" lon="5.45606">
        <ele>378</ele>
        <time>2021-10-25T14:39:32Z</time>
      </trkpt>
      <trkpt lat="46.4538" lon="5.45598">
        <ele>378.2</ele>
        <time>2021-10-25T14:39:34Z</time>
      </trkpt>
      <trkpt lat="46.45392" lon="5.45596">
        <ele>378.4</ele>
        <time>2021-10-25T14:39:36Z</time>
      </trkpt>
      <trkpt lat="46.45408" lon="5.45598">
        <ele>378.8</ele>
        <time>2021-10-25T14:39:38Z</time>
      </trkpt>
      <trkpt lat="46.45419" lon="5.45604">
        <ele>379</ele>
        <time>2021-10-25T14:39:40Z</time>
      </trkpt>
      <trkpt lat="46.45443" lon="5.45623">
        <ele>379.6</ele>
        <time>2021-10-25T14:39:44Z</time>
      </trkpt>
      <trkpt lat="46.45454" lon="5.45632">
        <ele>380</ele>
        <time>2021-10-25T14:39:46Z</time>
      </trkpt>
      <trkpt lat="46.45478" lon="5.4565">
        <ele>380.8</ele>
        <time>2021-10-25T14:39:50Z</time>
      </trkpt>
      <trkpt lat="46.45502" lon="5.45665">
        <ele>381.4</ele>
        <time>2021-10-25T14:39:54Z</time>
      </trkpt>
      <trkpt lat="46.45517" lon="5.45674">
        <ele>381.8</ele>
        <time>2021-10-25T14:39:57Z</time>
      </trkpt>
      <trkpt lat="46.45539" lon="5.45685">
        <ele>382.6</ele>
        <time>2021-10-25T14:40:01Z</time>
      </trkpt>
      <trkpt lat="46.45551" lon="5.45691">
        <ele>383</ele>
        <time>2021-10-25T14:40:03Z</time>
      </trkpt>
      <trkpt lat="46.45566" lon="5.45697">
        <ele>384</ele>
        <time>2021-10-25T14:40:06Z</time>
      </trkpt>
      <trkpt lat="46.45575" lon="5.457">
        <ele>385.2</ele>
        <time>2021-10-25T14:40:08Z</time>
      </trkpt>
      <trkpt lat="46.4559" lon="5.45703">
        <ele>386.2</ele>
        <time>2021-10-25T14:40:11Z</time>
      </trkpt>
      <trkpt lat="46.45605" lon="5.45702">
        <ele>387</ele>
        <time>2021-10-25T14:40:14Z</time>
      </trkpt>
      <trkpt lat="46.4561" lon="5.45701">
        <ele>387.2</ele>
        <time>2021-10-25T14:40:15Z</time>
      </trkpt>
      <trkpt lat="46.4564" lon="5.4569">
        <ele>388</ele>
        <time>2021-10-25T14:40:21Z</time>
      </trkpt>
      <trkpt lat="46.45645" lon="5.45687">
        <ele>388.4</ele>
        <time>2021-10-25T14:40:22Z</time>
      </trkpt>
      <trkpt lat="46.4567" lon="5.45673">
        <ele>389.6</ele>
        <time>2021-10-25T14:40:27Z</time>
      </trkpt>
      <trkpt lat="46.4568" lon="5.45666">
        <ele>389.8</ele>
        <time>2021-10-25T14:40:29Z</time>
      </trkpt>
      <trkpt lat="46.45699" lon="5.45654">
        <ele>390.6</ele>
        <time>2021-10-25T14:40:33Z</time>
      </trkpt>
      <trkpt lat="46.45724" lon="5.45639">
        <ele>391.8</ele>
        <time>2021-10-25T14:40:38Z</time>
      </trkpt>
      <trkpt lat="46.45775" lon="5.4561">
        <ele>392.2</ele>
        <time>2021-10-25T14:40:47Z</time>
      </trkpt>
      <trkpt lat="46.45832" lon="5.45578">
        <ele>392</ele>
        <time>2021-10-25T14:40:56Z</time>
      </trkpt>
      <trkpt lat="46.45876" lon="5.45553">
        <ele>391.6</ele>
        <time>2021-10-25T14:41:02Z</time>
      </trkpt>
      <trkpt lat="46.45901" lon="5.45539">
        <ele>390.4</ele>
        <time>2021-10-25T14:41:05Z</time>
      </trkpt>
      <trkpt lat="46.45926" lon="5.45524">
        <ele>389</ele>
        <time>2021-10-25T14:41:08Z</time>
      </trkpt>
      <trkpt lat="46.45935" lon="5.4552">
        <ele>389</ele>
        <time>2021-10-25T14:41:09Z</time>
      </trkpt>
      <trkpt lat="46.45952" lon="5.4551">
        <ele>388</ele>
        <time>2021-10-25T14:41:11Z</time>
      </trkpt>
      <trkpt lat="46.45985" lon="5.45491">
        <ele>386.8</ele>
        <time>2021-10-25T14:41:15Z</time>
      </trkpt>
      <trkpt lat="46.46018" lon="5.45472">
        <ele>385.8</ele>
        <time>2021-10-25T14:41:19Z</time>
      </trkpt>
      <trkpt lat="46.46026" lon="5.45467">
        <ele>385.6</ele>
        <time>2021-10-25T14:41:20Z</time>
      </trkpt>
      <trkpt lat="46.46083" lon="5.45432">
        <ele>385.6</ele>
        <time>2021-10-25T14:41:27Z</time>
      </trkpt>
      <trkpt lat="46.46099" lon="5.45422">
        <ele>385.4</ele>
        <time>2021-10-25T14:41:29Z</time>
      </trkpt>
      <trkpt lat="46.4614" lon="5.45396">
        <ele>385</ele>
        <time>2021-10-25T14:41:34Z</time>
      </trkpt>
      <trkpt lat="46.46164" lon="5.4538">
        <ele>384.4</ele>
        <time>2021-10-25T14:41:37Z</time>
      </trkpt>
      <trkpt lat="46.46188" lon="5.45362">
        <ele>383.8</ele>
        <time>2021-10-25T14:41:40Z</time>
      </trkpt>
      <trkpt lat="46.46235" lon="5.45329">
        <ele>383.4</ele>
        <time>2021-10-25T14:41:46Z</time>
      </trkpt>
      <trkpt lat="46.46286" lon="5.45288">
        <ele>383</ele>
        <time>2021-10-25T14:41:53Z</time>
      </trkpt>
      <trkpt lat="46.46301" lon="5.45276">
        <ele>383</ele>
        <time>2021-10-25T14:41:55Z</time>
      </trkpt>
      <trkpt lat="46.46323" lon="5.45258">
        <ele>382.8</ele>
        <time>2021-10-25T14:41:58Z</time>
      </trkpt>
      <trkpt lat="46.46367" lon="5.45228">
        <ele>382.6</ele>
        <time>2021-10-25T14:42:04Z</time>
      </trkpt>
      <trkpt lat="46.46404" lon="5.45211">
        <ele>382.6</ele>
        <time>2021-10-25T14:42:09Z</time>
      </trkpt>
      <trkpt lat="46.46411" lon="5.4521">
        <ele>382.6</ele>
        <time>2021-10-25T14:42:10Z</time>
      </trkpt>
      <trkpt lat="46.46438" lon="5.45215">
        <ele>382.6</ele>
        <time>2021-10-25T14:42:14Z</time>
      </trkpt>
    </trkseg>
  </trk>
</gpx>